<?xml version='1.0' encoding='UTF-8'?><gpx version="1.1" creator="JPX - https://github.com/jenetics/jpx" xmlns="http://www.topografix.com/GPX/1/1"><trk><trkseg><trkpt lat="45.6279231" lon="9.0310289"><ele>218.0</ele><time>2026-03-27T15:09:47.343Z</time></trkpt><trkpt lat="45.6278549" lon="9.0310617"><ele>218.0</ele><time>2026-03-27T15:09:55.343Z</time></trkpt><trkpt lat="45.6277741" lon="9.0310693"><ele>218.0</ele><time>2026-03-27T15:09:59.342Z</time></trkpt><trkpt lat="45.6277038" lon="9.0310418"><ele>218.0</ele><time>2026-03-27T15:10:01.343Z</time></trkpt><trkpt lat="45.627628" lon="9.0310224"><ele>218.0</ele><time>2026-03-27T15:10:03.342Z</time></trkpt><trkpt lat="45.6275486" lon="9.0310054"><ele>218.0</ele><time>2026-03-27T15:10:06.342Z</time></trkpt><trkpt lat="45.6274834" lon="9.0309967"><ele>218.0</ele><time>2026-03-27T15:10:08.342Z</time></trkpt><trkpt lat="45.6273972" lon="9.0309766"><ele>217.8</ele><time>2026-03-27T15:10:10.344Z</time></trkpt><trkpt lat="45.6273035" lon="9.0309622"><ele>217.60000000000002</ele><time>2026-03-27T15:10:12.343Z</time></trkpt><trkpt lat="45.6272014" lon="9.0309645"><ele>217.39999999999998</ele><time>2026-03-27T15:10:14.343Z</time></trkpt><trkpt lat="45.6271036" lon="9.0309651"><ele>217.2</ele><time>2026-03-27T15:10:16.344Z</time></trkpt><trkpt lat="45.6270045" lon="9.0309673"><ele>217.0</ele><time>2026-03-27T15:10:18.342Z</time></trkpt><trkpt lat="45.626904" lon="9.0309641"><ele>217.0</ele><time>2026-03-27T15:10:20.343Z</time></trkpt><trkpt lat="45.6267995" lon="9.0309517"><ele>217.0</ele><time>2026-03-27T15:10:22.343Z</time></trkpt><trkpt lat="45.6266953" lon="9.030944"><ele>217.0</ele><time>2026-03-27T15:10:24.343Z</time></trkpt><trkpt lat="45.6265982" lon="9.0309306"><ele>217.0</ele><time>2026-03-27T15:10:26.343Z</time></trkpt><trkpt lat="45.6264972" lon="9.0308975"><ele>217.0</ele><time>2026-03-27T15:10:28.344Z</time></trkpt><trkpt lat="45.6264348" lon="9.0308745"><ele>217.0</ele><time>2026-03-27T15:10:29.342Z</time></trkpt><trkpt lat="45.6263138" lon="9.030867"><ele>217.0</ele><time>2026-03-27T15:10:31.343Z</time></trkpt><trkpt lat="45.6262389" lon="9.0308724"><ele>217.0</ele><time>2026-03-27T15:10:33.342Z</time></trkpt><trkpt lat="45.6261868" lon="9.0307751"><ele>217.0</ele><time>2026-03-27T15:10:38.343Z</time></trkpt><trkpt lat="45.6261908" lon="9.0306584"><ele>217.0</ele><time>2026-03-27T15:10:40.343Z</time></trkpt><trkpt lat="45.6261911" lon="9.0304932"><ele>217.16666666666666</ele><time>2026-03-27T15:10:42.343Z</time></trkpt><trkpt lat="45.6261899" lon="9.030355"><ele>217.33333333333331</ele><time>2026-03-27T15:10:44.342Z</time></trkpt><trkpt lat="45.6261859" lon="9.0302458"><ele>217.5</ele><time>2026-03-27T15:10:46.343Z</time></trkpt><trkpt lat="45.6262238" lon="9.0301342"><ele>217.66666666666669</ele><time>2026-03-27T15:10:48.342Z</time></trkpt><trkpt lat="45.6263073" lon="9.0300551"><ele>217.83333333333334</ele><time>2026-03-27T15:10:50.343Z</time></trkpt><trkpt lat="45.6263579" lon="9.0299992"><ele>218.0</ele><time>2026-03-27T15:10:51.343Z</time></trkpt><trkpt lat="45.6264789" lon="9.0299723"><ele>218.00000000000003</ele><time>2026-03-27T15:10:53.342Z</time></trkpt><trkpt lat="45.6265418" lon="9.0300234"><ele>218.0</ele><time>2026-03-27T15:10:54.344Z</time></trkpt><trkpt lat="45.6266094" lon="9.0300557"><ele>218.0</ele><time>2026-03-27T15:10:56.343Z</time></trkpt><trkpt lat="45.6267131" lon="9.0300541"><ele>218.0</ele><time>2026-03-27T15:10:58.344Z</time></trkpt><trkpt lat="45.6268012" lon="9.030068"><ele>218.00000000000003</ele><time>2026-03-27T15:11:00.343Z</time></trkpt><trkpt lat="45.626868" lon="9.03006"><ele>218.0</ele><time>2026-03-27T15:11:01.342Z</time></trkpt><trkpt lat="45.6269856" lon="9.0300583"><ele>217.2</ele><time>2026-03-27T15:11:03.344Z</time></trkpt><trkpt lat="45.6270369" lon="9.0301159"><ele>216.4</ele><time>2026-03-27T15:11:04.343Z</time></trkpt><trkpt lat="45.6271412" lon="9.0301692"><ele>215.59999999999997</ele><time>2026-03-27T15:11:06.344Z</time></trkpt><trkpt lat="45.6272757" lon="9.0300767"><ele>214.79999999999998</ele><time>2026-03-27T15:11:08.343Z</time></trkpt><trkpt lat="45.6273755" lon="9.0300738"><ele>214.0</ele><time>2026-03-27T15:11:10.342Z</time></trkpt><trkpt lat="45.6274639" lon="9.030068"><ele>213.99999999999997</ele><time>2026-03-27T15:11:12.342Z</time></trkpt><trkpt lat="45.6275384" lon="9.0300661"><ele>214.0</ele><time>2026-03-27T15:11:15.343Z</time></trkpt><trkpt lat="45.6276141" lon="9.0300751"><ele>214.0</ele><time>2026-03-27T15:11:18.344Z</time></trkpt><trkpt lat="45.627691" lon="9.0300786"><ele>214.0</ele><time>2026-03-27T15:11:20.342Z</time></trkpt><trkpt lat="45.6277672" lon="9.0300885"><ele>213.99999999999997</ele><time>2026-03-27T15:11:22.343Z</time></trkpt><trkpt lat="45.6278628" lon="9.030082"><ele>214.0</ele><time>2026-03-27T15:11:24.343Z</time></trkpt><trkpt lat="45.6279563" lon="9.0300711"><ele>214.6</ele><time>2026-03-27T15:11:25.343Z</time></trkpt><trkpt lat="45.6280206" lon="9.0300671"><ele>215.2</ele><time>2026-03-27T15:11:26.342Z</time></trkpt><trkpt lat="45.6281184" lon="9.0300761"><ele>215.79999999999998</ele><time>2026-03-27T15:11:28.343Z</time></trkpt><trkpt lat="45.6282563" lon="9.030115"><ele>216.39999999999998</ele><time>2026-03-27T15:11:30.342Z</time></trkpt><trkpt lat="45.6283323" lon="9.0301257"><ele>217.0</ele><time>2026-03-27T15:11:31.343Z</time></trkpt><trkpt lat="45.6284126" lon="9.0301395"><ele>216.99999999999997</ele><time>2026-03-27T15:11:34.343Z</time></trkpt><trkpt lat="45.6284763" lon="9.0301498"><ele>217.0</ele><time>2026-03-27T15:11:35.343Z</time></trkpt><trkpt lat="45.6285572" lon="9.030205"><ele>217.0</ele><time>2026-03-27T15:11:38.343Z</time></trkpt><trkpt lat="45.6286336" lon="9.0301954"><ele>217.0</ele><time>2026-03-27T15:11:40.342Z</time></trkpt><trkpt lat="45.6286968" lon="9.030165"><ele>216.99999999999997</ele><time>2026-03-27T15:11:42.342Z</time></trkpt><trkpt lat="45.628786" lon="9.0301452"><ele>217.0</ele><time>2026-03-27T15:11:45.342Z</time></trkpt><trkpt lat="45.6288597" lon="9.030135"><ele>217.49999999999997</ele><time>2026-03-27T15:11:47.341Z</time></trkpt><trkpt lat="45.6289274" lon="9.0301295"><ele>218.0</ele><time>2026-03-27T15:11:49.341Z</time></trkpt><trkpt lat="45.6290209" lon="9.0301362"><ele>218.5</ele><time>2026-03-27T15:11:51.342Z</time></trkpt><trkpt lat="45.6291078" lon="9.0301569"><ele>219.0</ele><time>2026-03-27T15:11:52.342Z</time></trkpt><trkpt lat="45.6291721" lon="9.0301674"><ele>219.49999999999997</ele><time>2026-03-27T15:11:53.343Z</time></trkpt><trkpt lat="45.6292849" lon="9.0301946"><ele>220.0</ele><time>2026-03-27T15:11:55.342Z</time></trkpt><trkpt lat="45.6293842" lon="9.0301945"><ele>219.8</ele><time>2026-03-27T15:11:57.342Z</time></trkpt><trkpt lat="45.6294971" lon="9.0301848"><ele>219.6</ele><time>2026-03-27T15:11:59.342Z</time></trkpt><trkpt lat="45.6295986" lon="9.0301601"><ele>219.39999999999998</ele><time>2026-03-27T15:12:01.341Z</time></trkpt><trkpt lat="45.629702" lon="9.0301358"><ele>219.2</ele><time>2026-03-27T15:12:03.342Z</time></trkpt><trkpt lat="45.6298188" lon="9.0301134"><ele>219.0</ele><time>2026-03-27T15:12:05.341Z</time></trkpt><trkpt lat="45.6299288" lon="9.0300903"><ele>219.0</ele><time>2026-03-27T15:12:07.342Z</time></trkpt><trkpt lat="45.6300302" lon="9.0300843"><ele>218.99999999999997</ele><time>2026-03-27T15:12:09.343Z</time></trkpt><trkpt lat="45.630152" lon="9.0300947"><ele>218.99999999999997</ele><time>2026-03-27T15:12:11.342Z</time></trkpt><trkpt lat="45.6302523" lon="9.0301128"><ele>219.0</ele><time>2026-03-27T15:12:13.342Z</time></trkpt><trkpt lat="45.6303422" lon="9.0301239"><ele>219.0</ele><time>2026-03-27T15:12:15.341Z</time></trkpt><trkpt lat="45.6304479" lon="9.0301285"><ele>219.6</ele><time>2026-03-27T15:12:17.342Z</time></trkpt><trkpt lat="45.630567" lon="9.0301422"><ele>220.2</ele><time>2026-03-27T15:12:19.342Z</time></trkpt><trkpt lat="45.6306883" lon="9.0301544"><ele>220.79999999999998</ele><time>2026-03-27T15:12:21.341Z</time></trkpt><trkpt lat="45.6308195" lon="9.0301504"><ele>221.39999999999998</ele><time>2026-03-27T15:12:23.342Z</time></trkpt><trkpt lat="45.6308928" lon="9.0301458"><ele>222.0</ele><time>2026-03-27T15:12:24.342Z</time></trkpt><trkpt lat="45.6309809" lon="9.0301488"><ele>222.0</ele><time>2026-03-27T15:12:25.342Z</time></trkpt><trkpt lat="45.631079" lon="9.0301414"><ele>222.0</ele><time>2026-03-27T15:12:26.342Z</time></trkpt><trkpt lat="45.6311719" lon="9.0301392"><ele>222.0</ele><time>2026-03-27T15:12:27.342Z</time></trkpt><trkpt lat="45.6312469" lon="9.0301498"><ele>222.0</ele><time>2026-03-27T15:12:28.342Z</time></trkpt><trkpt lat="45.6313211" lon="9.030155"><ele>222.0</ele><time>2026-03-27T15:12:29.341Z</time></trkpt><trkpt lat="45.6314061" lon="9.0301592"><ele>222.0</ele><time>2026-03-27T15:12:30.341Z</time></trkpt><trkpt lat="45.6314811" lon="9.0301553"><ele>221.83333333333334</ele><time>2026-03-27T15:12:31.342Z</time></trkpt><trkpt lat="45.6315571" lon="9.0301606"><ele>221.66666666666669</ele><time>2026-03-27T15:12:32.341Z</time></trkpt><trkpt lat="45.6316361" lon="9.0301616"><ele>221.5</ele><time>2026-03-27T15:12:33.342Z</time></trkpt><trkpt lat="45.6317624" lon="9.0301701"><ele>221.33333333333334</ele><time>2026-03-27T15:12:35.342Z</time></trkpt><trkpt lat="45.6318492" lon="9.030173"><ele>221.16666666666669</ele><time>2026-03-27T15:12:37.342Z</time></trkpt><trkpt lat="45.631927" lon="9.0301892"><ele>221.0</ele><time>2026-03-27T15:12:40.342Z</time></trkpt><trkpt lat="45.6320069" lon="9.0301912"><ele>222.0</ele><time>2026-03-27T15:12:44.341Z</time></trkpt><trkpt lat="45.6320941" lon="9.0302234"><ele>223.00000000000003</ele><time>2026-03-27T15:13:24.342Z</time></trkpt><trkpt lat="45.632193" lon="9.0303557"><ele>224.00000000000003</ele><time>2026-03-27T15:13:26.343Z</time></trkpt><trkpt lat="45.6322472" lon="9.0304437"><ele>225.0</ele><time>2026-03-27T15:13:27.342Z</time></trkpt><trkpt lat="45.6322937" lon="9.030516"><ele>226.0</ele><time>2026-03-27T15:13:28.342Z</time></trkpt><trkpt lat="45.6323708" lon="9.0306457"><ele>225.99999999999997</ele><time>2026-03-27T15:13:30.341Z</time></trkpt><trkpt lat="45.6324193" lon="9.0307076"><ele>226.0</ele><time>2026-03-27T15:13:31.342Z</time></trkpt><trkpt lat="45.6324679" lon="9.0307772"><ele>226.0</ele><time>2026-03-27T15:13:32.343Z</time></trkpt><trkpt lat="45.6325617" lon="9.0308802"><ele>226.0</ele><time>2026-03-27T15:13:34.342Z</time></trkpt><trkpt lat="45.6326362" lon="9.0309687"><ele>225.99999999999997</ele><time>2026-03-27T15:13:36.342Z</time></trkpt><trkpt lat="45.6327057" lon="9.0310064"><ele>226.0</ele><time>2026-03-27T15:14:08.341Z</time></trkpt><trkpt lat="45.632787" lon="9.0310702"><ele>225.4</ele><time>2026-03-27T15:14:10.341Z</time></trkpt><trkpt lat="45.6328623" lon="9.0311261"><ele>224.8</ele><time>2026-03-27T15:14:11.342Z</time></trkpt><trkpt lat="45.6329443" lon="9.0311752"><ele>224.20000000000002</ele><time>2026-03-27T15:14:12.342Z</time></trkpt><trkpt lat="45.6330373" lon="9.0312327"><ele>223.60000000000002</ele><time>2026-03-27T15:14:13.341Z</time></trkpt><trkpt lat="45.6331409" lon="9.0312869"><ele>223.0</ele><time>2026-03-27T15:14:14.342Z</time></trkpt><trkpt lat="45.6332663" lon="9.0313493"><ele>223.0</ele><time>2026-03-27T15:14:15.342Z</time></trkpt><trkpt lat="45.633391" lon="9.0314035"><ele>223.0</ele><time>2026-03-27T15:14:16.342Z</time></trkpt><trkpt lat="45.6335122" lon="9.0314504"><ele>223.0</ele><time>2026-03-27T15:14:17.342Z</time></trkpt><trkpt lat="45.6336431" lon="9.0314969"><ele>223.0</ele><time>2026-03-27T15:14:18.342Z</time></trkpt><trkpt lat="45.633778" lon="9.0315372"><ele>223.75</ele><time>2026-03-27T15:14:19.341Z</time></trkpt><trkpt lat="45.6339187" lon="9.0315667"><ele>224.5</ele><time>2026-03-27T15:14:20.342Z</time></trkpt><trkpt lat="45.6340599" lon="9.0315962"><ele>225.25</ele><time>2026-03-27T15:14:21.342Z</time></trkpt><trkpt lat="45.6341947" lon="9.031628"><ele>226.0</ele><time>2026-03-27T15:14:22.342Z</time></trkpt><trkpt lat="45.6343239" lon="9.0316608"><ele>226.0</ele><time>2026-03-27T15:14:23.342Z</time></trkpt><trkpt lat="45.6344388" lon="9.0316912"><ele>226.0</ele><time>2026-03-27T15:14:24.342Z</time></trkpt><trkpt lat="45.6345547" lon="9.0317234"><ele>226.0</ele><time>2026-03-27T15:14:25.343Z</time></trkpt><trkpt lat="45.6346748" lon="9.0317534"><ele>226.0</ele><time>2026-03-27T15:14:26.342Z</time></trkpt><trkpt lat="45.6347874" lon="9.0317779"><ele>226.4</ele><time>2026-03-27T15:14:27.343Z</time></trkpt><trkpt lat="45.6348938" lon="9.0318034"><ele>226.8</ele><time>2026-03-27T15:14:28.341Z</time></trkpt><trkpt lat="45.6350022" lon="9.0318334"><ele>227.20000000000002</ele><time>2026-03-27T15:14:29.343Z</time></trkpt><trkpt lat="45.6351" lon="9.0318556"><ele>227.60000000000002</ele><time>2026-03-27T15:14:30.342Z</time></trkpt><trkpt lat="45.6352004" lon="9.0318807"><ele>228.0</ele><time>2026-03-27T15:14:31.342Z</time></trkpt><trkpt lat="45.6352994" lon="9.0318999"><ele>228.4</ele><time>2026-03-27T15:14:32.343Z</time></trkpt><trkpt lat="45.6354036" lon="9.0319257"><ele>228.8</ele><time>2026-03-27T15:14:33.343Z</time></trkpt><trkpt lat="45.635519" lon="9.031959"><ele>229.2</ele><time>2026-03-27T15:14:34.343Z</time></trkpt><trkpt lat="45.6356215" lon="9.0320032"><ele>229.6</ele><time>2026-03-27T15:14:35.342Z</time></trkpt><trkpt lat="45.6357183" lon="9.0320478"><ele>230.0</ele><time>2026-03-27T15:14:36.343Z</time></trkpt><trkpt lat="45.6358096" lon="9.0320949"><ele>230.0</ele><time>2026-03-27T15:14:37.342Z</time></trkpt><trkpt lat="45.635897" lon="9.032155"><ele>230.0</ele><time>2026-03-27T15:14:38.342Z</time></trkpt><trkpt lat="45.6359726" lon="9.0322236"><ele>230.0</ele><time>2026-03-27T15:14:39.343Z</time></trkpt><trkpt lat="45.6360441" lon="9.0323001"><ele>230.0</ele><time>2026-03-27T15:14:40.341Z</time></trkpt><trkpt lat="45.6361171" lon="9.0323759"><ele>230.0</ele><time>2026-03-27T15:14:41.342Z</time></trkpt><trkpt lat="45.6361928" lon="9.0324588"><ele>228.8</ele><time>2026-03-27T15:14:42.342Z</time></trkpt><trkpt lat="45.6362698" lon="9.0325514"><ele>227.6</ele><time>2026-03-27T15:14:43.342Z</time></trkpt><trkpt lat="45.6363525" lon="9.0326543"><ele>226.39999999999998</ele><time>2026-03-27T15:14:44.342Z</time></trkpt><trkpt lat="45.6364378" lon="9.0327655"><ele>225.2</ele><time>2026-03-27T15:14:45.342Z</time></trkpt><trkpt lat="45.6365241" lon="9.03289"><ele>224.0</ele><time>2026-03-27T15:14:46.342Z</time></trkpt><trkpt lat="45.6366144" lon="9.0330205"><ele>224.0</ele><time>2026-03-27T15:14:47.342Z</time></trkpt><trkpt lat="45.6367016" lon="9.0331518"><ele>224.0</ele><time>2026-03-27T15:14:48.343Z</time></trkpt><trkpt lat="45.6367867" lon="9.0332762"><ele>224.0</ele><time>2026-03-27T15:14:49.341Z</time></trkpt><trkpt lat="45.6368659" lon="9.0333981"><ele>224.0</ele><time>2026-03-27T15:14:50.341Z</time></trkpt><trkpt lat="45.6369346" lon="9.0335134"><ele>224.16666666666669</ele><time>2026-03-27T15:14:51.343Z</time></trkpt><trkpt lat="45.6370024" lon="9.0336195"><ele>224.33333333333334</ele><time>2026-03-27T15:14:52.341Z</time></trkpt><trkpt lat="45.6370616" lon="9.0337202"><ele>224.5</ele><time>2026-03-27T15:14:53.341Z</time></trkpt><trkpt lat="45.6371188" lon="9.033814"><ele>224.66666666666669</ele><time>2026-03-27T15:14:54.34Z</time></trkpt><trkpt lat="45.63717" lon="9.0338945"><ele>224.83333333333334</ele><time>2026-03-27T15:14:55.341Z</time></trkpt><trkpt lat="45.6372236" lon="9.0339807"><ele>225.0</ele><time>2026-03-27T15:14:56.341Z</time></trkpt><trkpt lat="45.6372719" lon="9.0340784"><ele>225.0</ele><time>2026-03-27T15:14:57.341Z</time></trkpt><trkpt lat="45.6373253" lon="9.0341791"><ele>225.0</ele><time>2026-03-27T15:14:58.341Z</time></trkpt><trkpt lat="45.6373804" lon="9.0342814"><ele>225.0</ele><time>2026-03-27T15:14:59.342Z</time></trkpt><trkpt lat="45.6374354" lon="9.0343792"><ele>225.0</ele><time>2026-03-27T15:15:00.341Z</time></trkpt><trkpt lat="45.6375079" lon="9.0344699"><ele>225.0</ele><time>2026-03-27T15:15:01.341Z</time></trkpt><trkpt lat="45.6375839" lon="9.0345573"><ele>225.0</ele><time>2026-03-27T15:15:02.341Z</time></trkpt><trkpt lat="45.6376599" lon="9.0346343"><ele>225.0</ele><time>2026-03-27T15:15:03.341Z</time></trkpt><trkpt lat="45.6377349" lon="9.0347058"><ele>225.0</ele><time>2026-03-27T15:15:04.341Z</time></trkpt><trkpt lat="45.637811" lon="9.0347769"><ele>225.0</ele><time>2026-03-27T15:15:05.341Z</time></trkpt><trkpt lat="45.6378837" lon="9.0348453"><ele>225.0</ele><time>2026-03-27T15:15:06.34Z</time></trkpt><trkpt lat="45.6379637" lon="9.0349097"><ele>225.4</ele><time>2026-03-27T15:15:07.342Z</time></trkpt><trkpt lat="45.6380411" lon="9.03497"><ele>225.8</ele><time>2026-03-27T15:15:08.341Z</time></trkpt><trkpt lat="45.6381187" lon="9.0350249"><ele>226.2</ele><time>2026-03-27T15:15:09.342Z</time></trkpt><trkpt lat="45.638199" lon="9.035078"><ele>226.6</ele><time>2026-03-27T15:15:10.341Z</time></trkpt><trkpt lat="45.638288" lon="9.0351294"><ele>227.0</ele><time>2026-03-27T15:15:11.342Z</time></trkpt><trkpt lat="45.6383819" lon="9.0351848"><ele>227.0</ele><time>2026-03-27T15:15:12.342Z</time></trkpt><trkpt lat="45.6384757" lon="9.0352302"><ele>227.0</ele><time>2026-03-27T15:15:13.34Z</time></trkpt><trkpt lat="45.6385753" lon="9.0352682"><ele>227.0</ele><time>2026-03-27T15:15:14.34Z</time></trkpt><trkpt lat="45.6386695" lon="9.0352996"><ele>227.0</ele><time>2026-03-27T15:15:15.341Z</time></trkpt><trkpt lat="45.6387682" lon="9.0353276"><ele>227.0</ele><time>2026-03-27T15:15:16.341Z</time></trkpt><trkpt lat="45.6388592" lon="9.0353506"><ele>227.39999999999998</ele><time>2026-03-27T15:15:17.341Z</time></trkpt><trkpt lat="45.6389533" lon="9.0353645"><ele>227.79999999999998</ele><time>2026-03-27T15:15:18.342Z</time></trkpt><trkpt lat="45.639048" lon="9.0353825"><ele>228.2</ele><time>2026-03-27T15:15:19.341Z</time></trkpt><trkpt lat="45.6391395" lon="9.035402"><ele>228.6</ele><time>2026-03-27T15:15:20.341Z</time></trkpt><trkpt lat="45.6392331" lon="9.0354196"><ele>229.0</ele><time>2026-03-27T15:15:21.341Z</time></trkpt><trkpt lat="45.6393248" lon="9.0354318"><ele>229.0</ele><time>2026-03-27T15:15:22.34Z</time></trkpt><trkpt lat="45.6394188" lon="9.0354422"><ele>228.99999999999997</ele><time>2026-03-27T15:15:23.341Z</time></trkpt><trkpt lat="45.6395149" lon="9.0354527"><ele>228.99999999999997</ele><time>2026-03-27T15:15:24.341Z</time></trkpt><trkpt lat="45.6396097" lon="9.0354609"><ele>229.0</ele><time>2026-03-27T15:15:25.341Z</time></trkpt><trkpt lat="45.6397144" lon="9.035472"><ele>229.0</ele><time>2026-03-27T15:15:26.341Z</time></trkpt><trkpt lat="45.6398095" lon="9.035479"><ele>228.79999999999998</ele><time>2026-03-27T15:15:27.342Z</time></trkpt><trkpt lat="45.6399109" lon="9.0354993"><ele>228.59999999999997</ele><time>2026-03-27T15:15:28.34Z</time></trkpt><trkpt lat="45.6400133" lon="9.0355259"><ele>228.4</ele><time>2026-03-27T15:15:29.342Z</time></trkpt><trkpt lat="45.6401166" lon="9.0355574"><ele>228.2</ele><time>2026-03-27T15:15:30.342Z</time></trkpt><trkpt lat="45.6402183" lon="9.0355958"><ele>228.0</ele><time>2026-03-27T15:15:31.342Z</time></trkpt><trkpt lat="45.6403223" lon="9.0356287"><ele>227.60000000000002</ele><time>2026-03-27T15:15:32.34Z</time></trkpt><trkpt lat="45.6404287" lon="9.0356565"><ele>227.20000000000002</ele><time>2026-03-27T15:15:33.34Z</time></trkpt><trkpt lat="45.6405346" lon="9.0356836"><ele>226.8</ele><time>2026-03-27T15:15:34.341Z</time></trkpt><trkpt lat="45.6406432" lon="9.0357046"><ele>226.4</ele><time>2026-03-27T15:15:35.341Z</time></trkpt><trkpt lat="45.6407526" lon="9.0357262"><ele>226.0</ele><time>2026-03-27T15:15:36.342Z</time></trkpt><trkpt lat="45.6408637" lon="9.0357469"><ele>226.0</ele><time>2026-03-27T15:15:37.341Z</time></trkpt><trkpt lat="45.64098" lon="9.0357642"><ele>226.0</ele><time>2026-03-27T15:15:38.341Z</time></trkpt><trkpt lat="45.6410918" lon="9.0357748"><ele>226.0</ele><time>2026-03-27T15:15:39.34Z</time></trkpt><trkpt lat="45.6412069" lon="9.0357851"><ele>226.0</ele><time>2026-03-27T15:15:40.34Z</time></trkpt><trkpt lat="45.6413253" lon="9.0357941"><ele>226.75</ele><time>2026-03-27T15:15:41.341Z</time></trkpt><trkpt lat="45.6414397" lon="9.0358104"><ele>227.5</ele><time>2026-03-27T15:15:42.341Z</time></trkpt><trkpt lat="45.6415584" lon="9.0358261"><ele>228.25</ele><time>2026-03-27T15:15:43.341Z</time></trkpt><trkpt lat="45.6416746" lon="9.0358436"><ele>229.0</ele><time>2026-03-27T15:15:44.341Z</time></trkpt><trkpt lat="45.6417948" lon="9.0358598"><ele>229.0</ele><time>2026-03-27T15:15:45.342Z</time></trkpt><trkpt lat="45.6419096" lon="9.0358736"><ele>229.0</ele><time>2026-03-27T15:15:46.341Z</time></trkpt><trkpt lat="45.6420305" lon="9.035891"><ele>229.0</ele><time>2026-03-27T15:15:47.341Z</time></trkpt><trkpt lat="45.6421485" lon="9.0358992"><ele>229.0</ele><time>2026-03-27T15:15:48.341Z</time></trkpt><trkpt lat="45.6422729" lon="9.0359085"><ele>228.75</ele><time>2026-03-27T15:15:49.341Z</time></trkpt><trkpt lat="45.642397" lon="9.0359226"><ele>228.5</ele><time>2026-03-27T15:15:50.341Z</time></trkpt><trkpt lat="45.6425234" lon="9.0359377"><ele>228.25</ele><time>2026-03-27T15:15:51.34Z</time></trkpt><trkpt lat="45.6426472" lon="9.035955"><ele>228.0</ele><time>2026-03-27T15:15:52.341Z</time></trkpt><trkpt lat="45.6427736" lon="9.0359732"><ele>228.25</ele><time>2026-03-27T15:15:53.34Z</time></trkpt><trkpt lat="45.6428989" lon="9.0359857"><ele>228.5</ele><time>2026-03-27T15:15:54.34Z</time></trkpt><trkpt lat="45.6430195" lon="9.0359986"><ele>228.75</ele><time>2026-03-27T15:15:55.34Z</time></trkpt><trkpt lat="45.6431374" lon="9.0360118"><ele>229.0</ele><time>2026-03-27T15:15:56.341Z</time></trkpt><trkpt lat="45.6432541" lon="9.0360274"><ele>229.0</ele><time>2026-03-27T15:15:57.341Z</time></trkpt><trkpt lat="45.6433772" lon="9.0360424"><ele>229.0</ele><time>2026-03-27T15:15:58.341Z</time></trkpt><trkpt lat="45.6434995" lon="9.0360571"><ele>229.0</ele><time>2026-03-27T15:15:59.341Z</time></trkpt><trkpt lat="45.643623" lon="9.036074"><ele>229.0</ele><time>2026-03-27T15:16:00.341Z</time></trkpt><trkpt lat="45.6437463" lon="9.036092"><ele>229.5</ele><time>2026-03-27T15:16:01.341Z</time></trkpt><trkpt lat="45.6438698" lon="9.036107"><ele>230.0</ele><time>2026-03-27T15:16:02.34Z</time></trkpt><trkpt lat="45.6439952" lon="9.0361276"><ele>230.5</ele><time>2026-03-27T15:16:03.341Z</time></trkpt><trkpt lat="45.6441233" lon="9.0361435"><ele>231.0</ele><time>2026-03-27T15:16:04.34Z</time></trkpt><trkpt lat="45.6442572" lon="9.0361609"><ele>231.0</ele><time>2026-03-27T15:16:05.34Z</time></trkpt><trkpt lat="45.6443905" lon="9.0361792"><ele>231.0</ele><time>2026-03-27T15:16:06.342Z</time></trkpt><trkpt lat="45.6445337" lon="9.0361972"><ele>231.0</ele><time>2026-03-27T15:16:07.341Z</time></trkpt><trkpt lat="45.6446869" lon="9.0362176"><ele>231.0</ele><time>2026-03-27T15:16:08.341Z</time></trkpt><trkpt lat="45.6448457" lon="9.0362371"><ele>231.25</ele><time>2026-03-27T15:16:09.341Z</time></trkpt><trkpt lat="45.6449954" lon="9.0362581"><ele>231.5</ele><time>2026-03-27T15:16:10.34Z</time></trkpt><trkpt lat="45.6451327" lon="9.0362749"><ele>231.75</ele><time>2026-03-27T15:16:11.34Z</time></trkpt><trkpt lat="45.6452758" lon="9.0362923"><ele>232.0</ele><time>2026-03-27T15:16:12.341Z</time></trkpt><trkpt lat="45.6454253" lon="9.0363079"><ele>232.25</ele><time>2026-03-27T15:16:13.341Z</time></trkpt><trkpt lat="45.6455719" lon="9.0363257"><ele>232.5</ele><time>2026-03-27T15:16:14.341Z</time></trkpt><trkpt lat="45.6457222" lon="9.0363461"><ele>232.75</ele><time>2026-03-27T15:16:15.342Z</time></trkpt><trkpt lat="45.6458717" lon="9.0363661"><ele>233.0</ele><time>2026-03-27T15:16:16.341Z</time></trkpt><trkpt lat="45.6460216" lon="9.0363831"><ele>233.25</ele><time>2026-03-27T15:16:17.34Z</time></trkpt><trkpt lat="45.6461701" lon="9.0364061"><ele>233.5</ele><time>2026-03-27T15:16:18.341Z</time></trkpt><trkpt lat="45.6463132" lon="9.0364263"><ele>233.75</ele><time>2026-03-27T15:16:19.342Z</time></trkpt><trkpt lat="45.6464503" lon="9.0364449"><ele>234.0</ele><time>2026-03-27T15:16:20.341Z</time></trkpt><trkpt lat="45.6465797" lon="9.0364593"><ele>234.0</ele><time>2026-03-27T15:16:21.341Z</time></trkpt><trkpt lat="45.6467002" lon="9.0364751"><ele>234.0</ele><time>2026-03-27T15:16:22.341Z</time></trkpt><trkpt lat="45.6468152" lon="9.0364838"><ele>234.0</ele><time>2026-03-27T15:16:23.342Z</time></trkpt><trkpt lat="45.6469277" lon="9.0364931"><ele>234.0</ele><time>2026-03-27T15:16:24.342Z</time></trkpt><trkpt lat="45.6470431" lon="9.0365077"><ele>233.75</ele><time>2026-03-27T15:16:25.342Z</time></trkpt><trkpt lat="45.6471587" lon="9.0365221"><ele>233.5</ele><time>2026-03-27T15:16:26.342Z</time></trkpt><trkpt lat="45.6472747" lon="9.0365409"><ele>233.25</ele><time>2026-03-27T15:16:27.341Z</time></trkpt><trkpt lat="45.6473925" lon="9.0365545"><ele>233.0</ele><time>2026-03-27T15:16:28.341Z</time></trkpt><trkpt lat="45.6475075" lon="9.0365683"><ele>233.0</ele><time>2026-03-27T15:16:29.341Z</time></trkpt><trkpt lat="45.6476262" lon="9.0365824"><ele>233.0</ele><time>2026-03-27T15:16:30.341Z</time></trkpt><trkpt lat="45.6477437" lon="9.0366"><ele>233.0</ele><time>2026-03-27T15:16:31.341Z</time></trkpt><trkpt lat="45.6478605" lon="9.0366197"><ele>233.0</ele><time>2026-03-27T15:16:32.342Z</time></trkpt><trkpt lat="45.6479752" lon="9.0366356"><ele>233.2</ele><time>2026-03-27T15:16:33.341Z</time></trkpt><trkpt lat="45.6480878" lon="9.036647"><ele>233.4</ele><time>2026-03-27T15:16:34.342Z</time></trkpt><trkpt lat="45.6481967" lon="9.0366508"><ele>233.59999999999997</ele><time>2026-03-27T15:16:35.341Z</time></trkpt><trkpt lat="45.6483042" lon="9.0366583"><ele>233.79999999999998</ele><time>2026-03-27T15:16:36.342Z</time></trkpt><trkpt lat="45.6484108" lon="9.0366684"><ele>234.0</ele><time>2026-03-27T15:16:37.341Z</time></trkpt><trkpt lat="45.6485145" lon="9.0366809"><ele>234.0</ele><time>2026-03-27T15:16:38.341Z</time></trkpt><trkpt lat="45.6486201" lon="9.0366888"><ele>233.99999999999997</ele><time>2026-03-27T15:16:39.341Z</time></trkpt><trkpt lat="45.6487197" lon="9.0366983"><ele>233.99999999999997</ele><time>2026-03-27T15:16:40.34Z</time></trkpt><trkpt lat="45.6488206" lon="9.0367154"><ele>234.0</ele><time>2026-03-27T15:16:41.341Z</time></trkpt><trkpt lat="45.648918" lon="9.0367287"><ele>234.0</ele><time>2026-03-27T15:16:42.34Z</time></trkpt><trkpt lat="45.6490193" lon="9.0367382"><ele>234.6</ele><time>2026-03-27T15:16:43.341Z</time></trkpt><trkpt lat="45.6491195" lon="9.0367502"><ele>235.2</ele><time>2026-03-27T15:16:44.34Z</time></trkpt><trkpt lat="45.6492162" lon="9.0367586"><ele>235.79999999999998</ele><time>2026-03-27T15:16:45.341Z</time></trkpt><trkpt lat="45.6493047" lon="9.0367681"><ele>236.39999999999998</ele><time>2026-03-27T15:16:46.341Z</time></trkpt><trkpt lat="45.6493813" lon="9.0367746"><ele>237.0</ele><time>2026-03-27T15:16:47.341Z</time></trkpt><trkpt lat="45.6494914" lon="9.0367863"><ele>237.0</ele><time>2026-03-27T15:16:49.34Z</time></trkpt><trkpt lat="45.6495577" lon="9.0367897"><ele>237.0</ele><time>2026-03-27T15:16:51.341Z</time></trkpt><trkpt lat="45.6496224" lon="9.0368081"><ele>237.0</ele><time>2026-03-27T15:16:54.341Z</time></trkpt><trkpt lat="45.6496863" lon="9.0368185"><ele>237.0</ele><time>2026-03-27T15:16:58.341Z</time></trkpt><trkpt lat="45.6497518" lon="9.0368049"><ele>237.0</ele><time>2026-03-27T15:17:15.34Z</time></trkpt><trkpt lat="45.6498529" lon="9.0368061"><ele>237.0</ele><time>2026-03-27T15:17:17.341Z</time></trkpt><trkpt lat="45.649946" lon="9.036805"><ele>237.0</ele><time>2026-03-27T15:17:19.342Z</time></trkpt><trkpt lat="45.6500128" lon="9.0368095"><ele>237.0</ele><time>2026-03-27T15:17:20.342Z</time></trkpt><trkpt lat="45.6501272" lon="9.03684"><ele>237.0</ele><time>2026-03-27T15:17:22.341Z</time></trkpt><trkpt lat="45.650222" lon="9.0369317"><ele>237.0</ele><time>2026-03-27T15:17:24.342Z</time></trkpt><trkpt lat="45.6502443" lon="9.0370205"><ele>237.0</ele><time>2026-03-27T15:17:25.341Z</time></trkpt><trkpt lat="45.6502617" lon="9.037122"><ele>237.0</ele><time>2026-03-27T15:17:26.34Z</time></trkpt><trkpt lat="45.6502771" lon="9.0372495"><ele>237.0</ele><time>2026-03-27T15:17:27.341Z</time></trkpt><trkpt lat="45.650293" lon="9.037388"><ele>237.0</ele><time>2026-03-27T15:17:28.341Z</time></trkpt><trkpt lat="45.6503033" lon="9.0375138"><ele>237.0</ele><time>2026-03-27T15:17:29.341Z</time></trkpt><trkpt lat="45.6503143" lon="9.0376395"><ele>237.0</ele><time>2026-03-27T15:17:30.341Z</time></trkpt><trkpt lat="45.6503272" lon="9.0377673"><ele>237.0</ele><time>2026-03-27T15:17:31.341Z</time></trkpt><trkpt lat="45.6503394" lon="9.0379002"><ele>237.16666666666666</ele><time>2026-03-27T15:17:32.341Z</time></trkpt><trkpt lat="45.6503558" lon="9.0380328"><ele>237.33333333333331</ele><time>2026-03-27T15:17:33.34Z</time></trkpt><trkpt lat="45.6503678" lon="9.0381585"><ele>237.5</ele><time>2026-03-27T15:17:34.341Z</time></trkpt><trkpt lat="45.6503783" lon="9.0382804"><ele>237.66666666666666</ele><time>2026-03-27T15:17:35.342Z</time></trkpt><trkpt lat="45.6503935" lon="9.0384045"><ele>237.83333333333331</ele><time>2026-03-27T15:17:36.341Z</time></trkpt><trkpt lat="45.6503984" lon="9.0385357"><ele>238.0</ele><time>2026-03-27T15:17:37.341Z</time></trkpt><trkpt lat="45.6504123" lon="9.038665"><ele>238.0</ele><time>2026-03-27T15:17:38.341Z</time></trkpt><trkpt lat="45.6504289" lon="9.0387953"><ele>238.0</ele><time>2026-03-27T15:17:39.342Z</time></trkpt><trkpt lat="45.6504445" lon="9.0389272"><ele>238.0</ele><time>2026-03-27T15:17:40.34Z</time></trkpt><trkpt lat="45.6504522" lon="9.0390611"><ele>238.0</ele><time>2026-03-27T15:17:41.34Z</time></trkpt><trkpt lat="45.6504759" lon="9.0391863"><ele>238.0</ele><time>2026-03-27T15:17:42.341Z</time></trkpt><trkpt lat="45.6505025" lon="9.0393125"><ele>237.99999999999997</ele><time>2026-03-27T15:17:43.341Z</time></trkpt><trkpt lat="45.65054" lon="9.0394405"><ele>238.0</ele><time>2026-03-27T15:17:44.342Z</time></trkpt><trkpt lat="45.6505905" lon="9.039558"><ele>238.0</ele><time>2026-03-27T15:17:45.341Z</time></trkpt><trkpt lat="45.6506333" lon="9.039662"><ele>238.0</ele><time>2026-03-27T15:17:46.341Z</time></trkpt><trkpt lat="45.6506716" lon="9.0397562"><ele>237.99999999999997</ele><time>2026-03-27T15:17:47.342Z</time></trkpt><trkpt lat="45.6507093" lon="9.0398513"><ele>238.0</ele><time>2026-03-27T15:17:49.341Z</time></trkpt><trkpt lat="45.6507374" lon="9.0399611"><ele>238.2</ele><time>2026-03-27T15:17:53.342Z</time></trkpt><trkpt lat="45.6507088" lon="9.0400753"><ele>238.4</ele><time>2026-03-27T15:17:55.341Z</time></trkpt><trkpt lat="45.6506527" lon="9.0402214"><ele>238.59999999999997</ele><time>2026-03-27T15:17:57.34Z</time></trkpt><trkpt lat="45.6505825" lon="9.0402622"><ele>238.79999999999998</ele><time>2026-03-27T15:17:59.341Z</time></trkpt><trkpt lat="45.6504667" lon="9.0402454"><ele>239.0</ele><time>2026-03-27T15:18:01.342Z</time></trkpt><trkpt lat="45.6503785" lon="9.0402432"><ele>239.00000000000003</ele><time>2026-03-27T15:18:02.341Z</time></trkpt><trkpt lat="45.6503118" lon="9.0402322"><ele>239.0</ele><time>2026-03-27T15:18:03.34Z</time></trkpt><trkpt lat="45.6502404" lon="9.0402326"><ele>239.00000000000003</ele><time>2026-03-27T15:18:04.341Z</time></trkpt><trkpt lat="45.6501631" lon="9.0402262"><ele>239.00000000000003</ele><time>2026-03-27T15:18:05.341Z</time></trkpt><trkpt lat="45.6500916" lon="9.0402116"><ele>239.0</ele><time>2026-03-27T15:18:06.342Z</time></trkpt><trkpt lat="45.6500122" lon="9.0401939"><ele>239.00000000000003</ele><time>2026-03-27T15:18:07.342Z</time></trkpt><trkpt lat="45.6499362" lon="9.0401909"><ele>239.00000000000003</ele><time>2026-03-27T15:18:08.341Z</time></trkpt><trkpt lat="45.6498566" lon="9.0401914"><ele>238.83333333333334</ele><time>2026-03-27T15:18:09.342Z</time></trkpt><trkpt lat="45.6497776" lon="9.0401895"><ele>238.66666666666669</ele><time>2026-03-27T15:18:10.342Z</time></trkpt><trkpt lat="45.6497005" lon="9.040187"><ele>238.5</ele><time>2026-03-27T15:18:11.341Z</time></trkpt><trkpt lat="45.6496205" lon="9.0401743"><ele>238.33333333333331</ele><time>2026-03-27T15:18:12.341Z</time></trkpt><trkpt lat="45.649537" lon="9.0401662"><ele>238.16666666666666</ele><time>2026-03-27T15:18:13.34Z</time></trkpt><trkpt lat="45.6494513" lon="9.0401615"><ele>238.0</ele><time>2026-03-27T15:18:14.341Z</time></trkpt><trkpt lat="45.6493724" lon="9.0401539"><ele>237.66666666666666</ele><time>2026-03-27T15:18:15.34Z</time></trkpt><trkpt lat="45.6493004" lon="9.0401483"><ele>237.33333333333331</ele><time>2026-03-27T15:18:16.34Z</time></trkpt><trkpt lat="45.6491805" lon="9.0401254"><ele>237.0</ele><time>2026-03-27T15:18:18.341Z</time></trkpt><trkpt lat="45.6490945" lon="9.040095"><ele>236.66666666666669</ele><time>2026-03-27T15:18:20.341Z</time></trkpt><trkpt lat="45.6490131" lon="9.0400841"><ele>236.33333333333334</ele><time>2026-03-27T15:18:23.34Z</time></trkpt><trkpt lat="45.6489492" lon="9.0400575"><ele>236.0</ele><time>2026-03-27T15:18:26.341Z</time></trkpt><trkpt lat="45.6488425" lon="9.0400359"><ele>236.00000000000003</ele><time>2026-03-27T15:18:29.34Z</time></trkpt><trkpt lat="45.6487247" lon="9.0400017"><ele>236.0</ele><time>2026-03-27T15:18:31.34Z</time></trkpt><trkpt lat="45.6486123" lon="9.0399531"><ele>236.0</ele><time>2026-03-27T15:18:33.34Z</time></trkpt><trkpt lat="45.6485469" lon="9.0399346"><ele>236.0</ele><time>2026-03-27T15:18:34.34Z</time></trkpt><trkpt lat="45.6484916" lon="9.0398819"><ele>236.00000000000003</ele><time>2026-03-27T15:18:35.34Z</time></trkpt><trkpt lat="45.6484461" lon="9.0397976"><ele>236.0</ele><time>2026-03-27T15:18:36.34Z</time></trkpt><trkpt lat="45.6484279" lon="9.0396859"><ele>236.00000000000003</ele><time>2026-03-27T15:18:37.339Z</time></trkpt><trkpt lat="45.648437" lon="9.0395687"><ele>236.0</ele><time>2026-03-27T15:18:38.339Z</time></trkpt><trkpt lat="45.6484486" lon="9.0394508"><ele>236.0</ele><time>2026-03-27T15:18:39.34Z</time></trkpt><trkpt lat="45.6484579" lon="9.0393294"><ele>236.0</ele><time>2026-03-27T15:18:40.339Z</time></trkpt><trkpt lat="45.6484695" lon="9.0392033"><ele>236.00000000000003</ele><time>2026-03-27T15:18:41.34Z</time></trkpt><trkpt lat="45.6484836" lon="9.0390743"><ele>236.0</ele><time>2026-03-27T15:18:42.34Z</time></trkpt><trkpt lat="45.6484961" lon="9.0389436"><ele>236.0</ele><time>2026-03-27T15:18:43.34Z</time></trkpt><trkpt lat="45.6485104" lon="9.0388119"><ele>236.00000000000003</ele><time>2026-03-27T15:18:44.34Z</time></trkpt><trkpt lat="45.6485248" lon="9.038677"><ele>236.00000000000003</ele><time>2026-03-27T15:18:45.341Z</time></trkpt><trkpt lat="45.648546" lon="9.0385522"><ele>236.0</ele><time>2026-03-27T15:18:46.34Z</time></trkpt><trkpt lat="45.648564" lon="9.0384318"><ele>236.0</ele><time>2026-03-27T15:18:47.339Z</time></trkpt><trkpt lat="45.6485713" lon="9.0382927"><ele>236.00000000000003</ele><time>2026-03-27T15:18:48.34Z</time></trkpt><trkpt lat="45.6485874" lon="9.038174"><ele>236.0</ele><time>2026-03-27T15:18:49.34Z</time></trkpt><trkpt lat="45.648601" lon="9.0380572"><ele>236.0</ele><time>2026-03-27T15:18:50.34Z</time></trkpt><trkpt lat="45.6486132" lon="9.0379375"><ele>236.0</ele><time>2026-03-27T15:18:51.339Z</time></trkpt><trkpt lat="45.6486263" lon="9.0378116"><ele>236.00000000000003</ele><time>2026-03-27T15:18:52.34Z</time></trkpt><trkpt lat="45.6486428" lon="9.0376866"><ele>236.0</ele><time>2026-03-27T15:18:53.34Z</time></trkpt><trkpt lat="45.6486568" lon="9.0375751"><ele>236.00000000000003</ele><time>2026-03-27T15:18:54.339Z</time></trkpt><trkpt lat="45.6486664" lon="9.0374705"><ele>236.0</ele><time>2026-03-27T15:18:55.341Z</time></trkpt><trkpt lat="45.6486779" lon="9.0373735"><ele>236.0</ele><time>2026-03-27T15:18:56.34Z</time></trkpt><trkpt lat="45.6486899" lon="9.0372708"><ele>236.0</ele><time>2026-03-27T15:18:57.34Z</time></trkpt><trkpt lat="45.648699" lon="9.0371756"><ele>236.00000000000003</ele><time>2026-03-27T15:18:58.339Z</time></trkpt><trkpt lat="45.6487177" lon="9.0370128"><ele>236.0</ele><time>2026-03-27T15:19:00.34Z</time></trkpt><trkpt lat="45.6487381" lon="9.0368661"><ele>236.16666666666669</ele><time>2026-03-27T15:19:02.339Z</time></trkpt><trkpt lat="45.6487458" lon="9.0367667"><ele>236.33333333333334</ele><time>2026-03-27T15:19:05.339Z</time></trkpt><trkpt lat="45.6486874" lon="9.036683"><ele>236.5</ele><time>2026-03-27T15:19:12.341Z</time></trkpt><trkpt lat="45.6486167" lon="9.0366733"><ele>236.66666666666669</ele><time>2026-03-27T15:19:13.34Z</time></trkpt><trkpt lat="45.648505" lon="9.0366694"><ele>236.83333333333334</ele><time>2026-03-27T15:19:14.341Z</time></trkpt><trkpt lat="45.6484013" lon="9.0366617"><ele>237.0</ele><time>2026-03-27T15:19:15.341Z</time></trkpt><trkpt lat="45.6482929" lon="9.0366508"><ele>236.5</ele><time>2026-03-27T15:19:16.341Z</time></trkpt><trkpt lat="45.6481762" lon="9.0366454"><ele>236.0</ele><time>2026-03-27T15:19:17.34Z</time></trkpt><trkpt lat="45.6480439" lon="9.036637"><ele>235.5</ele><time>2026-03-27T15:19:18.34Z</time></trkpt><trkpt lat="45.6479143" lon="9.036624"><ele>235.0</ele><time>2026-03-27T15:19:19.339Z</time></trkpt><trkpt lat="45.6477927" lon="9.0366162"><ele>234.5</ele><time>2026-03-27T15:19:20.34Z</time></trkpt><trkpt lat="45.6476735" lon="9.0366031"><ele>234.0</ele><time>2026-03-27T15:19:21.34Z</time></trkpt><trkpt lat="45.6475517" lon="9.0365869"><ele>233.5</ele><time>2026-03-27T15:19:22.341Z</time></trkpt><trkpt lat="45.647422" lon="9.0365735"><ele>233.0</ele><time>2026-03-27T15:19:23.341Z</time></trkpt><trkpt lat="45.6472942" lon="9.0365573"><ele>233.0</ele><time>2026-03-27T15:19:24.341Z</time></trkpt><trkpt lat="45.6471704" lon="9.0365448"><ele>233.0</ele><time>2026-03-27T15:19:25.341Z</time></trkpt><trkpt lat="45.6470566" lon="9.036535"><ele>233.0</ele><time>2026-03-27T15:19:26.341Z</time></trkpt><trkpt lat="45.6469533" lon="9.0365156"><ele>233.0</ele><time>2026-03-27T15:19:27.341Z</time></trkpt><trkpt lat="45.6468528" lon="9.0364978"><ele>233.0</ele><time>2026-03-27T15:19:28.339Z</time></trkpt><trkpt lat="45.6467461" lon="9.0364861"><ele>233.25</ele><time>2026-03-27T15:19:29.34Z</time></trkpt><trkpt lat="45.6466285" lon="9.0364752"><ele>233.5</ele><time>2026-03-27T15:19:30.341Z</time></trkpt><trkpt lat="45.6465092" lon="9.0364505"><ele>233.75</ele><time>2026-03-27T15:19:31.339Z</time></trkpt><trkpt lat="45.6463822" lon="9.0364377"><ele>234.0</ele><time>2026-03-27T15:19:32.34Z</time></trkpt><trkpt lat="45.6462553" lon="9.0364263"><ele>233.75</ele><time>2026-03-27T15:19:33.339Z</time></trkpt><trkpt lat="45.6461262" lon="9.0364081"><ele>233.5</ele><time>2026-03-27T15:19:34.34Z</time></trkpt><trkpt lat="45.6459941" lon="9.036395"><ele>233.25</ele><time>2026-03-27T15:19:35.34Z</time></trkpt><trkpt lat="45.6458643" lon="9.0363774"><ele>233.0</ele><time>2026-03-27T15:19:36.339Z</time></trkpt><trkpt lat="45.6457378" lon="9.0363607"><ele>233.0</ele><time>2026-03-27T15:19:37.34Z</time></trkpt><trkpt lat="45.6456134" lon="9.0363452"><ele>233.0</ele><time>2026-03-27T15:19:38.341Z</time></trkpt><trkpt lat="45.6454886" lon="9.0363263"><ele>233.0</ele><time>2026-03-27T15:19:39.34Z</time></trkpt><trkpt lat="45.6453619" lon="9.0363082"><ele>233.0</ele><time>2026-03-27T15:19:40.341Z</time></trkpt><trkpt lat="45.6452305" lon="9.0362859"><ele>232.75</ele><time>2026-03-27T15:19:41.34Z</time></trkpt><trkpt lat="45.6450912" lon="9.0362704"><ele>232.5</ele><time>2026-03-27T15:19:42.339Z</time></trkpt><trkpt lat="45.6449454" lon="9.0362505"><ele>232.25</ele><time>2026-03-27T15:19:43.34Z</time></trkpt><trkpt lat="45.6448073" lon="9.0362328"><ele>232.0</ele><time>2026-03-27T15:19:44.34Z</time></trkpt><trkpt lat="45.6446678" lon="9.0362182"><ele>232.0</ele><time>2026-03-27T15:19:45.339Z</time></trkpt><trkpt lat="45.6445256" lon="9.0362036"><ele>232.0</ele><time>2026-03-27T15:19:46.339Z</time></trkpt><trkpt lat="45.644384" lon="9.0361841"><ele>232.0</ele><time>2026-03-27T15:19:47.339Z</time></trkpt><trkpt lat="45.6442371" lon="9.0361724"><ele>232.0</ele><time>2026-03-27T15:19:48.34Z</time></trkpt><trkpt lat="45.6440913" lon="9.036154"><ele>231.75</ele><time>2026-03-27T15:19:49.339Z</time></trkpt><trkpt lat="45.6439511" lon="9.0361359"><ele>231.5</ele><time>2026-03-27T15:19:50.341Z</time></trkpt><trkpt lat="45.6438132" lon="9.0361153"><ele>231.25</ele><time>2026-03-27T15:19:51.339Z</time></trkpt><trkpt lat="45.6436725" lon="9.0360993"><ele>231.0</ele><time>2026-03-27T15:19:52.34Z</time></trkpt><trkpt lat="45.64353" lon="9.0360828"><ele>230.5</ele><time>2026-03-27T15:19:53.34Z</time></trkpt><trkpt lat="45.6433864" lon="9.0360636"><ele>230.0</ele><time>2026-03-27T15:19:54.34Z</time></trkpt><trkpt lat="45.6432418" lon="9.0360482"><ele>229.5</ele><time>2026-03-27T15:19:55.341Z</time></trkpt><trkpt lat="45.6431025" lon="9.0360249"><ele>229.0</ele><time>2026-03-27T15:19:56.339Z</time></trkpt><trkpt lat="45.6429613" lon="9.0360032"><ele>229.0</ele><time>2026-03-27T15:19:57.341Z</time></trkpt><trkpt lat="45.6428219" lon="9.0359878"><ele>229.0</ele><time>2026-03-27T15:19:58.339Z</time></trkpt><trkpt lat="45.6426784" lon="9.0359691"><ele>229.0</ele><time>2026-03-27T15:19:59.341Z</time></trkpt><trkpt lat="45.6425351" lon="9.0359544"><ele>229.0</ele><time>2026-03-27T15:20:00.34Z</time></trkpt><trkpt lat="45.6423902" lon="9.0359399"><ele>229.0</ele><time>2026-03-27T15:20:01.34Z</time></trkpt><trkpt lat="45.6422506" lon="9.0359235"><ele>229.0</ele><time>2026-03-27T15:20:02.34Z</time></trkpt><trkpt lat="45.6421149" lon="9.0359072"><ele>229.0</ele><time>2026-03-27T15:20:03.34Z</time></trkpt><trkpt lat="45.6419789" lon="9.0358906"><ele>229.0</ele><time>2026-03-27T15:20:04.339Z</time></trkpt><trkpt lat="45.6418448" lon="9.0358725"><ele>229.0</ele><time>2026-03-27T15:20:05.341Z</time></trkpt><trkpt lat="45.6417051" lon="9.0358532"><ele>229.0</ele><time>2026-03-27T15:20:06.34Z</time></trkpt><trkpt lat="45.6415634" lon="9.0358319"><ele>229.0</ele><time>2026-03-27T15:20:07.341Z</time></trkpt><trkpt lat="45.6414227" lon="9.0358111"><ele>229.0</ele><time>2026-03-27T15:20:08.34Z</time></trkpt><trkpt lat="45.6412858" lon="9.0357846"><ele>228.75</ele><time>2026-03-27T15:20:09.341Z</time></trkpt><trkpt lat="45.6411487" lon="9.0357682"><ele>228.5</ele><time>2026-03-27T15:20:10.34Z</time></trkpt><trkpt lat="45.6410146" lon="9.0357456"><ele>228.25</ele><time>2026-03-27T15:20:11.34Z</time></trkpt><trkpt lat="45.6408848" lon="9.0357082"><ele>228.0</ele><time>2026-03-27T15:20:12.34Z</time></trkpt><trkpt lat="45.640754" lon="9.0356794"><ele>228.0</ele><time>2026-03-27T15:20:13.34Z</time></trkpt><trkpt lat="45.6406185" lon="9.0356597"><ele>228.0</ele><time>2026-03-27T15:20:14.34Z</time></trkpt><trkpt lat="45.6404865" lon="9.0356229"><ele>228.0</ele><time>2026-03-27T15:20:15.34Z</time></trkpt><trkpt lat="45.6403569" lon="9.0355747"><ele>228.0</ele><time>2026-03-27T15:20:16.34Z</time></trkpt><trkpt lat="45.6402267" lon="9.0355316"><ele>228.0</ele><time>2026-03-27T15:20:17.341Z</time></trkpt><trkpt lat="45.6400946" lon="9.0355004"><ele>228.0</ele><time>2026-03-27T15:20:18.341Z</time></trkpt><trkpt lat="45.6399598" lon="9.035482"><ele>228.0</ele><time>2026-03-27T15:20:19.34Z</time></trkpt><trkpt lat="45.639827" lon="9.0354751"><ele>228.0</ele><time>2026-03-27T15:20:20.341Z</time></trkpt><trkpt lat="45.6396939" lon="9.0354688"><ele>228.0</ele><time>2026-03-27T15:20:21.34Z</time></trkpt><trkpt lat="45.6395611" lon="9.0354553"><ele>228.0</ele><time>2026-03-27T15:20:22.341Z</time></trkpt><trkpt lat="45.6394371" lon="9.035437"><ele>228.0</ele><time>2026-03-27T15:20:23.34Z</time></trkpt><trkpt lat="45.6393158" lon="9.0354257"><ele>228.0</ele><time>2026-03-27T15:20:24.339Z</time></trkpt><trkpt lat="45.6391986" lon="9.0354109"><ele>228.25</ele><time>2026-03-27T15:20:25.339Z</time></trkpt><trkpt lat="45.6390748" lon="9.0353906"><ele>228.5</ele><time>2026-03-27T15:20:26.34Z</time></trkpt><trkpt lat="45.6389539" lon="9.0353712"><ele>228.75</ele><time>2026-03-27T15:20:27.34Z</time></trkpt><trkpt lat="45.6388344" lon="9.0353471"><ele>229.0</ele><time>2026-03-27T15:20:28.341Z</time></trkpt><trkpt lat="45.6387182" lon="9.035322"><ele>228.5</ele><time>2026-03-27T15:20:29.339Z</time></trkpt><trkpt lat="45.6385996" lon="9.0352854"><ele>228.0</ele><time>2026-03-27T15:20:30.341Z</time></trkpt><trkpt lat="45.6384844" lon="9.0352395"><ele>227.5</ele><time>2026-03-27T15:20:31.34Z</time></trkpt><trkpt lat="45.6383706" lon="9.0351855"><ele>227.0</ele><time>2026-03-27T15:20:32.34Z</time></trkpt><trkpt lat="45.6382561" lon="9.0351208"><ele>227.0</ele><time>2026-03-27T15:20:33.34Z</time></trkpt><trkpt lat="45.6381426" lon="9.0350477"><ele>227.0</ele><time>2026-03-27T15:20:34.34Z</time></trkpt><trkpt lat="45.6380261" lon="9.0349659"><ele>227.0</ele><time>2026-03-27T15:20:35.341Z</time></trkpt><trkpt lat="45.6379172" lon="9.0348675"><ele>227.0</ele><time>2026-03-27T15:20:36.34Z</time></trkpt><trkpt lat="45.6378167" lon="9.0347748"><ele>226.6</ele><time>2026-03-27T15:20:37.34Z</time></trkpt><trkpt lat="45.6377296" lon="9.0346722"><ele>226.2</ele><time>2026-03-27T15:20:38.34Z</time></trkpt><trkpt lat="45.6376622" lon="9.0345733"><ele>225.8</ele><time>2026-03-27T15:20:39.339Z</time></trkpt><trkpt lat="45.6376097" lon="9.0344873"><ele>225.4</ele><time>2026-03-27T15:20:40.34Z</time></trkpt><trkpt lat="45.6375677" lon="9.0343892"><ele>225.0</ele><time>2026-03-27T15:20:41.34Z</time></trkpt><trkpt lat="45.6375252" lon="9.034272"><ele>225.0</ele><time>2026-03-27T15:20:42.341Z</time></trkpt><trkpt lat="45.6374782" lon="9.034142"><ele>225.0</ele><time>2026-03-27T15:20:43.341Z</time></trkpt><trkpt lat="45.6374439" lon="9.0339795"><ele>225.0</ele><time>2026-03-27T15:20:44.34Z</time></trkpt><trkpt lat="45.6374304" lon="9.0338067"><ele>225.0</ele><time>2026-03-27T15:20:45.341Z</time></trkpt><trkpt lat="45.6374206" lon="9.0336454"><ele>225.0</ele><time>2026-03-27T15:20:46.341Z</time></trkpt><trkpt lat="45.6374159" lon="9.0334936"><ele>225.0</ele><time>2026-03-27T15:20:47.341Z</time></trkpt><trkpt lat="45.6374119" lon="9.033352"><ele>225.0</ele><time>2026-03-27T15:20:48.341Z</time></trkpt><trkpt lat="45.6374127" lon="9.0332203"><ele>225.0</ele><time>2026-03-27T15:20:49.34Z</time></trkpt><trkpt lat="45.6374161" lon="9.0330816"><ele>225.0</ele><time>2026-03-27T15:20:50.34Z</time></trkpt><trkpt lat="45.6374154" lon="9.0329608"><ele>225.0</ele><time>2026-03-27T15:20:51.341Z</time></trkpt><trkpt lat="45.6374177" lon="9.0328336"><ele>225.0</ele><time>2026-03-27T15:20:52.34Z</time></trkpt><trkpt lat="45.6374203" lon="9.0327059"><ele>225.0</ele><time>2026-03-27T15:20:53.341Z</time></trkpt><trkpt lat="45.6374228" lon="9.0325771"><ele>225.0</ele><time>2026-03-27T15:20:54.341Z</time></trkpt><trkpt lat="45.6374253" lon="9.0324277"><ele>225.0</ele><time>2026-03-27T15:20:55.339Z</time></trkpt><trkpt lat="45.6374423" lon="9.0322623"><ele>225.0</ele><time>2026-03-27T15:20:56.339Z</time></trkpt><trkpt lat="45.63747" lon="9.0320917"><ele>225.0</ele><time>2026-03-27T15:20:57.34Z</time></trkpt><trkpt lat="45.637496" lon="9.0318965"><ele>225.0</ele><time>2026-03-27T15:20:58.341Z</time></trkpt><trkpt lat="45.6375251" lon="9.0316934"><ele>225.0</ele><time>2026-03-27T15:20:59.34Z</time></trkpt><trkpt lat="45.6375494" lon="9.0314917"><ele>225.25</ele><time>2026-03-27T15:21:00.34Z</time></trkpt><trkpt lat="45.6375762" lon="9.0313064"><ele>225.5</ele><time>2026-03-27T15:21:01.339Z</time></trkpt><trkpt lat="45.6376045" lon="9.031136"><ele>225.75</ele><time>2026-03-27T15:21:02.341Z</time></trkpt><trkpt lat="45.6376264" lon="9.0309813"><ele>226.0</ele><time>2026-03-27T15:21:03.34Z</time></trkpt><trkpt lat="45.6376366" lon="9.0308421"><ele>225.75</ele><time>2026-03-27T15:21:04.34Z</time></trkpt><trkpt lat="45.6376124" lon="9.0307032"><ele>225.5</ele><time>2026-03-27T15:21:05.339Z</time></trkpt><trkpt lat="45.6375613" lon="9.0305518"><ele>225.25</ele><time>2026-03-27T15:21:06.34Z</time></trkpt><trkpt lat="45.6374968" lon="9.0303875"><ele>225.0</ele><time>2026-03-27T15:21:07.341Z</time></trkpt><trkpt lat="45.6374181" lon="9.0301975"><ele>225.0</ele><time>2026-03-27T15:21:08.339Z</time></trkpt><trkpt lat="45.6373495" lon="9.0300255"><ele>225.0</ele><time>2026-03-27T15:21:09.34Z</time></trkpt><trkpt lat="45.637288" lon="9.0298698"><ele>225.0</ele><time>2026-03-27T15:21:10.34Z</time></trkpt><trkpt lat="45.6372246" lon="9.0297432"><ele>225.0</ele><time>2026-03-27T15:21:11.341Z</time></trkpt><trkpt lat="45.637132" lon="9.0296756"><ele>224.75</ele><time>2026-03-27T15:21:12.34Z</time></trkpt><trkpt lat="45.6370176" lon="9.0296293"><ele>224.5</ele><time>2026-03-27T15:21:13.34Z</time></trkpt><trkpt lat="45.6368915" lon="9.0296059"><ele>224.25</ele><time>2026-03-27T15:21:14.34Z</time></trkpt><trkpt lat="45.6367619" lon="9.0295883"><ele>224.0</ele><time>2026-03-27T15:21:15.34Z</time></trkpt><trkpt lat="45.6366492" lon="9.0295644"><ele>223.79999999999998</ele><time>2026-03-27T15:21:16.339Z</time></trkpt><trkpt lat="45.6365433" lon="9.0295496"><ele>223.59999999999997</ele><time>2026-03-27T15:21:17.34Z</time></trkpt><trkpt lat="45.6364417" lon="9.0295715"><ele>223.4</ele><time>2026-03-27T15:21:18.34Z</time></trkpt><trkpt lat="45.6363368" lon="9.0296205"><ele>223.2</ele><time>2026-03-27T15:21:19.34Z</time></trkpt><trkpt lat="45.6362325" lon="9.0296906"><ele>223.0</ele><time>2026-03-27T15:21:20.341Z</time></trkpt><trkpt lat="45.636139" lon="9.0297602"><ele>224.0</ele><time>2026-03-27T15:21:21.34Z</time></trkpt><trkpt lat="45.6360422" lon="9.0298386"><ele>225.0</ele><time>2026-03-27T15:21:22.34Z</time></trkpt><trkpt lat="45.6359463" lon="9.0299101"><ele>226.0</ele><time>2026-03-27T15:21:23.34Z</time></trkpt><trkpt lat="45.6358403" lon="9.0299279"><ele>227.0</ele><time>2026-03-27T15:21:24.34Z</time></trkpt><trkpt lat="45.6357662" lon="9.0298461"><ele>228.0</ele><time>2026-03-27T15:21:26.339Z</time></trkpt><trkpt lat="45.6357157" lon="9.0297337"><ele>228.0</ele><time>2026-03-27T15:21:27.34Z</time></trkpt><trkpt lat="45.6356749" lon="9.0295428"><ele>228.0</ele><time>2026-03-27T15:21:28.339Z</time></trkpt><trkpt lat="45.6356215" lon="9.0294146"><ele>228.0</ele><time>2026-03-27T15:21:29.339Z</time></trkpt><trkpt lat="45.6355716" lon="9.0292851"><ele>228.0</ele><time>2026-03-27T15:21:30.339Z</time></trkpt><trkpt lat="45.6355162" lon="9.0291683"><ele>228.0</ele><time>2026-03-27T15:21:31.339Z</time></trkpt><trkpt lat="45.6354633" lon="9.0290443"><ele>228.0</ele><time>2026-03-27T15:21:32.34Z</time></trkpt><trkpt lat="45.6354069" lon="9.0289157"><ele>228.0</ele><time>2026-03-27T15:21:33.34Z</time></trkpt><trkpt lat="45.635354" lon="9.0287872"><ele>228.0</ele><time>2026-03-27T15:21:34.339Z</time></trkpt><trkpt lat="45.6352929" lon="9.0286557"><ele>228.0</ele><time>2026-03-27T15:21:35.339Z</time></trkpt><trkpt lat="45.6352353" lon="9.0285215"><ele>228.0</ele><time>2026-03-27T15:21:36.34Z</time></trkpt><trkpt lat="45.6351791" lon="9.0283953"><ele>227.60000000000002</ele><time>2026-03-27T15:21:37.34Z</time></trkpt><trkpt lat="45.6351284" lon="9.0282754"><ele>227.20000000000002</ele><time>2026-03-27T15:21:38.34Z</time></trkpt><trkpt lat="45.635066" lon="9.0281695"><ele>226.8</ele><time>2026-03-27T15:21:39.339Z</time></trkpt><trkpt lat="45.6350129" lon="9.028066"><ele>226.4</ele><time>2026-03-27T15:21:40.341Z</time></trkpt><trkpt lat="45.6349702" lon="9.0279491"><ele>226.0</ele><time>2026-03-27T15:21:41.341Z</time></trkpt><trkpt lat="45.6349106" lon="9.027841"><ele>225.99999999999997</ele><time>2026-03-27T15:21:42.339Z</time></trkpt><trkpt lat="45.6348658" lon="9.0277287"><ele>226.0</ele><time>2026-03-27T15:21:43.339Z</time></trkpt><trkpt lat="45.6348301" lon="9.0276257"><ele>226.0</ele><time>2026-03-27T15:21:44.338Z</time></trkpt><trkpt lat="45.6347791" lon="9.0275447"><ele>226.0</ele><time>2026-03-27T15:21:45.338Z</time></trkpt><trkpt lat="45.6347426" lon="9.0273897"><ele>225.99999999999997</ele><time>2026-03-27T15:21:47.339Z</time></trkpt><trkpt lat="45.6346981" lon="9.0272947"><ele>226.0</ele><time>2026-03-27T15:21:49.339Z</time></trkpt><trkpt lat="45.6346631" lon="9.0271835"><ele>226.0</ele><time>2026-03-27T15:21:52.339Z</time></trkpt><trkpt lat="45.6345766" lon="9.0272592"><ele>226.0</ele><time>2026-03-27T15:21:54.338Z</time></trkpt><trkpt lat="45.6345538" lon="9.0273512"><ele>226.0</ele><time>2026-03-27T15:21:55.339Z</time></trkpt><trkpt lat="45.6345417" lon="9.027444"><ele>226.0</ele><time>2026-03-27T15:21:56.338Z</time></trkpt><trkpt lat="45.6345355" lon="9.0275346"><ele>226.0</ele><time>2026-03-27T15:21:57.339Z</time></trkpt><trkpt lat="45.6345318" lon="9.027626"><ele>226.0</ele><time>2026-03-27T15:21:58.338Z</time></trkpt><trkpt lat="45.6345117" lon="9.0277187"><ele>226.0</ele><time>2026-03-27T15:21:59.34Z</time></trkpt><trkpt lat="45.6345127" lon="9.0278195"><ele>225.99999999999997</ele><time>2026-03-27T15:22:00.34Z</time></trkpt><trkpt lat="45.6345074" lon="9.0279166"><ele>226.0</ele><time>2026-03-27T15:22:01.34Z</time></trkpt><trkpt lat="45.6345013" lon="9.0280163"><ele>226.0</ele><time>2026-03-27T15:22:02.339Z</time></trkpt><trkpt lat="45.6345002" lon="9.0281166"><ele>226.0</ele><time>2026-03-27T15:22:03.338Z</time></trkpt><trkpt lat="45.6344929" lon="9.0282136"><ele>225.99999999999997</ele><time>2026-03-27T15:22:04.339Z</time></trkpt><trkpt lat="45.6344834" lon="9.0283059"><ele>226.0</ele><time>2026-03-27T15:22:05.338Z</time></trkpt><trkpt lat="45.6344653" lon="9.0285012"><ele>226.16666666666666</ele><time>2026-03-27T15:22:07.339Z</time></trkpt><trkpt lat="45.6344349" lon="9.0286693"><ele>226.33333333333331</ele><time>2026-03-27T15:22:09.339Z</time></trkpt><trkpt lat="45.6344063" lon="9.0287534"><ele>226.5</ele><time>2026-03-27T15:22:10.339Z</time></trkpt><trkpt lat="45.6343696" lon="9.0288272"><ele>226.66666666666669</ele><time>2026-03-27T15:22:11.339Z</time></trkpt><trkpt lat="45.6343327" lon="9.0289037"><ele>226.83333333333334</ele><time>2026-03-27T15:22:12.338Z</time></trkpt><trkpt lat="45.6342789" lon="9.0289875"><ele>227.0</ele><time>2026-03-27T15:22:13.338Z</time></trkpt><trkpt lat="45.6342264" lon="9.0290631"><ele>227.00000000000003</ele><time>2026-03-27T15:22:14.339Z</time></trkpt><trkpt lat="45.6341778" lon="9.0291306"><ele>227.0</ele><time>2026-03-27T15:22:15.339Z</time></trkpt><trkpt lat="45.6341287" lon="9.0292231"><ele>227.0</ele><time>2026-03-27T15:22:16.34Z</time></trkpt><trkpt lat="45.6340749" lon="9.0293078"><ele>227.0</ele><time>2026-03-27T15:22:17.339Z</time></trkpt><trkpt lat="45.6340273" lon="9.0293914"><ele>227.00000000000003</ele><time>2026-03-27T15:22:18.339Z</time></trkpt><trkpt lat="45.6339728" lon="9.0294754"><ele>227.0</ele><time>2026-03-27T15:22:19.339Z</time></trkpt><trkpt lat="45.633916" lon="9.0295574"><ele>227.00000000000003</ele><time>2026-03-27T15:22:20.339Z</time></trkpt><trkpt lat="45.6338655" lon="9.0296414"><ele>227.0</ele><time>2026-03-27T15:22:21.339Z</time></trkpt><trkpt lat="45.633815" lon="9.0297278"><ele>227.0</ele><time>2026-03-27T15:22:22.338Z</time></trkpt><trkpt lat="45.6337548" lon="9.0297945"><ele>227.0</ele><time>2026-03-27T15:22:23.339Z</time></trkpt><trkpt lat="45.6336822" lon="9.0298374"><ele>227.00000000000003</ele><time>2026-03-27T15:22:24.339Z</time></trkpt><trkpt lat="45.6336043" lon="9.0298379"><ele>227.0</ele><time>2026-03-27T15:22:25.339Z</time></trkpt><trkpt lat="45.6335298" lon="9.0297913"><ele>227.33333333333334</ele><time>2026-03-27T15:22:26.339Z</time></trkpt><trkpt lat="45.6334686" lon="9.0297085"><ele>227.66666666666669</ele><time>2026-03-27T15:22:27.339Z</time></trkpt><trkpt lat="45.6334225" lon="9.0296105"><ele>228.0</ele><time>2026-03-27T15:22:28.338Z</time></trkpt><trkpt lat="45.6333768" lon="9.0295274"><ele>228.33333333333331</ele><time>2026-03-27T15:22:29.338Z</time></trkpt><trkpt lat="45.6333339" lon="9.0294402"><ele>228.66666666666666</ele><time>2026-03-27T15:22:30.339Z</time></trkpt><trkpt lat="45.6332836" lon="9.0293583"><ele>229.0</ele><time>2026-03-27T15:22:31.34Z</time></trkpt><trkpt lat="45.6332182" lon="9.0293732"><ele>229.0</ele><time>2026-03-27T15:22:32.339Z</time></trkpt><trkpt lat="45.6331489" lon="9.0294939"><ele>228.99999999999997</ele><time>2026-03-27T15:22:33.339Z</time></trkpt><trkpt lat="45.6330811" lon="9.0295684"><ele>228.99999999999997</ele><time>2026-03-27T15:22:34.34Z</time></trkpt><trkpt lat="45.6329924" lon="9.0297166"><ele>229.0</ele><time>2026-03-27T15:22:35.34Z</time></trkpt><trkpt lat="45.6329117" lon="9.0298362"><ele>229.0</ele><time>2026-03-27T15:22:36.339Z</time></trkpt><trkpt lat="45.6328154" lon="9.0299324"><ele>228.49999999999997</ele><time>2026-03-27T15:22:37.34Z</time></trkpt><trkpt lat="45.6327946" lon="9.0300251"><ele>228.0</ele><time>2026-03-27T15:22:38.339Z</time></trkpt><trkpt lat="45.6327477" lon="9.0301061"><ele>227.5</ele><time>2026-03-27T15:22:39.338Z</time></trkpt><trkpt lat="45.6326937" lon="9.0301603"><ele>227.0</ele><time>2026-03-27T15:22:40.339Z</time></trkpt><trkpt lat="45.6326347" lon="9.0301919"><ele>226.49999999999997</ele><time>2026-03-27T15:22:41.339Z</time></trkpt><trkpt lat="45.6325472" lon="9.0302103"><ele>226.0</ele><time>2026-03-27T15:22:42.34Z</time></trkpt><trkpt lat="45.6324339" lon="9.0302014"><ele>226.0</ele><time>2026-03-27T15:22:43.34Z</time></trkpt><trkpt lat="45.6323213" lon="9.030197"><ele>226.00000000000003</ele><time>2026-03-27T15:22:44.339Z</time></trkpt><trkpt lat="45.6322119" lon="9.0301925"><ele>226.00000000000003</ele><time>2026-03-27T15:22:45.338Z</time></trkpt><trkpt lat="45.6321171" lon="9.0301733"><ele>226.0</ele><time>2026-03-27T15:22:46.338Z</time></trkpt><trkpt lat="45.6320245" lon="9.0301466"><ele>226.0</ele><time>2026-03-27T15:22:47.339Z</time></trkpt><trkpt lat="45.631961" lon="9.0300823"><ele>225.5</ele><time>2026-03-27T15:22:48.339Z</time></trkpt><trkpt lat="45.631911" lon="9.0299232"><ele>225.0</ele><time>2026-03-27T15:22:49.339Z</time></trkpt><trkpt lat="45.6318535" lon="9.0297918"><ele>224.5</ele><time>2026-03-27T15:22:50.339Z</time></trkpt><trkpt lat="45.6317855" lon="9.0296539"><ele>224.0</ele><time>2026-03-27T15:22:51.339Z</time></trkpt><trkpt lat="45.6317267" lon="9.0295202"><ele>224.0</ele><time>2026-03-27T15:22:52.338Z</time></trkpt><trkpt lat="45.6316556" lon="9.0293869"><ele>223.99999999999997</ele><time>2026-03-27T15:22:53.339Z</time></trkpt><trkpt lat="45.6315881" lon="9.0292684"><ele>223.99999999999997</ele><time>2026-03-27T15:22:54.34Z</time></trkpt><trkpt lat="45.6315254" lon="9.029133"><ele>224.0</ele><time>2026-03-27T15:22:55.34Z</time></trkpt><trkpt lat="45.6314575" lon="9.0290287"><ele>224.0</ele><time>2026-03-27T15:22:56.339Z</time></trkpt><trkpt lat="45.6313269" lon="9.0289033"><ele>224.00000000000003</ele><time>2026-03-27T15:22:58.34Z</time></trkpt><trkpt lat="45.631229" lon="9.0287588"><ele>224.0</ele><time>2026-03-27T15:23:00.339Z</time></trkpt><trkpt lat="45.6311765" lon="9.0286758"><ele>224.0</ele><time>2026-03-27T15:23:01.338Z</time></trkpt><trkpt lat="45.631134" lon="9.0286005"><ele>224.0</ele><time>2026-03-27T15:23:02.339Z</time></trkpt><trkpt lat="45.6310878" lon="9.0285164"><ele>224.00000000000003</ele><time>2026-03-27T15:23:03.34Z</time></trkpt><trkpt lat="45.6310412" lon="9.028423"><ele>224.0</ele><time>2026-03-27T15:23:04.339Z</time></trkpt><trkpt lat="45.631009" lon="9.0283375"><ele>223.66666666666669</ele><time>2026-03-27T15:23:05.338Z</time></trkpt><trkpt lat="45.6309715" lon="9.0282531"><ele>223.33333333333334</ele><time>2026-03-27T15:23:06.339Z</time></trkpt><trkpt lat="45.6309327" lon="9.0281262"><ele>223.0</ele><time>2026-03-27T15:23:09.339Z</time></trkpt><trkpt lat="45.6308834" lon="9.0280669"><ele>222.66666666666669</ele><time>2026-03-27T15:23:11.339Z</time></trkpt><trkpt lat="45.6308584" lon="9.0279631"><ele>222.33333333333334</ele><time>2026-03-27T15:23:14.34Z</time></trkpt><trkpt lat="45.6308164" lon="9.0278759"><ele>222.0</ele><time>2026-03-27T15:23:50.339Z</time></trkpt><trkpt lat="45.6307747" lon="9.0277677"><ele>222.0</ele><time>2026-03-27T15:23:54.339Z</time></trkpt><trkpt lat="45.6307498" lon="9.0276729"><ele>222.0</ele><time>2026-03-27T15:23:57.34Z</time></trkpt><trkpt lat="45.6307152" lon="9.0275821"><ele>222.0</ele><time>2026-03-27T15:24:01.339Z</time></trkpt><trkpt lat="45.630686" lon="9.0274823"><ele>222.0</ele><time>2026-03-27T15:24:04.338Z</time></trkpt><trkpt lat="45.6306836" lon="9.0273698"><ele>222.0</ele><time>2026-03-27T15:24:06.339Z</time></trkpt><trkpt lat="45.6306919" lon="9.0272603"><ele>222.0</ele><time>2026-03-27T15:24:08.338Z</time></trkpt><trkpt lat="45.6307013" lon="9.0271412"><ele>222.0</ele><time>2026-03-27T15:24:10.339Z</time></trkpt><trkpt lat="45.6307081" lon="9.0270034"><ele>222.0</ele><time>2026-03-27T15:24:12.34Z</time></trkpt><trkpt lat="45.6307251" lon="9.0268644"><ele>222.0</ele><time>2026-03-27T15:24:14.34Z</time></trkpt><trkpt lat="45.6307296" lon="9.0267215"><ele>222.0</ele><time>2026-03-27T15:24:16.339Z</time></trkpt><trkpt lat="45.6307381" lon="9.026541"><ele>222.0</ele><time>2026-03-27T15:24:18.339Z</time></trkpt><trkpt lat="45.6307409" lon="9.0264474"><ele>222.0</ele><time>2026-03-27T15:24:19.339Z</time></trkpt><trkpt lat="45.6307375" lon="9.0263"><ele>222.0</ele><time>2026-03-27T15:24:21.339Z</time></trkpt><trkpt lat="45.6307351" lon="9.0261757"><ele>222.0</ele><time>2026-03-27T15:24:23.34Z</time></trkpt><trkpt lat="45.6307357" lon="9.0260492"><ele>222.0</ele><time>2026-03-27T15:24:26.339Z</time></trkpt><trkpt lat="45.6307372" lon="9.025951"><ele>222.0</ele><time>2026-03-27T15:24:29.339Z</time></trkpt><trkpt lat="45.6307351" lon="9.0258594"><ele>222.0</ele><time>2026-03-27T15:24:32.339Z</time></trkpt><trkpt lat="45.630745" lon="9.0257563"><ele>222.33333333333334</ele><time>2026-03-27T15:24:35.338Z</time></trkpt><trkpt lat="45.6307506" lon="9.0256549"><ele>222.66666666666669</ele><time>2026-03-27T15:24:37.34Z</time></trkpt><trkpt lat="45.6307549" lon="9.0255626"><ele>223.0</ele><time>2026-03-27T15:24:39.338Z</time></trkpt><trkpt lat="45.63076" lon="9.0254671"><ele>223.33333333333334</ele><time>2026-03-27T15:24:41.338Z</time></trkpt><trkpt lat="45.6307578" lon="9.0253437"><ele>223.66666666666669</ele><time>2026-03-27T15:24:43.337Z</time></trkpt><trkpt lat="45.6307592" lon="9.0251883"><ele>224.0</ele><time>2026-03-27T15:24:45.339Z</time></trkpt><trkpt lat="45.6307669" lon="9.025012"><ele>224.14285714285714</ele><time>2026-03-27T15:24:47.338Z</time></trkpt><trkpt lat="45.6307658" lon="9.0249097"><ele>224.28571428571428</ele><time>2026-03-27T15:24:48.338Z</time></trkpt><trkpt lat="45.6307661" lon="9.0248158"><ele>224.42857142857144</ele><time>2026-03-27T15:24:49.337Z</time></trkpt><trkpt lat="45.6307683" lon="9.0247229"><ele>224.57142857142858</ele><time>2026-03-27T15:24:50.338Z</time></trkpt><trkpt lat="45.6307703" lon="9.0246316"><ele>224.71428571428572</ele><time>2026-03-27T15:24:51.338Z</time></trkpt><trkpt lat="45.6307721" lon="9.0245298"><ele>224.8571428571429</ele><time>2026-03-27T15:24:52.337Z</time></trkpt><trkpt lat="45.6307732" lon="9.0244376"><ele>225.00000000000003</ele><time>2026-03-27T15:24:53.337Z</time></trkpt><trkpt lat="45.6307749" lon="9.0243408"><ele>225.00000000000003</ele><time>2026-03-27T15:24:54.338Z</time></trkpt><trkpt lat="45.6307776" lon="9.0242442"><ele>225.0</ele><time>2026-03-27T15:24:55.338Z</time></trkpt><trkpt lat="45.6307828" lon="9.0241448"><ele>225.00000000000003</ele><time>2026-03-27T15:24:56.338Z</time></trkpt><trkpt lat="45.6307867" lon="9.0240445"><ele>225.00000000000003</ele><time>2026-03-27T15:24:57.338Z</time></trkpt><trkpt lat="45.6307829" lon="9.0239436"><ele>225.0</ele><time>2026-03-27T15:24:58.338Z</time></trkpt><trkpt lat="45.6307793" lon="9.0238388"><ele>225.00000000000003</ele><time>2026-03-27T15:24:59.338Z</time></trkpt><trkpt lat="45.6307812" lon="9.0237362"><ele>225.00000000000003</ele><time>2026-03-27T15:25:00.338Z</time></trkpt><trkpt lat="45.6307897" lon="9.0236287"><ele>224.16666666666666</ele><time>2026-03-27T15:25:01.337Z</time></trkpt><trkpt lat="45.6307896" lon="9.0235321"><ele>223.33333333333331</ele><time>2026-03-27T15:25:02.338Z</time></trkpt><trkpt lat="45.6307981" lon="9.0234097"><ele>222.5</ele><time>2026-03-27T15:25:03.339Z</time></trkpt><trkpt lat="45.6308017" lon="9.0232814"><ele>221.66666666666666</ele><time>2026-03-27T15:25:04.339Z</time></trkpt><trkpt lat="45.630804" lon="9.0231702"><ele>220.83333333333331</ele><time>2026-03-27T15:25:05.338Z</time></trkpt><trkpt lat="45.6308051" lon="9.0230363"><ele>220.0</ele><time>2026-03-27T15:25:06.338Z</time></trkpt><trkpt lat="45.6308136" lon="9.0229235"><ele>219.99999999999997</ele><time>2026-03-27T15:25:07.338Z</time></trkpt><trkpt lat="45.6308198" lon="9.0228156"><ele>220.0</ele><time>2026-03-27T15:25:08.339Z</time></trkpt><trkpt lat="45.6308216" lon="9.0227151"><ele>220.0</ele><time>2026-03-27T15:25:09.338Z</time></trkpt><trkpt lat="45.6308186" lon="9.0226162"><ele>220.0</ele><time>2026-03-27T15:25:10.337Z</time></trkpt><trkpt lat="45.6308168" lon="9.0225137"><ele>219.99999999999997</ele><time>2026-03-27T15:25:11.337Z</time></trkpt><trkpt lat="45.6308159" lon="9.0224118"><ele>220.0</ele><time>2026-03-27T15:25:12.337Z</time></trkpt><trkpt lat="45.6308185" lon="9.0222343"><ele>220.2</ele><time>2026-03-27T15:25:14.337Z</time></trkpt><trkpt lat="45.6308203" lon="9.0220747"><ele>220.4</ele><time>2026-03-27T15:25:16.337Z</time></trkpt><trkpt lat="45.6308228" lon="9.0219314"><ele>220.60000000000002</ele><time>2026-03-27T15:25:18.339Z</time></trkpt><trkpt lat="45.6308229" lon="9.0217922"><ele>220.8</ele><time>2026-03-27T15:25:20.338Z</time></trkpt><trkpt lat="45.6308264" lon="9.0216155"><ele>221.0</ele><time>2026-03-27T15:25:22.337Z</time></trkpt><trkpt lat="45.630834" lon="9.0215163"><ele>221.00000000000003</ele><time>2026-03-27T15:25:23.338Z</time></trkpt><trkpt lat="45.6308388" lon="9.0214191"><ele>221.0</ele><time>2026-03-27T15:25:24.338Z</time></trkpt><trkpt lat="45.6308415" lon="9.0213289"><ele>221.0</ele><time>2026-03-27T15:25:25.338Z</time></trkpt><trkpt lat="45.6308451" lon="9.0212385"><ele>221.0</ele><time>2026-03-27T15:25:26.338Z</time></trkpt><trkpt lat="45.6308507" lon="9.0210847"><ele>221.00000000000003</ele><time>2026-03-27T15:25:28.338Z</time></trkpt><trkpt lat="45.6308589" lon="9.020935"><ele>221.0</ele><time>2026-03-27T15:25:30.337Z</time></trkpt><trkpt lat="45.6308616" lon="9.0207827"><ele>220.83333333333334</ele><time>2026-03-27T15:25:32.337Z</time></trkpt><trkpt lat="45.6308745" lon="9.0206727"><ele>220.66666666666669</ele><time>2026-03-27T15:25:35.338Z</time></trkpt><trkpt lat="45.6308773" lon="9.0205664"><ele>220.5</ele><time>2026-03-27T15:25:37.338Z</time></trkpt><trkpt lat="45.6308775" lon="9.0204121"><ele>220.33333333333331</ele><time>2026-03-27T15:25:39.338Z</time></trkpt><trkpt lat="45.630885" lon="9.0203204"><ele>220.16666666666666</ele><time>2026-03-27T15:25:40.338Z</time></trkpt><trkpt lat="45.6308873" lon="9.0202166"><ele>220.0</ele><time>2026-03-27T15:25:41.338Z</time></trkpt><trkpt lat="45.6308911" lon="9.0201166"><ele>220.0</ele><time>2026-03-27T15:25:42.338Z</time></trkpt><trkpt lat="45.6308959" lon="9.02002"><ele>220.0</ele><time>2026-03-27T15:25:43.338Z</time></trkpt><trkpt lat="45.6309036" lon="9.0198547"><ele>220.0</ele><time>2026-03-27T15:25:45.339Z</time></trkpt><trkpt lat="45.6309076" lon="9.019696"><ele>220.0</ele><time>2026-03-27T15:25:47.338Z</time></trkpt><trkpt lat="45.630911" lon="9.0195072"><ele>220.0</ele><time>2026-03-27T15:25:49.338Z</time></trkpt><trkpt lat="45.630919" lon="9.0193875"><ele>219.99999999999997</ele><time>2026-03-27T15:25:50.338Z</time></trkpt><trkpt lat="45.6309255" lon="9.01927"><ele>220.0</ele><time>2026-03-27T15:25:51.339Z</time></trkpt><trkpt lat="45.6309323" lon="9.0191695"><ele>220.0</ele><time>2026-03-27T15:25:52.338Z</time></trkpt><trkpt lat="45.6309355" lon="9.0190182"><ele>220.0</ele><time>2026-03-27T15:25:54.338Z</time></trkpt><trkpt lat="45.6309333" lon="9.0188828"><ele>219.99999999999997</ele><time>2026-03-27T15:25:56.338Z</time></trkpt><trkpt lat="45.6309212" lon="9.0187675"><ele>220.0</ele><time>2026-03-27T15:25:59.337Z</time></trkpt><trkpt lat="45.6309176" lon="9.0186359"><ele>220.0</ele><time>2026-03-27T15:26:01.338Z</time></trkpt><trkpt lat="45.6309609" lon="9.0184681"><ele>220.0</ele><time>2026-03-27T15:26:03.339Z</time></trkpt><trkpt lat="45.6310412" lon="9.0183222"><ele>220.0</ele><time>2026-03-27T15:26:05.338Z</time></trkpt><trkpt lat="45.6310853" lon="9.0182435"><ele>220.0</ele><time>2026-03-27T15:26:06.338Z</time></trkpt><trkpt lat="45.6311335" lon="9.018165"><ele>220.0</ele><time>2026-03-27T15:26:07.337Z</time></trkpt><trkpt lat="45.6311878" lon="9.0180805"><ele>219.83333333333331</ele><time>2026-03-27T15:26:08.338Z</time></trkpt><trkpt lat="45.6312444" lon="9.0179983"><ele>219.66666666666666</ele><time>2026-03-27T15:26:09.338Z</time></trkpt><trkpt lat="45.6312976" lon="9.0179198"><ele>219.5</ele><time>2026-03-27T15:26:10.339Z</time></trkpt><trkpt lat="45.6313499" lon="9.0178442"><ele>219.33333333333331</ele><time>2026-03-27T15:26:11.338Z</time></trkpt><trkpt lat="45.6313935" lon="9.0177727"><ele>219.16666666666666</ele><time>2026-03-27T15:26:12.339Z</time></trkpt><trkpt lat="45.6314723" lon="9.0176453"><ele>219.0</ele><time>2026-03-27T15:26:14.337Z</time></trkpt><trkpt lat="45.6315501" lon="9.0175251"><ele>219.16666666666666</ele><time>2026-03-27T15:26:16.338Z</time></trkpt><trkpt lat="45.631612" lon="9.0174269"><ele>219.33333333333331</ele><time>2026-03-27T15:26:18.338Z</time></trkpt><trkpt lat="45.6316717" lon="9.0173532"><ele>219.5</ele><time>2026-03-27T15:26:21.339Z</time></trkpt><trkpt lat="45.6317252" lon="9.0172887"><ele>219.66666666666666</ele><time>2026-03-27T15:26:24.338Z</time></trkpt><trkpt lat="45.6317865" lon="9.0172091"><ele>219.83333333333331</ele><time>2026-03-27T15:26:27.339Z</time></trkpt><trkpt lat="45.6318507" lon="9.0171592"><ele>220.0</ele><time>2026-03-27T15:26:31.339Z</time></trkpt><trkpt lat="45.6319125" lon="9.0170574"><ele>219.99999999999997</ele><time>2026-03-27T15:26:35.337Z</time></trkpt><trkpt lat="45.6319389" lon="9.016959"><ele>220.0</ele><time>2026-03-27T15:26:37.338Z</time></trkpt><trkpt lat="45.6319229" lon="9.0168294"><ele>220.0</ele><time>2026-03-27T15:26:39.338Z</time></trkpt><trkpt lat="45.6318291" lon="9.0167244"><ele>220.0</ele><time>2026-03-27T15:26:41.338Z</time></trkpt><trkpt lat="45.6317637" lon="9.0167076"><ele>219.99999999999997</ele><time>2026-03-27T15:26:42.339Z</time></trkpt><trkpt lat="45.6316907" lon="9.0167278"><ele>220.0</ele><time>2026-03-27T15:26:43.337Z</time></trkpt><trkpt lat="45.6316049" lon="9.0167616"><ele>220.0</ele><time>2026-03-27T15:26:44.338Z</time></trkpt><trkpt lat="45.6314977" lon="9.0167863"><ele>220.0</ele><time>2026-03-27T15:26:45.338Z</time></trkpt><trkpt lat="45.63139" lon="9.0168255"><ele>220.0</ele><time>2026-03-27T15:26:46.337Z</time></trkpt><trkpt lat="45.6312068" lon="9.0168266"><ele>220.0</ele><time>2026-03-27T15:26:47.338Z</time></trkpt><trkpt lat="45.6310302" lon="9.0168298"><ele>220.33333333333331</ele><time>2026-03-27T15:26:48.338Z</time></trkpt><trkpt lat="45.6308679" lon="9.016826"><ele>220.66666666666669</ele><time>2026-03-27T15:26:49.338Z</time></trkpt><trkpt lat="45.6307026" lon="9.0168357"><ele>221.0</ele><time>2026-03-27T15:26:50.339Z</time></trkpt><trkpt lat="45.630534" lon="9.0168517"><ele>221.0</ele><time>2026-03-27T15:26:51.339Z</time></trkpt><trkpt lat="45.6303577" lon="9.0168761"><ele>221.0</ele><time>2026-03-27T15:26:52.338Z</time></trkpt><trkpt lat="45.6301691" lon="9.0169064"><ele>221.0</ele><time>2026-03-27T15:26:53.339Z</time></trkpt><trkpt lat="45.6299805" lon="9.0169305"><ele>220.33333333333334</ele><time>2026-03-27T15:26:54.338Z</time></trkpt><trkpt lat="45.6298041" lon="9.0169486"><ele>219.66666666666669</ele><time>2026-03-27T15:26:55.338Z</time></trkpt><trkpt lat="45.6296275" lon="9.0169692"><ele>219.0</ele><time>2026-03-27T15:26:56.338Z</time></trkpt><trkpt lat="45.6294531" lon="9.0169929"><ele>219.0</ele><time>2026-03-27T15:26:57.338Z</time></trkpt><trkpt lat="45.6292784" lon="9.0170174"><ele>219.0</ele><time>2026-03-27T15:26:58.338Z</time></trkpt><trkpt lat="45.6291048" lon="9.01704"><ele>219.0</ele><time>2026-03-27T15:26:59.338Z</time></trkpt><trkpt lat="45.6289421" lon="9.0170631"><ele>219.0</ele><time>2026-03-27T15:27:00.338Z</time></trkpt><trkpt lat="45.628787" lon="9.017091"><ele>219.0</ele><time>2026-03-27T15:27:01.339Z</time></trkpt><trkpt lat="45.6286439" lon="9.0171185"><ele>219.0</ele><time>2026-03-27T15:27:02.337Z</time></trkpt><trkpt lat="45.6285118" lon="9.0171424"><ele>219.0</ele><time>2026-03-27T15:27:03.337Z</time></trkpt><trkpt lat="45.628391" lon="9.0171657"><ele>219.25</ele><time>2026-03-27T15:27:04.337Z</time></trkpt><trkpt lat="45.6282759" lon="9.0171883"><ele>219.5</ele><time>2026-03-27T15:27:05.338Z</time></trkpt><trkpt lat="45.6281662" lon="9.0172127"><ele>219.75</ele><time>2026-03-27T15:27:06.339Z</time></trkpt><trkpt lat="45.6280555" lon="9.0172314"><ele>220.0</ele><time>2026-03-27T15:27:07.338Z</time></trkpt><trkpt lat="45.6279418" lon="9.0172508"><ele>220.0</ele><time>2026-03-27T15:27:08.339Z</time></trkpt><trkpt lat="45.6278276" lon="9.0172658"><ele>220.0</ele><time>2026-03-27T15:27:09.339Z</time></trkpt><trkpt lat="45.6277142" lon="9.0172838"><ele>220.0</ele><time>2026-03-27T15:27:10.338Z</time></trkpt><trkpt lat="45.6275967" lon="9.0173008"><ele>220.0</ele><time>2026-03-27T15:27:11.338Z</time></trkpt><trkpt lat="45.6274737" lon="9.0173177"><ele>219.0</ele><time>2026-03-27T15:27:12.338Z</time></trkpt><trkpt lat="45.6273468" lon="9.0173402"><ele>218.0</ele><time>2026-03-27T15:27:13.338Z</time></trkpt><trkpt lat="45.6272289" lon="9.0173557"><ele>217.0</ele><time>2026-03-27T15:27:14.338Z</time></trkpt><trkpt lat="45.6270854" lon="9.0173759"><ele>216.0</ele><time>2026-03-27T15:27:15.337Z</time></trkpt><trkpt lat="45.6269486" lon="9.0173979"><ele>216.0</ele><time>2026-03-27T15:27:16.338Z</time></trkpt><trkpt lat="45.6268192" lon="9.0174238"><ele>216.0</ele><time>2026-03-27T15:27:17.338Z</time></trkpt><trkpt lat="45.6266927" lon="9.0174455"><ele>216.0</ele><time>2026-03-27T15:27:18.337Z</time></trkpt><trkpt lat="45.6265711" lon="9.0174717"><ele>216.0</ele><time>2026-03-27T15:27:19.339Z</time></trkpt><trkpt lat="45.6264499" lon="9.017498"><ele>216.0</ele><time>2026-03-27T15:27:20.339Z</time></trkpt><trkpt lat="45.6263302" lon="9.0175257"><ele>216.0</ele><time>2026-03-27T15:27:21.339Z</time></trkpt><trkpt lat="45.6262058" lon="9.0175506"><ele>216.0</ele><time>2026-03-27T15:27:22.338Z</time></trkpt><trkpt lat="45.6260746" lon="9.0175791"><ele>216.0</ele><time>2026-03-27T15:27:23.337Z</time></trkpt><trkpt lat="45.6259428" lon="9.0176056"><ele>215.75</ele><time>2026-03-27T15:27:24.337Z</time></trkpt><trkpt lat="45.6258164" lon="9.0176291"><ele>215.5</ele><time>2026-03-27T15:27:25.339Z</time></trkpt><trkpt lat="45.625696" lon="9.0176551"><ele>215.25</ele><time>2026-03-27T15:27:26.338Z</time></trkpt><trkpt lat="45.6255799" lon="9.017676"><ele>215.0</ele><time>2026-03-27T15:27:27.338Z</time></trkpt><trkpt lat="45.6254679" lon="9.0176997"><ele>215.0</ele><time>2026-03-27T15:27:28.339Z</time></trkpt><trkpt lat="45.625354" lon="9.0177308"><ele>215.0</ele><time>2026-03-27T15:27:29.339Z</time></trkpt><trkpt lat="45.6252377" lon="9.0177559"><ele>215.0</ele><time>2026-03-27T15:27:30.337Z</time></trkpt><trkpt lat="45.6251153" lon="9.0177814"><ele>215.0</ele><time>2026-03-27T15:27:31.338Z</time></trkpt><trkpt lat="45.6249867" lon="9.0178181"><ele>215.5</ele><time>2026-03-27T15:27:32.338Z</time></trkpt><trkpt lat="45.6248547" lon="9.0178634"><ele>216.0</ele><time>2026-03-27T15:27:33.338Z</time></trkpt><trkpt lat="45.624727" lon="9.0179047"><ele>216.5</ele><time>2026-03-27T15:27:34.337Z</time></trkpt><trkpt lat="45.624605" lon="9.0179339"><ele>217.0</ele><time>2026-03-27T15:27:35.337Z</time></trkpt><trkpt lat="45.6244886" lon="9.0179559"><ele>215.8</ele><time>2026-03-27T15:27:36.338Z</time></trkpt><trkpt lat="45.6243783" lon="9.0179744"><ele>214.6</ele><time>2026-03-27T15:27:37.337Z</time></trkpt><trkpt lat="45.6242722" lon="9.0179889"><ele>213.4</ele><time>2026-03-27T15:27:38.337Z</time></trkpt><trkpt lat="45.6241715" lon="9.0179978"><ele>212.20000000000002</ele><time>2026-03-27T15:27:39.336Z</time></trkpt><trkpt lat="45.6240814" lon="9.0179992"><ele>211.0</ele><time>2026-03-27T15:27:40.337Z</time></trkpt><trkpt lat="45.6239919" lon="9.0179917"><ele>210.99999999999997</ele><time>2026-03-27T15:27:41.337Z</time></trkpt><trkpt lat="45.6239063" lon="9.0179745"><ele>211.0</ele><time>2026-03-27T15:27:42.337Z</time></trkpt><trkpt lat="45.6238238" lon="9.0179401"><ele>211.0</ele><time>2026-03-27T15:27:43.338Z</time></trkpt><trkpt lat="45.6237502" lon="9.0178947"><ele>211.0</ele><time>2026-03-27T15:27:44.336Z</time></trkpt><trkpt lat="45.6236774" lon="9.0178495"><ele>210.99999999999997</ele><time>2026-03-27T15:27:45.337Z</time></trkpt><trkpt lat="45.6235953" lon="9.0178521"><ele>211.0</ele><time>2026-03-27T15:27:46.336Z</time></trkpt><trkpt lat="45.6235117" lon="9.0179118"><ele>211.20000000000002</ele><time>2026-03-27T15:27:47.337Z</time></trkpt><trkpt lat="45.623441" lon="9.0180113"><ele>211.4</ele><time>2026-03-27T15:27:48.337Z</time></trkpt><trkpt lat="45.623365" lon="9.0181317"><ele>211.6</ele><time>2026-03-27T15:27:49.337Z</time></trkpt><trkpt lat="45.6232596" lon="9.0182132"><ele>211.8</ele><time>2026-03-27T15:27:50.337Z</time></trkpt><trkpt lat="45.6231559" lon="9.0182693"><ele>212.0</ele><time>2026-03-27T15:27:51.336Z</time></trkpt><trkpt lat="45.623059" lon="9.0183025"><ele>211.83333333333334</ele><time>2026-03-27T15:27:52.337Z</time></trkpt><trkpt lat="45.6229687" lon="9.018328"><ele>211.66666666666669</ele><time>2026-03-27T15:27:53.336Z</time></trkpt><trkpt lat="45.6228864" lon="9.0183428"><ele>211.5</ele><time>2026-03-27T15:27:54.337Z</time></trkpt><trkpt lat="45.6228098" lon="9.0183465"><ele>211.33333333333331</ele><time>2026-03-27T15:27:55.336Z</time></trkpt><trkpt lat="45.622742" lon="9.018347"><ele>211.16666666666666</ele><time>2026-03-27T15:27:56.337Z</time></trkpt><trkpt lat="45.6226443" lon="9.01834"><ele>211.0</ele><time>2026-03-27T15:27:58.338Z</time></trkpt><trkpt lat="45.6225264" lon="9.0183027"><ele>211.0</ele><time>2026-03-27T15:28:00.337Z</time></trkpt><trkpt lat="45.6224481" lon="9.0182817"><ele>211.0</ele><time>2026-03-27T15:28:01.337Z</time></trkpt><trkpt lat="45.6223572" lon="9.0183052"><ele>211.0</ele><time>2026-03-27T15:28:02.336Z</time></trkpt><trkpt lat="45.6222634" lon="9.0183849"><ele>211.0</ele><time>2026-03-27T15:28:03.336Z</time></trkpt><trkpt lat="45.6221587" lon="9.0185083"><ele>211.0</ele><time>2026-03-27T15:28:04.338Z</time></trkpt><trkpt lat="45.6220247" lon="9.0186232"><ele>211.0</ele><time>2026-03-27T15:28:05.338Z</time></trkpt><trkpt lat="45.6218995" lon="9.0187016"><ele>211.0</ele><time>2026-03-27T15:28:06.336Z</time></trkpt><trkpt lat="45.621781" lon="9.0187723"><ele>211.0</ele><time>2026-03-27T15:28:07.337Z</time></trkpt><trkpt lat="45.6216669" lon="9.018832"><ele>211.0</ele><time>2026-03-27T15:28:08.336Z</time></trkpt><trkpt lat="45.6215522" lon="9.0188927"><ele>211.0</ele><time>2026-03-27T15:28:09.337Z</time></trkpt><trkpt lat="45.6214422" lon="9.0189503"><ele>211.0</ele><time>2026-03-27T15:28:10.338Z</time></trkpt><trkpt lat="45.6213317" lon="9.019007"><ele>211.0</ele><time>2026-03-27T15:28:11.337Z</time></trkpt><trkpt lat="45.6212232" lon="9.0190635"><ele>211.0</ele><time>2026-03-27T15:28:12.337Z</time></trkpt><trkpt lat="45.6211228" lon="9.0191091"><ele>210.8</ele><time>2026-03-27T15:28:13.336Z</time></trkpt><trkpt lat="45.6210251" lon="9.0191524"><ele>210.60000000000002</ele><time>2026-03-27T15:28:14.336Z</time></trkpt><trkpt lat="45.6209307" lon="9.0191902"><ele>210.4</ele><time>2026-03-27T15:28:15.336Z</time></trkpt><trkpt lat="45.6208438" lon="9.0192273"><ele>210.2</ele><time>2026-03-27T15:28:16.337Z</time></trkpt><trkpt lat="45.6207613" lon="9.0192571"><ele>210.0</ele><time>2026-03-27T15:28:17.336Z</time></trkpt><trkpt lat="45.620684" lon="9.019284"><ele>210.0</ele><time>2026-03-27T15:28:18.338Z</time></trkpt><trkpt lat="45.6206097" lon="9.0193049"><ele>210.0</ele><time>2026-03-27T15:28:19.337Z</time></trkpt><trkpt lat="45.6205375" lon="9.0193208"><ele>210.0</ele><time>2026-03-27T15:28:20.337Z</time></trkpt><trkpt lat="45.6204718" lon="9.0193324"><ele>210.0</ele><time>2026-03-27T15:28:21.336Z</time></trkpt><trkpt lat="45.620357" lon="9.0193451"><ele>210.0</ele><time>2026-03-27T15:28:23.337Z</time></trkpt><trkpt lat="45.6202764" lon="9.0193457"><ele>210.0</ele><time>2026-03-27T15:28:25.337Z</time></trkpt><trkpt lat="45.6202003" lon="9.0193668"><ele>209.6</ele><time>2026-03-27T15:28:29.337Z</time></trkpt><trkpt lat="45.6201115" lon="9.0193667"><ele>209.2</ele><time>2026-03-27T15:28:33.337Z</time></trkpt><trkpt lat="45.6199681" lon="9.0193982"><ele>208.8</ele><time>2026-03-27T15:28:36.337Z</time></trkpt><trkpt lat="45.6198495" lon="9.0194465"><ele>208.4</ele><time>2026-03-27T15:28:38.336Z</time></trkpt><trkpt lat="45.619786" lon="9.0194634"><ele>208.0</ele><time>2026-03-27T15:28:39.337Z</time></trkpt><trkpt lat="45.6197102" lon="9.019482"><ele>208.0</ele><time>2026-03-27T15:28:40.336Z</time></trkpt><trkpt lat="45.6196345" lon="9.0194996"><ele>208.0</ele><time>2026-03-27T15:28:41.337Z</time></trkpt><trkpt lat="45.6195636" lon="9.0195122"><ele>208.0</ele><time>2026-03-27T15:28:42.336Z</time></trkpt><trkpt lat="45.6194913" lon="9.0195202"><ele>208.0</ele><time>2026-03-27T15:28:43.337Z</time></trkpt><trkpt lat="45.6194196" lon="9.0195266"><ele>208.0</ele><time>2026-03-27T15:28:44.337Z</time></trkpt><trkpt lat="45.6193518" lon="9.0195347"><ele>208.0</ele><time>2026-03-27T15:28:45.338Z</time></trkpt><trkpt lat="45.6192811" lon="9.0195487"><ele>208.0</ele><time>2026-03-27T15:28:46.337Z</time></trkpt><trkpt lat="45.6191912" lon="9.0195659"><ele>207.4</ele><time>2026-03-27T15:28:47.336Z</time></trkpt><trkpt lat="45.6190886" lon="9.019577"><ele>206.8</ele><time>2026-03-27T15:28:48.336Z</time></trkpt><trkpt lat="45.6189857" lon="9.0195956"><ele>206.2</ele><time>2026-03-27T15:28:49.337Z</time></trkpt><trkpt lat="45.6188945" lon="9.0196053"><ele>205.6</ele><time>2026-03-27T15:28:50.336Z</time></trkpt><trkpt lat="45.6188073" lon="9.0196141"><ele>205.0</ele><time>2026-03-27T15:28:51.336Z</time></trkpt><trkpt lat="45.6187232" lon="9.0196245"><ele>204.66666666666666</ele><time>2026-03-27T15:28:52.337Z</time></trkpt><trkpt lat="45.6186402" lon="9.0196326"><ele>204.33333333333331</ele><time>2026-03-27T15:28:53.337Z</time></trkpt><trkpt lat="45.6185576" lon="9.0196392"><ele>204.0</ele><time>2026-03-27T15:28:54.337Z</time></trkpt><trkpt lat="45.6184752" lon="9.0196478"><ele>203.66666666666669</ele><time>2026-03-27T15:28:55.337Z</time></trkpt><trkpt lat="45.6183872" lon="9.0196544"><ele>203.33333333333334</ele><time>2026-03-27T15:28:56.336Z</time></trkpt><trkpt lat="45.6182931" lon="9.0196622"><ele>203.0</ele><time>2026-03-27T15:28:57.337Z</time></trkpt><trkpt lat="45.6181941" lon="9.0196805"><ele>203.00000000000003</ele><time>2026-03-27T15:28:58.337Z</time></trkpt><trkpt lat="45.6180991" lon="9.0196913"><ele>203.0</ele><time>2026-03-27T15:28:59.337Z</time></trkpt><trkpt lat="45.6180159" lon="9.0196943"><ele>203.0</ele><time>2026-03-27T15:29:00.338Z</time></trkpt><trkpt lat="45.6179425" lon="9.019703"><ele>203.0</ele><time>2026-03-27T15:29:01.337Z</time></trkpt><trkpt lat="45.617868" lon="9.0197148"><ele>203.00000000000003</ele><time>2026-03-27T15:29:02.337Z</time></trkpt><trkpt lat="45.6177876" lon="9.0197258"><ele>203.0</ele><time>2026-03-27T15:29:03.337Z</time></trkpt><trkpt lat="45.6177065" lon="9.0197371"><ele>203.16666666666669</ele><time>2026-03-27T15:29:04.337Z</time></trkpt><trkpt lat="45.6176267" lon="9.0197488"><ele>203.33333333333334</ele><time>2026-03-27T15:29:05.338Z</time></trkpt><trkpt lat="45.6175515" lon="9.019757"><ele>203.5</ele><time>2026-03-27T15:29:06.337Z</time></trkpt><trkpt lat="45.6174821" lon="9.0197729"><ele>203.66666666666669</ele><time>2026-03-27T15:29:07.337Z</time></trkpt><trkpt lat="45.6174182" lon="9.0197813"><ele>203.83333333333334</ele><time>2026-03-27T15:29:08.336Z</time></trkpt><trkpt lat="45.6172972" lon="9.0197937"><ele>204.0</ele><time>2026-03-27T15:29:10.337Z</time></trkpt><trkpt lat="45.6171957" lon="9.0197993"><ele>204.0</ele><time>2026-03-27T15:29:12.337Z</time></trkpt><trkpt lat="45.6171161" lon="9.0198141"><ele>204.0</ele><time>2026-03-27T15:29:15.336Z</time></trkpt><trkpt lat="45.6170147" lon="9.0198331"><ele>204.0</ele><time>2026-03-27T15:29:17.338Z</time></trkpt><trkpt lat="45.6169369" lon="9.0198446"><ele>204.0</ele><time>2026-03-27T15:29:18.337Z</time></trkpt><trkpt lat="45.6168635" lon="9.0198503"><ele>204.0</ele><time>2026-03-27T15:29:19.336Z</time></trkpt><trkpt lat="45.6167839" lon="9.0198488"><ele>204.0</ele><time>2026-03-27T15:29:20.336Z</time></trkpt><trkpt lat="45.6166986" lon="9.0198617"><ele>203.6</ele><time>2026-03-27T15:29:21.337Z</time></trkpt><trkpt lat="45.6166029" lon="9.0198729"><ele>203.2</ele><time>2026-03-27T15:29:22.337Z</time></trkpt><trkpt lat="45.6164992" lon="9.0198908"><ele>202.79999999999998</ele><time>2026-03-27T15:29:23.337Z</time></trkpt><trkpt lat="45.616391" lon="9.0199116"><ele>202.39999999999998</ele><time>2026-03-27T15:29:24.336Z</time></trkpt><trkpt lat="45.6162916" lon="9.0199248"><ele>202.0</ele><time>2026-03-27T15:29:25.337Z</time></trkpt><trkpt lat="45.616197" lon="9.0199372"><ele>202.0</ele><time>2026-03-27T15:29:26.336Z</time></trkpt><trkpt lat="45.6161042" lon="9.019942"><ele>202.0</ele><time>2026-03-27T15:29:27.337Z</time></trkpt><trkpt lat="45.6160099" lon="9.0199559"><ele>202.0</ele><time>2026-03-27T15:29:28.337Z</time></trkpt><trkpt lat="45.6159156" lon="9.0199759"><ele>202.0</ele><time>2026-03-27T15:29:29.337Z</time></trkpt><trkpt lat="45.615824" lon="9.0199874"><ele>202.0</ele><time>2026-03-27T15:29:30.338Z</time></trkpt><trkpt lat="45.615741" lon="9.0199957"><ele>201.99999999999997</ele><time>2026-03-27T15:29:31.338Z</time></trkpt><trkpt lat="45.6156579" lon="9.0200068"><ele>202.0</ele><time>2026-03-27T15:29:32.336Z</time></trkpt><trkpt lat="45.6155764" lon="9.0200194"><ele>202.0</ele><time>2026-03-27T15:29:33.337Z</time></trkpt><trkpt lat="45.6154972" lon="9.0200283"><ele>202.0</ele><time>2026-03-27T15:29:34.338Z</time></trkpt><trkpt lat="45.6154168" lon="9.0200361"><ele>201.99999999999997</ele><time>2026-03-27T15:29:35.337Z</time></trkpt><trkpt lat="45.615338" lon="9.020046"><ele>202.0</ele><time>2026-03-27T15:29:36.336Z</time></trkpt><trkpt lat="45.6152639" lon="9.0200552"><ele>201.99999999999997</ele><time>2026-03-27T15:29:37.337Z</time></trkpt><trkpt lat="45.6151577" lon="9.0200783"><ele>202.0</ele><time>2026-03-27T15:29:39.337Z</time></trkpt><trkpt lat="45.6150382" lon="9.0200976"><ele>202.0</ele><time>2026-03-27T15:29:41.337Z</time></trkpt><trkpt lat="45.6149739" lon="9.0201083"><ele>202.0</ele><time>2026-03-27T15:29:42.337Z</time></trkpt><trkpt lat="45.6149016" lon="9.0201182"><ele>201.99999999999997</ele><time>2026-03-27T15:29:43.338Z</time></trkpt><trkpt lat="45.6148251" lon="9.0201283"><ele>202.0</ele><time>2026-03-27T15:29:44.338Z</time></trkpt><trkpt lat="45.6147617" lon="9.0201368"><ele>201.99999999999997</ele><time>2026-03-27T15:29:45.337Z</time></trkpt><trkpt lat="45.6146657" lon="9.0201504"><ele>202.0</ele><time>2026-03-27T15:29:47.337Z</time></trkpt><trkpt lat="45.6145761" lon="9.0201574"><ele>202.0</ele><time>2026-03-27T15:29:49.338Z</time></trkpt><trkpt lat="45.6144704" lon="9.0201695"><ele>202.0</ele><time>2026-03-27T15:29:51.338Z</time></trkpt><trkpt lat="45.6143934" lon="9.0201867"><ele>201.99999999999997</ele><time>2026-03-27T15:29:52.337Z</time></trkpt><trkpt lat="45.6143234" lon="9.0201973"><ele>202.0</ele><time>2026-03-27T15:29:53.337Z</time></trkpt><trkpt lat="45.614226" lon="9.0202022"><ele>201.6</ele><time>2026-03-27T15:29:55.336Z</time></trkpt><trkpt lat="45.6141605" lon="9.0202093"><ele>201.2</ele><time>2026-03-27T15:29:58.337Z</time></trkpt><trkpt lat="45.614092" lon="9.0202249"><ele>200.8</ele><time>2026-03-27T15:30:01.337Z</time></trkpt><trkpt lat="45.6139782" lon="9.0202377"><ele>200.4</ele><time>2026-03-27T15:30:03.336Z</time></trkpt><trkpt lat="45.6138664" lon="9.0202528"><ele>200.0</ele><time>2026-03-27T15:30:05.336Z</time></trkpt><trkpt lat="45.6137417" lon="9.0202636"><ele>200.00000000000003</ele><time>2026-03-27T15:30:07.336Z</time></trkpt><trkpt lat="45.613675" lon="9.0202705"><ele>200.0</ele><time>2026-03-27T15:30:08.338Z</time></trkpt><trkpt lat="45.613605" lon="9.0202826"><ele>200.0</ele><time>2026-03-27T15:30:09.338Z</time></trkpt><trkpt lat="45.6135357" lon="9.0202956"><ele>200.0</ele><time>2026-03-27T15:30:10.336Z</time></trkpt><trkpt lat="45.6134675" lon="9.0203029"><ele>200.0</ele><time>2026-03-27T15:30:11.338Z</time></trkpt><trkpt lat="45.6134029" lon="9.0203128"><ele>200.00000000000003</ele><time>2026-03-27T15:30:12.336Z</time></trkpt><trkpt lat="45.6133373" lon="9.0203246"><ele>200.0</ele><time>2026-03-27T15:30:13.337Z</time></trkpt><trkpt lat="45.6132665" lon="9.0203289"><ele>199.71428571428572</ele><time>2026-03-27T15:30:14.337Z</time></trkpt><trkpt lat="45.6131955" lon="9.0203371"><ele>199.42857142857144</ele><time>2026-03-27T15:30:15.338Z</time></trkpt><trkpt lat="45.6131218" lon="9.0203444"><ele>199.14285714285717</ele><time>2026-03-27T15:30:16.337Z</time></trkpt><trkpt lat="45.61305" lon="9.0203412"><ele>198.85714285714286</ele><time>2026-03-27T15:30:17.336Z</time></trkpt><trkpt lat="45.612976" lon="9.0203477"><ele>198.57142857142856</ele><time>2026-03-27T15:30:18.337Z</time></trkpt><trkpt lat="45.6129043" lon="9.0203472"><ele>198.2857142857143</ele><time>2026-03-27T15:30:19.336Z</time></trkpt><trkpt lat="45.6128312" lon="9.0203553"><ele>198.0</ele><time>2026-03-27T15:30:20.337Z</time></trkpt><trkpt lat="45.6127601" lon="9.0203547"><ele>198.0</ele><time>2026-03-27T15:30:21.337Z</time></trkpt><trkpt lat="45.6126969" lon="9.0203542"><ele>198.0</ele><time>2026-03-27T15:30:22.337Z</time></trkpt><trkpt lat="45.6125932" lon="9.0203443"><ele>198.0</ele><time>2026-03-27T15:30:24.337Z</time></trkpt><trkpt lat="45.6125167" lon="9.0203183"><ele>198.0</ele><time>2026-03-27T15:30:26.337Z</time></trkpt><trkpt lat="45.6124221" lon="9.0202589"><ele>198.0</ele><time>2026-03-27T15:30:28.337Z</time></trkpt><trkpt lat="45.6123618" lon="9.0202123"><ele>198.0</ele><time>2026-03-27T15:30:29.337Z</time></trkpt><trkpt lat="45.6122882" lon="9.0201726"><ele>198.0</ele><time>2026-03-27T15:30:30.337Z</time></trkpt><trkpt lat="45.6122025" lon="9.020159"><ele>198.0</ele><time>2026-03-27T15:30:31.337Z</time></trkpt><trkpt lat="45.6121169" lon="9.0201653"><ele>198.0</ele><time>2026-03-27T15:30:32.338Z</time></trkpt><trkpt lat="45.6120211" lon="9.0202527"><ele>198.0</ele><time>2026-03-27T15:30:33.337Z</time></trkpt><trkpt lat="45.6119393" lon="9.0203179"><ele>198.0</ele><time>2026-03-27T15:30:34.337Z</time></trkpt><trkpt lat="45.6118507" lon="9.0203803"><ele>198.2</ele><time>2026-03-27T15:30:35.337Z</time></trkpt><trkpt lat="45.6117579" lon="9.0204373"><ele>198.4</ele><time>2026-03-27T15:30:36.336Z</time></trkpt><trkpt lat="45.6116594" lon="9.0204856"><ele>198.6</ele><time>2026-03-27T15:30:37.338Z</time></trkpt><trkpt lat="45.6115557" lon="9.0205209"><ele>198.79999999999998</ele><time>2026-03-27T15:30:38.337Z</time></trkpt><trkpt lat="45.6114496" lon="9.0205497"><ele>199.0</ele><time>2026-03-27T15:30:39.335Z</time></trkpt><trkpt lat="45.6113431" lon="9.020573"><ele>199.0</ele><time>2026-03-27T15:30:40.336Z</time></trkpt><trkpt lat="45.611228" lon="9.0205945"><ele>199.0</ele><time>2026-03-27T15:30:41.336Z</time></trkpt><trkpt lat="45.6111111" lon="9.020614"><ele>199.0</ele><time>2026-03-27T15:30:42.336Z</time></trkpt><trkpt lat="45.6110018" lon="9.0206327"><ele>199.0</ele><time>2026-03-27T15:30:43.335Z</time></trkpt><trkpt lat="45.6109003" lon="9.0206498"><ele>199.0</ele><time>2026-03-27T15:30:44.337Z</time></trkpt><trkpt lat="45.6107982" lon="9.0206614"><ele>199.39999999999998</ele><time>2026-03-27T15:30:45.335Z</time></trkpt><trkpt lat="45.6106934" lon="9.0206762"><ele>199.8</ele><time>2026-03-27T15:30:46.336Z</time></trkpt><trkpt lat="45.6105855" lon="9.0206939"><ele>200.2</ele><time>2026-03-27T15:30:47.335Z</time></trkpt><trkpt lat="45.6104773" lon="9.0207115"><ele>200.60000000000002</ele><time>2026-03-27T15:30:48.335Z</time></trkpt><trkpt lat="45.6103661" lon="9.0207267"><ele>201.0</ele><time>2026-03-27T15:30:49.336Z</time></trkpt><trkpt lat="45.6102573" lon="9.0207451"><ele>201.0</ele><time>2026-03-27T15:30:50.337Z</time></trkpt><trkpt lat="45.6101532" lon="9.020753"><ele>201.0</ele><time>2026-03-27T15:30:51.337Z</time></trkpt><trkpt lat="45.6100487" lon="9.0207674"><ele>201.0</ele><time>2026-03-27T15:30:52.336Z</time></trkpt><trkpt lat="45.6099441" lon="9.0207821"><ele>201.0</ele><time>2026-03-27T15:30:53.337Z</time></trkpt><trkpt lat="45.6098361" lon="9.0207981"><ele>201.0</ele><time>2026-03-27T15:30:54.336Z</time></trkpt><trkpt lat="45.609729" lon="9.0208175"><ele>200.20000000000002</ele><time>2026-03-27T15:30:55.336Z</time></trkpt><trkpt lat="45.609621" lon="9.0208332"><ele>199.4</ele><time>2026-03-27T15:30:56.336Z</time></trkpt><trkpt lat="45.6095194" lon="9.0208486"><ele>198.6</ele><time>2026-03-27T15:30:57.336Z</time></trkpt><trkpt lat="45.6094232" lon="9.0208683"><ele>197.8</ele><time>2026-03-27T15:30:58.335Z</time></trkpt><trkpt lat="45.6093268" lon="9.0208867"><ele>197.0</ele><time>2026-03-27T15:30:59.335Z</time></trkpt><trkpt lat="45.6092289" lon="9.0209058"><ele>196.83333333333334</ele><time>2026-03-27T15:31:00.335Z</time></trkpt><trkpt lat="45.6091415" lon="9.020918"><ele>196.66666666666669</ele><time>2026-03-27T15:31:01.336Z</time></trkpt><trkpt lat="45.6090558" lon="9.0209314"><ele>196.5</ele><time>2026-03-27T15:31:02.336Z</time></trkpt><trkpt lat="45.6089655" lon="9.020944"><ele>196.33333333333331</ele><time>2026-03-27T15:31:03.336Z</time></trkpt><trkpt lat="45.6088722" lon="9.0209578"><ele>196.16666666666666</ele><time>2026-03-27T15:31:04.337Z</time></trkpt><trkpt lat="45.6087828" lon="9.0209743"><ele>196.0</ele><time>2026-03-27T15:31:05.336Z</time></trkpt><trkpt lat="45.6087016" lon="9.0209905"><ele>196.20000000000002</ele><time>2026-03-27T15:31:06.336Z</time></trkpt><trkpt lat="45.6086224" lon="9.0210088"><ele>196.4</ele><time>2026-03-27T15:31:07.336Z</time></trkpt><trkpt lat="45.6085273" lon="9.0210184"><ele>196.6</ele><time>2026-03-27T15:31:09.337Z</time></trkpt><trkpt lat="45.6084063" lon="9.0210374"><ele>196.8</ele><time>2026-03-27T15:31:11.337Z</time></trkpt><trkpt lat="45.6083222" lon="9.0210544"><ele>197.0</ele><time>2026-03-27T15:31:12.335Z</time></trkpt><trkpt lat="45.6082203" lon="9.0210703"><ele>197.0</ele><time>2026-03-27T15:31:13.336Z</time></trkpt><trkpt lat="45.6081114" lon="9.0210804"><ele>197.0</ele><time>2026-03-27T15:31:14.335Z</time></trkpt><trkpt lat="45.6080056" lon="9.0210934"><ele>197.0</ele><time>2026-03-27T15:31:15.336Z</time></trkpt><trkpt lat="45.6078938" lon="9.0211096"><ele>197.0</ele><time>2026-03-27T15:31:16.336Z</time></trkpt><trkpt lat="45.6077786" lon="9.0211294"><ele>197.0</ele><time>2026-03-27T15:31:17.335Z</time></trkpt><trkpt lat="45.6076634" lon="9.0211493"><ele>197.0</ele><time>2026-03-27T15:31:18.336Z</time></trkpt><trkpt lat="45.6075512" lon="9.0211689"><ele>197.0</ele><time>2026-03-27T15:31:19.336Z</time></trkpt><trkpt lat="45.6074414" lon="9.0211878"><ele>197.0</ele><time>2026-03-27T15:31:20.336Z</time></trkpt><trkpt lat="45.6073337" lon="9.0212043"><ele>197.0</ele><time>2026-03-27T15:31:21.336Z</time></trkpt><trkpt lat="45.6072253" lon="9.0212204"><ele>197.0</ele><time>2026-03-27T15:31:22.335Z</time></trkpt><trkpt lat="45.6071085" lon="9.0212443"><ele>197.33333333333334</ele><time>2026-03-27T15:31:23.336Z</time></trkpt><trkpt lat="45.606975" lon="9.0212669"><ele>197.66666666666669</ele><time>2026-03-27T15:31:24.336Z</time></trkpt><trkpt lat="45.6068226" lon="9.0212847"><ele>198.0</ele><time>2026-03-27T15:31:25.336Z</time></trkpt><trkpt lat="45.6066564" lon="9.0212985"><ele>198.0</ele><time>2026-03-27T15:31:26.337Z</time></trkpt><trkpt lat="45.6064988" lon="9.0213149"><ele>198.0</ele><time>2026-03-27T15:31:27.336Z</time></trkpt><trkpt lat="45.6063381" lon="9.0213384"><ele>198.0</ele><time>2026-03-27T15:31:28.336Z</time></trkpt><trkpt lat="45.6061779" lon="9.0213627"><ele>198.33333333333331</ele><time>2026-03-27T15:31:29.337Z</time></trkpt><trkpt lat="45.6060142" lon="9.0213913"><ele>198.66666666666666</ele><time>2026-03-27T15:31:30.337Z</time></trkpt><trkpt lat="45.6058466" lon="9.0214169"><ele>199.0</ele><time>2026-03-27T15:31:31.336Z</time></trkpt><trkpt lat="45.6056763" lon="9.0214446"><ele>199.0</ele><time>2026-03-27T15:31:32.335Z</time></trkpt><trkpt lat="45.6054962" lon="9.0214587"><ele>199.0</ele><time>2026-03-27T15:31:33.336Z</time></trkpt><trkpt lat="45.6053185" lon="9.0214892"><ele>199.0</ele><time>2026-03-27T15:31:34.336Z</time></trkpt><trkpt lat="45.6051377" lon="9.0215208"><ele>198.66666666666666</ele><time>2026-03-27T15:31:35.336Z</time></trkpt><trkpt lat="45.6049613" lon="9.0215509"><ele>198.33333333333331</ele><time>2026-03-27T15:31:36.336Z</time></trkpt><trkpt lat="45.6047888" lon="9.0215827"><ele>198.0</ele><time>2026-03-27T15:31:37.336Z</time></trkpt><trkpt lat="45.6046198" lon="9.0216135"><ele>198.0</ele><time>2026-03-27T15:31:38.337Z</time></trkpt><trkpt lat="45.6044568" lon="9.0216449"><ele>198.0</ele><time>2026-03-27T15:31:39.336Z</time></trkpt><trkpt lat="45.6043003" lon="9.0216725"><ele>198.0</ele><time>2026-03-27T15:31:40.336Z</time></trkpt><trkpt lat="45.6041542" lon="9.0217056"><ele>197.25</ele><time>2026-03-27T15:31:41.337Z</time></trkpt><trkpt lat="45.6040126" lon="9.0217388"><ele>196.5</ele><time>2026-03-27T15:31:42.336Z</time></trkpt><trkpt lat="45.603876" lon="9.0217737"><ele>195.75</ele><time>2026-03-27T15:31:43.336Z</time></trkpt><trkpt lat="45.6037531" lon="9.0218055"><ele>195.0</ele><time>2026-03-27T15:31:44.335Z</time></trkpt><trkpt lat="45.6036417" lon="9.0218336"><ele>195.0</ele><time>2026-03-27T15:31:45.336Z</time></trkpt><trkpt lat="45.6035419" lon="9.0218434"><ele>195.0</ele><time>2026-03-27T15:31:46.335Z</time></trkpt><trkpt lat="45.6034487" lon="9.0218422"><ele>195.0</ele><time>2026-03-27T15:31:47.335Z</time></trkpt><trkpt lat="45.6033603" lon="9.0218407"><ele>195.0</ele><time>2026-03-27T15:31:48.336Z</time></trkpt><trkpt lat="45.6032684" lon="9.0218632"><ele>195.0</ele><time>2026-03-27T15:31:49.336Z</time></trkpt><trkpt lat="45.6031814" lon="9.0219165"><ele>195.0</ele><time>2026-03-27T15:31:50.336Z</time></trkpt><trkpt lat="45.6030901" lon="9.0219691"><ele>195.0</ele><time>2026-03-27T15:31:51.336Z</time></trkpt><trkpt lat="45.6029867" lon="9.0219751"><ele>195.0</ele><time>2026-03-27T15:31:52.336Z</time></trkpt><trkpt lat="45.6028906" lon="9.0219551"><ele>195.0</ele><time>2026-03-27T15:31:53.336Z</time></trkpt><trkpt lat="45.6027953" lon="9.0219399"><ele>195.0</ele><time>2026-03-27T15:31:54.335Z</time></trkpt><trkpt lat="45.6027064" lon="9.0219343"><ele>194.83333333333334</ele><time>2026-03-27T15:31:55.335Z</time></trkpt><trkpt lat="45.602622" lon="9.021934"><ele>194.66666666666669</ele><time>2026-03-27T15:31:56.337Z</time></trkpt><trkpt lat="45.6025428" lon="9.0219393"><ele>194.5</ele><time>2026-03-27T15:31:57.335Z</time></trkpt><trkpt lat="45.6024684" lon="9.021945"><ele>194.33333333333334</ele><time>2026-03-27T15:31:58.337Z</time></trkpt><trkpt lat="45.6023848" lon="9.0219469"><ele>194.16666666666669</ele><time>2026-03-27T15:31:59.336Z</time></trkpt><trkpt lat="45.6022702" lon="9.0219251"><ele>194.0</ele><time>2026-03-27T15:32:01.336Z</time></trkpt><trkpt lat="45.6022078" lon="9.0218765"><ele>194.0</ele><time>2026-03-27T15:32:02.336Z</time></trkpt><trkpt lat="45.6021381" lon="9.0218471"><ele>194.0</ele><time>2026-03-27T15:32:03.335Z</time></trkpt><trkpt lat="45.6020638" lon="9.0218659"><ele>194.0</ele><time>2026-03-27T15:32:04.335Z</time></trkpt><trkpt lat="45.6020086" lon="9.0219321"><ele>194.0</ele><time>2026-03-27T15:32:05.336Z</time></trkpt><trkpt lat="45.6019595" lon="9.0220078"><ele>194.0</ele><time>2026-03-27T15:32:06.336Z</time></trkpt><trkpt lat="45.6018896" lon="9.0220497"><ele>194.0</ele><time>2026-03-27T15:32:07.335Z</time></trkpt><trkpt lat="45.601823" lon="9.0220846"><ele>194.0</ele><time>2026-03-27T15:32:08.336Z</time></trkpt><trkpt lat="45.6017296" lon="9.0220982"><ele>193.5</ele><time>2026-03-27T15:32:09.335Z</time></trkpt><trkpt lat="45.6016281" lon="9.0221181"><ele>193.0</ele><time>2026-03-27T15:32:10.336Z</time></trkpt><trkpt lat="45.6015054" lon="9.0221428"><ele>192.5</ele><time>2026-03-27T15:32:11.335Z</time></trkpt><trkpt lat="45.6013719" lon="9.0221613"><ele>192.0</ele><time>2026-03-27T15:32:12.336Z</time></trkpt><trkpt lat="45.6012458" lon="9.0221787"><ele>191.75</ele><time>2026-03-27T15:32:13.336Z</time></trkpt><trkpt lat="45.6011152" lon="9.0221938"><ele>191.5</ele><time>2026-03-27T15:32:14.337Z</time></trkpt><trkpt lat="45.6009764" lon="9.0222138"><ele>191.25</ele><time>2026-03-27T15:32:15.336Z</time></trkpt><trkpt lat="45.600842" lon="9.0222269"><ele>191.0</ele><time>2026-03-27T15:32:16.336Z</time></trkpt><trkpt lat="45.600717" lon="9.0222408"><ele>191.0</ele><time>2026-03-27T15:32:17.336Z</time></trkpt><trkpt lat="45.6005926" lon="9.0222602"><ele>191.0</ele><time>2026-03-27T15:32:18.336Z</time></trkpt><trkpt lat="45.6004707" lon="9.0222823"><ele>191.0</ele><time>2026-03-27T15:32:19.335Z</time></trkpt><trkpt lat="45.600349" lon="9.0223037"><ele>191.0</ele><time>2026-03-27T15:32:20.335Z</time></trkpt><trkpt lat="45.6002258" lon="9.0223225"><ele>191.25</ele><time>2026-03-27T15:32:21.336Z</time></trkpt><trkpt lat="45.6001044" lon="9.0223427"><ele>191.5</ele><time>2026-03-27T15:32:22.337Z</time></trkpt><trkpt lat="45.5999846" lon="9.02236"><ele>191.75</ele><time>2026-03-27T15:32:23.336Z</time></trkpt><trkpt lat="45.5998626" lon="9.0223816"><ele>192.0</ele><time>2026-03-27T15:32:24.335Z</time></trkpt><trkpt lat="45.5997424" lon="9.0224006"><ele>192.0</ele><time>2026-03-27T15:32:25.336Z</time></trkpt><trkpt lat="45.5996295" lon="9.0224185"><ele>192.0</ele><time>2026-03-27T15:32:26.336Z</time></trkpt><trkpt lat="45.5995159" lon="9.0224322"><ele>192.0</ele><time>2026-03-27T15:32:27.337Z</time></trkpt><trkpt lat="45.5994014" lon="9.0224482"><ele>192.0</ele><time>2026-03-27T15:32:28.335Z</time></trkpt><trkpt lat="45.5992865" lon="9.0224685"><ele>192.5</ele><time>2026-03-27T15:32:29.336Z</time></trkpt><trkpt lat="45.5991717" lon="9.0224874"><ele>193.0</ele><time>2026-03-27T15:32:30.336Z</time></trkpt><trkpt lat="45.5990595" lon="9.0225004"><ele>193.5</ele><time>2026-03-27T15:32:31.336Z</time></trkpt><trkpt lat="45.5989458" lon="9.0225185"><ele>194.0</ele><time>2026-03-27T15:32:32.336Z</time></trkpt><trkpt lat="45.5988332" lon="9.0225369"><ele>194.0</ele><time>2026-03-27T15:32:33.336Z</time></trkpt><trkpt lat="45.5987205" lon="9.0225533"><ele>194.0</ele><time>2026-03-27T15:32:34.335Z</time></trkpt><trkpt lat="45.5986069" lon="9.0225709"><ele>194.0</ele><time>2026-03-27T15:32:35.336Z</time></trkpt><trkpt lat="45.5984937" lon="9.0225889"><ele>194.0</ele><time>2026-03-27T15:32:36.336Z</time></trkpt><trkpt lat="45.59838" lon="9.0226063"><ele>193.0</ele><time>2026-03-27T15:32:37.337Z</time></trkpt><trkpt lat="45.5982645" lon="9.0226241"><ele>192.0</ele><time>2026-03-27T15:32:38.336Z</time></trkpt><trkpt lat="45.5981468" lon="9.0226408"><ele>191.0</ele><time>2026-03-27T15:32:39.337Z</time></trkpt><trkpt lat="45.5980286" lon="9.0226586"><ele>190.0</ele><time>2026-03-27T15:32:40.336Z</time></trkpt><trkpt lat="45.5979111" lon="9.0226776"><ele>190.25</ele><time>2026-03-27T15:32:41.337Z</time></trkpt><trkpt lat="45.5977931" lon="9.0226962"><ele>190.5</ele><time>2026-03-27T15:32:42.337Z</time></trkpt><trkpt lat="45.5976749" lon="9.0227182"><ele>190.75</ele><time>2026-03-27T15:32:43.335Z</time></trkpt><trkpt lat="45.5975525" lon="9.0227341"><ele>191.0</ele><time>2026-03-27T15:32:44.336Z</time></trkpt><trkpt lat="45.5974331" lon="9.022749"><ele>191.0</ele><time>2026-03-27T15:32:45.336Z</time></trkpt><trkpt lat="45.597313" lon="9.0227689"><ele>191.0</ele><time>2026-03-27T15:32:46.336Z</time></trkpt><trkpt lat="45.5971937" lon="9.0227903"><ele>191.0</ele><time>2026-03-27T15:32:47.335Z</time></trkpt><trkpt lat="45.5970722" lon="9.0228102"><ele>191.0</ele><time>2026-03-27T15:32:48.336Z</time></trkpt><trkpt lat="45.5969533" lon="9.0228309"><ele>191.0</ele><time>2026-03-27T15:32:49.335Z</time></trkpt><trkpt lat="45.5968317" lon="9.0228474"><ele>191.0</ele><time>2026-03-27T15:32:50.336Z</time></trkpt><trkpt lat="45.5967105" lon="9.0228635"><ele>191.0</ele><time>2026-03-27T15:32:51.335Z</time></trkpt><trkpt lat="45.5965902" lon="9.0228866"><ele>191.0</ele><time>2026-03-27T15:32:52.335Z</time></trkpt><trkpt lat="45.5964675" lon="9.022908"><ele>191.0</ele><time>2026-03-27T15:32:53.336Z</time></trkpt><trkpt lat="45.5963437" lon="9.022929"><ele>191.0</ele><time>2026-03-27T15:32:54.337Z</time></trkpt><trkpt lat="45.5962187" lon="9.0229461"><ele>191.0</ele><time>2026-03-27T15:32:55.337Z</time></trkpt><trkpt lat="45.5960928" lon="9.0229646"><ele>191.0</ele><time>2026-03-27T15:32:56.336Z</time></trkpt><trkpt lat="45.5959669" lon="9.0229825"><ele>191.5</ele><time>2026-03-27T15:32:57.336Z</time></trkpt><trkpt lat="45.5958419" lon="9.0230053"><ele>192.0</ele><time>2026-03-27T15:32:58.336Z</time></trkpt><trkpt lat="45.5957151" lon="9.0230291"><ele>192.5</ele><time>2026-03-27T15:32:59.336Z</time></trkpt><trkpt lat="45.5955843" lon="9.0230521"><ele>193.0</ele><time>2026-03-27T15:33:00.336Z</time></trkpt><trkpt lat="45.5954554" lon="9.0230729"><ele>193.0</ele><time>2026-03-27T15:33:01.335Z</time></trkpt><trkpt lat="45.5953554" lon="9.0230884"><ele>193.0</ele><time>2026-03-27T15:33:02.336Z</time></trkpt><trkpt lat="45.5952467" lon="9.0231019"><ele>193.0</ele><time>2026-03-27T15:33:03.336Z</time></trkpt><trkpt lat="45.5951314" lon="9.0231163"><ele>193.0</ele><time>2026-03-27T15:33:04.336Z</time></trkpt><trkpt lat="45.595003" lon="9.0231357"><ele>192.75</ele><time>2026-03-27T15:33:05.335Z</time></trkpt><trkpt lat="45.5948744" lon="9.0231577"><ele>192.5</ele><time>2026-03-27T15:33:06.335Z</time></trkpt><trkpt lat="45.5947464" lon="9.0231749"><ele>192.25</ele><time>2026-03-27T15:33:07.336Z</time></trkpt><trkpt lat="45.5946202" lon="9.0231948"><ele>192.0</ele><time>2026-03-27T15:33:08.336Z</time></trkpt><trkpt lat="45.5944971" lon="9.0232132"><ele>192.5</ele><time>2026-03-27T15:33:09.336Z</time></trkpt><trkpt lat="45.5943722" lon="9.0232375"><ele>193.0</ele><time>2026-03-27T15:33:10.336Z</time></trkpt><trkpt lat="45.5942476" lon="9.0232557"><ele>193.5</ele><time>2026-03-27T15:33:11.336Z</time></trkpt><trkpt lat="45.5941224" lon="9.0232738"><ele>194.0</ele><time>2026-03-27T15:33:12.335Z</time></trkpt><trkpt lat="45.593994" lon="9.0232974"><ele>193.5</ele><time>2026-03-27T15:33:13.336Z</time></trkpt><trkpt lat="45.5938662" lon="9.0233218"><ele>193.0</ele><time>2026-03-27T15:33:14.336Z</time></trkpt><trkpt lat="45.5937397" lon="9.0233434"><ele>192.5</ele><time>2026-03-27T15:33:15.337Z</time></trkpt><trkpt lat="45.5936022" lon="9.0233605"><ele>192.0</ele><time>2026-03-27T15:33:16.337Z</time></trkpt><trkpt lat="45.5934536" lon="9.0233811"><ele>191.66666666666666</ele><time>2026-03-27T15:33:17.336Z</time></trkpt><trkpt lat="45.5932928" lon="9.0234063"><ele>191.33333333333331</ele><time>2026-03-27T15:33:18.336Z</time></trkpt><trkpt lat="45.5931343" lon="9.0234187"><ele>191.0</ele><time>2026-03-27T15:33:19.336Z</time></trkpt><trkpt lat="45.5929863" lon="9.0234398"><ele>190.66666666666666</ele><time>2026-03-27T15:33:20.335Z</time></trkpt><trkpt lat="45.5928357" lon="9.0234693"><ele>190.33333333333334</ele><time>2026-03-27T15:33:21.337Z</time></trkpt><trkpt lat="45.5926861" lon="9.0234935"><ele>190.0</ele><time>2026-03-27T15:33:22.336Z</time></trkpt><trkpt lat="45.5925282" lon="9.0235114"><ele>190.0</ele><time>2026-03-27T15:33:23.337Z</time></trkpt><trkpt lat="45.5923616" lon="9.0235408"><ele>190.0</ele><time>2026-03-27T15:33:24.336Z</time></trkpt><trkpt lat="45.5922014" lon="9.0235729"><ele>190.0</ele><time>2026-03-27T15:33:25.336Z</time></trkpt><trkpt lat="45.5920398" lon="9.0235978"><ele>189.66666666666669</ele><time>2026-03-27T15:33:26.336Z</time></trkpt><trkpt lat="45.5918811" lon="9.0236231"><ele>189.33333333333334</ele><time>2026-03-27T15:33:27.335Z</time></trkpt><trkpt lat="45.5917192" lon="9.0236458"><ele>189.0</ele><time>2026-03-27T15:33:28.336Z</time></trkpt><trkpt lat="45.591562" lon="9.023667"><ele>189.0</ele><time>2026-03-27T15:33:29.336Z</time></trkpt><trkpt lat="45.5914064" lon="9.0236952"><ele>189.0</ele><time>2026-03-27T15:33:30.336Z</time></trkpt><trkpt lat="45.5912586" lon="9.0237183"><ele>189.0</ele><time>2026-03-27T15:33:31.336Z</time></trkpt><trkpt lat="45.5911193" lon="9.0237406"><ele>189.0</ele><time>2026-03-27T15:33:32.336Z</time></trkpt><trkpt lat="45.5909864" lon="9.0237584"><ele>189.75</ele><time>2026-03-27T15:33:33.337Z</time></trkpt><trkpt lat="45.5908568" lon="9.0237813"><ele>190.5</ele><time>2026-03-27T15:33:34.337Z</time></trkpt><trkpt lat="45.5907291" lon="9.0238031"><ele>191.25</ele><time>2026-03-27T15:33:35.336Z</time></trkpt><trkpt lat="45.590601" lon="9.0238209"><ele>192.0</ele><time>2026-03-27T15:33:36.336Z</time></trkpt><trkpt lat="45.5904795" lon="9.0238437"><ele>192.0</ele><time>2026-03-27T15:33:37.335Z</time></trkpt><trkpt lat="45.5903633" lon="9.0238633"><ele>192.0</ele><time>2026-03-27T15:33:38.334Z</time></trkpt><trkpt lat="45.5902538" lon="9.0238768"><ele>192.0</ele><time>2026-03-27T15:33:39.335Z</time></trkpt><trkpt lat="45.5901522" lon="9.023892"><ele>192.0</ele><time>2026-03-27T15:33:40.335Z</time></trkpt><trkpt lat="45.5900544" lon="9.0239024"><ele>192.0</ele><time>2026-03-27T15:33:41.335Z</time></trkpt><trkpt lat="45.5899572" lon="9.0239037"><ele>191.66666666666666</ele><time>2026-03-27T15:33:42.335Z</time></trkpt><trkpt lat="45.5898686" lon="9.0238952"><ele>191.33333333333334</ele><time>2026-03-27T15:33:43.335Z</time></trkpt><trkpt lat="45.5897884" lon="9.0238804"><ele>191.0</ele><time>2026-03-27T15:33:44.335Z</time></trkpt><trkpt lat="45.5897196" lon="9.0238633"><ele>190.66666666666669</ele><time>2026-03-27T15:33:45.334Z</time></trkpt><trkpt lat="45.5896273" lon="9.0238294"><ele>190.33333333333334</ele><time>2026-03-27T15:33:47.335Z</time></trkpt><trkpt lat="45.5895348" lon="9.0237799"><ele>190.0</ele><time>2026-03-27T15:33:49.335Z</time></trkpt><trkpt lat="45.5894752" lon="9.0237386"><ele>190.0</ele><time>2026-03-27T15:33:50.335Z</time></trkpt><trkpt lat="45.5894042" lon="9.0237089"><ele>190.0</ele><time>2026-03-27T15:33:51.335Z</time></trkpt><trkpt lat="45.5893261" lon="9.0237091"><ele>190.0</ele><time>2026-03-27T15:33:52.336Z</time></trkpt><trkpt lat="45.5892437" lon="9.02374"><ele>190.0</ele><time>2026-03-27T15:33:53.336Z</time></trkpt><trkpt lat="45.5891587" lon="9.0238034"><ele>190.0</ele><time>2026-03-27T15:33:54.335Z</time></trkpt><trkpt lat="45.5890681" lon="9.023892"><ele>190.0</ele><time>2026-03-27T15:33:55.336Z</time></trkpt><trkpt lat="45.5889811" lon="9.023961"><ele>190.0</ele><time>2026-03-27T15:33:56.336Z</time></trkpt><trkpt lat="45.5888814" lon="9.0240132"><ele>190.0</ele><time>2026-03-27T15:33:57.336Z</time></trkpt><trkpt lat="45.588776" lon="9.0240567"><ele>190.0</ele><time>2026-03-27T15:33:58.335Z</time></trkpt><trkpt lat="45.5886631" lon="9.0240948"><ele>190.0</ele><time>2026-03-27T15:33:59.335Z</time></trkpt><trkpt lat="45.5885398" lon="9.0241244"><ele>189.5</ele><time>2026-03-27T15:34:00.336Z</time></trkpt><trkpt lat="45.5884052" lon="9.0241538"><ele>189.0</ele><time>2026-03-27T15:34:01.336Z</time></trkpt><trkpt lat="45.5882632" lon="9.0241785"><ele>188.5</ele><time>2026-03-27T15:34:02.336Z</time></trkpt><trkpt lat="45.5881274" lon="9.0241997"><ele>188.0</ele><time>2026-03-27T15:34:03.335Z</time></trkpt><trkpt lat="45.5879975" lon="9.0242189"><ele>188.0</ele><time>2026-03-27T15:34:04.334Z</time></trkpt><trkpt lat="45.5878695" lon="9.0242371"><ele>188.0</ele><time>2026-03-27T15:34:05.335Z</time></trkpt><trkpt lat="45.5877411" lon="9.0242609"><ele>188.0</ele><time>2026-03-27T15:34:06.335Z</time></trkpt><trkpt lat="45.5876133" lon="9.0242786"><ele>188.0</ele><time>2026-03-27T15:34:07.335Z</time></trkpt><trkpt lat="45.5874836" lon="9.0243004"><ele>188.25</ele><time>2026-03-27T15:34:08.335Z</time></trkpt><trkpt lat="45.5873511" lon="9.0243172"><ele>188.5</ele><time>2026-03-27T15:34:09.335Z</time></trkpt><trkpt lat="45.5872199" lon="9.0243359"><ele>188.75</ele><time>2026-03-27T15:34:10.335Z</time></trkpt><trkpt lat="45.5870891" lon="9.0243548"><ele>189.0</ele><time>2026-03-27T15:34:11.335Z</time></trkpt><trkpt lat="45.586959" lon="9.0243812"><ele>188.25</ele><time>2026-03-27T15:34:12.336Z</time></trkpt><trkpt lat="45.586832" lon="9.024401"><ele>187.5</ele><time>2026-03-27T15:34:13.335Z</time></trkpt><trkpt lat="45.5866992" lon="9.0244237"><ele>186.75</ele><time>2026-03-27T15:34:14.334Z</time></trkpt><trkpt lat="45.5865644" lon="9.0244411"><ele>186.0</ele><time>2026-03-27T15:34:15.336Z</time></trkpt><trkpt lat="45.5864269" lon="9.0244624"><ele>186.0</ele><time>2026-03-27T15:34:16.336Z</time></trkpt><trkpt lat="45.586299" lon="9.024484"><ele>186.0</ele><time>2026-03-27T15:34:17.334Z</time></trkpt><trkpt lat="45.5861673" lon="9.0245024"><ele>186.0</ele><time>2026-03-27T15:34:18.335Z</time></trkpt><trkpt lat="45.5860387" lon="9.0245209"><ele>186.0</ele><time>2026-03-27T15:34:19.335Z</time></trkpt><trkpt lat="45.5859087" lon="9.0245412"><ele>185.75</ele><time>2026-03-27T15:34:20.336Z</time></trkpt><trkpt lat="45.5857811" lon="9.0245557"><ele>185.5</ele><time>2026-03-27T15:34:21.336Z</time></trkpt><trkpt lat="45.5856479" lon="9.0245804"><ele>185.25</ele><time>2026-03-27T15:34:22.335Z</time></trkpt><trkpt lat="45.5855074" lon="9.0246076"><ele>185.0</ele><time>2026-03-27T15:34:23.335Z</time></trkpt><trkpt lat="45.5853653" lon="9.0246265"><ele>186.0</ele><time>2026-03-27T15:34:24.334Z</time></trkpt><trkpt lat="45.5852231" lon="9.0246487"><ele>187.0</ele><time>2026-03-27T15:34:25.335Z</time></trkpt><trkpt lat="45.5850793" lon="9.0246752"><ele>188.0</ele><time>2026-03-27T15:34:26.335Z</time></trkpt><trkpt lat="45.5849384" lon="9.0246963"><ele>189.0</ele><time>2026-03-27T15:34:27.335Z</time></trkpt><trkpt lat="45.5848047" lon="9.0247148"><ele>189.0</ele><time>2026-03-27T15:34:28.335Z</time></trkpt><trkpt lat="45.584672" lon="9.0247357"><ele>189.0</ele><time>2026-03-27T15:34:29.335Z</time></trkpt><trkpt lat="45.5845419" lon="9.0247629"><ele>189.0</ele><time>2026-03-27T15:34:30.335Z</time></trkpt><trkpt lat="45.5844085" lon="9.0247795"><ele>189.0</ele><time>2026-03-27T15:34:31.335Z</time></trkpt><trkpt lat="45.5842746" lon="9.0247968"><ele>188.5</ele><time>2026-03-27T15:34:32.335Z</time></trkpt><trkpt lat="45.5841456" lon="9.0248148"><ele>188.0</ele><time>2026-03-27T15:34:33.334Z</time></trkpt><trkpt lat="45.5840293" lon="9.0248288"><ele>187.5</ele><time>2026-03-27T15:34:34.335Z</time></trkpt><trkpt lat="45.58392" lon="9.0248477"><ele>187.0</ele><time>2026-03-27T15:34:35.335Z</time></trkpt><trkpt lat="45.5838131" lon="9.0248603"><ele>187.0</ele><time>2026-03-27T15:34:36.335Z</time></trkpt><trkpt lat="45.5837071" lon="9.0248542"><ele>187.0</ele><time>2026-03-27T15:34:37.336Z</time></trkpt><trkpt lat="45.5835914" lon="9.0248369"><ele>187.0</ele><time>2026-03-27T15:34:38.334Z</time></trkpt><trkpt lat="45.5834761" lon="9.0247837"><ele>187.0</ele><time>2026-03-27T15:34:39.335Z</time></trkpt><trkpt lat="45.5833637" lon="9.0246915"><ele>186.25</ele><time>2026-03-27T15:34:40.334Z</time></trkpt><trkpt lat="45.5832657" lon="9.0245626"><ele>185.5</ele><time>2026-03-27T15:34:41.334Z</time></trkpt><trkpt lat="45.5831772" lon="9.0244095"><ele>184.75</ele><time>2026-03-27T15:34:42.336Z</time></trkpt><trkpt lat="45.5831078" lon="9.0242519"><ele>184.0</ele><time>2026-03-27T15:34:43.335Z</time></trkpt><trkpt lat="45.583049" lon="9.0240951"><ele>183.25</ele><time>2026-03-27T15:34:44.335Z</time></trkpt><trkpt lat="45.5830014" lon="9.0239279"><ele>182.5</ele><time>2026-03-27T15:34:45.335Z</time></trkpt><trkpt lat="45.5829642" lon="9.0237524"><ele>181.75</ele><time>2026-03-27T15:34:46.335Z</time></trkpt><trkpt lat="45.582926" lon="9.0235694"><ele>181.0</ele><time>2026-03-27T15:34:47.336Z</time></trkpt><trkpt lat="45.5828863" lon="9.0233836"><ele>181.25</ele><time>2026-03-27T15:34:48.336Z</time></trkpt><trkpt lat="45.582851" lon="9.0231913"><ele>181.5</ele><time>2026-03-27T15:34:49.336Z</time></trkpt><trkpt lat="45.5828161" lon="9.0229959"><ele>181.75</ele><time>2026-03-27T15:34:50.335Z</time></trkpt><trkpt lat="45.5827785" lon="9.0228037"><ele>182.0</ele><time>2026-03-27T15:34:51.334Z</time></trkpt><trkpt lat="45.582743" lon="9.0226083"><ele>181.5</ele><time>2026-03-27T15:34:52.335Z</time></trkpt><trkpt lat="45.5827046" lon="9.0224107"><ele>181.0</ele><time>2026-03-27T15:34:53.335Z</time></trkpt><trkpt lat="45.5826638" lon="9.0222121"><ele>180.5</ele><time>2026-03-27T15:34:54.335Z</time></trkpt><trkpt lat="45.5826277" lon="9.0220084"><ele>180.0</ele><time>2026-03-27T15:34:55.334Z</time></trkpt><trkpt lat="45.5825883" lon="9.0218062"><ele>180.33333333333334</ele><time>2026-03-27T15:34:56.335Z</time></trkpt><trkpt lat="45.582552" lon="9.0215996"><ele>180.66666666666669</ele><time>2026-03-27T15:34:57.335Z</time></trkpt><trkpt lat="45.5825159" lon="9.0213866"><ele>181.0</ele><time>2026-03-27T15:34:58.335Z</time></trkpt><trkpt lat="45.582477" lon="9.0211659"><ele>181.0</ele><time>2026-03-27T15:34:59.335Z</time></trkpt><trkpt lat="45.5824394" lon="9.0209441"><ele>181.0</ele><time>2026-03-27T15:35:00.336Z</time></trkpt><trkpt lat="45.5824001" lon="9.0207313"><ele>181.0</ele><time>2026-03-27T15:35:01.334Z</time></trkpt><trkpt lat="45.5823575" lon="9.0205015"><ele>181.66666666666669</ele><time>2026-03-27T15:35:02.335Z</time></trkpt><trkpt lat="45.5823104" lon="9.0202698"><ele>182.33333333333334</ele><time>2026-03-27T15:35:03.335Z</time></trkpt><trkpt lat="45.5822482" lon="9.0200405"><ele>183.0</ele><time>2026-03-27T15:35:04.334Z</time></trkpt><trkpt lat="45.5821657" lon="9.0198233"><ele>183.66666666666666</ele><time>2026-03-27T15:35:05.334Z</time></trkpt><trkpt lat="45.5820611" lon="9.0196179"><ele>184.33333333333331</ele><time>2026-03-27T15:35:06.335Z</time></trkpt><trkpt lat="45.5819411" lon="9.019438"><ele>185.0</ele><time>2026-03-27T15:35:07.335Z</time></trkpt><trkpt lat="45.5818072" lon="9.0192764"><ele>185.33333333333331</ele><time>2026-03-27T15:35:08.336Z</time></trkpt><trkpt lat="45.5816658" lon="9.0191359"><ele>185.66666666666666</ele><time>2026-03-27T15:35:09.335Z</time></trkpt><trkpt lat="45.5815194" lon="9.0190101"><ele>186.0</ele><time>2026-03-27T15:35:10.335Z</time></trkpt><trkpt lat="45.581378" lon="9.018882"><ele>186.0</ele><time>2026-03-27T15:35:11.335Z</time></trkpt><trkpt lat="45.5812413" lon="9.0187575"><ele>186.0</ele><time>2026-03-27T15:35:12.335Z</time></trkpt><trkpt lat="45.5811112" lon="9.0186423"><ele>186.0</ele><time>2026-03-27T15:35:13.335Z</time></trkpt><trkpt lat="45.5809896" lon="9.0185304"><ele>185.75</ele><time>2026-03-27T15:35:14.335Z</time></trkpt><trkpt lat="45.5808753" lon="9.0184236"><ele>185.5</ele><time>2026-03-27T15:35:15.335Z</time></trkpt><trkpt lat="45.5807673" lon="9.0183257"><ele>185.25</ele><time>2026-03-27T15:35:16.334Z</time></trkpt><trkpt lat="45.5806656" lon="9.018228"><ele>185.0</ele><time>2026-03-27T15:35:17.335Z</time></trkpt><trkpt lat="45.5805601" lon="9.018134"><ele>185.0</ele><time>2026-03-27T15:35:18.335Z</time></trkpt><trkpt lat="45.5804496" lon="9.0180353"><ele>185.0</ele><time>2026-03-27T15:35:19.335Z</time></trkpt><trkpt lat="45.5803347" lon="9.017933"><ele>185.0</ele><time>2026-03-27T15:35:20.335Z</time></trkpt><trkpt lat="45.5802163" lon="9.0178259"><ele>185.0</ele><time>2026-03-27T15:35:21.334Z</time></trkpt><trkpt lat="45.5800981" lon="9.0177196"><ele>185.0</ele><time>2026-03-27T15:35:22.336Z</time></trkpt><trkpt lat="45.5799833" lon="9.0176132"><ele>185.0</ele><time>2026-03-27T15:35:23.334Z</time></trkpt><trkpt lat="45.5798718" lon="9.0175078"><ele>185.0</ele><time>2026-03-27T15:35:24.335Z</time></trkpt><trkpt lat="45.5797584" lon="9.0174029"><ele>185.0</ele><time>2026-03-27T15:35:25.334Z</time></trkpt><trkpt lat="45.5796449" lon="9.0172995"><ele>185.0</ele><time>2026-03-27T15:35:26.334Z</time></trkpt><trkpt lat="45.5795315" lon="9.0171969"><ele>185.0</ele><time>2026-03-27T15:35:27.334Z</time></trkpt><trkpt lat="45.5794151" lon="9.0170961"><ele>185.0</ele><time>2026-03-27T15:35:28.334Z</time></trkpt><trkpt lat="45.5793016" lon="9.0169969"><ele>185.0</ele><time>2026-03-27T15:35:29.335Z</time></trkpt><trkpt lat="45.5791879" lon="9.0168958"><ele>185.0</ele><time>2026-03-27T15:35:30.335Z</time></trkpt><trkpt lat="45.5790767" lon="9.0167945"><ele>185.0</ele><time>2026-03-27T15:35:31.335Z</time></trkpt><trkpt lat="45.5789692" lon="9.0166964"><ele>185.0</ele><time>2026-03-27T15:35:32.335Z</time></trkpt><trkpt lat="45.5788695" lon="9.0166053"><ele>185.0</ele><time>2026-03-27T15:35:33.335Z</time></trkpt><trkpt lat="45.5787721" lon="9.0165197"><ele>184.6</ele><time>2026-03-27T15:35:34.335Z</time></trkpt><trkpt lat="45.5786816" lon="9.0164396"><ele>184.2</ele><time>2026-03-27T15:35:35.335Z</time></trkpt><trkpt lat="45.5785948" lon="9.0163637"><ele>183.8</ele><time>2026-03-27T15:35:36.335Z</time></trkpt><trkpt lat="45.5785179" lon="9.0162923"><ele>183.4</ele><time>2026-03-27T15:35:37.336Z</time></trkpt><trkpt lat="45.5784475" lon="9.0162302"><ele>183.0</ele><time>2026-03-27T15:35:38.336Z</time></trkpt><trkpt lat="45.5783915" lon="9.016175"><ele>183.0</ele><time>2026-03-27T15:35:39.336Z</time></trkpt><trkpt lat="45.578314" lon="9.0160705"><ele>183.0</ele><time>2026-03-27T15:35:41.335Z</time></trkpt><trkpt lat="45.5782495" lon="9.0159312"><ele>183.0</ele><time>2026-03-27T15:35:43.334Z</time></trkpt><trkpt lat="45.5782069" lon="9.0157885"><ele>183.0</ele><time>2026-03-27T15:35:45.335Z</time></trkpt><trkpt lat="45.5781334" lon="9.0156474"><ele>182.85714285714286</ele><time>2026-03-27T15:35:47.335Z</time></trkpt><trkpt lat="45.5780747" lon="9.0156114"><ele>182.71428571428572</ele><time>2026-03-27T15:35:48.335Z</time></trkpt><trkpt lat="45.5780088" lon="9.0156024"><ele>182.57142857142856</ele><time>2026-03-27T15:35:49.335Z</time></trkpt><trkpt lat="45.5779432" lon="9.015629"><ele>182.42857142857144</ele><time>2026-03-27T15:35:50.336Z</time></trkpt><trkpt lat="45.5778875" lon="9.0156907"><ele>182.28571428571428</ele><time>2026-03-27T15:35:51.335Z</time></trkpt><trkpt lat="45.5778526" lon="9.0157844"><ele>182.14285714285714</ele><time>2026-03-27T15:35:52.335Z</time></trkpt><trkpt lat="45.5778099" lon="9.0158901"><ele>182.0</ele><time>2026-03-27T15:35:53.336Z</time></trkpt><trkpt lat="45.5777341" lon="9.0159822"><ele>182.0</ele><time>2026-03-27T15:35:54.335Z</time></trkpt><trkpt lat="45.5776505" lon="9.0160505"><ele>182.0</ele><time>2026-03-27T15:35:55.334Z</time></trkpt><trkpt lat="45.5775661" lon="9.016112"><ele>182.0</ele><time>2026-03-27T15:35:56.335Z</time></trkpt><trkpt lat="45.5774735" lon="9.0161629"><ele>182.0</ele><time>2026-03-27T15:35:57.335Z</time></trkpt><trkpt lat="45.5773759" lon="9.0162174"><ele>182.0</ele><time>2026-03-27T15:35:58.334Z</time></trkpt><trkpt lat="45.5772673" lon="9.0162764"><ele>182.0</ele><time>2026-03-27T15:35:59.335Z</time></trkpt><trkpt lat="45.5771581" lon="9.0163322"><ele>182.0</ele><time>2026-03-27T15:36:00.335Z</time></trkpt><trkpt lat="45.5770566" lon="9.0163868"><ele>182.0</ele><time>2026-03-27T15:36:01.335Z</time></trkpt><trkpt lat="45.5769589" lon="9.0164377"><ele>182.0</ele><time>2026-03-27T15:36:02.335Z</time></trkpt><trkpt lat="45.576853" lon="9.0164814"><ele>182.0</ele><time>2026-03-27T15:36:03.335Z</time></trkpt><trkpt lat="45.5767516" lon="9.0165257"><ele>182.0</ele><time>2026-03-27T15:36:04.335Z</time></trkpt><trkpt lat="45.5766477" lon="9.0165718"><ele>182.0</ele><time>2026-03-27T15:36:05.334Z</time></trkpt><trkpt lat="45.5765431" lon="9.0166196"><ele>182.0</ele><time>2026-03-27T15:36:06.335Z</time></trkpt><trkpt lat="45.5764382" lon="9.0166745"><ele>182.0</ele><time>2026-03-27T15:36:07.336Z</time></trkpt><trkpt lat="45.5763321" lon="9.0167293"><ele>182.0</ele><time>2026-03-27T15:36:08.334Z</time></trkpt><trkpt lat="45.5762273" lon="9.016784"><ele>182.0</ele><time>2026-03-27T15:36:09.335Z</time></trkpt><trkpt lat="45.5761234" lon="9.0168336"><ele>182.0</ele><time>2026-03-27T15:36:10.335Z</time></trkpt><trkpt lat="45.5760158" lon="9.0168795"><ele>182.0</ele><time>2026-03-27T15:36:11.335Z</time></trkpt><trkpt lat="45.5759074" lon="9.016927"><ele>182.0</ele><time>2026-03-27T15:36:12.335Z</time></trkpt><trkpt lat="45.5757984" lon="9.0169783"><ele>182.0</ele><time>2026-03-27T15:36:13.334Z</time></trkpt><trkpt lat="45.5756914" lon="9.0170285"><ele>182.0</ele><time>2026-03-27T15:36:14.335Z</time></trkpt><trkpt lat="45.5755858" lon="9.0170857"><ele>182.0</ele><time>2026-03-27T15:36:15.335Z</time></trkpt><trkpt lat="45.5754814" lon="9.0171403"><ele>182.0</ele><time>2026-03-27T15:36:16.335Z</time></trkpt><trkpt lat="45.5753733" lon="9.0171966"><ele>182.0</ele><time>2026-03-27T15:36:17.335Z</time></trkpt><trkpt lat="45.5752625" lon="9.017251"><ele>182.0</ele><time>2026-03-27T15:36:18.335Z</time></trkpt><trkpt lat="45.5751509" lon="9.0173068"><ele>182.0</ele><time>2026-03-27T15:36:19.336Z</time></trkpt><trkpt lat="45.5750427" lon="9.0173588"><ele>182.0</ele><time>2026-03-27T15:36:20.334Z</time></trkpt><trkpt lat="45.5749325" lon="9.017415"><ele>182.0</ele><time>2026-03-27T15:36:21.335Z</time></trkpt><trkpt lat="45.5748235" lon="9.0174681"><ele>182.0</ele><time>2026-03-27T15:36:22.336Z</time></trkpt><trkpt lat="45.5747134" lon="9.0175255"><ele>182.0</ele><time>2026-03-27T15:36:23.334Z</time></trkpt><trkpt lat="45.5746066" lon="9.0175779"><ele>182.0</ele><time>2026-03-27T15:36:24.335Z</time></trkpt><trkpt lat="45.5745104" lon="9.0176273"><ele>182.0</ele><time>2026-03-27T15:36:25.336Z</time></trkpt><trkpt lat="45.5744216" lon="9.0176698"><ele>182.0</ele><time>2026-03-27T15:36:26.335Z</time></trkpt><trkpt lat="45.5743386" lon="9.0177082"><ele>182.0</ele><time>2026-03-27T15:36:27.336Z</time></trkpt><trkpt lat="45.5742604" lon="9.0177456"><ele>182.0</ele><time>2026-03-27T15:36:28.335Z</time></trkpt><trkpt lat="45.5741794" lon="9.0177894"><ele>182.0</ele><time>2026-03-27T15:36:29.334Z</time></trkpt><trkpt lat="45.5740928" lon="9.0178333"><ele>182.0</ele><time>2026-03-27T15:36:30.335Z</time></trkpt><trkpt lat="45.574006" lon="9.0178757"><ele>182.0</ele><time>2026-03-27T15:36:31.335Z</time></trkpt><trkpt lat="45.5739134" lon="9.0179201"><ele>182.0</ele><time>2026-03-27T15:36:32.334Z</time></trkpt><trkpt lat="45.5738211" lon="9.0179685"><ele>182.0</ele><time>2026-03-27T15:36:33.335Z</time></trkpt><trkpt lat="45.5737259" lon="9.0180169"><ele>182.0</ele><time>2026-03-27T15:36:34.335Z</time></trkpt><trkpt lat="45.5736288" lon="9.0180643"><ele>182.0</ele><time>2026-03-27T15:36:35.336Z</time></trkpt><trkpt lat="45.573526" lon="9.0181181"><ele>182.0</ele><time>2026-03-27T15:36:36.335Z</time></trkpt><trkpt lat="45.5734255" lon="9.0181704"><ele>181.75</ele><time>2026-03-27T15:36:37.336Z</time></trkpt><trkpt lat="45.5733199" lon="9.0182231"><ele>181.5</ele><time>2026-03-27T15:36:38.335Z</time></trkpt><trkpt lat="45.5732129" lon="9.0182746"><ele>181.25</ele><time>2026-03-27T15:36:39.335Z</time></trkpt><trkpt lat="45.5731029" lon="9.0183276"><ele>181.0</ele><time>2026-03-27T15:36:40.335Z</time></trkpt><trkpt lat="45.5729904" lon="9.0183808"><ele>180.75</ele><time>2026-03-27T15:36:41.335Z</time></trkpt><trkpt lat="45.5728773" lon="9.0184337"><ele>180.5</ele><time>2026-03-27T15:36:42.335Z</time></trkpt><trkpt lat="45.5727639" lon="9.0184887"><ele>180.25</ele><time>2026-03-27T15:36:43.335Z</time></trkpt><trkpt lat="45.5726525" lon="9.0185453"><ele>180.0</ele><time>2026-03-27T15:36:44.335Z</time></trkpt><trkpt lat="45.5725403" lon="9.0186033"><ele>179.75</ele><time>2026-03-27T15:36:45.334Z</time></trkpt><trkpt lat="45.57243" lon="9.0186565"><ele>179.5</ele><time>2026-03-27T15:36:46.334Z</time></trkpt><trkpt lat="45.5723185" lon="9.0187112"><ele>179.25</ele><time>2026-03-27T15:36:47.333Z</time></trkpt><trkpt lat="45.5722061" lon="9.0187634"><ele>179.0</ele><time>2026-03-27T15:36:48.334Z</time></trkpt><trkpt lat="45.5720953" lon="9.0188167"><ele>179.0</ele><time>2026-03-27T15:36:49.333Z</time></trkpt><trkpt lat="45.5719868" lon="9.0188698"><ele>179.0</ele><time>2026-03-27T15:36:50.334Z</time></trkpt><trkpt lat="45.571877" lon="9.0189263"><ele>179.0</ele><time>2026-03-27T15:36:51.335Z</time></trkpt><trkpt lat="45.5717653" lon="9.018977"><ele>179.0</ele><time>2026-03-27T15:36:52.335Z</time></trkpt><trkpt lat="45.5716514" lon="9.0190288"><ele>179.0</ele><time>2026-03-27T15:36:53.334Z</time></trkpt><trkpt lat="45.5715381" lon="9.0190818"><ele>179.0</ele><time>2026-03-27T15:36:54.334Z</time></trkpt><trkpt lat="45.5714301" lon="9.0191393"><ele>179.0</ele><time>2026-03-27T15:36:55.334Z</time></trkpt><trkpt lat="45.571332" lon="9.019223"><ele>179.0</ele><time>2026-03-27T15:36:56.334Z</time></trkpt><trkpt lat="45.5712412" lon="9.0193195"><ele>179.25</ele><time>2026-03-27T15:36:57.334Z</time></trkpt><trkpt lat="45.5711597" lon="9.0194385"><ele>179.5</ele><time>2026-03-27T15:36:58.334Z</time></trkpt><trkpt lat="45.5710863" lon="9.0195783"><ele>179.75</ele><time>2026-03-27T15:36:59.334Z</time></trkpt><trkpt lat="45.5710199" lon="9.0197155"><ele>180.0</ele><time>2026-03-27T15:37:00.334Z</time></trkpt><trkpt lat="45.5709561" lon="9.0198428"><ele>180.0</ele><time>2026-03-27T15:37:01.334Z</time></trkpt><trkpt lat="45.5708937" lon="9.0199681"><ele>180.0</ele><time>2026-03-27T15:37:02.333Z</time></trkpt><trkpt lat="45.5708303" lon="9.0200915"><ele>180.0</ele><time>2026-03-27T15:37:03.334Z</time></trkpt><trkpt lat="45.5707728" lon="9.02021"><ele>180.0</ele><time>2026-03-27T15:37:04.334Z</time></trkpt><trkpt lat="45.5707183" lon="9.0203278"><ele>180.0</ele><time>2026-03-27T15:37:05.334Z</time></trkpt><trkpt lat="45.5706659" lon="9.0204336"><ele>180.0</ele><time>2026-03-27T15:37:06.334Z</time></trkpt><trkpt lat="45.5706163" lon="9.0205354"><ele>180.0</ele><time>2026-03-27T15:37:07.334Z</time></trkpt><trkpt lat="45.5705718" lon="9.0206338"><ele>180.0</ele><time>2026-03-27T15:37:08.335Z</time></trkpt><trkpt lat="45.5705205" lon="9.0207375"><ele>180.0</ele><time>2026-03-27T15:37:09.334Z</time></trkpt><trkpt lat="45.570454" lon="9.0208241"><ele>180.0</ele><time>2026-03-27T15:37:10.333Z</time></trkpt><trkpt lat="45.5703727" lon="9.0208848"><ele>180.0</ele><time>2026-03-27T15:37:11.334Z</time></trkpt><trkpt lat="45.5702783" lon="9.0209174"><ele>180.0</ele><time>2026-03-27T15:37:12.334Z</time></trkpt><trkpt lat="45.5701729" lon="9.0209081"><ele>180.0</ele><time>2026-03-27T15:37:13.334Z</time></trkpt><trkpt lat="45.5700666" lon="9.0208501"><ele>180.0</ele><time>2026-03-27T15:37:14.333Z</time></trkpt><trkpt lat="45.5699655" lon="9.0207512"><ele>180.0</ele><time>2026-03-27T15:37:15.334Z</time></trkpt><trkpt lat="45.5698748" lon="9.0206083"><ele>180.0</ele><time>2026-03-27T15:37:16.334Z</time></trkpt><trkpt lat="45.5698072" lon="9.0204347"><ele>180.0</ele><time>2026-03-27T15:37:17.335Z</time></trkpt><trkpt lat="45.5697554" lon="9.0202381"><ele>180.0</ele><time>2026-03-27T15:37:18.333Z</time></trkpt><trkpt lat="45.5697087" lon="9.0200462"><ele>180.0</ele><time>2026-03-27T15:37:19.334Z</time></trkpt><trkpt lat="45.5696613" lon="9.0198556"><ele>180.0</ele><time>2026-03-27T15:37:20.333Z</time></trkpt><trkpt lat="45.5696129" lon="9.0196457"><ele>180.0</ele><time>2026-03-27T15:37:21.334Z</time></trkpt><trkpt lat="45.5695779" lon="9.0193938"><ele>180.0</ele><time>2026-03-27T15:37:22.333Z</time></trkpt><trkpt lat="45.5695494" lon="9.0191745"><ele>180.25</ele><time>2026-03-27T15:37:23.333Z</time></trkpt><trkpt lat="45.5695139" lon="9.0189703"><ele>180.5</ele><time>2026-03-27T15:37:24.335Z</time></trkpt><trkpt lat="45.5694764" lon="9.0187894"><ele>180.75</ele><time>2026-03-27T15:37:25.334Z</time></trkpt><trkpt lat="45.5694482" lon="9.018596"><ele>181.0</ele><time>2026-03-27T15:37:26.333Z</time></trkpt><trkpt lat="45.5694479" lon="9.0184227"><ele>180.5</ele><time>2026-03-27T15:37:27.333Z</time></trkpt><trkpt lat="45.5694456" lon="9.018228"><ele>180.0</ele><time>2026-03-27T15:37:28.335Z</time></trkpt><trkpt lat="45.5694536" lon="9.0180464"><ele>179.5</ele><time>2026-03-27T15:37:29.333Z</time></trkpt><trkpt lat="45.5695446" lon="9.0178692"><ele>179.0</ele><time>2026-03-27T15:37:30.334Z</time></trkpt><trkpt lat="45.5696056" lon="9.0176676"><ele>179.0</ele><time>2026-03-27T15:37:31.334Z</time></trkpt><trkpt lat="45.5696846" lon="9.0174736"><ele>179.0</ele><time>2026-03-27T15:37:32.334Z</time></trkpt><trkpt lat="45.569781" lon="9.0172925"><ele>179.0</ele><time>2026-03-27T15:37:33.335Z</time></trkpt><trkpt lat="45.5698967" lon="9.0171167"><ele>179.0</ele><time>2026-03-27T15:37:34.334Z</time></trkpt><trkpt lat="45.5699995" lon="9.0169511"><ele>179.0</ele><time>2026-03-27T15:37:35.334Z</time></trkpt><trkpt lat="45.570138" lon="9.0168483"><ele>179.0</ele><time>2026-03-27T15:37:36.333Z</time></trkpt><trkpt lat="45.5702662" lon="9.0167281"><ele>180.0</ele><time>2026-03-27T15:37:37.335Z</time></trkpt><trkpt lat="45.5704019" lon="9.0166061"><ele>181.0</ele><time>2026-03-27T15:37:38.334Z</time></trkpt><trkpt lat="45.5705278" lon="9.016496"><ele>182.0</ele><time>2026-03-27T15:37:39.335Z</time></trkpt><trkpt lat="45.5706641" lon="9.0163704"><ele>182.0</ele><time>2026-03-27T15:37:40.335Z</time></trkpt><trkpt lat="45.5708024" lon="9.0162516"><ele>182.0</ele><time>2026-03-27T15:37:41.335Z</time></trkpt><trkpt lat="45.5709328" lon="9.0161462"><ele>182.0</ele><time>2026-03-27T15:37:42.334Z</time></trkpt><trkpt lat="45.571058" lon="9.0160374"><ele>182.0</ele><time>2026-03-27T15:37:43.334Z</time></trkpt><trkpt lat="45.5711784" lon="9.0159285"><ele>182.0</ele><time>2026-03-27T15:37:44.334Z</time></trkpt><trkpt lat="45.5713049" lon="9.0158189"><ele>182.0</ele><time>2026-03-27T15:37:45.335Z</time></trkpt><trkpt lat="45.5714253" lon="9.0157119"><ele>182.0</ele><time>2026-03-27T15:37:46.334Z</time></trkpt><trkpt lat="45.5715407" lon="9.0155977"><ele>182.0</ele><time>2026-03-27T15:37:47.333Z</time></trkpt><trkpt lat="45.5716524" lon="9.0154786"><ele>182.0</ele><time>2026-03-27T15:37:48.334Z</time></trkpt><trkpt lat="45.5717607" lon="9.0153504"><ele>182.0</ele><time>2026-03-27T15:37:49.335Z</time></trkpt><trkpt lat="45.5718643" lon="9.0152069"><ele>182.0</ele><time>2026-03-27T15:37:50.334Z</time></trkpt><trkpt lat="45.5719595" lon="9.015049"><ele>182.0</ele><time>2026-03-27T15:37:51.333Z</time></trkpt><trkpt lat="45.572048" lon="9.0148779"><ele>182.0</ele><time>2026-03-27T15:37:52.333Z</time></trkpt><trkpt lat="45.5721296" lon="9.0146958"><ele>182.0</ele><time>2026-03-27T15:37:53.334Z</time></trkpt><trkpt lat="45.5722013" lon="9.0145062"><ele>182.0</ele><time>2026-03-27T15:37:54.335Z</time></trkpt><trkpt lat="45.57226" lon="9.0143131"><ele>182.0</ele><time>2026-03-27T15:37:55.334Z</time></trkpt><trkpt lat="45.5723049" lon="9.0141043"><ele>182.0</ele><time>2026-03-27T15:37:56.334Z</time></trkpt><trkpt lat="45.5723329" lon="9.0138987"><ele>182.0</ele><time>2026-03-27T15:37:57.334Z</time></trkpt><trkpt lat="45.5723496" lon="9.0136984"><ele>181.33333333333331</ele><time>2026-03-27T15:37:58.334Z</time></trkpt><trkpt lat="45.5723571" lon="9.0134978"><ele>180.66666666666666</ele><time>2026-03-27T15:37:59.333Z</time></trkpt><trkpt lat="45.5723515" lon="9.0132813"><ele>180.0</ele><time>2026-03-27T15:38:00.334Z</time></trkpt><trkpt lat="45.5723369" lon="9.013043"><ele>180.33333333333334</ele><time>2026-03-27T15:38:01.335Z</time></trkpt><trkpt lat="45.5723196" lon="9.0127807"><ele>180.66666666666669</ele><time>2026-03-27T15:38:02.334Z</time></trkpt><trkpt lat="45.5722978" lon="9.0124979"><ele>181.0</ele><time>2026-03-27T15:38:03.333Z</time></trkpt><trkpt lat="45.5722804" lon="9.0121999"><ele>181.0</ele><time>2026-03-27T15:38:04.335Z</time></trkpt><trkpt lat="45.5722698" lon="9.0119126"><ele>181.0</ele><time>2026-03-27T15:38:05.335Z</time></trkpt><trkpt lat="45.5722561" lon="9.0116415"><ele>181.0</ele><time>2026-03-27T15:38:06.334Z</time></trkpt><trkpt lat="45.5722429" lon="9.0113869"><ele>180.66666666666669</ele><time>2026-03-27T15:38:07.334Z</time></trkpt><trkpt lat="45.572228" lon="9.0111507"><ele>180.33333333333334</ele><time>2026-03-27T15:38:08.333Z</time></trkpt><trkpt lat="45.5722155" lon="9.0109284"><ele>180.0</ele><time>2026-03-27T15:38:09.333Z</time></trkpt><trkpt lat="45.5722071" lon="9.0107373"><ele>180.0</ele><time>2026-03-27T15:38:10.333Z</time></trkpt><trkpt lat="45.5721975" lon="9.0105498"><ele>180.0</ele><time>2026-03-27T15:38:11.334Z</time></trkpt><trkpt lat="45.5721888" lon="9.0103665"><ele>180.0</ele><time>2026-03-27T15:38:12.334Z</time></trkpt><trkpt lat="45.572183" lon="9.0102097"><ele>180.0</ele><time>2026-03-27T15:38:13.334Z</time></trkpt><trkpt lat="45.5721839" lon="9.0100485"><ele>180.33333333333334</ele><time>2026-03-27T15:38:14.334Z</time></trkpt><trkpt lat="45.5722276" lon="9.0098613"><ele>180.66666666666666</ele><time>2026-03-27T15:38:16.334Z</time></trkpt><trkpt lat="45.5722546" lon="9.0097747"><ele>181.0</ele><time>2026-03-27T15:38:18.334Z</time></trkpt><trkpt lat="45.5723168" lon="9.0097389"><ele>181.33333333333331</ele><time>2026-03-27T15:38:20.334Z</time></trkpt><trkpt lat="45.5723751" lon="9.0096892"><ele>181.66666666666666</ele><time>2026-03-27T15:38:21.334Z</time></trkpt><trkpt lat="45.5723982" lon="9.0095991"><ele>182.0</ele><time>2026-03-27T15:38:22.334Z</time></trkpt><trkpt lat="45.5723806" lon="9.0094973"><ele>182.0</ele><time>2026-03-27T15:38:23.335Z</time></trkpt><trkpt lat="45.5723325" lon="9.0093978"><ele>182.0</ele><time>2026-03-27T15:38:24.334Z</time></trkpt><trkpt lat="45.5722604" lon="9.0093517"><ele>182.0</ele><time>2026-03-27T15:38:25.334Z</time></trkpt><trkpt lat="45.5721712" lon="9.0093598"><ele>182.0</ele><time>2026-03-27T15:38:26.333Z</time></trkpt><trkpt lat="45.5720885" lon="9.0093593"><ele>182.0</ele><time>2026-03-27T15:38:27.334Z</time></trkpt><trkpt lat="45.5719624" lon="9.0095096"><ele>181.0</ele><time>2026-03-27T15:38:28.333Z</time></trkpt><trkpt lat="45.5718521" lon="9.0095448"><ele>180.0</ele><time>2026-03-27T15:38:29.334Z</time></trkpt><trkpt lat="45.5717337" lon="9.0095805"><ele>179.0</ele><time>2026-03-27T15:38:30.333Z</time></trkpt><trkpt lat="45.5716067" lon="9.0096014"><ele>178.0</ele><time>2026-03-27T15:38:31.334Z</time></trkpt><trkpt lat="45.5714795" lon="9.0096232"><ele>178.0</ele><time>2026-03-27T15:38:32.334Z</time></trkpt><trkpt lat="45.5713473" lon="9.0096334"><ele>178.0</ele><time>2026-03-27T15:38:33.334Z</time></trkpt><trkpt lat="45.5712171" lon="9.0096435"><ele>178.0</ele><time>2026-03-27T15:38:34.333Z</time></trkpt><trkpt lat="45.571084" lon="9.0096642"><ele>178.0</ele><time>2026-03-27T15:38:35.335Z</time></trkpt><trkpt lat="45.5709527" lon="9.0096816"><ele>178.5</ele><time>2026-03-27T15:38:36.335Z</time></trkpt><trkpt lat="45.5708299" lon="9.0096935"><ele>179.0</ele><time>2026-03-27T15:38:37.334Z</time></trkpt><trkpt lat="45.5707136" lon="9.0097066"><ele>179.5</ele><time>2026-03-27T15:38:38.335Z</time></trkpt><trkpt lat="45.5705994" lon="9.0097174"><ele>180.0</ele><time>2026-03-27T15:38:39.335Z</time></trkpt><trkpt lat="45.5704832" lon="9.0097317"><ele>180.0</ele><time>2026-03-27T15:38:40.334Z</time></trkpt><trkpt lat="45.5703659" lon="9.0097443"><ele>180.0</ele><time>2026-03-27T15:38:41.334Z</time></trkpt><trkpt lat="45.570248" lon="9.0097543"><ele>180.0</ele><time>2026-03-27T15:38:42.334Z</time></trkpt><trkpt lat="45.5701313" lon="9.0097626"><ele>180.0</ele><time>2026-03-27T15:38:43.334Z</time></trkpt><trkpt lat="45.5700188" lon="9.0097688"><ele>180.0</ele><time>2026-03-27T15:38:44.335Z</time></trkpt><trkpt lat="45.5699096" lon="9.0097794"><ele>180.0</ele><time>2026-03-27T15:38:45.335Z</time></trkpt><trkpt lat="45.5698077" lon="9.009794"><ele>180.0</ele><time>2026-03-27T15:38:46.334Z</time></trkpt><trkpt lat="45.5697083" lon="9.0098089"><ele>180.0</ele><time>2026-03-27T15:38:47.333Z</time></trkpt><trkpt lat="45.5696037" lon="9.0098188"><ele>180.0</ele><time>2026-03-27T15:38:48.333Z</time></trkpt><trkpt lat="45.5695034" lon="9.0098261"><ele>180.0</ele><time>2026-03-27T15:38:49.334Z</time></trkpt><trkpt lat="45.5694082" lon="9.0098328"><ele>180.0</ele><time>2026-03-27T15:38:50.334Z</time></trkpt><trkpt lat="45.5693194" lon="9.0098378"><ele>180.0</ele><time>2026-03-27T15:38:51.333Z</time></trkpt><trkpt lat="45.5692269" lon="9.0098453"><ele>180.0</ele><time>2026-03-27T15:38:52.334Z</time></trkpt><trkpt lat="45.5691312" lon="9.0098481"><ele>180.0</ele><time>2026-03-27T15:38:53.334Z</time></trkpt><trkpt lat="45.5690406" lon="9.009835"><ele>180.0</ele><time>2026-03-27T15:38:54.333Z</time></trkpt><trkpt lat="45.5689572" lon="9.0098109"><ele>180.0</ele><time>2026-03-27T15:38:55.334Z</time></trkpt><trkpt lat="45.5688636" lon="9.009803"><ele>180.0</ele><time>2026-03-27T15:38:56.333Z</time></trkpt><trkpt lat="45.568758" lon="9.0098465"><ele>180.0</ele><time>2026-03-27T15:38:57.334Z</time></trkpt><trkpt lat="45.5686462" lon="9.0098771"><ele>180.0</ele><time>2026-03-27T15:38:58.335Z</time></trkpt><trkpt lat="45.5685416" lon="9.0098909"><ele>180.4</ele><time>2026-03-27T15:38:59.335Z</time></trkpt><trkpt lat="45.5684426" lon="9.009912"><ele>180.8</ele><time>2026-03-27T15:39:00.334Z</time></trkpt><trkpt lat="45.568349" lon="9.0099259"><ele>181.2</ele><time>2026-03-27T15:39:01.333Z</time></trkpt><trkpt lat="45.5682526" lon="9.0099407"><ele>181.6</ele><time>2026-03-27T15:39:02.333Z</time></trkpt><trkpt lat="45.5681529" lon="9.0099524"><ele>182.0</ele><time>2026-03-27T15:39:03.334Z</time></trkpt><trkpt lat="45.5680534" lon="9.009964"><ele>182.0</ele><time>2026-03-27T15:39:04.335Z</time></trkpt><trkpt lat="45.5679583" lon="9.0099768"><ele>182.0</ele><time>2026-03-27T15:39:05.334Z</time></trkpt><trkpt lat="45.5678641" lon="9.0099859"><ele>182.0</ele><time>2026-03-27T15:39:06.334Z</time></trkpt><trkpt lat="45.5677701" lon="9.0100008"><ele>182.0</ele><time>2026-03-27T15:39:07.334Z</time></trkpt><trkpt lat="45.5676752" lon="9.0100038"><ele>182.0</ele><time>2026-03-27T15:39:08.333Z</time></trkpt><trkpt lat="45.5675783" lon="9.0100108"><ele>181.5</ele><time>2026-03-27T15:39:09.334Z</time></trkpt><trkpt lat="45.567482" lon="9.0100142"><ele>181.0</ele><time>2026-03-27T15:39:10.334Z</time></trkpt><trkpt lat="45.5673864" lon="9.0100232"><ele>180.5</ele><time>2026-03-27T15:39:11.334Z</time></trkpt><trkpt lat="45.5672987" lon="9.0100329"><ele>180.0</ele><time>2026-03-27T15:39:12.333Z</time></trkpt><trkpt lat="45.5672177" lon="9.0100365"><ele>179.5</ele><time>2026-03-27T15:39:13.334Z</time></trkpt><trkpt lat="45.5671398" lon="9.0100431"><ele>179.0</ele><time>2026-03-27T15:39:14.334Z</time></trkpt><trkpt lat="45.5670694" lon="9.0100573"><ele>179.16666666666666</ele><time>2026-03-27T15:39:15.334Z</time></trkpt><trkpt lat="45.5669993" lon="9.0100653"><ele>179.33333333333331</ele><time>2026-03-27T15:39:16.333Z</time></trkpt><trkpt lat="45.5669216" lon="9.010075"><ele>179.5</ele><time>2026-03-27T15:39:17.334Z</time></trkpt><trkpt lat="45.5668439" lon="9.0100812"><ele>179.66666666666666</ele><time>2026-03-27T15:39:18.334Z</time></trkpt><trkpt lat="45.5667586" lon="9.0100903"><ele>179.83333333333334</ele><time>2026-03-27T15:39:19.334Z</time></trkpt><trkpt lat="45.5666685" lon="9.0101007"><ele>180.0</ele><time>2026-03-27T15:39:20.333Z</time></trkpt><trkpt lat="45.5665792" lon="9.0101126"><ele>180.0</ele><time>2026-03-27T15:39:21.334Z</time></trkpt><trkpt lat="45.5664918" lon="9.0101225"><ele>180.0</ele><time>2026-03-27T15:39:22.334Z</time></trkpt><trkpt lat="45.5664156" lon="9.010135"><ele>180.0</ele><time>2026-03-27T15:39:23.333Z</time></trkpt><trkpt lat="45.5663394" lon="9.0101435"><ele>180.0</ele><time>2026-03-27T15:39:24.333Z</time></trkpt><trkpt lat="45.5662604" lon="9.0101549"><ele>180.0</ele><time>2026-03-27T15:39:25.333Z</time></trkpt><trkpt lat="45.56618" lon="9.0101691"><ele>180.0</ele><time>2026-03-27T15:39:26.334Z</time></trkpt><trkpt lat="45.56611" lon="9.010216"><ele>180.0</ele><time>2026-03-27T15:39:27.334Z</time></trkpt><trkpt lat="45.5660694" lon="9.0102931"><ele>180.0</ele><time>2026-03-27T15:39:28.334Z</time></trkpt><trkpt lat="45.5660632" lon="9.0103875"><ele>180.0</ele><time>2026-03-27T15:39:29.333Z</time></trkpt><trkpt lat="45.5660937" lon="9.0104887"><ele>180.0</ele><time>2026-03-27T15:39:30.335Z</time></trkpt><trkpt lat="45.5661656" lon="9.0105947"><ele>180.0</ele><time>2026-03-27T15:39:31.334Z</time></trkpt><trkpt lat="45.5662584" lon="9.0107089"><ele>180.0</ele><time>2026-03-27T15:39:32.333Z</time></trkpt><trkpt lat="45.5663346" lon="9.0108198"><ele>179.8</ele><time>2026-03-27T15:39:33.334Z</time></trkpt><trkpt lat="45.5664038" lon="9.010934"><ele>179.6</ele><time>2026-03-27T15:39:34.335Z</time></trkpt><trkpt lat="45.566477" lon="9.0110479"><ele>179.39999999999998</ele><time>2026-03-27T15:39:35.334Z</time></trkpt><trkpt lat="45.5665476" lon="9.0111783"><ele>179.2</ele><time>2026-03-27T15:39:36.334Z</time></trkpt><trkpt lat="45.5666169" lon="9.0113137"><ele>179.0</ele><time>2026-03-27T15:39:37.333Z</time></trkpt><trkpt lat="45.5666828" lon="9.0114514"><ele>179.0</ele><time>2026-03-27T15:39:38.334Z</time></trkpt><trkpt lat="45.5667498" lon="9.0115998"><ele>179.0</ele><time>2026-03-27T15:39:39.335Z</time></trkpt><trkpt lat="45.5668207" lon="9.011764"><ele>179.0</ele><time>2026-03-27T15:39:40.334Z</time></trkpt><trkpt lat="45.5668934" lon="9.0119221"><ele>179.0</ele><time>2026-03-27T15:39:41.334Z</time></trkpt><trkpt lat="45.5669568" lon="9.0120554"><ele>179.0</ele><time>2026-03-27T15:39:42.334Z</time></trkpt><trkpt lat="45.5670199" lon="9.0121831"><ele>179.0</ele><time>2026-03-27T15:39:43.334Z</time></trkpt><trkpt lat="45.5670786" lon="9.0123081"><ele>179.0</ele><time>2026-03-27T15:39:44.333Z</time></trkpt><trkpt lat="45.5671392" lon="9.012436"><ele>179.0</ele><time>2026-03-27T15:39:45.334Z</time></trkpt><trkpt lat="45.5671964" lon="9.0125663"><ele>179.0</ele><time>2026-03-27T15:39:46.335Z</time></trkpt><trkpt lat="45.5672599" lon="9.0127077"><ele>178.75</ele><time>2026-03-27T15:39:47.333Z</time></trkpt><trkpt lat="45.5673199" lon="9.0128489"><ele>178.5</ele><time>2026-03-27T15:39:48.333Z</time></trkpt><trkpt lat="45.5673798" lon="9.0129693"><ele>178.25</ele><time>2026-03-27T15:39:49.333Z</time></trkpt><trkpt lat="45.5674435" lon="9.0130885"><ele>178.0</ele><time>2026-03-27T15:39:50.334Z</time></trkpt><trkpt lat="45.5675155" lon="9.0132386"><ele>177.75</ele><time>2026-03-27T15:39:51.332Z</time></trkpt><trkpt lat="45.5675822" lon="9.0133918"><ele>177.5</ele><time>2026-03-27T15:39:52.333Z</time></trkpt><trkpt lat="45.5676492" lon="9.0135392"><ele>177.25</ele><time>2026-03-27T15:39:53.333Z</time></trkpt><trkpt lat="45.5677232" lon="9.0136951"><ele>177.0</ele><time>2026-03-27T15:39:54.333Z</time></trkpt><trkpt lat="45.5677946" lon="9.0138529"><ele>177.5</ele><time>2026-03-27T15:39:55.333Z</time></trkpt><trkpt lat="45.567863" lon="9.0140043"><ele>178.0</ele><time>2026-03-27T15:39:56.333Z</time></trkpt><trkpt lat="45.5679311" lon="9.0141501"><ele>178.5</ele><time>2026-03-27T15:39:57.333Z</time></trkpt><trkpt lat="45.5679964" lon="9.0142863"><ele>179.0</ele><time>2026-03-27T15:39:58.333Z</time></trkpt><trkpt lat="45.5680627" lon="9.0144246"><ele>179.0</ele><time>2026-03-27T15:39:59.333Z</time></trkpt><trkpt lat="45.5681207" lon="9.0145708"><ele>179.0</ele><time>2026-03-27T15:40:00.333Z</time></trkpt><trkpt lat="45.5681777" lon="9.0146904"><ele>179.0</ele><time>2026-03-27T15:40:01.333Z</time></trkpt><trkpt lat="45.5682373" lon="9.0148264"><ele>179.0</ele><time>2026-03-27T15:40:02.334Z</time></trkpt><trkpt lat="45.5682935" lon="9.0149645"><ele>179.0</ele><time>2026-03-27T15:40:03.333Z</time></trkpt><trkpt lat="45.568344" lon="9.0151091"><ele>179.25</ele><time>2026-03-27T15:40:04.333Z</time></trkpt><trkpt lat="45.5683852" lon="9.0152588"><ele>179.5</ele><time>2026-03-27T15:40:05.332Z</time></trkpt><trkpt lat="45.5684256" lon="9.0154177"><ele>179.75</ele><time>2026-03-27T15:40:06.333Z</time></trkpt><trkpt lat="45.5684648" lon="9.0155875"><ele>180.0</ele><time>2026-03-27T15:40:07.334Z</time></trkpt><trkpt lat="45.5685033" lon="9.0157671"><ele>180.25</ele><time>2026-03-27T15:40:08.333Z</time></trkpt><trkpt lat="45.5685434" lon="9.0159465"><ele>180.5</ele><time>2026-03-27T15:40:09.334Z</time></trkpt><trkpt lat="45.5685808" lon="9.0161305"><ele>180.75</ele><time>2026-03-27T15:40:10.334Z</time></trkpt><trkpt lat="45.5686198" lon="9.0163204"><ele>181.0</ele><time>2026-03-27T15:40:11.333Z</time></trkpt><trkpt lat="45.5686575" lon="9.0165171"><ele>180.75</ele><time>2026-03-27T15:40:12.333Z</time></trkpt><trkpt lat="45.5686935" lon="9.0167128"><ele>180.5</ele><time>2026-03-27T15:40:13.333Z</time></trkpt><trkpt lat="45.5687314" lon="9.0169025"><ele>180.25</ele><time>2026-03-27T15:40:14.333Z</time></trkpt><trkpt lat="45.568769" lon="9.0170892"><ele>180.0</ele><time>2026-03-27T15:40:15.333Z</time></trkpt><trkpt lat="45.5688102" lon="9.0172708"><ele>180.0</ele><time>2026-03-27T15:40:16.333Z</time></trkpt><trkpt lat="45.5688613" lon="9.0174507"><ele>180.0</ele><time>2026-03-27T15:40:17.334Z</time></trkpt><trkpt lat="45.5689218" lon="9.0176202"><ele>180.0</ele><time>2026-03-27T15:40:18.333Z</time></trkpt><trkpt lat="45.5689892" lon="9.0177643"><ele>180.0</ele><time>2026-03-27T15:40:19.333Z</time></trkpt><trkpt lat="45.5690537" lon="9.0179016"><ele>179.8</ele><time>2026-03-27T15:40:20.333Z</time></trkpt><trkpt lat="45.5691096" lon="9.0180304"><ele>179.6</ele><time>2026-03-27T15:40:21.332Z</time></trkpt><trkpt lat="45.569157" lon="9.0181369"><ele>179.39999999999998</ele><time>2026-03-27T15:40:22.333Z</time></trkpt><trkpt lat="45.5691954" lon="9.0182234"><ele>179.2</ele><time>2026-03-27T15:40:23.333Z</time></trkpt><trkpt lat="45.5692535" lon="9.0183591"><ele>179.0</ele><time>2026-03-27T15:40:25.334Z</time></trkpt><trkpt lat="45.5693181" lon="9.018509"><ele>179.33333333333331</ele><time>2026-03-27T15:40:27.333Z</time></trkpt><trkpt lat="45.5693573" lon="9.0185933"><ele>179.66666666666666</ele><time>2026-03-27T15:40:28.334Z</time></trkpt><trkpt lat="45.5693956" lon="9.0186902"><ele>180.0</ele><time>2026-03-27T15:40:29.334Z</time></trkpt><trkpt lat="45.5694303" lon="9.0187968"><ele>180.33333333333334</ele><time>2026-03-27T15:40:30.333Z</time></trkpt><trkpt lat="45.5694615" lon="9.0189049"><ele>180.66666666666669</ele><time>2026-03-27T15:40:31.334Z</time></trkpt><trkpt lat="45.5694854" lon="9.0190096"><ele>181.0</ele><time>2026-03-27T15:40:32.333Z</time></trkpt><trkpt lat="45.5695075" lon="9.0191181"><ele>180.83333333333334</ele><time>2026-03-27T15:40:33.334Z</time></trkpt><trkpt lat="45.5695293" lon="9.0192295"><ele>180.66666666666669</ele><time>2026-03-27T15:40:34.332Z</time></trkpt><trkpt lat="45.5695542" lon="9.0193453"><ele>180.5</ele><time>2026-03-27T15:40:35.333Z</time></trkpt><trkpt lat="45.5695776" lon="9.0194691"><ele>180.33333333333334</ele><time>2026-03-27T15:40:36.333Z</time></trkpt><trkpt lat="45.5695995" lon="9.0195879"><ele>180.16666666666666</ele><time>2026-03-27T15:40:37.333Z</time></trkpt><trkpt lat="45.5696233" lon="9.0197186"><ele>180.0</ele><time>2026-03-27T15:40:38.333Z</time></trkpt><trkpt lat="45.5696476" lon="9.0198428"><ele>180.0</ele><time>2026-03-27T15:40:39.333Z</time></trkpt><trkpt lat="45.5696703" lon="9.0199548"><ele>180.0</ele><time>2026-03-27T15:40:40.333Z</time></trkpt><trkpt lat="45.5696926" lon="9.0200697"><ele>180.0</ele><time>2026-03-27T15:40:41.333Z</time></trkpt><trkpt lat="45.5697277" lon="9.0202585"><ele>180.0</ele><time>2026-03-27T15:40:43.333Z</time></trkpt><trkpt lat="45.5697526" lon="9.0204395"><ele>180.0</ele><time>2026-03-27T15:40:45.332Z</time></trkpt><trkpt lat="45.5697758" lon="9.0205543"><ele>180.0</ele><time>2026-03-27T15:40:46.332Z</time></trkpt><trkpt lat="45.5698033" lon="9.0206661"><ele>180.0</ele><time>2026-03-27T15:40:47.332Z</time></trkpt><trkpt lat="45.56982" lon="9.0207681"><ele>180.0</ele><time>2026-03-27T15:40:48.333Z</time></trkpt><trkpt lat="45.5698465" lon="9.0209102"><ele>180.0</ele><time>2026-03-27T15:40:50.333Z</time></trkpt><trkpt lat="45.5698706" lon="9.0210097"><ele>180.0</ele><time>2026-03-27T15:40:54.334Z</time></trkpt><trkpt lat="45.5698978" lon="9.0211128"><ele>180.0</ele><time>2026-03-27T15:40:56.333Z</time></trkpt><trkpt lat="45.5699464" lon="9.0212685"><ele>180.0</ele><time>2026-03-27T15:40:58.333Z</time></trkpt><trkpt lat="45.5700418" lon="9.0213461"><ele>180.0</ele><time>2026-03-27T15:41:00.334Z</time></trkpt><trkpt lat="45.5701733" lon="9.0213251"><ele>180.0</ele><time>2026-03-27T15:41:02.333Z</time></trkpt><trkpt lat="45.570245" lon="9.0212702"><ele>180.0</ele><time>2026-03-27T15:41:03.333Z</time></trkpt><trkpt lat="45.5703178" lon="9.0211777"><ele>180.0</ele><time>2026-03-27T15:41:04.334Z</time></trkpt><trkpt lat="45.5703903" lon="9.0210627"><ele>180.25</ele><time>2026-03-27T15:41:05.332Z</time></trkpt><trkpt lat="45.5704678" lon="9.0209166"><ele>180.5</ele><time>2026-03-27T15:41:06.333Z</time></trkpt><trkpt lat="45.5705358" lon="9.0207723"><ele>180.75</ele><time>2026-03-27T15:41:07.333Z</time></trkpt><trkpt lat="45.5706018" lon="9.0206425"><ele>181.0</ele><time>2026-03-27T15:41:08.333Z</time></trkpt><trkpt lat="45.5706661" lon="9.0205157"><ele>181.0</ele><time>2026-03-27T15:41:09.333Z</time></trkpt><trkpt lat="45.5707301" lon="9.0203857"><ele>181.0</ele><time>2026-03-27T15:41:10.334Z</time></trkpt><trkpt lat="45.5707948" lon="9.020252"><ele>181.0</ele><time>2026-03-27T15:41:11.334Z</time></trkpt><trkpt lat="45.5708608" lon="9.0201171"><ele>181.0</ele><time>2026-03-27T15:41:12.334Z</time></trkpt><trkpt lat="45.5709305" lon="9.019981"><ele>180.75</ele><time>2026-03-27T15:41:13.333Z</time></trkpt><trkpt lat="45.5709992" lon="9.0198486"><ele>180.5</ele><time>2026-03-27T15:41:14.333Z</time></trkpt><trkpt lat="45.5710618" lon="9.0197184"><ele>180.25</ele><time>2026-03-27T15:41:15.334Z</time></trkpt><trkpt lat="45.5711298" lon="9.0195779"><ele>180.0</ele><time>2026-03-27T15:41:16.333Z</time></trkpt><trkpt lat="45.5711898" lon="9.0194515"><ele>180.0</ele><time>2026-03-27T15:41:17.332Z</time></trkpt><trkpt lat="45.5712794" lon="9.0193373"><ele>180.0</ele><time>2026-03-27T15:41:18.333Z</time></trkpt><trkpt lat="45.571374" lon="9.0192515"><ele>180.0</ele><time>2026-03-27T15:41:19.334Z</time></trkpt><trkpt lat="45.571489" lon="9.0191629"><ele>180.0</ele><time>2026-03-27T15:41:20.333Z</time></trkpt><trkpt lat="45.5716234" lon="9.0190883"><ele>179.66666666666666</ele><time>2026-03-27T15:41:21.333Z</time></trkpt><trkpt lat="45.5717721" lon="9.0190114"><ele>179.33333333333331</ele><time>2026-03-27T15:41:22.333Z</time></trkpt><trkpt lat="45.5719268" lon="9.0189369"><ele>179.0</ele><time>2026-03-27T15:41:23.332Z</time></trkpt><trkpt lat="45.5720697" lon="9.0188683"><ele>179.0</ele><time>2026-03-27T15:41:24.333Z</time></trkpt><trkpt lat="45.572203" lon="9.0188048"><ele>179.0</ele><time>2026-03-27T15:41:25.333Z</time></trkpt><trkpt lat="45.5723245" lon="9.0187448"><ele>179.0</ele><time>2026-03-27T15:41:26.332Z</time></trkpt><trkpt lat="45.5724459" lon="9.0186817"><ele>179.0</ele><time>2026-03-27T15:41:27.333Z</time></trkpt><trkpt lat="45.5725708" lon="9.018622"><ele>179.0</ele><time>2026-03-27T15:41:28.333Z</time></trkpt><trkpt lat="45.5726933" lon="9.0185592"><ele>179.0</ele><time>2026-03-27T15:41:29.334Z</time></trkpt><trkpt lat="45.5728175" lon="9.0185002"><ele>179.0</ele><time>2026-03-27T15:41:30.333Z</time></trkpt><trkpt lat="45.5729395" lon="9.0184373"><ele>179.0</ele><time>2026-03-27T15:41:31.334Z</time></trkpt><trkpt lat="45.5730712" lon="9.018375"><ele>179.5</ele><time>2026-03-27T15:41:32.332Z</time></trkpt><trkpt lat="45.573201" lon="9.0183081"><ele>180.0</ele><time>2026-03-27T15:41:33.333Z</time></trkpt><trkpt lat="45.5733355" lon="9.0182414"><ele>180.5</ele><time>2026-03-27T15:41:34.334Z</time></trkpt><trkpt lat="45.5734505" lon="9.0181809"><ele>181.0</ele><time>2026-03-27T15:41:35.332Z</time></trkpt><trkpt lat="45.573558" lon="9.0181255"><ele>181.0</ele><time>2026-03-27T15:41:36.333Z</time></trkpt><trkpt lat="45.5736525" lon="9.0180794"><ele>181.0</ele><time>2026-03-27T15:41:37.333Z</time></trkpt><trkpt lat="45.5737498" lon="9.0180307"><ele>181.0</ele><time>2026-03-27T15:41:38.333Z</time></trkpt><trkpt lat="45.5738408" lon="9.0179862"><ele>181.0</ele><time>2026-03-27T15:41:39.332Z</time></trkpt><trkpt lat="45.5739252" lon="9.017947"><ele>181.0</ele><time>2026-03-27T15:41:40.333Z</time></trkpt><trkpt lat="45.5740001" lon="9.0179128"><ele>181.16666666666669</ele><time>2026-03-27T15:41:41.333Z</time></trkpt><trkpt lat="45.5740591" lon="9.0178806"><ele>181.33333333333334</ele><time>2026-03-27T15:41:42.333Z</time></trkpt><trkpt lat="45.5741545" lon="9.0178264"><ele>181.5</ele><time>2026-03-27T15:41:44.333Z</time></trkpt><trkpt lat="45.5742707" lon="9.017769"><ele>181.66666666666666</ele><time>2026-03-27T15:41:46.333Z</time></trkpt><trkpt lat="45.5743386" lon="9.0177394"><ele>181.83333333333331</ele><time>2026-03-27T15:41:47.333Z</time></trkpt><trkpt lat="45.5744122" lon="9.0177065"><ele>182.0</ele><time>2026-03-27T15:41:48.332Z</time></trkpt><trkpt lat="45.5744903" lon="9.0176654"><ele>182.0</ele><time>2026-03-27T15:41:49.334Z</time></trkpt><trkpt lat="45.5745783" lon="9.01762"><ele>182.0</ele><time>2026-03-27T15:41:50.333Z</time></trkpt><trkpt lat="45.5746826" lon="9.0175704"><ele>182.0</ele><time>2026-03-27T15:41:51.333Z</time></trkpt><trkpt lat="45.5748069" lon="9.0175075"><ele>182.0</ele><time>2026-03-27T15:41:52.333Z</time></trkpt><trkpt lat="45.5749465" lon="9.0174379"><ele>182.0</ele><time>2026-03-27T15:41:53.333Z</time></trkpt><trkpt lat="45.5750699" lon="9.0173791"><ele>182.0</ele><time>2026-03-27T15:41:54.334Z</time></trkpt><trkpt lat="45.5751805" lon="9.0173211"><ele>182.0</ele><time>2026-03-27T15:41:55.333Z</time></trkpt><trkpt lat="45.5752842" lon="9.0172708"><ele>182.0</ele><time>2026-03-27T15:41:56.333Z</time></trkpt><trkpt lat="45.5753872" lon="9.017219"><ele>182.0</ele><time>2026-03-27T15:41:57.332Z</time></trkpt><trkpt lat="45.5754964" lon="9.0171695"><ele>182.0</ele><time>2026-03-27T15:41:58.333Z</time></trkpt><trkpt lat="45.5756083" lon="9.0171174"><ele>182.0</ele><time>2026-03-27T15:41:59.333Z</time></trkpt><trkpt lat="45.5757213" lon="9.0170621"><ele>182.0</ele><time>2026-03-27T15:42:00.334Z</time></trkpt><trkpt lat="45.5758361" lon="9.0170058"><ele>182.0</ele><time>2026-03-27T15:42:01.334Z</time></trkpt><trkpt lat="45.5759507" lon="9.0169488"><ele>182.0</ele><time>2026-03-27T15:42:02.332Z</time></trkpt><trkpt lat="45.5760605" lon="9.0168908"><ele>182.0</ele><time>2026-03-27T15:42:03.333Z</time></trkpt><trkpt lat="45.5761694" lon="9.0168357"><ele>182.0</ele><time>2026-03-27T15:42:04.334Z</time></trkpt><trkpt lat="45.5762789" lon="9.0167872"><ele>182.0</ele><time>2026-03-27T15:42:05.334Z</time></trkpt><trkpt lat="45.5763938" lon="9.0167356"><ele>182.0</ele><time>2026-03-27T15:42:06.332Z</time></trkpt><trkpt lat="45.5765104" lon="9.0166789"><ele>182.0</ele><time>2026-03-27T15:42:07.332Z</time></trkpt><trkpt lat="45.576614" lon="9.0166291"><ele>182.0</ele><time>2026-03-27T15:42:08.333Z</time></trkpt><trkpt lat="45.5767103" lon="9.016581"><ele>182.0</ele><time>2026-03-27T15:42:09.332Z</time></trkpt><trkpt lat="45.5768151" lon="9.0165344"><ele>182.0</ele><time>2026-03-27T15:42:10.332Z</time></trkpt><trkpt lat="45.576895" lon="9.0164969"><ele>182.0</ele><time>2026-03-27T15:42:11.332Z</time></trkpt><trkpt lat="45.576984" lon="9.0164574"><ele>182.0</ele><time>2026-03-27T15:42:12.332Z</time></trkpt><trkpt lat="45.577079" lon="9.0164139"><ele>182.0</ele><time>2026-03-27T15:42:13.334Z</time></trkpt><trkpt lat="45.5771801" lon="9.0163658"><ele>182.0</ele><time>2026-03-27T15:42:14.333Z</time></trkpt><trkpt lat="45.5772804" lon="9.0163198"><ele>182.0</ele><time>2026-03-27T15:42:15.333Z</time></trkpt><trkpt lat="45.577389" lon="9.0162736"><ele>182.0</ele><time>2026-03-27T15:42:16.332Z</time></trkpt><trkpt lat="45.5774944" lon="9.0162285"><ele>182.0</ele><time>2026-03-27T15:42:17.334Z</time></trkpt><trkpt lat="45.5775865" lon="9.0161855"><ele>182.0</ele><time>2026-03-27T15:42:18.334Z</time></trkpt><trkpt lat="45.5776628" lon="9.0161493"><ele>182.0</ele><time>2026-03-27T15:42:19.333Z</time></trkpt><trkpt lat="45.5777401" lon="9.0161157"><ele>182.0</ele><time>2026-03-27T15:42:20.333Z</time></trkpt><trkpt lat="45.5778492" lon="9.0160819"><ele>182.0</ele><time>2026-03-27T15:42:22.333Z</time></trkpt><trkpt lat="45.5779747" lon="9.0160814"><ele>182.0</ele><time>2026-03-27T15:42:24.333Z</time></trkpt><trkpt lat="45.5780714" lon="9.016118"><ele>182.0</ele><time>2026-03-27T15:42:25.333Z</time></trkpt><trkpt lat="45.5782018" lon="9.0162058"><ele>182.33333333333331</ele><time>2026-03-27T15:42:26.332Z</time></trkpt><trkpt lat="45.5783324" lon="9.0163079"><ele>182.66666666666666</ele><time>2026-03-27T15:42:27.333Z</time></trkpt><trkpt lat="45.5785313" lon="9.0164913"><ele>183.0</ele><time>2026-03-27T15:42:28.333Z</time></trkpt><trkpt lat="45.5787329" lon="9.0166761"><ele>184.0</ele><time>2026-03-27T15:42:29.333Z</time></trkpt><trkpt lat="45.5789319" lon="9.0168546"><ele>185.0</ele><time>2026-03-27T15:42:30.332Z</time></trkpt><trkpt lat="45.5791323" lon="9.0170333"><ele>185.0</ele><time>2026-03-27T15:42:31.332Z</time></trkpt><trkpt lat="45.5793105" lon="9.0171994"><ele>185.0</ele><time>2026-03-27T15:42:32.332Z</time></trkpt><trkpt lat="45.5794745" lon="9.0173549"><ele>185.0</ele><time>2026-03-27T15:42:33.333Z</time></trkpt><trkpt lat="45.5796301" lon="9.0175002"><ele>185.33333333333331</ele><time>2026-03-27T15:42:34.332Z</time></trkpt><trkpt lat="45.5797723" lon="9.0176252"><ele>185.66666666666666</ele><time>2026-03-27T15:42:35.332Z</time></trkpt><trkpt lat="45.5799058" lon="9.0177402"><ele>186.0</ele><time>2026-03-27T15:42:36.333Z</time></trkpt><trkpt lat="45.5800336" lon="9.017853"><ele>186.0</ele><time>2026-03-27T15:42:37.333Z</time></trkpt><trkpt lat="45.5801607" lon="9.0179742"><ele>186.0</ele><time>2026-03-27T15:42:38.332Z</time></trkpt><trkpt lat="45.5802887" lon="9.0180953"><ele>186.0</ele><time>2026-03-27T15:42:39.332Z</time></trkpt><trkpt lat="45.5804195" lon="9.0182155"><ele>185.66666666666666</ele><time>2026-03-27T15:42:40.334Z</time></trkpt><trkpt lat="45.5805519" lon="9.0183353"><ele>185.33333333333331</ele><time>2026-03-27T15:42:41.334Z</time></trkpt><trkpt lat="45.5806846" lon="9.0184536"><ele>185.0</ele><time>2026-03-27T15:42:42.334Z</time></trkpt><trkpt lat="45.5808183" lon="9.0185711"><ele>185.0</ele><time>2026-03-27T15:42:43.333Z</time></trkpt><trkpt lat="45.5809479" lon="9.0186874"><ele>185.0</ele><time>2026-03-27T15:42:44.333Z</time></trkpt><trkpt lat="45.5810752" lon="9.0188059"><ele>185.0</ele><time>2026-03-27T15:42:45.332Z</time></trkpt><trkpt lat="45.5812054" lon="9.0189223"><ele>185.0</ele><time>2026-03-27T15:42:46.333Z</time></trkpt><trkpt lat="45.5813393" lon="9.0190395"><ele>185.0</ele><time>2026-03-27T15:42:47.333Z</time></trkpt><trkpt lat="45.581476" lon="9.019161"><ele>185.0</ele><time>2026-03-27T15:42:48.332Z</time></trkpt><trkpt lat="45.5816219" lon="9.0192856"><ele>185.0</ele><time>2026-03-27T15:42:49.333Z</time></trkpt><trkpt lat="45.5817592" lon="9.0194126"><ele>185.0</ele><time>2026-03-27T15:42:50.333Z</time></trkpt><trkpt lat="45.5819112" lon="9.0196029"><ele>185.0</ele><time>2026-03-27T15:42:51.332Z</time></trkpt><trkpt lat="45.5820402" lon="9.0198219"><ele>184.33333333333331</ele><time>2026-03-27T15:42:52.333Z</time></trkpt><trkpt lat="45.5821428" lon="9.0200511"><ele>183.66666666666666</ele><time>2026-03-27T15:42:53.334Z</time></trkpt><trkpt lat="45.5822211" lon="9.0202902"><ele>183.0</ele><time>2026-03-27T15:42:54.333Z</time></trkpt><trkpt lat="45.5822781" lon="9.0205341"><ele>183.0</ele><time>2026-03-27T15:42:55.333Z</time></trkpt><trkpt lat="45.5823267" lon="9.0207745"><ele>183.0</ele><time>2026-03-27T15:42:56.331Z</time></trkpt><trkpt lat="45.5823756" lon="9.0210054"><ele>183.0</ele><time>2026-03-27T15:42:57.332Z</time></trkpt><trkpt lat="45.5824237" lon="9.0212335"><ele>182.33333333333334</ele><time>2026-03-27T15:42:58.332Z</time></trkpt><trkpt lat="45.5824712" lon="9.0214538"><ele>181.66666666666669</ele><time>2026-03-27T15:42:59.332Z</time></trkpt><trkpt lat="45.5825178" lon="9.0216694"><ele>181.0</ele><time>2026-03-27T15:43:00.332Z</time></trkpt><trkpt lat="45.5825597" lon="9.0218839"><ele>180.66666666666669</ele><time>2026-03-27T15:43:01.332Z</time></trkpt><trkpt lat="45.5826046" lon="9.0220965"><ele>180.33333333333334</ele><time>2026-03-27T15:43:02.331Z</time></trkpt><trkpt lat="45.5826437" lon="9.0223063"><ele>180.0</ele><time>2026-03-27T15:43:03.331Z</time></trkpt><trkpt lat="45.5826821" lon="9.0225146"><ele>180.5</ele><time>2026-03-27T15:43:04.333Z</time></trkpt><trkpt lat="45.5827217" lon="9.0227188"><ele>181.0</ele><time>2026-03-27T15:43:05.332Z</time></trkpt><trkpt lat="45.5827581" lon="9.0229092"><ele>181.5</ele><time>2026-03-27T15:43:06.333Z</time></trkpt><trkpt lat="45.5827921" lon="9.0230854"><ele>182.0</ele><time>2026-03-27T15:43:07.333Z</time></trkpt><trkpt lat="45.5828231" lon="9.02325"><ele>181.8</ele><time>2026-03-27T15:43:08.332Z</time></trkpt><trkpt lat="45.5828507" lon="9.0234017"><ele>181.6</ele><time>2026-03-27T15:43:09.331Z</time></trkpt><trkpt lat="45.5828817" lon="9.0235493"><ele>181.4</ele><time>2026-03-27T15:43:10.332Z</time></trkpt><trkpt lat="45.5829103" lon="9.0236854"><ele>181.20000000000002</ele><time>2026-03-27T15:43:11.332Z</time></trkpt><trkpt lat="45.5829338" lon="9.0238142"><ele>181.0</ele><time>2026-03-27T15:43:12.331Z</time></trkpt><trkpt lat="45.5829536" lon="9.0239344"><ele>181.0</ele><time>2026-03-27T15:43:13.332Z</time></trkpt><trkpt lat="45.5829728" lon="9.0240587"><ele>181.0</ele><time>2026-03-27T15:43:14.332Z</time></trkpt><trkpt lat="45.5829832" lon="9.0241793"><ele>181.0</ele><time>2026-03-27T15:43:15.332Z</time></trkpt><trkpt lat="45.5829922" lon="9.0242865"><ele>181.0</ele><time>2026-03-27T15:43:16.333Z</time></trkpt><trkpt lat="45.5829914" lon="9.0243867"><ele>181.0</ele><time>2026-03-27T15:43:17.332Z</time></trkpt><trkpt lat="45.5829869" lon="9.0244793"><ele>181.0</ele><time>2026-03-27T15:43:18.331Z</time></trkpt><trkpt lat="45.5829748" lon="9.0245974"><ele>181.5</ele><time>2026-03-27T15:43:20.332Z</time></trkpt><trkpt lat="45.5829522" lon="9.0247629"><ele>182.0</ele><time>2026-03-27T15:43:23.332Z</time></trkpt><trkpt lat="45.5829238" lon="9.0248631"><ele>182.5</ele><time>2026-03-27T15:43:24.333Z</time></trkpt><trkpt lat="45.5829066" lon="9.024968"><ele>183.0</ele><time>2026-03-27T15:43:25.332Z</time></trkpt><trkpt lat="45.5829107" lon="9.0250908"><ele>183.5</ele><time>2026-03-27T15:43:26.332Z</time></trkpt><trkpt lat="45.5829572" lon="9.0252069"><ele>184.0</ele><time>2026-03-27T15:43:27.332Z</time></trkpt><trkpt lat="45.5830341" lon="9.025285"><ele>184.5</ele><time>2026-03-27T15:43:28.331Z</time></trkpt><trkpt lat="45.5831336" lon="9.025314"><ele>185.0</ele><time>2026-03-27T15:43:29.332Z</time></trkpt><trkpt lat="45.5832494" lon="9.0252891"><ele>185.5</ele><time>2026-03-27T15:43:30.331Z</time></trkpt><trkpt lat="45.5833828" lon="9.0252165"><ele>186.0</ele><time>2026-03-27T15:43:31.332Z</time></trkpt><trkpt lat="45.5835278" lon="9.0250947"><ele>186.33333333333334</ele><time>2026-03-27T15:43:32.332Z</time></trkpt><trkpt lat="45.5836836" lon="9.0249908"><ele>186.66666666666669</ele><time>2026-03-27T15:43:33.333Z</time></trkpt><trkpt lat="45.5838481" lon="9.0249254"><ele>187.0</ele><time>2026-03-27T15:43:34.332Z</time></trkpt><trkpt lat="45.5839998" lon="9.0248818"><ele>187.0</ele><time>2026-03-27T15:43:35.333Z</time></trkpt><trkpt lat="45.5841419" lon="9.0248522"><ele>187.0</ele><time>2026-03-27T15:43:36.333Z</time></trkpt><trkpt lat="45.5842708" lon="9.0248308"><ele>187.0</ele><time>2026-03-27T15:43:37.332Z</time></trkpt><trkpt lat="45.5843963" lon="9.0248062"><ele>187.0</ele><time>2026-03-27T15:43:38.331Z</time></trkpt><trkpt lat="45.5845139" lon="9.0247893"><ele>187.39999999999998</ele><time>2026-03-27T15:43:39.332Z</time></trkpt><trkpt lat="45.5846207" lon="9.0247747"><ele>187.79999999999998</ele><time>2026-03-27T15:43:40.332Z</time></trkpt><trkpt lat="45.584719" lon="9.0247623"><ele>188.2</ele><time>2026-03-27T15:43:41.332Z</time></trkpt><trkpt lat="45.5848092" lon="9.0247477"><ele>188.6</ele><time>2026-03-27T15:43:42.332Z</time></trkpt><trkpt lat="45.5848943" lon="9.0247341"><ele>189.0</ele><time>2026-03-27T15:43:43.331Z</time></trkpt><trkpt lat="45.5849815" lon="9.0247176"><ele>189.0</ele><time>2026-03-27T15:43:44.332Z</time></trkpt><trkpt lat="45.5850702" lon="9.0247024"><ele>189.0</ele><time>2026-03-27T15:43:45.332Z</time></trkpt><trkpt lat="45.5851632" lon="9.0246901"><ele>189.0</ele><time>2026-03-27T15:43:46.331Z</time></trkpt><trkpt lat="45.5852483" lon="9.0246796"><ele>189.0</ele><time>2026-03-27T15:43:47.332Z</time></trkpt><trkpt lat="45.5853264" lon="9.0246677"><ele>189.0</ele><time>2026-03-27T15:43:48.331Z</time></trkpt><trkpt lat="45.5853927" lon="9.0246572"><ele>189.0</ele><time>2026-03-27T15:43:49.331Z</time></trkpt><trkpt lat="45.5854569" lon="9.0246455"><ele>188.33333333333334</ele><time>2026-03-27T15:43:50.332Z</time></trkpt><trkpt lat="45.5855198" lon="9.0246311"><ele>187.66666666666666</ele><time>2026-03-27T15:43:51.331Z</time></trkpt><trkpt lat="45.5856032" lon="9.0246167"><ele>187.0</ele><time>2026-03-27T15:43:52.332Z</time></trkpt><trkpt lat="45.5856865" lon="9.024605"><ele>186.33333333333331</ele><time>2026-03-27T15:43:53.332Z</time></trkpt><trkpt lat="45.5857771" lon="9.0245919"><ele>185.66666666666666</ele><time>2026-03-27T15:43:54.332Z</time></trkpt><trkpt lat="45.5858744" lon="9.0245788"><ele>185.0</ele><time>2026-03-27T15:43:55.333Z</time></trkpt><trkpt lat="45.5859839" lon="9.0245618"><ele>185.0</ele><time>2026-03-27T15:43:56.332Z</time></trkpt><trkpt lat="45.5861031" lon="9.0245447"><ele>185.0</ele><time>2026-03-27T15:43:57.332Z</time></trkpt><trkpt lat="45.586234" lon="9.0245254"><ele>185.0</ele><time>2026-03-27T15:43:58.331Z</time></trkpt><trkpt lat="45.5863565" lon="9.0245053"><ele>185.0</ele><time>2026-03-27T15:43:59.332Z</time></trkpt><trkpt lat="45.5864746" lon="9.024487"><ele>185.25</ele><time>2026-03-27T15:44:00.333Z</time></trkpt><trkpt lat="45.5865928" lon="9.0244635"><ele>185.5</ele><time>2026-03-27T15:44:01.331Z</time></trkpt><trkpt lat="45.5867158" lon="9.0244388"><ele>185.75</ele><time>2026-03-27T15:44:02.332Z</time></trkpt><trkpt lat="45.5868436" lon="9.0244208"><ele>186.0</ele><time>2026-03-27T15:44:03.332Z</time></trkpt><trkpt lat="45.5869736" lon="9.0244018"><ele>186.75</ele><time>2026-03-27T15:44:04.331Z</time></trkpt><trkpt lat="45.5870998" lon="9.0243871"><ele>187.5</ele><time>2026-03-27T15:44:05.332Z</time></trkpt><trkpt lat="45.5872237" lon="9.0243703"><ele>188.25</ele><time>2026-03-27T15:44:06.332Z</time></trkpt><trkpt lat="45.5873496" lon="9.0243484"><ele>189.0</ele><time>2026-03-27T15:44:07.332Z</time></trkpt><trkpt lat="45.5874691" lon="9.0243288"><ele>189.0</ele><time>2026-03-27T15:44:08.332Z</time></trkpt><trkpt lat="45.5875876" lon="9.0243084"><ele>189.0</ele><time>2026-03-27T15:44:09.332Z</time></trkpt><trkpt lat="45.587701" lon="9.0242887"><ele>189.0</ele><time>2026-03-27T15:44:10.333Z</time></trkpt><trkpt lat="45.5878173" lon="9.0242686"><ele>189.0</ele><time>2026-03-27T15:44:11.332Z</time></trkpt><trkpt lat="45.5879315" lon="9.0242573"><ele>188.75</ele><time>2026-03-27T15:44:12.331Z</time></trkpt><trkpt lat="45.5880489" lon="9.0242421"><ele>188.5</ele><time>2026-03-27T15:44:13.332Z</time></trkpt><trkpt lat="45.5881663" lon="9.024223"><ele>188.25</ele><time>2026-03-27T15:44:14.331Z</time></trkpt><trkpt lat="45.588291" lon="9.0241996"><ele>188.0</ele><time>2026-03-27T15:44:15.333Z</time></trkpt><trkpt lat="45.5884125" lon="9.0241812"><ele>188.0</ele><time>2026-03-27T15:44:16.332Z</time></trkpt><trkpt lat="45.5885269" lon="9.0241612"><ele>188.0</ele><time>2026-03-27T15:44:17.332Z</time></trkpt><trkpt lat="45.5886409" lon="9.0241422"><ele>188.0</ele><time>2026-03-27T15:44:18.333Z</time></trkpt><trkpt lat="45.5887612" lon="9.0241379"><ele>188.0</ele><time>2026-03-27T15:44:19.332Z</time></trkpt><trkpt lat="45.5888772" lon="9.0241508"><ele>188.0</ele><time>2026-03-27T15:44:20.333Z</time></trkpt><trkpt lat="45.5889891" lon="9.0241821"><ele>188.0</ele><time>2026-03-27T15:44:21.332Z</time></trkpt><trkpt lat="45.5890982" lon="9.024247"><ele>188.0</ele><time>2026-03-27T15:44:22.332Z</time></trkpt><trkpt lat="45.5892084" lon="9.0243395"><ele>188.0</ele><time>2026-03-27T15:44:23.332Z</time></trkpt><trkpt lat="45.5893111" lon="9.024468"><ele>188.0</ele><time>2026-03-27T15:44:24.333Z</time></trkpt><trkpt lat="45.5893963" lon="9.0246371"><ele>188.0</ele><time>2026-03-27T15:44:25.333Z</time></trkpt><trkpt lat="45.5894627" lon="9.0248296"><ele>188.0</ele><time>2026-03-27T15:44:26.332Z</time></trkpt><trkpt lat="45.5895117" lon="9.0250217"><ele>188.0</ele><time>2026-03-27T15:44:27.332Z</time></trkpt><trkpt lat="45.5895681" lon="9.0251988"><ele>187.5</ele><time>2026-03-27T15:44:28.332Z</time></trkpt><trkpt lat="45.589646" lon="9.0253754"><ele>187.0</ele><time>2026-03-27T15:44:29.333Z</time></trkpt><trkpt lat="45.5897304" lon="9.0255476"><ele>186.5</ele><time>2026-03-27T15:44:30.333Z</time></trkpt><trkpt lat="45.5898279" lon="9.0257027"><ele>186.0</ele><time>2026-03-27T15:44:31.333Z</time></trkpt><trkpt lat="45.5899286" lon="9.0258305"><ele>186.0</ele><time>2026-03-27T15:44:32.333Z</time></trkpt><trkpt lat="45.5900266" lon="9.0259384"><ele>186.0</ele><time>2026-03-27T15:44:33.332Z</time></trkpt><trkpt lat="45.5901281" lon="9.0260278"><ele>186.0</ele><time>2026-03-27T15:44:34.333Z</time></trkpt><trkpt lat="45.5902361" lon="9.0261056"><ele>186.0</ele><time>2026-03-27T15:44:35.333Z</time></trkpt><trkpt lat="45.5903522" lon="9.0261671"><ele>186.25</ele><time>2026-03-27T15:44:36.333Z</time></trkpt><trkpt lat="45.5904756" lon="9.0262158"><ele>186.5</ele><time>2026-03-27T15:44:37.332Z</time></trkpt><trkpt lat="45.5906041" lon="9.0262496"><ele>186.75</ele><time>2026-03-27T15:44:38.331Z</time></trkpt><trkpt lat="45.5907334" lon="9.0262738"><ele>187.0</ele><time>2026-03-27T15:44:39.332Z</time></trkpt><trkpt lat="45.5908636" lon="9.0262836"><ele>187.0</ele><time>2026-03-27T15:44:40.332Z</time></trkpt><trkpt lat="45.5909957" lon="9.0262869"><ele>187.0</ele><time>2026-03-27T15:44:41.333Z</time></trkpt><trkpt lat="45.5911341" lon="9.0262834"><ele>187.0</ele><time>2026-03-27T15:44:42.332Z</time></trkpt><trkpt lat="45.5912586" lon="9.0262876"><ele>187.0</ele><time>2026-03-27T15:44:43.333Z</time></trkpt><trkpt lat="45.5913837" lon="9.0262894"><ele>188.0</ele><time>2026-03-27T15:44:44.332Z</time></trkpt><trkpt lat="45.5915249" lon="9.0262909"><ele>189.0</ele><time>2026-03-27T15:44:45.331Z</time></trkpt><trkpt lat="45.5916651" lon="9.0262883"><ele>190.0</ele><time>2026-03-27T15:44:46.331Z</time></trkpt><trkpt lat="45.5918098" lon="9.0262864"><ele>191.0</ele><time>2026-03-27T15:44:47.332Z</time></trkpt><trkpt lat="45.5919537" lon="9.0262785"><ele>190.75</ele><time>2026-03-27T15:44:48.333Z</time></trkpt><trkpt lat="45.5920935" lon="9.0262733"><ele>190.5</ele><time>2026-03-27T15:44:49.333Z</time></trkpt><trkpt lat="45.5922275" lon="9.0262746"><ele>190.25</ele><time>2026-03-27T15:44:50.333Z</time></trkpt><trkpt lat="45.5923583" lon="9.0262733"><ele>190.0</ele><time>2026-03-27T15:44:51.333Z</time></trkpt><trkpt lat="45.5924835" lon="9.0262711"><ele>190.0</ele><time>2026-03-27T15:44:52.332Z</time></trkpt><trkpt lat="45.5926143" lon="9.0262684"><ele>190.0</ele><time>2026-03-27T15:44:53.332Z</time></trkpt><trkpt lat="45.5927481" lon="9.0262662"><ele>190.0</ele><time>2026-03-27T15:44:54.331Z</time></trkpt><trkpt lat="45.59288" lon="9.0262677"><ele>190.0</ele><time>2026-03-27T15:44:55.332Z</time></trkpt><trkpt lat="45.593013" lon="9.0262639"><ele>190.75</ele><time>2026-03-27T15:44:56.333Z</time></trkpt><trkpt lat="45.5931453" lon="9.0262653"><ele>191.5</ele><time>2026-03-27T15:44:57.332Z</time></trkpt><trkpt lat="45.5932762" lon="9.0262665"><ele>192.25</ele><time>2026-03-27T15:44:58.331Z</time></trkpt><trkpt lat="45.5934076" lon="9.0262699"><ele>193.0</ele><time>2026-03-27T15:44:59.331Z</time></trkpt><trkpt lat="45.5935379" lon="9.0262695"><ele>193.0</ele><time>2026-03-27T15:45:00.332Z</time></trkpt><trkpt lat="45.5936666" lon="9.0262721"><ele>193.0</ele><time>2026-03-27T15:45:01.332Z</time></trkpt><trkpt lat="45.5937999" lon="9.0262712"><ele>193.0</ele><time>2026-03-27T15:45:02.333Z</time></trkpt><trkpt lat="45.5939404" lon="9.0262732"><ele>193.0</ele><time>2026-03-27T15:45:03.332Z</time></trkpt><trkpt lat="45.5940873" lon="9.0262727"><ele>193.25</ele><time>2026-03-27T15:45:04.333Z</time></trkpt><trkpt lat="45.5942347" lon="9.0262724"><ele>193.5</ele><time>2026-03-27T15:45:05.333Z</time></trkpt><trkpt lat="45.5943732" lon="9.0262716"><ele>193.75</ele><time>2026-03-27T15:45:06.333Z</time></trkpt><trkpt lat="45.5944961" lon="9.0262723"><ele>194.0</ele><time>2026-03-27T15:45:07.331Z</time></trkpt><trkpt lat="45.5946221" lon="9.0262715"><ele>193.0</ele><time>2026-03-27T15:45:08.332Z</time></trkpt><trkpt lat="45.5947397" lon="9.0262693"><ele>192.0</ele><time>2026-03-27T15:45:09.331Z</time></trkpt><trkpt lat="45.5948492" lon="9.0262629"><ele>191.0</ele><time>2026-03-27T15:45:10.333Z</time></trkpt><trkpt lat="45.594947" lon="9.0262489"><ele>190.0</ele><time>2026-03-27T15:45:11.332Z</time></trkpt><trkpt lat="45.5950382" lon="9.0262449"><ele>189.0</ele><time>2026-03-27T15:45:12.333Z</time></trkpt><trkpt lat="45.5951191" lon="9.0262624"><ele>189.0</ele><time>2026-03-27T15:45:13.331Z</time></trkpt><trkpt lat="45.5951952" lon="9.0263107"><ele>189.0</ele><time>2026-03-27T15:45:14.332Z</time></trkpt><trkpt lat="45.5952652" lon="9.0263939"><ele>189.0</ele><time>2026-03-27T15:45:15.333Z</time></trkpt><trkpt lat="45.5953389" lon="9.0264825"><ele>189.0</ele><time>2026-03-27T15:45:16.333Z</time></trkpt><trkpt lat="45.595441" lon="9.0265153"><ele>189.0</ele><time>2026-03-27T15:45:17.333Z</time></trkpt><trkpt lat="45.5955502" lon="9.0264784"><ele>188.0</ele><time>2026-03-27T15:45:18.333Z</time></trkpt><trkpt lat="45.5956599" lon="9.0263998"><ele>187.0</ele><time>2026-03-27T15:45:19.333Z</time></trkpt><trkpt lat="45.5958062" lon="9.0262984"><ele>186.0</ele><time>2026-03-27T15:45:20.332Z</time></trkpt><trkpt lat="45.5959776" lon="9.0262529"><ele>186.0</ele><time>2026-03-27T15:45:21.331Z</time></trkpt><trkpt lat="45.5961338" lon="9.0262388"><ele>186.0</ele><time>2026-03-27T15:45:22.333Z</time></trkpt><trkpt lat="45.5962827" lon="9.0262275"><ele>186.0</ele><time>2026-03-27T15:45:23.332Z</time></trkpt><trkpt lat="45.5964343" lon="9.0262247"><ele>186.66666666666666</ele><time>2026-03-27T15:45:24.331Z</time></trkpt><trkpt lat="45.5965846" lon="9.0262269"><ele>187.33333333333331</ele><time>2026-03-27T15:45:25.332Z</time></trkpt><trkpt lat="45.5967357" lon="9.0262231"><ele>188.0</ele><time>2026-03-27T15:45:26.332Z</time></trkpt><trkpt lat="45.5968869" lon="9.0262255"><ele>188.75</ele><time>2026-03-27T15:45:27.331Z</time></trkpt><trkpt lat="45.5970332" lon="9.0262275"><ele>189.5</ele><time>2026-03-27T15:45:28.332Z</time></trkpt><trkpt lat="45.5971778" lon="9.0262308"><ele>190.25</ele><time>2026-03-27T15:45:29.332Z</time></trkpt><trkpt lat="45.5973183" lon="9.026228"><ele>191.0</ele><time>2026-03-27T15:45:30.332Z</time></trkpt><trkpt lat="45.5974574" lon="9.0262333"><ele>191.0</ele><time>2026-03-27T15:45:31.333Z</time></trkpt><trkpt lat="45.5976035" lon="9.0262362"><ele>191.0</ele><time>2026-03-27T15:45:32.333Z</time></trkpt><trkpt lat="45.5977502" lon="9.0262411"><ele>191.0</ele><time>2026-03-27T15:45:33.333Z</time></trkpt><trkpt lat="45.5979003" lon="9.0262465"><ele>191.0</ele><time>2026-03-27T15:45:34.332Z</time></trkpt><trkpt lat="45.5980575" lon="9.0262478"><ele>190.5</ele><time>2026-03-27T15:45:35.332Z</time></trkpt><trkpt lat="45.5982277" lon="9.0262501"><ele>190.0</ele><time>2026-03-27T15:45:36.332Z</time></trkpt><trkpt lat="45.5983321" lon="9.0262407"><ele>189.5</ele><time>2026-03-27T15:45:37.332Z</time></trkpt><trkpt lat="45.5984682" lon="9.0262429"><ele>189.0</ele><time>2026-03-27T15:45:38.332Z</time></trkpt><trkpt lat="45.5986031" lon="9.026246"><ele>189.5</ele><time>2026-03-27T15:45:39.332Z</time></trkpt><trkpt lat="45.5987301" lon="9.026246"><ele>190.0</ele><time>2026-03-27T15:45:40.332Z</time></trkpt><trkpt lat="45.5988497" lon="9.0262453"><ele>190.5</ele><time>2026-03-27T15:45:41.333Z</time></trkpt><trkpt lat="45.5989639" lon="9.0262505"><ele>191.0</ele><time>2026-03-27T15:45:42.333Z</time></trkpt><trkpt lat="45.5990687" lon="9.0262518"><ele>191.0</ele><time>2026-03-27T15:45:43.332Z</time></trkpt><trkpt lat="45.599168" lon="9.0262483"><ele>191.0</ele><time>2026-03-27T15:45:44.333Z</time></trkpt><trkpt lat="45.5992687" lon="9.0262454"><ele>191.0</ele><time>2026-03-27T15:45:45.331Z</time></trkpt><trkpt lat="45.5993807" lon="9.0262628"><ele>191.0</ele><time>2026-03-27T15:45:46.331Z</time></trkpt><trkpt lat="45.5995046" lon="9.0262536"><ele>191.0</ele><time>2026-03-27T15:45:47.331Z</time></trkpt><trkpt lat="45.5996399" lon="9.0262244"><ele>191.5</ele><time>2026-03-27T15:45:48.331Z</time></trkpt><trkpt lat="45.5997981" lon="9.0262127"><ele>192.0</ele><time>2026-03-27T15:45:49.332Z</time></trkpt><trkpt lat="45.5999424" lon="9.0262072"><ele>192.5</ele><time>2026-03-27T15:45:50.331Z</time></trkpt><trkpt lat="45.6000766" lon="9.0262035"><ele>193.0</ele><time>2026-03-27T15:45:51.331Z</time></trkpt><trkpt lat="45.6002037" lon="9.0262038"><ele>193.0</ele><time>2026-03-27T15:45:52.332Z</time></trkpt><trkpt lat="45.6003194" lon="9.026204"><ele>193.0</ele><time>2026-03-27T15:45:53.331Z</time></trkpt><trkpt lat="45.6004252" lon="9.0262072"><ele>193.0</ele><time>2026-03-27T15:45:54.333Z</time></trkpt><trkpt lat="45.6005154" lon="9.026203"><ele>193.0</ele><time>2026-03-27T15:45:55.333Z</time></trkpt><trkpt lat="45.6006014" lon="9.0262039"><ele>193.0</ele><time>2026-03-27T15:45:56.331Z</time></trkpt><trkpt lat="45.6006883" lon="9.0262343"><ele>192.83333333333331</ele><time>2026-03-27T15:45:57.333Z</time></trkpt><trkpt lat="45.6007659" lon="9.0262875"><ele>192.66666666666666</ele><time>2026-03-27T15:45:58.332Z</time></trkpt><trkpt lat="45.6008327" lon="9.0263833"><ele>192.5</ele><time>2026-03-27T15:45:59.333Z</time></trkpt><trkpt lat="45.6008791" lon="9.0264949"><ele>192.33333333333331</ele><time>2026-03-27T15:46:00.333Z</time></trkpt><trkpt lat="45.6009183" lon="9.0266034"><ele>192.16666666666666</ele><time>2026-03-27T15:46:01.333Z</time></trkpt><trkpt lat="45.6009804" lon="9.0266791"><ele>192.0</ele><time>2026-03-27T15:46:02.331Z</time></trkpt><trkpt lat="45.601067" lon="9.0267263"><ele>192.0</ele><time>2026-03-27T15:46:03.331Z</time></trkpt><trkpt lat="45.6011678" lon="9.0267144"><ele>192.0</ele><time>2026-03-27T15:46:04.332Z</time></trkpt><trkpt lat="45.6012581" lon="9.0266438"><ele>192.0</ele><time>2026-03-27T15:46:05.332Z</time></trkpt><trkpt lat="45.6013461" lon="9.0265163"><ele>192.0</ele><time>2026-03-27T15:46:06.33Z</time></trkpt><trkpt lat="45.601416" lon="9.0263328"><ele>192.0</ele><time>2026-03-27T15:46:07.331Z</time></trkpt><trkpt lat="45.601451" lon="9.026139"><ele>192.0</ele><time>2026-03-27T15:46:08.331Z</time></trkpt><trkpt lat="45.6014732" lon="9.0259352"><ele>192.0</ele><time>2026-03-27T15:46:09.33Z</time></trkpt><trkpt lat="45.6015158" lon="9.0257589"><ele>192.0</ele><time>2026-03-27T15:46:10.331Z</time></trkpt><trkpt lat="45.6015739" lon="9.02559"><ele>192.0</ele><time>2026-03-27T15:46:11.33Z</time></trkpt><trkpt lat="45.601641" lon="9.0254383"><ele>192.0</ele><time>2026-03-27T15:46:12.33Z</time></trkpt><trkpt lat="45.6017053" lon="9.0253079"><ele>192.0</ele><time>2026-03-27T15:46:13.332Z</time></trkpt><trkpt lat="45.601771" lon="9.0251797"><ele>192.0</ele><time>2026-03-27T15:46:14.332Z</time></trkpt><trkpt lat="45.6018364" lon="9.0250485"><ele>192.25</ele><time>2026-03-27T15:46:15.331Z</time></trkpt><trkpt lat="45.6019029" lon="9.024917"><ele>192.5</ele><time>2026-03-27T15:46:16.332Z</time></trkpt><trkpt lat="45.6019738" lon="9.0247814"><ele>192.75</ele><time>2026-03-27T15:46:17.331Z</time></trkpt><trkpt lat="45.6020452" lon="9.0246459"><ele>193.0</ele><time>2026-03-27T15:46:18.331Z</time></trkpt><trkpt lat="45.6021136" lon="9.0245131"><ele>193.0</ele><time>2026-03-27T15:46:19.331Z</time></trkpt><trkpt lat="45.6021785" lon="9.024378"><ele>193.0</ele><time>2026-03-27T15:46:20.33Z</time></trkpt><trkpt lat="45.6022397" lon="9.0242546"><ele>193.0</ele><time>2026-03-27T15:46:21.33Z</time></trkpt><trkpt lat="45.602299" lon="9.0241356"><ele>193.0</ele><time>2026-03-27T15:46:22.33Z</time></trkpt><trkpt lat="45.6023568" lon="9.0240241"><ele>193.0</ele><time>2026-03-27T15:46:23.331Z</time></trkpt><trkpt lat="45.6024122" lon="9.0239167"><ele>193.0</ele><time>2026-03-27T15:46:24.331Z</time></trkpt><trkpt lat="45.6024665" lon="9.0238107"><ele>193.0</ele><time>2026-03-27T15:46:25.331Z</time></trkpt><trkpt lat="45.6025229" lon="9.0237039"><ele>193.0</ele><time>2026-03-27T15:46:26.331Z</time></trkpt><trkpt lat="45.6025789" lon="9.0235941"><ele>193.0</ele><time>2026-03-27T15:46:27.331Z</time></trkpt><trkpt lat="45.6026366" lon="9.0234809"><ele>193.0</ele><time>2026-03-27T15:46:28.331Z</time></trkpt><trkpt lat="45.6026969" lon="9.0233611"><ele>193.0</ele><time>2026-03-27T15:46:29.331Z</time></trkpt><trkpt lat="45.6027521" lon="9.0232504"><ele>193.0</ele><time>2026-03-27T15:46:30.331Z</time></trkpt><trkpt lat="45.602819" lon="9.0231148"><ele>193.0</ele><time>2026-03-27T15:46:31.331Z</time></trkpt><trkpt lat="45.6028812" lon="9.0229888"><ele>193.0</ele><time>2026-03-27T15:46:32.331Z</time></trkpt><trkpt lat="45.6029377" lon="9.0228768"><ele>193.0</ele><time>2026-03-27T15:46:33.331Z</time></trkpt><trkpt lat="45.6029931" lon="9.02277"><ele>193.0</ele><time>2026-03-27T15:46:34.331Z</time></trkpt><trkpt lat="45.6030432" lon="9.0226729"><ele>193.0</ele><time>2026-03-27T15:46:35.331Z</time></trkpt><trkpt lat="45.6030939" lon="9.0225766"><ele>193.0</ele><time>2026-03-27T15:46:36.331Z</time></trkpt><trkpt lat="45.6031547" lon="9.0224846"><ele>193.0</ele><time>2026-03-27T15:46:37.331Z</time></trkpt><trkpt lat="45.6032225" lon="9.0223919"><ele>193.0</ele><time>2026-03-27T15:46:38.331Z</time></trkpt><trkpt lat="45.6033005" lon="9.0222929"><ele>193.33333333333331</ele><time>2026-03-27T15:46:39.331Z</time></trkpt><trkpt lat="45.6033807" lon="9.0222022"><ele>193.66666666666666</ele><time>2026-03-27T15:46:40.331Z</time></trkpt><trkpt lat="45.6034671" lon="9.0221136"><ele>194.0</ele><time>2026-03-27T15:46:41.331Z</time></trkpt><trkpt lat="45.6035297" lon="9.0220416"><ele>194.33333333333331</ele><time>2026-03-27T15:46:42.331Z</time></trkpt><trkpt lat="45.603593" lon="9.0219758"><ele>194.66666666666666</ele><time>2026-03-27T15:46:43.332Z</time></trkpt><trkpt lat="45.6036565" lon="9.0219176"><ele>195.0</ele><time>2026-03-27T15:46:44.331Z</time></trkpt><trkpt lat="45.6037152" lon="9.0218704"><ele>196.16666666666666</ele><time>2026-03-27T15:46:45.331Z</time></trkpt><trkpt lat="45.6037765" lon="9.0218394"><ele>197.33333333333331</ele><time>2026-03-27T15:46:46.331Z</time></trkpt><trkpt lat="45.603891" lon="9.0217924"><ele>198.5</ele><time>2026-03-27T15:46:48.332Z</time></trkpt><trkpt lat="45.6039564" lon="9.0217726"><ele>199.66666666666666</ele><time>2026-03-27T15:46:49.331Z</time></trkpt><trkpt lat="45.6040182" lon="9.0217516"><ele>200.83333333333331</ele><time>2026-03-27T15:46:50.331Z</time></trkpt><trkpt lat="45.6040866" lon="9.0217308"><ele>202.0</ele><time>2026-03-27T15:46:51.331Z</time></trkpt><trkpt lat="45.6042031" lon="9.0217011"><ele>202.0</ele><time>2026-03-27T15:46:53.331Z</time></trkpt><trkpt lat="45.6042661" lon="9.0216901"><ele>202.0</ele><time>2026-03-27T15:46:54.331Z</time></trkpt><trkpt lat="45.6043335" lon="9.0216809"><ele>202.0</ele><time>2026-03-27T15:46:55.33Z</time></trkpt><trkpt lat="45.6044028" lon="9.0216665"><ele>202.0</ele><time>2026-03-27T15:46:56.33Z</time></trkpt><trkpt lat="45.6044748" lon="9.0216538"><ele>202.0</ele><time>2026-03-27T15:46:57.331Z</time></trkpt><trkpt lat="45.604549" lon="9.0216418"><ele>202.0</ele><time>2026-03-27T15:46:58.331Z</time></trkpt><trkpt lat="45.6046315" lon="9.0216257"><ele>202.0</ele><time>2026-03-27T15:46:59.331Z</time></trkpt><trkpt lat="45.6047272" lon="9.021609"><ele>201.2</ele><time>2026-03-27T15:47:00.332Z</time></trkpt><trkpt lat="45.6048299" lon="9.0215961"><ele>200.39999999999998</ele><time>2026-03-27T15:47:01.331Z</time></trkpt><trkpt lat="45.6049348" lon="9.0215847"><ele>199.60000000000002</ele><time>2026-03-27T15:47:02.331Z</time></trkpt><trkpt lat="45.6050408" lon="9.021566"><ele>198.8</ele><time>2026-03-27T15:47:03.331Z</time></trkpt><trkpt lat="45.6051458" lon="9.0215604"><ele>198.0</ele><time>2026-03-27T15:47:04.331Z</time></trkpt><trkpt lat="45.6052476" lon="9.0215349"><ele>198.2</ele><time>2026-03-27T15:47:05.33Z</time></trkpt><trkpt lat="45.6053443" lon="9.0215226"><ele>198.4</ele><time>2026-03-27T15:47:06.33Z</time></trkpt><trkpt lat="45.605439" lon="9.0215097"><ele>198.6</ele><time>2026-03-27T15:47:07.331Z</time></trkpt><trkpt lat="45.6055341" lon="9.0214963"><ele>198.79999999999998</ele><time>2026-03-27T15:47:08.331Z</time></trkpt><trkpt lat="45.6056312" lon="9.0214861"><ele>199.0</ele><time>2026-03-27T15:47:09.332Z</time></trkpt><trkpt lat="45.6057354" lon="9.021471"><ele>199.0</ele><time>2026-03-27T15:47:10.331Z</time></trkpt><trkpt lat="45.605849" lon="9.0214529"><ele>199.0</ele><time>2026-03-27T15:47:11.33Z</time></trkpt><trkpt lat="45.605951" lon="9.0214393"><ele>199.0</ele><time>2026-03-27T15:47:12.33Z</time></trkpt><trkpt lat="45.6060425" lon="9.0214255"><ele>199.0</ele><time>2026-03-27T15:47:13.33Z</time></trkpt><trkpt lat="45.606136" lon="9.0214123"><ele>199.0</ele><time>2026-03-27T15:47:14.331Z</time></trkpt><trkpt lat="45.6062293" lon="9.021405"><ele>198.79999999999998</ele><time>2026-03-27T15:47:15.331Z</time></trkpt><trkpt lat="45.6063286" lon="9.0213945"><ele>198.6</ele><time>2026-03-27T15:47:16.332Z</time></trkpt><trkpt lat="45.6064308" lon="9.0213736"><ele>198.4</ele><time>2026-03-27T15:47:17.33Z</time></trkpt><trkpt lat="45.6065399" lon="9.0213585"><ele>198.2</ele><time>2026-03-27T15:47:18.331Z</time></trkpt><trkpt lat="45.6066469" lon="9.0213447"><ele>198.0</ele><time>2026-03-27T15:47:19.331Z</time></trkpt><trkpt lat="45.6067463" lon="9.0213274"><ele>198.0</ele><time>2026-03-27T15:47:20.33Z</time></trkpt><trkpt lat="45.606838" lon="9.0213127"><ele>198.0</ele><time>2026-03-27T15:47:21.331Z</time></trkpt><trkpt lat="45.6069198" lon="9.0212984"><ele>198.0</ele><time>2026-03-27T15:47:22.331Z</time></trkpt><trkpt lat="45.6070038" lon="9.0212871"><ele>198.0</ele><time>2026-03-27T15:47:23.33Z</time></trkpt><trkpt lat="45.6070925" lon="9.0212743"><ele>198.0</ele><time>2026-03-27T15:47:24.332Z</time></trkpt><trkpt lat="45.6071784" lon="9.0212607"><ele>198.0</ele><time>2026-03-27T15:47:25.332Z</time></trkpt><trkpt lat="45.6072474" lon="9.0212454"><ele>197.8</ele><time>2026-03-27T15:47:26.332Z</time></trkpt><trkpt lat="45.6073468" lon="9.0212302"><ele>197.60000000000002</ele><time>2026-03-27T15:47:28.33Z</time></trkpt><trkpt lat="45.6074213" lon="9.021217"><ele>197.39999999999998</ele><time>2026-03-27T15:47:31.331Z</time></trkpt><trkpt lat="45.6074985" lon="9.0212158"><ele>197.2</ele><time>2026-03-27T15:47:37.332Z</time></trkpt><trkpt lat="45.6076067" lon="9.0211855"><ele>197.0</ele><time>2026-03-27T15:47:40.331Z</time></trkpt><trkpt lat="45.607701" lon="9.0211614"><ele>197.00000000000003</ele><time>2026-03-27T15:47:41.33Z</time></trkpt><trkpt lat="45.6078078" lon="9.0211584"><ele>197.0</ele><time>2026-03-27T15:47:43.331Z</time></trkpt><trkpt lat="45.6078841" lon="9.0211473"><ele>197.0</ele><time>2026-03-27T15:47:44.331Z</time></trkpt><trkpt lat="45.6079497" lon="9.021137"><ele>197.0</ele><time>2026-03-27T15:47:45.331Z</time></trkpt><trkpt lat="45.6080246" lon="9.0211277"><ele>197.00000000000003</ele><time>2026-03-27T15:47:46.331Z</time></trkpt><trkpt lat="45.608109" lon="9.0211147"><ele>197.0</ele><time>2026-03-27T15:47:47.332Z</time></trkpt><trkpt lat="45.6082039" lon="9.0211047"><ele>197.0</ele><time>2026-03-27T15:47:48.332Z</time></trkpt><trkpt lat="45.6083144" lon="9.0210968"><ele>197.0</ele><time>2026-03-27T15:47:49.331Z</time></trkpt><trkpt lat="45.6084533" lon="9.0211068"><ele>197.0</ele><time>2026-03-27T15:47:50.331Z</time></trkpt><trkpt lat="45.6085881" lon="9.0211363"><ele>197.0</ele><time>2026-03-27T15:47:51.332Z</time></trkpt><trkpt lat="45.6087162" lon="9.0211788"><ele>196.75</ele><time>2026-03-27T15:47:52.331Z</time></trkpt><trkpt lat="45.608844" lon="9.0212365"><ele>196.5</ele><time>2026-03-27T15:47:53.33Z</time></trkpt><trkpt lat="45.6089751" lon="9.0213001"><ele>196.25</ele><time>2026-03-27T15:47:54.331Z</time></trkpt><trkpt lat="45.6091072" lon="9.0213656"><ele>196.0</ele><time>2026-03-27T15:47:55.332Z</time></trkpt><trkpt lat="45.6092473" lon="9.021431"><ele>196.0</ele><time>2026-03-27T15:47:56.332Z</time></trkpt><trkpt lat="45.6093875" lon="9.0215034"><ele>196.0</ele><time>2026-03-27T15:47:57.331Z</time></trkpt><trkpt lat="45.6095169" lon="9.0215702"><ele>196.0</ele><time>2026-03-27T15:47:58.331Z</time></trkpt><trkpt lat="45.6096371" lon="9.0216332"><ele>196.0</ele><time>2026-03-27T15:47:59.332Z</time></trkpt><trkpt lat="45.6097541" lon="9.0216916"><ele>196.75</ele><time>2026-03-27T15:48:00.331Z</time></trkpt><trkpt lat="45.6098771" lon="9.0217499"><ele>197.5</ele><time>2026-03-27T15:48:01.33Z</time></trkpt><trkpt lat="45.610001" lon="9.0218142"><ele>198.25</ele><time>2026-03-27T15:48:02.33Z</time></trkpt><trkpt lat="45.6101209" lon="9.0218759"><ele>199.0</ele><time>2026-03-27T15:48:03.331Z</time></trkpt><trkpt lat="45.6102352" lon="9.0219363"><ele>199.0</ele><time>2026-03-27T15:48:04.331Z</time></trkpt><trkpt lat="45.6103458" lon="9.0219918"><ele>199.0</ele><time>2026-03-27T15:48:05.332Z</time></trkpt><trkpt lat="45.610453" lon="9.0220426"><ele>199.0</ele><time>2026-03-27T15:48:06.332Z</time></trkpt><trkpt lat="45.6105528" lon="9.0220931"><ele>199.0</ele><time>2026-03-27T15:48:07.331Z</time></trkpt><trkpt lat="45.6106542" lon="9.0221451"><ele>199.0</ele><time>2026-03-27T15:48:08.331Z</time></trkpt><trkpt lat="45.6107494" lon="9.0221991"><ele>198.99999999999997</ele><time>2026-03-27T15:48:09.331Z</time></trkpt><trkpt lat="45.6108403" lon="9.0222466"><ele>199.0</ele><time>2026-03-27T15:48:10.332Z</time></trkpt><trkpt lat="45.6109261" lon="9.0222875"><ele>199.0</ele><time>2026-03-27T15:48:11.332Z</time></trkpt><trkpt lat="45.6110117" lon="9.022329"><ele>199.0</ele><time>2026-03-27T15:48:12.331Z</time></trkpt><trkpt lat="45.6110948" lon="9.0223727"><ele>198.99999999999997</ele><time>2026-03-27T15:48:13.332Z</time></trkpt><trkpt lat="45.6111649" lon="9.0224123"><ele>199.0</ele><time>2026-03-27T15:48:14.33Z</time></trkpt><trkpt lat="45.6112346" lon="9.0224526"><ele>198.99999999999997</ele><time>2026-03-27T15:48:15.332Z</time></trkpt><trkpt lat="45.6112968" lon="9.0224909"><ele>199.0</ele><time>2026-03-27T15:48:16.331Z</time></trkpt><trkpt lat="45.6113571" lon="9.0225263"><ele>199.0</ele><time>2026-03-27T15:48:17.331Z</time></trkpt><trkpt lat="45.6114643" lon="9.0225791"><ele>199.0</ele><time>2026-03-27T15:48:19.33Z</time></trkpt><trkpt lat="45.6115643" lon="9.0226384"><ele>198.99999999999997</ele><time>2026-03-27T15:48:21.33Z</time></trkpt><trkpt lat="45.6116479" lon="9.0226953"><ele>199.0</ele><time>2026-03-27T15:48:23.331Z</time></trkpt><trkpt lat="45.6117082" lon="9.0227396"><ele>198.99999999999997</ele><time>2026-03-27T15:48:25.331Z</time></trkpt><trkpt lat="45.6117935" lon="9.0227855"><ele>199.0</ele><time>2026-03-27T15:48:27.331Z</time></trkpt><trkpt lat="45.6118606" lon="9.0228409"><ele>199.0</ele><time>2026-03-27T15:48:29.332Z</time></trkpt><trkpt lat="45.611915" lon="9.022888"><ele>199.0</ele><time>2026-03-27T15:48:33.331Z</time></trkpt><trkpt lat="45.612005" lon="9.0229461"><ele>198.99999999999997</ele><time>2026-03-27T15:48:39.331Z</time></trkpt><trkpt lat="45.6120779" lon="9.0229577"><ele>199.0</ele><time>2026-03-27T15:48:40.331Z</time></trkpt><trkpt lat="45.6121927" lon="9.0229462"><ele>198.75</ele><time>2026-03-27T15:48:41.332Z</time></trkpt><trkpt lat="45.6123057" lon="9.0229601"><ele>198.5</ele><time>2026-03-27T15:48:42.332Z</time></trkpt><trkpt lat="45.6124534" lon="9.0229884"><ele>198.25</ele><time>2026-03-27T15:48:43.332Z</time></trkpt><trkpt lat="45.6125957" lon="9.0230109"><ele>198.0</ele><time>2026-03-27T15:48:44.332Z</time></trkpt><trkpt lat="45.6127281" lon="9.0230295"><ele>197.8</ele><time>2026-03-27T15:48:45.332Z</time></trkpt><trkpt lat="45.6128492" lon="9.0230484"><ele>197.60000000000002</ele><time>2026-03-27T15:48:46.331Z</time></trkpt><trkpt lat="45.6129589" lon="9.0230656"><ele>197.39999999999998</ele><time>2026-03-27T15:48:47.33Z</time></trkpt><trkpt lat="45.6130589" lon="9.023081"><ele>197.2</ele><time>2026-03-27T15:48:48.331Z</time></trkpt><trkpt lat="45.6131508" lon="9.0231007"><ele>197.0</ele><time>2026-03-27T15:48:49.331Z</time></trkpt><trkpt lat="45.6132361" lon="9.0231237"><ele>197.0</ele><time>2026-03-27T15:48:50.33Z</time></trkpt><trkpt lat="45.6133233" lon="9.0231445"><ele>197.0</ele><time>2026-03-27T15:48:51.331Z</time></trkpt><trkpt lat="45.6134209" lon="9.0231665"><ele>197.0</ele><time>2026-03-27T15:48:52.331Z</time></trkpt><trkpt lat="45.6135247" lon="9.0231874"><ele>197.0</ele><time>2026-03-27T15:48:53.332Z</time></trkpt><trkpt lat="45.613629" lon="9.0232064"><ele>197.0</ele><time>2026-03-27T15:48:54.33Z</time></trkpt><trkpt lat="45.6137314" lon="9.0232208"><ele>197.39999999999998</ele><time>2026-03-27T15:48:55.331Z</time></trkpt><trkpt lat="45.613831" lon="9.0232345"><ele>197.79999999999998</ele><time>2026-03-27T15:48:56.331Z</time></trkpt><trkpt lat="45.6139255" lon="9.0232536"><ele>198.2</ele><time>2026-03-27T15:48:57.331Z</time></trkpt><trkpt lat="45.6140224" lon="9.0232697"><ele>198.6</ele><time>2026-03-27T15:48:58.331Z</time></trkpt><trkpt lat="45.6141152" lon="9.0232866"><ele>199.0</ele><time>2026-03-27T15:48:59.33Z</time></trkpt><trkpt lat="45.6142046" lon="9.0232989"><ele>198.99999999999997</ele><time>2026-03-27T15:49:00.331Z</time></trkpt><trkpt lat="45.6143003" lon="9.0233113"><ele>199.0</ele><time>2026-03-27T15:49:01.332Z</time></trkpt><trkpt lat="45.6143925" lon="9.023329"><ele>199.0</ele><time>2026-03-27T15:49:02.33Z</time></trkpt><trkpt lat="45.6144798" lon="9.0233411"><ele>199.0</ele><time>2026-03-27T15:49:03.331Z</time></trkpt><trkpt lat="45.614562" lon="9.0233542"><ele>198.99999999999997</ele><time>2026-03-27T15:49:04.331Z</time></trkpt><trkpt lat="45.6146332" lon="9.0233663"><ele>199.0</ele><time>2026-03-27T15:49:05.332Z</time></trkpt><trkpt lat="45.6147085" lon="9.0233717"><ele>199.49999999999997</ele><time>2026-03-27T15:49:06.331Z</time></trkpt><trkpt lat="45.6147827" lon="9.0233831"><ele>200.0</ele><time>2026-03-27T15:49:07.33Z</time></trkpt><trkpt lat="45.6148642" lon="9.0233932"><ele>200.5</ele><time>2026-03-27T15:49:08.331Z</time></trkpt><trkpt lat="45.6149453" lon="9.0234082"><ele>201.0</ele><time>2026-03-27T15:49:09.331Z</time></trkpt><trkpt lat="45.6150293" lon="9.0234172"><ele>201.49999999999997</ele><time>2026-03-27T15:49:10.331Z</time></trkpt><trkpt lat="45.6151193" lon="9.0234298"><ele>202.0</ele><time>2026-03-27T15:49:11.331Z</time></trkpt><trkpt lat="45.6152126" lon="9.0234403"><ele>202.0</ele><time>2026-03-27T15:49:12.332Z</time></trkpt><trkpt lat="45.6153065" lon="9.023455"><ele>202.0</ele><time>2026-03-27T15:49:13.331Z</time></trkpt><trkpt lat="45.6154086" lon="9.0234722"><ele>202.0</ele><time>2026-03-27T15:49:14.33Z</time></trkpt><trkpt lat="45.6155139" lon="9.0234864"><ele>202.0</ele><time>2026-03-27T15:49:15.33Z</time></trkpt><trkpt lat="45.6156181" lon="9.0234986"><ele>202.0</ele><time>2026-03-27T15:49:16.33Z</time></trkpt><trkpt lat="45.615726" lon="9.0235182"><ele>202.0</ele><time>2026-03-27T15:49:17.33Z</time></trkpt><trkpt lat="45.615839" lon="9.0235349"><ele>202.0</ele><time>2026-03-27T15:49:18.33Z</time></trkpt><trkpt lat="45.6159503" lon="9.0235493"><ele>202.0</ele><time>2026-03-27T15:49:19.329Z</time></trkpt><trkpt lat="45.6160599" lon="9.0235623"><ele>202.0</ele><time>2026-03-27T15:49:20.33Z</time></trkpt><trkpt lat="45.6161691" lon="9.0235791"><ele>202.0</ele><time>2026-03-27T15:49:21.331Z</time></trkpt><trkpt lat="45.6162786" lon="9.023598"><ele>202.0</ele><time>2026-03-27T15:49:22.33Z</time></trkpt><trkpt lat="45.6163863" lon="9.0236108"><ele>202.0</ele><time>2026-03-27T15:49:23.331Z</time></trkpt><trkpt lat="45.6164862" lon="9.0236232"><ele>202.0</ele><time>2026-03-27T15:49:24.33Z</time></trkpt><trkpt lat="45.6165777" lon="9.023632"><ele>202.0</ele><time>2026-03-27T15:49:25.33Z</time></trkpt><trkpt lat="45.6166631" lon="9.0236464"><ele>202.0</ele><time>2026-03-27T15:49:26.33Z</time></trkpt><trkpt lat="45.6167385" lon="9.0236603"><ele>201.99999999999997</ele><time>2026-03-27T15:49:27.33Z</time></trkpt><trkpt lat="45.6168083" lon="9.0236672"><ele>202.0</ele><time>2026-03-27T15:49:28.33Z</time></trkpt><trkpt lat="45.6168811" lon="9.0236761"><ele>202.0</ele><time>2026-03-27T15:49:29.33Z</time></trkpt><trkpt lat="45.6169637" lon="9.0236828"><ele>202.0</ele><time>2026-03-27T15:49:30.329Z</time></trkpt><trkpt lat="45.6170539" lon="9.0236875"><ele>201.99999999999997</ele><time>2026-03-27T15:49:31.33Z</time></trkpt><trkpt lat="45.6171546" lon="9.0237009"><ele>202.0</ele><time>2026-03-27T15:49:32.33Z</time></trkpt><trkpt lat="45.6172736" lon="9.0237149"><ele>202.25</ele><time>2026-03-27T15:49:33.33Z</time></trkpt><trkpt lat="45.6173965" lon="9.023732"><ele>202.5</ele><time>2026-03-27T15:49:34.33Z</time></trkpt><trkpt lat="45.6175137" lon="9.0237472"><ele>202.75</ele><time>2026-03-27T15:49:35.331Z</time></trkpt><trkpt lat="45.6176239" lon="9.0237596"><ele>203.0</ele><time>2026-03-27T15:49:36.331Z</time></trkpt><trkpt lat="45.6177254" lon="9.0237706"><ele>203.60000000000002</ele><time>2026-03-27T15:49:37.331Z</time></trkpt><trkpt lat="45.6178188" lon="9.0237857"><ele>204.20000000000002</ele><time>2026-03-27T15:49:38.331Z</time></trkpt><trkpt lat="45.6179137" lon="9.0237979"><ele>204.8</ele><time>2026-03-27T15:49:39.331Z</time></trkpt><trkpt lat="45.6180133" lon="9.0238099"><ele>205.4</ele><time>2026-03-27T15:49:40.331Z</time></trkpt><trkpt lat="45.6181194" lon="9.0238254"><ele>206.0</ele><time>2026-03-27T15:49:41.33Z</time></trkpt><trkpt lat="45.6182329" lon="9.0238395"><ele>206.0</ele><time>2026-03-27T15:49:42.33Z</time></trkpt><trkpt lat="45.6183417" lon="9.0238531"><ele>206.0</ele><time>2026-03-27T15:49:43.331Z</time></trkpt><trkpt lat="45.6184511" lon="9.0238676"><ele>206.0</ele><time>2026-03-27T15:49:44.331Z</time></trkpt><trkpt lat="45.6185614" lon="9.0238832"><ele>206.0</ele><time>2026-03-27T15:49:45.33Z</time></trkpt><trkpt lat="45.6186768" lon="9.0238946"><ele>206.0</ele><time>2026-03-27T15:49:46.33Z</time></trkpt><trkpt lat="45.6187928" lon="9.0239076"><ele>206.0</ele><time>2026-03-27T15:49:47.329Z</time></trkpt><trkpt lat="45.6189032" lon="9.023925"><ele>206.0</ele><time>2026-03-27T15:49:48.33Z</time></trkpt><trkpt lat="45.6190092" lon="9.0239364"><ele>206.0</ele><time>2026-03-27T15:49:49.33Z</time></trkpt><trkpt lat="45.6191181" lon="9.0239514"><ele>206.0</ele><time>2026-03-27T15:49:50.33Z</time></trkpt><trkpt lat="45.619219" lon="9.0239648"><ele>206.0</ele><time>2026-03-27T15:49:51.33Z</time></trkpt><trkpt lat="45.6193448" lon="9.0239869"><ele>206.0</ele><time>2026-03-27T15:49:52.33Z</time></trkpt><trkpt lat="45.6194678" lon="9.0240034"><ele>206.0</ele><time>2026-03-27T15:49:53.33Z</time></trkpt><trkpt lat="45.6195876" lon="9.0240245"><ele>206.0</ele><time>2026-03-27T15:49:54.33Z</time></trkpt><trkpt lat="45.6196986" lon="9.0240433"><ele>206.0</ele><time>2026-03-27T15:49:55.33Z</time></trkpt><trkpt lat="45.6198071" lon="9.0240694"><ele>206.0</ele><time>2026-03-27T15:49:56.331Z</time></trkpt><trkpt lat="45.6199064" lon="9.0241061"><ele>206.0</ele><time>2026-03-27T15:49:57.329Z</time></trkpt><trkpt lat="45.6199978" lon="9.0241358"><ele>206.0</ele><time>2026-03-27T15:49:58.33Z</time></trkpt><trkpt lat="45.620084" lon="9.0241689"><ele>206.0</ele><time>2026-03-27T15:49:59.329Z</time></trkpt><trkpt lat="45.6201719" lon="9.0241995"><ele>206.0</ele><time>2026-03-27T15:50:00.33Z</time></trkpt><trkpt lat="45.6202591" lon="9.0242299"><ele>206.20000000000002</ele><time>2026-03-27T15:50:01.33Z</time></trkpt><trkpt lat="45.6203462" lon="9.0242572"><ele>206.4</ele><time>2026-03-27T15:50:02.33Z</time></trkpt><trkpt lat="45.620434" lon="9.0242895"><ele>206.6</ele><time>2026-03-27T15:50:03.331Z</time></trkpt><trkpt lat="45.6205198" lon="9.0243145"><ele>206.8</ele><time>2026-03-27T15:50:04.329Z</time></trkpt><trkpt lat="45.6206129" lon="9.0243433"><ele>207.0</ele><time>2026-03-27T15:50:05.329Z</time></trkpt><trkpt lat="45.6207045" lon="9.0243719"><ele>207.0</ele><time>2026-03-27T15:50:06.33Z</time></trkpt><trkpt lat="45.6207887" lon="9.0244022"><ele>207.0</ele><time>2026-03-27T15:50:07.33Z</time></trkpt><trkpt lat="45.6208747" lon="9.0244346"><ele>207.0</ele><time>2026-03-27T15:50:08.329Z</time></trkpt><trkpt lat="45.6209678" lon="9.0244701"><ele>207.0</ele><time>2026-03-27T15:50:09.33Z</time></trkpt><trkpt lat="45.6210579" lon="9.0245095"><ele>207.0</ele><time>2026-03-27T15:50:10.331Z</time></trkpt><trkpt lat="45.6211523" lon="9.0245426"><ele>207.2</ele><time>2026-03-27T15:50:11.331Z</time></trkpt><trkpt lat="45.6212444" lon="9.024577"><ele>207.39999999999998</ele><time>2026-03-27T15:50:12.331Z</time></trkpt><trkpt lat="45.6213427" lon="9.0246131"><ele>207.60000000000002</ele><time>2026-03-27T15:50:13.331Z</time></trkpt><trkpt lat="45.6214412" lon="9.0246576"><ele>207.8</ele><time>2026-03-27T15:50:14.331Z</time></trkpt><trkpt lat="45.621531" lon="9.0247049"><ele>208.0</ele><time>2026-03-27T15:50:15.331Z</time></trkpt><trkpt lat="45.6216132" lon="9.0247485"><ele>208.0</ele><time>2026-03-27T15:50:16.33Z</time></trkpt><trkpt lat="45.6216894" lon="9.0247871"><ele>208.0</ele><time>2026-03-27T15:50:17.33Z</time></trkpt><trkpt lat="45.6217639" lon="9.0248259"><ele>208.0</ele><time>2026-03-27T15:50:18.33Z</time></trkpt><trkpt lat="45.6218289" lon="9.0248553"><ele>208.0</ele><time>2026-03-27T15:50:19.331Z</time></trkpt><trkpt lat="45.6218899" lon="9.0248829"><ele>208.0</ele><time>2026-03-27T15:50:20.331Z</time></trkpt><trkpt lat="45.6219542" lon="9.024913"><ele>208.0</ele><time>2026-03-27T15:50:21.33Z</time></trkpt><trkpt lat="45.6220212" lon="9.0249505"><ele>208.0</ele><time>2026-03-27T15:50:22.33Z</time></trkpt><trkpt lat="45.6220901" lon="9.0249972"><ele>207.99999999999997</ele><time>2026-03-27T15:50:23.33Z</time></trkpt><trkpt lat="45.6221577" lon="9.0250484"><ele>208.0</ele><time>2026-03-27T15:50:24.33Z</time></trkpt><trkpt lat="45.6222249" lon="9.0250985"><ele>208.0</ele><time>2026-03-27T15:50:25.33Z</time></trkpt><trkpt lat="45.6222912" lon="9.0251609"><ele>208.0</ele><time>2026-03-27T15:50:26.33Z</time></trkpt><trkpt lat="45.6223536" lon="9.0252334"><ele>207.99999999999997</ele><time>2026-03-27T15:50:27.33Z</time></trkpt><trkpt lat="45.6224182" lon="9.0253072"><ele>208.0</ele><time>2026-03-27T15:50:28.33Z</time></trkpt><trkpt lat="45.6224817" lon="9.0253788"><ele>207.99999999999997</ele><time>2026-03-27T15:50:29.33Z</time></trkpt><trkpt lat="45.6225472" lon="9.0254502"><ele>208.0</ele><time>2026-03-27T15:50:30.33Z</time></trkpt><trkpt lat="45.6226167" lon="9.0255264"><ele>208.0</ele><time>2026-03-27T15:50:31.33Z</time></trkpt><trkpt lat="45.6226877" lon="9.0256064"><ele>208.0</ele><time>2026-03-27T15:50:32.33Z</time></trkpt><trkpt lat="45.6227617" lon="9.0256819"><ele>207.99999999999997</ele><time>2026-03-27T15:50:33.33Z</time></trkpt><trkpt lat="45.6228351" lon="9.0257614"><ele>208.0</ele><time>2026-03-27T15:50:34.331Z</time></trkpt><trkpt lat="45.6229002" lon="9.0258329"><ele>208.42857142857142</ele><time>2026-03-27T15:50:35.33Z</time></trkpt><trkpt lat="45.6229626" lon="9.025895"><ele>208.85714285714286</ele><time>2026-03-27T15:50:36.33Z</time></trkpt><trkpt lat="45.6230228" lon="9.0259579"><ele>209.28571428571428</ele><time>2026-03-27T15:50:37.33Z</time></trkpt><trkpt lat="45.6230844" lon="9.0260209"><ele>209.71428571428572</ele><time>2026-03-27T15:50:38.33Z</time></trkpt><trkpt lat="45.6231448" lon="9.0260845"><ele>210.14285714285717</ele><time>2026-03-27T15:50:39.33Z</time></trkpt><trkpt lat="45.6232039" lon="9.0261391"><ele>210.57142857142858</ele><time>2026-03-27T15:50:40.33Z</time></trkpt><trkpt lat="45.6232599" lon="9.026197"><ele>211.0</ele><time>2026-03-27T15:50:41.329Z</time></trkpt><trkpt lat="45.6233173" lon="9.0262639"><ele>210.99999999999997</ele><time>2026-03-27T15:50:42.33Z</time></trkpt><trkpt lat="45.6233758" lon="9.0263236"><ele>211.0</ele><time>2026-03-27T15:50:43.33Z</time></trkpt><trkpt lat="45.6234371" lon="9.0263883"><ele>211.0</ele><time>2026-03-27T15:50:44.33Z</time></trkpt><trkpt lat="45.6234988" lon="9.0264509"><ele>211.0</ele><time>2026-03-27T15:50:45.33Z</time></trkpt><trkpt lat="45.6235583" lon="9.0265089"><ele>210.99999999999997</ele><time>2026-03-27T15:50:46.33Z</time></trkpt><trkpt lat="45.6236171" lon="9.0265686"><ele>211.0</ele><time>2026-03-27T15:50:47.33Z</time></trkpt><trkpt lat="45.6236886" lon="9.0266703"><ele>210.99999999999997</ele><time>2026-03-27T15:50:49.33Z</time></trkpt><trkpt lat="45.6237329" lon="9.0267518"><ele>211.0</ele><time>2026-03-27T15:50:59.33Z</time></trkpt><trkpt lat="45.6237687" lon="9.0268794"><ele>211.0</ele><time>2026-03-27T15:51:01.33Z</time></trkpt><trkpt lat="45.6238275" lon="9.0269581"><ele>211.0</ele><time>2026-03-27T15:51:03.33Z</time></trkpt><trkpt lat="45.6239327" lon="9.0270238"><ele>210.99999999999997</ele><time>2026-03-27T15:51:05.33Z</time></trkpt><trkpt lat="45.6239914" lon="9.0270619"><ele>211.0</ele><time>2026-03-27T15:51:06.329Z</time></trkpt><trkpt lat="45.6240518" lon="9.0271129"><ele>211.0</ele><time>2026-03-27T15:51:07.33Z</time></trkpt><trkpt lat="45.6241182" lon="9.0271824"><ele>211.0</ele><time>2026-03-27T15:51:08.331Z</time></trkpt><trkpt lat="45.6241999" lon="9.0272939"><ele>211.0</ele><time>2026-03-27T15:51:09.33Z</time></trkpt><trkpt lat="45.6242947" lon="9.0274045"><ele>211.0</ele><time>2026-03-27T15:51:10.329Z</time></trkpt><trkpt lat="45.6243766" lon="9.0275153"><ele>211.0</ele><time>2026-03-27T15:51:11.33Z</time></trkpt><trkpt lat="45.6244394" lon="9.0276162"><ele>210.8</ele><time>2026-03-27T15:51:12.33Z</time></trkpt><trkpt lat="45.6245113" lon="9.0277088"><ele>210.60000000000002</ele><time>2026-03-27T15:51:13.331Z</time></trkpt><trkpt lat="45.624587" lon="9.0278109"><ele>210.4</ele><time>2026-03-27T15:51:14.33Z</time></trkpt><trkpt lat="45.6246756" lon="9.0279271"><ele>210.2</ele><time>2026-03-27T15:51:15.329Z</time></trkpt><trkpt lat="45.6247679" lon="9.0280494"><ele>210.0</ele><time>2026-03-27T15:51:16.329Z</time></trkpt><trkpt lat="45.6248468" lon="9.0281563"><ele>210.0</ele><time>2026-03-27T15:51:17.33Z</time></trkpt><trkpt lat="45.6249262" lon="9.0282592"><ele>210.0</ele><time>2026-03-27T15:51:18.33Z</time></trkpt><trkpt lat="45.6249987" lon="9.0283541"><ele>210.0</ele><time>2026-03-27T15:51:19.33Z</time></trkpt><trkpt lat="45.6250655" lon="9.0284392"><ele>210.0</ele><time>2026-03-27T15:51:20.331Z</time></trkpt><trkpt lat="45.6251294" lon="9.0285089"><ele>210.0</ele><time>2026-03-27T15:51:21.329Z</time></trkpt><trkpt lat="45.625199" lon="9.0285655"><ele>210.0</ele><time>2026-03-27T15:51:22.33Z</time></trkpt><trkpt lat="45.625284" lon="9.0285818"><ele>210.0</ele><time>2026-03-27T15:51:23.329Z</time></trkpt><trkpt lat="45.6253815" lon="9.0285716"><ele>210.0</ele><time>2026-03-27T15:51:24.329Z</time></trkpt><trkpt lat="45.6254492" lon="9.0285088"><ele>210.0</ele><time>2026-03-27T15:51:25.329Z</time></trkpt><trkpt lat="45.6254989" lon="9.0283959"><ele>210.0</ele><time>2026-03-27T15:51:26.33Z</time></trkpt><trkpt lat="45.625553" lon="9.0283209"><ele>210.0</ele><time>2026-03-27T15:51:27.33Z</time></trkpt><trkpt lat="45.6256168" lon="9.0282834"><ele>210.33333333333334</ele><time>2026-03-27T15:51:29.331Z</time></trkpt><trkpt lat="45.6256951" lon="9.0282646"><ele>210.66666666666669</ele><time>2026-03-27T15:51:35.329Z</time></trkpt><trkpt lat="45.6257642" lon="9.0282768"><ele>211.0</ele><time>2026-03-27T15:51:44.33Z</time></trkpt><trkpt lat="45.6258102" lon="9.0283399"><ele>211.33333333333334</ele><time>2026-03-27T15:51:46.331Z</time></trkpt><trkpt lat="45.6258433" lon="9.0284635"><ele>211.66666666666669</ele><time>2026-03-27T15:51:48.33Z</time></trkpt><trkpt lat="45.6258763" lon="9.0286229"><ele>212.0</ele><time>2026-03-27T15:51:50.329Z</time></trkpt><trkpt lat="45.6259113" lon="9.0287857"><ele>212.0</ele><time>2026-03-27T15:51:52.329Z</time></trkpt><trkpt lat="45.6259479" lon="9.0289257"><ele>212.0</ele><time>2026-03-27T15:51:54.33Z</time></trkpt><trkpt lat="45.6259661" lon="9.0290163"><ele>212.0</ele><time>2026-03-27T15:51:55.329Z</time></trkpt><trkpt lat="45.626001" lon="9.0291816"><ele>212.0</ele><time>2026-03-27T15:51:57.33Z</time></trkpt><trkpt lat="45.6260205" lon="9.029279"><ele>212.0</ele><time>2026-03-27T15:51:58.33Z</time></trkpt><trkpt lat="45.6260762" lon="9.0295485"><ele>212.00000000000003</ele><time>2026-03-27T15:52:03.33Z</time></trkpt><trkpt lat="45.626088" lon="9.0297089"><ele>212.0</ele><time>2026-03-27T15:52:04.329Z</time></trkpt><trkpt lat="45.6260963" lon="9.0298404"><ele>212.0</ele><time>2026-03-27T15:52:05.33Z</time></trkpt><trkpt lat="45.6260972" lon="9.0299413"><ele>212.0</ele><time>2026-03-27T15:52:06.33Z</time></trkpt><trkpt lat="45.6261076" lon="9.0300617"><ele>212.00000000000003</ele><time>2026-03-27T15:52:07.331Z</time></trkpt><trkpt lat="45.6261118" lon="9.0301618"><ele>212.0</ele><time>2026-03-27T15:52:08.33Z</time></trkpt><trkpt lat="45.626111" lon="9.0303507"><ele>212.0</ele><time>2026-03-27T15:52:10.331Z</time></trkpt><trkpt lat="45.626112" lon="9.03046"><ele>212.0</ele><time>2026-03-27T15:52:11.331Z</time></trkpt><trkpt lat="45.6261126" lon="9.0305595"><ele>212.0</ele><time>2026-03-27T15:52:12.33Z</time></trkpt><trkpt lat="45.6261124" lon="9.0306718"><ele>212.0</ele><time>2026-03-27T15:52:13.329Z</time></trkpt><trkpt lat="45.6261112" lon="9.0307732"><ele>212.0</ele><time>2026-03-27T15:52:14.33Z</time></trkpt><trkpt lat="45.626109" lon="9.0308725"><ele>212.0</ele><time>2026-03-27T15:52:15.331Z</time></trkpt><trkpt lat="45.62611" lon="9.0309706"><ele>212.0</ele><time>2026-03-27T15:52:16.329Z</time></trkpt><trkpt lat="45.6261046" lon="9.0311418"><ele>212.39999999999998</ele><time>2026-03-27T15:52:18.33Z</time></trkpt><trkpt lat="45.6260944" lon="9.0313136"><ele>212.79999999999998</ele><time>2026-03-27T15:52:20.33Z</time></trkpt><trkpt lat="45.6260877" lon="9.0314434"><ele>213.2</ele><time>2026-03-27T15:52:22.329Z</time></trkpt><trkpt lat="45.6260584" lon="9.0315604"><ele>213.6</ele><time>2026-03-27T15:52:24.329Z</time></trkpt><trkpt lat="45.625995" lon="9.0316279"><ele>214.0</ele><time>2026-03-27T15:52:26.329Z</time></trkpt><trkpt lat="45.6259072" lon="9.0316194"><ele>213.99999999999997</ele><time>2026-03-27T15:52:28.328Z</time></trkpt><trkpt lat="45.6258253" lon="9.0315559"><ele>214.0</ele><time>2026-03-27T15:52:30.329Z</time></trkpt><trkpt lat="45.6257537" lon="9.0314577"><ele>214.0</ele><time>2026-03-27T15:52:32.33Z</time></trkpt><trkpt lat="45.6256936" lon="9.0313971"><ele>214.0</ele><time>2026-03-27T15:52:34.329Z</time></trkpt><trkpt lat="45.6256386" lon="9.031352"><ele>213.99999999999997</ele><time>2026-03-27T15:52:35.33Z</time></trkpt><trkpt lat="45.6255469" lon="9.031271"><ele>214.0</ele><time>2026-03-27T15:52:37.329Z</time></trkpt><trkpt lat="45.6254845" lon="9.0312294"><ele>213.99999999999997</ele><time>2026-03-27T15:52:39.33Z</time></trkpt><trkpt lat="45.6254193" lon="9.0311362"><ele>214.0</ele><time>2026-03-27T15:52:43.329Z</time></trkpt><trkpt lat="45.6253488" lon="9.0310889"><ele>214.0</ele><time>2026-03-27T15:52:46.328Z</time></trkpt><trkpt lat="45.6252735" lon="9.0311324"><ele>214.0</ele><time>2026-03-27T15:52:50.329Z</time></trkpt><trkpt lat="45.6252192" lon="9.0312048"><ele>213.99999999999997</ele><time>2026-03-27T15:52:52.329Z</time></trkpt><trkpt lat="45.6251457" lon="9.0313133"><ele>214.0</ele><time>2026-03-27T15:52:54.329Z</time></trkpt><trkpt lat="45.6250995" lon="9.0313785"><ele>214.14285714285717</ele><time>2026-03-27T15:52:55.328Z</time></trkpt><trkpt lat="45.6250554" lon="9.0314527"><ele>214.28571428571428</ele><time>2026-03-27T15:52:56.33Z</time></trkpt><trkpt lat="45.6250194" lon="9.0315302"><ele>214.42857142857144</ele><time>2026-03-27T15:52:57.329Z</time></trkpt><trkpt lat="45.6249918" lon="9.0316157"><ele>214.57142857142858</ele><time>2026-03-27T15:52:58.329Z</time></trkpt><trkpt lat="45.6249616" lon="9.0317151"><ele>214.71428571428572</ele><time>2026-03-27T15:52:59.33Z</time></trkpt><trkpt lat="45.6249361" lon="9.0318037"><ele>214.85714285714286</ele><time>2026-03-27T15:53:00.33Z</time></trkpt><trkpt lat="45.6249127" lon="9.0319427"><ele>215.0</ele><time>2026-03-27T15:53:01.328Z</time></trkpt><trkpt lat="45.6248883" lon="9.0320944"><ele>215.00000000000003</ele><time>2026-03-27T15:53:02.328Z</time></trkpt><trkpt lat="45.6248605" lon="9.0322203"><ele>215.0</ele><time>2026-03-27T15:53:03.328Z</time></trkpt><trkpt lat="45.6248373" lon="9.03234"><ele>215.0</ele><time>2026-03-27T15:53:04.329Z</time></trkpt><trkpt lat="45.624822" lon="9.0324467"><ele>215.0</ele><time>2026-03-27T15:53:05.329Z</time></trkpt><trkpt lat="45.6248028" lon="9.032555"><ele>215.00000000000003</ele><time>2026-03-27T15:53:06.329Z</time></trkpt><trkpt lat="45.6247809" lon="9.0326452"><ele>215.0</ele><time>2026-03-27T15:53:07.329Z</time></trkpt><trkpt lat="45.6247552" lon="9.032761"><ele>215.0</ele><time>2026-03-27T15:53:08.33Z</time></trkpt><trkpt lat="45.6247559" lon="9.0329235"><ele>215.0</ele><time>2026-03-27T15:53:10.33Z</time></trkpt><trkpt lat="45.624885" lon="9.0329902"><ele>215.0</ele><time>2026-03-27T15:53:12.329Z</time></trkpt><trkpt lat="45.6250021" lon="9.0329987"><ele>215.0</ele><time>2026-03-27T15:53:13.33Z</time></trkpt><trkpt lat="45.6251041" lon="9.033021"><ele>215.0</ele><time>2026-03-27T15:53:14.33Z</time></trkpt><trkpt lat="45.6252089" lon="9.0330368"><ele>215.0</ele><time>2026-03-27T15:53:15.329Z</time></trkpt><trkpt lat="45.6252893" lon="9.0330452"><ele>215.0</ele><time>2026-03-27T15:53:16.329Z</time></trkpt><trkpt lat="45.6253625" lon="9.0330599"><ele>215.0</ele><time>2026-03-27T15:53:17.329Z</time></trkpt><trkpt lat="45.6254315" lon="9.0330794"><ele>215.0</ele><time>2026-03-27T15:53:18.328Z</time></trkpt><trkpt lat="45.6255499" lon="9.0331042"><ele>215.50000000000003</ele><time>2026-03-27T15:53:20.328Z</time></trkpt><trkpt lat="45.6256637" lon="9.0331206"><ele>216.0</ele><time>2026-03-27T15:53:22.328Z</time></trkpt><trkpt lat="45.6257506" lon="9.0331357"><ele>216.5</ele><time>2026-03-27T15:53:24.329Z</time></trkpt><trkpt lat="45.625815" lon="9.0331513"><ele>217.0</ele><time>2026-03-27T15:53:26.33Z</time></trkpt><trkpt lat="45.625885" lon="9.0331512"><ele>217.50000000000003</ele><time>2026-03-27T15:53:34.329Z</time></trkpt><trkpt lat="45.6259759" lon="9.0331676"><ele>218.0</ele><time>2026-03-27T15:53:37.329Z</time></trkpt><trkpt lat="45.6260495" lon="9.0331708"><ele>218.0</ele><time>2026-03-27T15:53:40.328Z</time></trkpt><trkpt lat="45.6261315" lon="9.0331608"><ele>218.0</ele><time>2026-03-27T15:53:51.33Z</time></trkpt><trkpt lat="45.6262074" lon="9.0331493"><ele>218.0</ele><time>2026-03-27T15:53:53.329Z</time></trkpt><trkpt lat="45.6263086" lon="9.0331538"><ele>218.0</ele><time>2026-03-27T15:53:55.328Z</time></trkpt><trkpt lat="45.6264002" lon="9.0331913"><ele>218.0</ele><time>2026-03-27T15:53:57.329Z</time></trkpt><trkpt lat="45.6264998" lon="9.0331965"><ele>217.60000000000002</ele><time>2026-03-27T15:53:59.329Z</time></trkpt><trkpt lat="45.6266296" lon="9.0332552"><ele>217.20000000000002</ele><time>2026-03-27T15:54:01.33Z</time></trkpt><trkpt lat="45.6266993" lon="9.0332748"><ele>216.8</ele><time>2026-03-27T15:54:02.33Z</time></trkpt><trkpt lat="45.626784" lon="9.0332896"><ele>216.4</ele><time>2026-03-27T15:54:03.33Z</time></trkpt><trkpt lat="45.6268727" lon="9.0332974"><ele>216.0</ele><time>2026-03-27T15:54:04.33Z</time></trkpt><trkpt lat="45.6269643" lon="9.0333213"><ele>216.5</ele><time>2026-03-27T15:54:05.328Z</time></trkpt><trkpt lat="45.6270728" lon="9.0333349"><ele>217.0</ele><time>2026-03-27T15:54:06.328Z</time></trkpt><trkpt lat="45.6271606" lon="9.0333645"><ele>217.5</ele><time>2026-03-27T15:54:07.329Z</time></trkpt><trkpt lat="45.6272419" lon="9.0333843"><ele>218.0</ele><time>2026-03-27T15:54:08.329Z</time></trkpt><trkpt lat="45.6273261" lon="9.0333912"><ele>218.5</ele><time>2026-03-27T15:54:09.329Z</time></trkpt><trkpt lat="45.6273931" lon="9.0333901"><ele>219.0</ele><time>2026-03-27T15:54:10.33Z</time></trkpt><trkpt lat="45.62747" lon="9.0334126"><ele>219.0</ele><time>2026-03-27T15:54:11.33Z</time></trkpt><trkpt lat="45.6275423" lon="9.0334268"><ele>219.0</ele><time>2026-03-27T15:54:12.329Z</time></trkpt><trkpt lat="45.6276165" lon="9.0334246"><ele>219.0</ele><time>2026-03-27T15:54:13.33Z</time></trkpt><trkpt lat="45.6276866" lon="9.033438"><ele>219.0</ele><time>2026-03-27T15:54:14.329Z</time></trkpt><trkpt lat="45.6277602" lon="9.0334533"><ele>219.0</ele><time>2026-03-27T15:54:15.329Z</time></trkpt><trkpt lat="45.6278577" lon="9.0334747"><ele>219.0</ele><time>2026-03-27T15:54:17.328Z</time></trkpt><trkpt lat="45.6279217" lon="9.0334872"><ele>218.83333333333334</ele><time>2026-03-27T15:54:18.329Z</time></trkpt><trkpt lat="45.6280085" lon="9.0335097"><ele>218.66666666666669</ele><time>2026-03-27T15:54:20.329Z</time></trkpt><trkpt lat="45.6280896" lon="9.0335064"><ele>218.5</ele><time>2026-03-27T15:54:22.328Z</time></trkpt><trkpt lat="45.6281684" lon="9.0335028"><ele>218.33333333333334</ele><time>2026-03-27T15:54:23.329Z</time></trkpt><trkpt lat="45.628255" lon="9.0335201"><ele>218.16666666666669</ele><time>2026-03-27T15:54:24.328Z</time></trkpt><trkpt lat="45.6283534" lon="9.033536"><ele>218.0</ele><time>2026-03-27T15:54:25.329Z</time></trkpt><trkpt lat="45.6284629" lon="9.0335638"><ele>218.0</ele><time>2026-03-27T15:54:26.328Z</time></trkpt><trkpt lat="45.6285649" lon="9.0335819"><ele>218.0</ele><time>2026-03-27T15:54:27.329Z</time></trkpt><trkpt lat="45.6286694" lon="9.0335875"><ele>218.0</ele><time>2026-03-27T15:54:28.329Z</time></trkpt><trkpt lat="45.6287693" lon="9.0336073"><ele>218.0</ele><time>2026-03-27T15:54:29.328Z</time></trkpt><trkpt lat="45.6288766" lon="9.0336399"><ele>218.0</ele><time>2026-03-27T15:54:30.328Z</time></trkpt><trkpt lat="45.6289491" lon="9.033648"><ele>218.16666666666669</ele><time>2026-03-27T15:54:31.33Z</time></trkpt><trkpt lat="45.6290295" lon="9.033672"><ele>218.33333333333334</ele><time>2026-03-27T15:54:32.329Z</time></trkpt><trkpt lat="45.6291051" lon="9.0336897"><ele>218.5</ele><time>2026-03-27T15:54:33.329Z</time></trkpt><trkpt lat="45.6291843" lon="9.0336969"><ele>218.66666666666669</ele><time>2026-03-27T15:54:34.33Z</time></trkpt><trkpt lat="45.6292597" lon="9.0337122"><ele>218.83333333333334</ele><time>2026-03-27T15:54:35.33Z</time></trkpt><trkpt lat="45.629348" lon="9.0337257"><ele>219.0</ele><time>2026-03-27T15:54:36.329Z</time></trkpt><trkpt lat="45.6294253" lon="9.0337439"><ele>219.0</ele><time>2026-03-27T15:54:37.329Z</time></trkpt><trkpt lat="45.6294945" lon="9.0337677"><ele>219.0</ele><time>2026-03-27T15:54:38.329Z</time></trkpt><trkpt lat="45.6295639" lon="9.0337747"><ele>219.0</ele><time>2026-03-27T15:54:39.33Z</time></trkpt><trkpt lat="45.6296267" lon="9.0337817"><ele>219.0</ele><time>2026-03-27T15:54:40.329Z</time></trkpt><trkpt lat="45.6297326" lon="9.0338036"><ele>219.0</ele><time>2026-03-27T15:54:42.329Z</time></trkpt><trkpt lat="45.6298225" lon="9.0338186"><ele>219.0</ele><time>2026-03-27T15:54:44.33Z</time></trkpt><trkpt lat="45.6299067" lon="9.0338097"><ele>219.0</ele><time>2026-03-27T15:54:46.328Z</time></trkpt><trkpt lat="45.629967" lon="9.0337826"><ele>219.0</ele><time>2026-03-27T15:54:48.329Z</time></trkpt><trkpt lat="45.6300318" lon="9.0337892"><ele>219.0</ele><time>2026-03-27T15:54:49.33Z</time></trkpt><trkpt lat="45.6301164" lon="9.0338506"><ele>219.0</ele><time>2026-03-27T15:54:51.33Z</time></trkpt><trkpt lat="45.6301779" lon="9.0338702"><ele>219.0</ele><time>2026-03-27T15:54:53.329Z</time></trkpt><trkpt lat="45.6302421" lon="9.0338919"><ele>219.0</ele><time>2026-03-27T15:54:56.329Z</time></trkpt><trkpt lat="45.6303401" lon="9.033917"><ele>219.0</ele><time>2026-03-27T15:55:09.33Z</time></trkpt><trkpt lat="45.6304321" lon="9.0339046"><ele>218.99999999999997</ele><time>2026-03-27T15:55:11.329Z</time></trkpt><trkpt lat="45.6305226" lon="9.0339372"><ele>218.99999999999997</ele><time>2026-03-27T15:55:12.329Z</time></trkpt><trkpt lat="45.6305928" lon="9.0340522"><ele>219.0</ele><time>2026-03-27T15:55:14.329Z</time></trkpt><trkpt lat="45.6305921" lon="9.0341535"><ele>219.0</ele><time>2026-03-27T15:55:15.329Z</time></trkpt><trkpt lat="45.6305961" lon="9.0342927"><ele>219.0</ele><time>2026-03-27T15:55:16.33Z</time></trkpt><trkpt lat="45.6306029" lon="9.0344275"><ele>218.99999999999997</ele><time>2026-03-27T15:55:17.329Z</time></trkpt><trkpt lat="45.630607" lon="9.0345425"><ele>218.99999999999997</ele><time>2026-03-27T15:55:18.329Z</time></trkpt><trkpt lat="45.6306073" lon="9.0346355"><ele>219.0</ele><time>2026-03-27T15:55:19.328Z</time></trkpt><trkpt lat="45.6306174" lon="9.0348091"><ele>219.0</ele><time>2026-03-27T15:55:21.328Z</time></trkpt><trkpt lat="45.6306197" lon="9.0349425"><ele>218.6</ele><time>2026-03-27T15:55:23.328Z</time></trkpt><trkpt lat="45.6306222" lon="9.0350374"><ele>218.2</ele><time>2026-03-27T15:55:25.328Z</time></trkpt><trkpt lat="45.6306227" lon="9.0351431"><ele>217.79999999999998</ele><time>2026-03-27T15:55:31.328Z</time></trkpt><trkpt lat="45.6306167" lon="9.0352997"><ele>217.39999999999998</ele><time>2026-03-27T15:55:33.327Z</time></trkpt><trkpt lat="45.6306146" lon="9.0354636"><ele>217.0</ele><time>2026-03-27T15:55:34.328Z</time></trkpt><trkpt lat="45.6306095" lon="9.0356348"><ele>217.0</ele><time>2026-03-27T15:55:35.328Z</time></trkpt><trkpt lat="45.6306082" lon="9.0358095"><ele>217.0</ele><time>2026-03-27T15:55:36.328Z</time></trkpt><trkpt lat="45.6306084" lon="9.0360021"><ele>217.0</ele><time>2026-03-27T15:55:37.328Z</time></trkpt><trkpt lat="45.6306078" lon="9.0361837"><ele>217.0</ele><time>2026-03-27T15:55:38.327Z</time></trkpt><trkpt lat="45.6306038" lon="9.036383"><ele>217.0</ele><time>2026-03-27T15:55:39.327Z</time></trkpt><trkpt lat="45.6306054" lon="9.0365254"><ele>217.0</ele><time>2026-03-27T15:55:40.327Z</time></trkpt><trkpt lat="45.6306041" lon="9.0366667"><ele>217.0</ele><time>2026-03-27T15:55:41.328Z</time></trkpt><trkpt lat="45.630605" lon="9.0368041"><ele>217.0</ele><time>2026-03-27T15:55:42.327Z</time></trkpt><trkpt lat="45.6306058" lon="9.0369251"><ele>217.0</ele><time>2026-03-27T15:55:43.328Z</time></trkpt><trkpt lat="45.6306075" lon="9.0370426"><ele>216.99999999999997</ele><time>2026-03-27T15:55:44.328Z</time></trkpt><trkpt lat="45.6306047" lon="9.0371479"><ele>217.0</ele><time>2026-03-27T15:55:45.328Z</time></trkpt><trkpt lat="45.6305984" lon="9.0372554"><ele>217.0</ele><time>2026-03-27T15:55:46.329Z</time></trkpt><trkpt lat="45.6306013" lon="9.0373587"><ele>217.0</ele><time>2026-03-27T15:55:47.328Z</time></trkpt><trkpt lat="45.6305918" lon="9.037538"><ele>216.99999999999997</ele><time>2026-03-27T15:55:49.328Z</time></trkpt><trkpt lat="45.6305714" lon="9.0376791"><ele>217.0</ele><time>2026-03-27T15:55:51.329Z</time></trkpt><trkpt lat="45.6305455" lon="9.0377912"><ele>217.0</ele><time>2026-03-27T15:55:54.328Z</time></trkpt><trkpt lat="45.6305689" lon="9.03788"><ele>217.0</ele><time>2026-03-27T15:57:06.328Z</time></trkpt><trkpt lat="45.6305884" lon="9.0379788"><ele>217.0</ele><time>2026-03-27T15:59:02.328Z</time></trkpt><trkpt lat="45.6305769" lon="9.0378783"><ele>217.0</ele><time>2026-03-27T15:59:49.328Z</time></trkpt><trkpt lat="45.6305133" lon="9.0378241"><ele>217.0</ele><time>2026-03-27T15:59:54.327Z</time></trkpt><trkpt lat="45.6305479" lon="9.0379212"><ele>217.0</ele><time>2026-03-27T16:00:02.327Z</time></trkpt><trkpt lat="45.6306023" lon="9.0379977"><ele>217.0</ele><time>2026-03-27T16:02:02.326Z</time></trkpt><trkpt lat="45.6306672" lon="9.0380247"><ele>217.0</ele><time>2026-03-27T16:02:05.326Z</time></trkpt><trkpt lat="45.6307562" lon="9.0380942"><ele>217.0</ele><time>2026-03-27T16:02:08.325Z</time></trkpt><trkpt lat="45.6308419" lon="9.0381436"><ele>217.0</ele><time>2026-03-27T16:02:09.326Z</time></trkpt><trkpt lat="45.630892" lon="9.0382312"><ele>217.0</ele><time>2026-03-27T16:02:11.326Z</time></trkpt><trkpt lat="45.6309412" lon="9.0383178"><ele>217.0</ele><time>2026-03-27T16:02:13.326Z</time></trkpt><trkpt lat="45.6309928" lon="9.0384413"><ele>217.16666666666666</ele><time>2026-03-27T16:02:15.327Z</time></trkpt><trkpt lat="45.6310696" lon="9.0385921"><ele>217.33333333333331</ele><time>2026-03-27T16:02:17.326Z</time></trkpt><trkpt lat="45.6311053" lon="9.0386741"><ele>217.5</ele><time>2026-03-27T16:02:18.325Z</time></trkpt><trkpt lat="45.6311479" lon="9.0387547"><ele>217.66666666666669</ele><time>2026-03-27T16:02:19.327Z</time></trkpt><trkpt lat="45.6311906" lon="9.0388428"><ele>217.83333333333334</ele><time>2026-03-27T16:02:20.327Z</time></trkpt><trkpt lat="45.6312355" lon="9.0389283"><ele>218.0</ele><time>2026-03-27T16:02:21.327Z</time></trkpt><trkpt lat="45.631287" lon="9.0390344"><ele>218.00000000000003</ele><time>2026-03-27T16:02:22.326Z</time></trkpt><trkpt lat="45.631342" lon="9.0391482"><ele>218.0</ele><time>2026-03-27T16:02:23.326Z</time></trkpt><trkpt lat="45.6313963" lon="9.0392555"><ele>218.0</ele><time>2026-03-27T16:02:24.326Z</time></trkpt><trkpt lat="45.631449" lon="9.0393555"><ele>218.0</ele><time>2026-03-27T16:02:25.326Z</time></trkpt><trkpt lat="45.6314967" lon="9.0394564"><ele>218.00000000000003</ele><time>2026-03-27T16:02:26.327Z</time></trkpt><trkpt lat="45.6315386" lon="9.0395445"><ele>218.0</ele><time>2026-03-27T16:02:27.325Z</time></trkpt><trkpt lat="45.6315759" lon="9.0396231"><ele>218.0</ele><time>2026-03-27T16:02:28.326Z</time></trkpt><trkpt lat="45.6316252" lon="9.0397428"><ele>218.0</ele><time>2026-03-27T16:02:30.326Z</time></trkpt><trkpt lat="45.6316699" lon="9.0398431"><ele>218.0</ele><time>2026-03-27T16:02:32.326Z</time></trkpt><trkpt lat="45.6317413" lon="9.0399215"><ele>218.0</ele><time>2026-03-27T16:02:35.326Z</time></trkpt><trkpt lat="45.6318543" lon="9.0399295"><ele>218.0</ele><time>2026-03-27T16:02:37.327Z</time></trkpt><trkpt lat="45.6319247" lon="9.0399293"><ele>217.83333333333334</ele><time>2026-03-27T16:02:38.325Z</time></trkpt><trkpt lat="45.6319952" lon="9.039935"><ele>217.66666666666669</ele><time>2026-03-27T16:02:39.327Z</time></trkpt><trkpt lat="45.632065" lon="9.039947"><ele>217.5</ele><time>2026-03-27T16:02:40.326Z</time></trkpt><trkpt lat="45.6321514" lon="9.0399425"><ele>217.33333333333331</ele><time>2026-03-27T16:02:41.327Z</time></trkpt><trkpt lat="45.632249" lon="9.0399517"><ele>217.16666666666666</ele><time>2026-03-27T16:02:42.327Z</time></trkpt><trkpt lat="45.6323407" lon="9.0399664"><ele>217.0</ele><time>2026-03-27T16:02:43.327Z</time></trkpt><trkpt lat="45.6324261" lon="9.0399725"><ele>217.33333333333331</ele><time>2026-03-27T16:02:44.326Z</time></trkpt><trkpt lat="45.6325147" lon="9.0399781"><ele>217.66666666666666</ele><time>2026-03-27T16:02:45.327Z</time></trkpt><trkpt lat="45.6326061" lon="9.0399895"><ele>218.0</ele><time>2026-03-27T16:02:46.327Z</time></trkpt><trkpt lat="45.6326959" lon="9.0400035"><ele>218.33333333333331</ele><time>2026-03-27T16:02:47.325Z</time></trkpt><trkpt lat="45.6327839" lon="9.0400106"><ele>218.66666666666666</ele><time>2026-03-27T16:02:48.326Z</time></trkpt><trkpt lat="45.6328692" lon="9.0400211"><ele>219.0</ele><time>2026-03-27T16:02:49.325Z</time></trkpt><trkpt lat="45.6329506" lon="9.0400248"><ele>219.14285714285714</ele><time>2026-03-27T16:02:50.325Z</time></trkpt><trkpt lat="45.6330245" lon="9.0400347"><ele>219.28571428571428</ele><time>2026-03-27T16:02:51.326Z</time></trkpt><trkpt lat="45.6330964" lon="9.0400359"><ele>219.42857142857142</ele><time>2026-03-27T16:02:52.326Z</time></trkpt><trkpt lat="45.6331661" lon="9.0400474"><ele>219.57142857142856</ele><time>2026-03-27T16:02:53.327Z</time></trkpt><trkpt lat="45.6332348" lon="9.0400543"><ele>219.71428571428572</ele><time>2026-03-27T16:02:54.326Z</time></trkpt><trkpt lat="45.6332992" lon="9.0400707"><ele>219.85714285714283</ele><time>2026-03-27T16:02:55.326Z</time></trkpt><trkpt lat="45.6333782" lon="9.0401091"><ele>220.0</ele><time>2026-03-27T16:02:56.327Z</time></trkpt><trkpt lat="45.6334653" lon="9.0401732"><ele>220.0</ele><time>2026-03-27T16:02:57.325Z</time></trkpt><trkpt lat="45.6335483" lon="9.0402739"><ele>220.0</ele><time>2026-03-27T16:02:58.325Z</time></trkpt><trkpt lat="45.6336176" lon="9.0404074"><ele>220.0</ele><time>2026-03-27T16:02:59.327Z</time></trkpt><trkpt lat="45.6336761" lon="9.0405497"><ele>220.0</ele><time>2026-03-27T16:03:00.326Z</time></trkpt><trkpt lat="45.6337377" lon="9.0406883"><ele>220.0</ele><time>2026-03-27T16:03:01.325Z</time></trkpt><trkpt lat="45.6337966" lon="9.0408367"><ele>220.0</ele><time>2026-03-27T16:03:02.326Z</time></trkpt><trkpt lat="45.6338492" lon="9.0409979"><ele>220.0</ele><time>2026-03-27T16:03:03.326Z</time></trkpt><trkpt lat="45.6338908" lon="9.0411681"><ele>220.0</ele><time>2026-03-27T16:03:04.326Z</time></trkpt><trkpt lat="45.6339161" lon="9.0413405"><ele>220.0</ele><time>2026-03-27T16:03:05.326Z</time></trkpt><trkpt lat="45.6339267" lon="9.0415002"><ele>220.0</ele><time>2026-03-27T16:03:06.326Z</time></trkpt><trkpt lat="45.6339271" lon="9.0416487"><ele>220.0</ele><time>2026-03-27T16:03:07.326Z</time></trkpt><trkpt lat="45.6339232" lon="9.0417902"><ele>220.0</ele><time>2026-03-27T16:03:08.327Z</time></trkpt><trkpt lat="45.6339185" lon="9.041928"><ele>220.0</ele><time>2026-03-27T16:03:09.326Z</time></trkpt><trkpt lat="45.6339139" lon="9.042062"><ele>219.99999999999997</ele><time>2026-03-27T16:03:10.326Z</time></trkpt><trkpt lat="45.6339061" lon="9.0421902"><ele>220.0</ele><time>2026-03-27T16:03:11.326Z</time></trkpt><trkpt lat="45.6338974" lon="9.0423017"><ele>220.0</ele><time>2026-03-27T16:03:12.326Z</time></trkpt><trkpt lat="45.6338969" lon="9.0424215"><ele>220.0</ele><time>2026-03-27T16:03:13.326Z</time></trkpt><trkpt lat="45.6338843" lon="9.0425534"><ele>219.99999999999997</ele><time>2026-03-27T16:03:14.326Z</time></trkpt><trkpt lat="45.6338592" lon="9.0426921"><ele>220.0</ele><time>2026-03-27T16:03:15.325Z</time></trkpt><trkpt lat="45.6338422" lon="9.0428533"><ele>220.25</ele><time>2026-03-27T16:03:16.326Z</time></trkpt><trkpt lat="45.6338306" lon="9.0430114"><ele>220.5</ele><time>2026-03-27T16:03:17.325Z</time></trkpt><trkpt lat="45.6338236" lon="9.0432579"><ele>220.75</ele><time>2026-03-27T16:03:18.325Z</time></trkpt><trkpt lat="45.6338112" lon="9.0434548"><ele>221.0</ele><time>2026-03-27T16:03:19.325Z</time></trkpt><trkpt lat="45.6337885" lon="9.0436347"><ele>221.0</ele><time>2026-03-27T16:03:20.327Z</time></trkpt><trkpt lat="45.6337752" lon="9.0438309"><ele>221.0</ele><time>2026-03-27T16:03:21.327Z</time></trkpt><trkpt lat="45.6337629" lon="9.0440186"><ele>221.0</ele><time>2026-03-27T16:03:22.326Z</time></trkpt><trkpt lat="45.6337427" lon="9.0442102"><ele>221.0</ele><time>2026-03-27T16:03:23.326Z</time></trkpt><trkpt lat="45.6337319" lon="9.0443835"><ele>221.0</ele><time>2026-03-27T16:03:24.326Z</time></trkpt><trkpt lat="45.6337193" lon="9.0445742"><ele>221.00000000000003</ele><time>2026-03-27T16:03:25.326Z</time></trkpt><trkpt lat="45.6337044" lon="9.0447794"><ele>221.00000000000003</ele><time>2026-03-27T16:03:26.327Z</time></trkpt><trkpt lat="45.6337055" lon="9.0448746"><ele>221.0</ele><time>2026-03-27T16:03:27.327Z</time></trkpt><trkpt lat="45.6337" lon="9.0449962"><ele>221.0</ele><time>2026-03-27T16:03:28.327Z</time></trkpt><trkpt lat="45.6337009" lon="9.0451073"><ele>221.00000000000003</ele><time>2026-03-27T16:03:29.326Z</time></trkpt><trkpt lat="45.6337038" lon="9.0452181"><ele>221.0</ele><time>2026-03-27T16:03:30.327Z</time></trkpt><trkpt lat="45.6337028" lon="9.0453249"><ele>221.0</ele><time>2026-03-27T16:03:31.327Z</time></trkpt><trkpt lat="45.6337004" lon="9.0454381"><ele>221.0</ele><time>2026-03-27T16:03:32.326Z</time></trkpt><trkpt lat="45.6336919" lon="9.0455587"><ele>221.00000000000003</ele><time>2026-03-27T16:03:33.327Z</time></trkpt><trkpt lat="45.6336869" lon="9.045736"><ele>221.0</ele><time>2026-03-27T16:03:35.326Z</time></trkpt><trkpt lat="45.6336808" lon="9.045888"><ele>221.00000000000003</ele><time>2026-03-27T16:03:37.326Z</time></trkpt><trkpt lat="45.6336721" lon="9.046013"><ele>221.0</ele><time>2026-03-27T16:03:39.326Z</time></trkpt><trkpt lat="45.6336618" lon="9.0461316"><ele>221.0</ele><time>2026-03-27T16:03:41.326Z</time></trkpt><trkpt lat="45.6336469" lon="9.0462506"><ele>221.0</ele><time>2026-03-27T16:03:43.327Z</time></trkpt><trkpt lat="45.6336366" lon="9.046343"><ele>221.00000000000003</ele><time>2026-03-27T16:03:45.325Z</time></trkpt><trkpt lat="45.6336409" lon="9.0464993"><ele>221.0</ele><time>2026-03-27T16:03:59.326Z</time></trkpt><trkpt lat="45.6337458" lon="9.0465771"><ele>221.0</ele><time>2026-03-27T16:04:01.326Z</time></trkpt><trkpt lat="45.6338312" lon="9.0465843"><ele>221.0</ele><time>2026-03-27T16:04:02.326Z</time></trkpt><trkpt lat="45.6339635" lon="9.0465846"><ele>221.0</ele><time>2026-03-27T16:04:03.327Z</time></trkpt><trkpt lat="45.634105" lon="9.0465865"><ele>221.0</ele><time>2026-03-27T16:04:04.327Z</time></trkpt><trkpt lat="45.6342649" lon="9.0465934"><ele>221.0</ele><time>2026-03-27T16:04:05.326Z</time></trkpt><trkpt lat="45.6344161" lon="9.0466017"><ele>221.0</ele><time>2026-03-27T16:04:06.326Z</time></trkpt><trkpt lat="45.6345572" lon="9.0466071"><ele>221.0</ele><time>2026-03-27T16:04:07.326Z</time></trkpt><trkpt lat="45.6346919" lon="9.0466067"><ele>221.0</ele><time>2026-03-27T16:04:08.325Z</time></trkpt><trkpt lat="45.6348066" lon="9.0466098"><ele>221.00000000000003</ele><time>2026-03-27T16:04:09.326Z</time></trkpt><trkpt lat="45.6348954" lon="9.0466086"><ele>221.0</ele><time>2026-03-27T16:04:10.326Z</time></trkpt><trkpt lat="45.6349715" lon="9.0466159"><ele>221.0</ele><time>2026-03-27T16:04:11.326Z</time></trkpt><trkpt lat="45.6350463" lon="9.0466144"><ele>221.0</ele><time>2026-03-27T16:04:12.327Z</time></trkpt><trkpt lat="45.6351243" lon="9.0466126"><ele>221.00000000000003</ele><time>2026-03-27T16:04:13.325Z</time></trkpt><trkpt lat="45.6352125" lon="9.0466151"><ele>221.0</ele><time>2026-03-27T16:04:14.326Z</time></trkpt><trkpt lat="45.6353039" lon="9.04662"><ele>221.0</ele><time>2026-03-27T16:04:15.325Z</time></trkpt><trkpt lat="45.6354035" lon="9.046627"><ele>221.00000000000003</ele><time>2026-03-27T16:04:16.327Z</time></trkpt><trkpt lat="45.6355083" lon="9.0466365"><ele>221.00000000000003</ele><time>2026-03-27T16:04:17.326Z</time></trkpt><trkpt lat="45.6356194" lon="9.0466465"><ele>221.0</ele><time>2026-03-27T16:04:18.326Z</time></trkpt><trkpt lat="45.6357266" lon="9.0466562"><ele>221.0</ele><time>2026-03-27T16:04:19.326Z</time></trkpt><trkpt lat="45.6358307" lon="9.0466688"><ele>221.0</ele><time>2026-03-27T16:04:20.326Z</time></trkpt><trkpt lat="45.6359324" lon="9.0466827"><ele>221.00000000000003</ele><time>2026-03-27T16:04:21.326Z</time></trkpt><trkpt lat="45.63603" lon="9.0466946"><ele>221.00000000000003</ele><time>2026-03-27T16:04:22.327Z</time></trkpt><trkpt lat="45.6361263" lon="9.0467042"><ele>221.0</ele><time>2026-03-27T16:04:23.327Z</time></trkpt><trkpt lat="45.6362198" lon="9.0467198"><ele>221.0</ele><time>2026-03-27T16:04:24.326Z</time></trkpt><trkpt lat="45.6363125" lon="9.0467426"><ele>221.4</ele><time>2026-03-27T16:04:25.326Z</time></trkpt><trkpt lat="45.6364058" lon="9.0467616"><ele>221.8</ele><time>2026-03-27T16:04:26.325Z</time></trkpt><trkpt lat="45.6364993" lon="9.0467783"><ele>222.20000000000002</ele><time>2026-03-27T16:04:27.326Z</time></trkpt><trkpt lat="45.6365919" lon="9.0468014"><ele>222.60000000000002</ele><time>2026-03-27T16:04:28.327Z</time></trkpt><trkpt lat="45.636685" lon="9.0468122"><ele>223.0</ele><time>2026-03-27T16:04:29.326Z</time></trkpt><trkpt lat="45.6367725" lon="9.0468252"><ele>222.99999999999997</ele><time>2026-03-27T16:04:30.326Z</time></trkpt><trkpt lat="45.6368561" lon="9.0468371"><ele>223.0</ele><time>2026-03-27T16:04:31.327Z</time></trkpt><trkpt lat="45.6369295" lon="9.0468455"><ele>223.0</ele><time>2026-03-27T16:04:32.326Z</time></trkpt><trkpt lat="45.637013" lon="9.0468507"><ele>223.0</ele><time>2026-03-27T16:04:33.326Z</time></trkpt><trkpt lat="45.637139" lon="9.0468527"><ele>222.99999999999997</ele><time>2026-03-27T16:04:35.325Z</time></trkpt><trkpt lat="45.6372025" lon="9.0468575"><ele>223.0</ele><time>2026-03-27T16:04:36.325Z</time></trkpt><trkpt lat="45.6373135" lon="9.0468593"><ele>223.33333333333331</ele><time>2026-03-27T16:04:38.325Z</time></trkpt><trkpt lat="45.637414" lon="9.0468666"><ele>223.66666666666666</ele><time>2026-03-27T16:04:40.326Z</time></trkpt><trkpt lat="45.637504" lon="9.0468802"><ele>224.0</ele><time>2026-03-27T16:04:42.325Z</time></trkpt><trkpt lat="45.6375862" lon="9.0468762"><ele>224.33333333333331</ele><time>2026-03-27T16:04:44.325Z</time></trkpt><trkpt lat="45.6376554" lon="9.0468829"><ele>224.66666666666666</ele><time>2026-03-27T16:04:46.324Z</time></trkpt><trkpt lat="45.6377213" lon="9.0468889"><ele>225.0</ele><time>2026-03-27T16:04:48.325Z</time></trkpt><trkpt lat="45.6377949" lon="9.0468993"><ele>224.8</ele><time>2026-03-27T16:04:51.325Z</time></trkpt><trkpt lat="45.6379152" lon="9.0469003"><ele>224.6</ele><time>2026-03-27T16:05:15.326Z</time></trkpt><trkpt lat="45.6380091" lon="9.0469121"><ele>224.39999999999998</ele><time>2026-03-27T16:05:16.325Z</time></trkpt><trkpt lat="45.6380992" lon="9.0469202"><ele>224.2</ele><time>2026-03-27T16:05:17.324Z</time></trkpt><trkpt lat="45.6381935" lon="9.0469244"><ele>224.0</ele><time>2026-03-27T16:05:18.326Z</time></trkpt><trkpt lat="45.6383065" lon="9.046934"><ele>224.0</ele><time>2026-03-27T16:05:19.325Z</time></trkpt><trkpt lat="45.6384651" lon="9.0469567"><ele>224.0</ele><time>2026-03-27T16:05:20.324Z</time></trkpt><trkpt lat="45.6385887" lon="9.0469737"><ele>224.0</ele><time>2026-03-27T16:05:21.326Z</time></trkpt><trkpt lat="45.6387026" lon="9.0469944"><ele>224.0</ele><time>2026-03-27T16:05:22.325Z</time></trkpt><trkpt lat="45.6388163" lon="9.0470108"><ele>224.0</ele><time>2026-03-27T16:05:23.324Z</time></trkpt><trkpt lat="45.6389388" lon="9.0470365"><ele>224.0</ele><time>2026-03-27T16:05:24.325Z</time></trkpt><trkpt lat="45.6390649" lon="9.047056"><ele>224.0</ele><time>2026-03-27T16:05:25.325Z</time></trkpt><trkpt lat="45.6391895" lon="9.0470748"><ele>224.0</ele><time>2026-03-27T16:05:26.326Z</time></trkpt><trkpt lat="45.6393069" lon="9.0470941"><ele>224.0</ele><time>2026-03-27T16:05:27.326Z</time></trkpt><trkpt lat="45.6394211" lon="9.0471095"><ele>223.99999999999997</ele><time>2026-03-27T16:05:28.325Z</time></trkpt><trkpt lat="45.6395282" lon="9.0471191"><ele>223.99999999999997</ele><time>2026-03-27T16:05:29.325Z</time></trkpt><trkpt lat="45.6396292" lon="9.0471257"><ele>224.0</ele><time>2026-03-27T16:05:30.325Z</time></trkpt><trkpt lat="45.6397489" lon="9.0471365"><ele>224.0</ele><time>2026-03-27T16:05:31.325Z</time></trkpt><trkpt lat="45.6398744" lon="9.0471534"><ele>224.0</ele><time>2026-03-27T16:05:32.325Z</time></trkpt><trkpt lat="45.640011" lon="9.0471713"><ele>224.0</ele><time>2026-03-27T16:05:33.326Z</time></trkpt><trkpt lat="45.6401459" lon="9.0471875"><ele>224.0</ele><time>2026-03-27T16:05:34.325Z</time></trkpt><trkpt lat="45.6402733" lon="9.0472054"><ele>224.0</ele><time>2026-03-27T16:05:35.325Z</time></trkpt><trkpt lat="45.640397" lon="9.0472201"><ele>224.25</ele><time>2026-03-27T16:05:36.326Z</time></trkpt><trkpt lat="45.6405258" lon="9.0472331"><ele>224.5</ele><time>2026-03-27T16:05:37.325Z</time></trkpt><trkpt lat="45.6406583" lon="9.047243"><ele>224.75</ele><time>2026-03-27T16:05:38.325Z</time></trkpt><trkpt lat="45.6407964" lon="9.047258"><ele>225.0</ele><time>2026-03-27T16:05:39.325Z</time></trkpt><trkpt lat="45.6409316" lon="9.0472796"><ele>225.0</ele><time>2026-03-27T16:05:40.325Z</time></trkpt><trkpt lat="45.6410587" lon="9.0473046"><ele>225.0</ele><time>2026-03-27T16:05:41.324Z</time></trkpt><trkpt lat="45.6411859" lon="9.0473274"><ele>225.0</ele><time>2026-03-27T16:05:42.325Z</time></trkpt><trkpt lat="45.6413165" lon="9.0473527"><ele>225.0</ele><time>2026-03-27T16:05:43.324Z</time></trkpt><trkpt lat="45.6414512" lon="9.0473693"><ele>225.25</ele><time>2026-03-27T16:05:44.325Z</time></trkpt><trkpt lat="45.6415853" lon="9.0473877"><ele>225.5</ele><time>2026-03-27T16:05:45.325Z</time></trkpt><trkpt lat="45.6417219" lon="9.0474025"><ele>225.75</ele><time>2026-03-27T16:05:46.325Z</time></trkpt><trkpt lat="45.6418653" lon="9.0474267"><ele>226.0</ele><time>2026-03-27T16:05:47.325Z</time></trkpt><trkpt lat="45.6419981" lon="9.0474584"><ele>226.0</ele><time>2026-03-27T16:05:48.324Z</time></trkpt><trkpt lat="45.6421173" lon="9.0474876"><ele>226.00000000000003</ele><time>2026-03-27T16:05:49.326Z</time></trkpt><trkpt lat="45.6422204" lon="9.0475176"><ele>226.00000000000003</ele><time>2026-03-27T16:05:50.324Z</time></trkpt><trkpt lat="45.6423135" lon="9.0475531"><ele>226.0</ele><time>2026-03-27T16:05:51.325Z</time></trkpt><trkpt lat="45.6423919" lon="9.0476135"><ele>226.0</ele><time>2026-03-27T16:05:52.326Z</time></trkpt><trkpt lat="45.6424534" lon="9.0477099"><ele>226.0</ele><time>2026-03-27T16:05:53.325Z</time></trkpt><trkpt lat="45.6425037" lon="9.0478286"><ele>226.00000000000003</ele><time>2026-03-27T16:05:54.325Z</time></trkpt><trkpt lat="45.6425605" lon="9.047907"><ele>226.00000000000003</ele><time>2026-03-27T16:05:55.326Z</time></trkpt><trkpt lat="45.6426752" lon="9.0479019"><ele>226.0</ele><time>2026-03-27T16:05:56.325Z</time></trkpt><trkpt lat="45.6428013" lon="9.0478932"><ele>226.0</ele><time>2026-03-27T16:05:57.325Z</time></trkpt><trkpt lat="45.6429501" lon="9.0479505"><ele>227.66666666666666</ele><time>2026-03-27T16:05:58.326Z</time></trkpt><trkpt lat="45.6431168" lon="9.0480533"><ele>229.33333333333331</ele><time>2026-03-27T16:05:59.326Z</time></trkpt><trkpt lat="45.6432786" lon="9.0481639"><ele>231.0</ele><time>2026-03-27T16:06:00.325Z</time></trkpt><trkpt lat="45.6434522" lon="9.0482976"><ele>231.0</ele><time>2026-03-27T16:06:01.325Z</time></trkpt><trkpt lat="45.6436093" lon="9.0484418"><ele>231.0</ele><time>2026-03-27T16:06:02.326Z</time></trkpt><trkpt lat="45.6437587" lon="9.0485682"><ele>231.0</ele><time>2026-03-27T16:06:03.324Z</time></trkpt><trkpt lat="45.6439006" lon="9.0486906"><ele>230.0</ele><time>2026-03-27T16:06:04.324Z</time></trkpt><trkpt lat="45.6440321" lon="9.0488049"><ele>229.0</ele><time>2026-03-27T16:06:05.325Z</time></trkpt><trkpt lat="45.6441537" lon="9.0489058"><ele>228.0</ele><time>2026-03-27T16:06:06.324Z</time></trkpt><trkpt lat="45.6442745" lon="9.0490037"><ele>227.0</ele><time>2026-03-27T16:06:07.325Z</time></trkpt><trkpt lat="45.6443881" lon="9.0491074"><ele>227.0</ele><time>2026-03-27T16:06:08.324Z</time></trkpt><trkpt lat="45.6445124" lon="9.0492084"><ele>227.0</ele><time>2026-03-27T16:06:09.325Z</time></trkpt><trkpt lat="45.6446373" lon="9.0493181"><ele>227.0</ele><time>2026-03-27T16:06:10.325Z</time></trkpt><trkpt lat="45.6447501" lon="9.0494251"><ele>227.0</ele><time>2026-03-27T16:06:11.325Z</time></trkpt><trkpt lat="45.6448597" lon="9.0495188"><ele>227.0</ele><time>2026-03-27T16:06:12.325Z</time></trkpt><trkpt lat="45.6449609" lon="9.0496066"><ele>227.0</ele><time>2026-03-27T16:06:13.326Z</time></trkpt><trkpt lat="45.6450557" lon="9.0496881"><ele>227.0</ele><time>2026-03-27T16:06:14.325Z</time></trkpt><trkpt lat="45.6451465" lon="9.0497654"><ele>227.0</ele><time>2026-03-27T16:06:15.325Z</time></trkpt><trkpt lat="45.645229" lon="9.0498353"><ele>227.0</ele><time>2026-03-27T16:06:16.326Z</time></trkpt><trkpt lat="45.6453077" lon="9.049905"><ele>227.50000000000003</ele><time>2026-03-27T16:06:17.326Z</time></trkpt><trkpt lat="45.6453783" lon="9.0499645"><ele>228.0</ele><time>2026-03-27T16:06:18.325Z</time></trkpt><trkpt lat="45.6454456" lon="9.0500239"><ele>228.5</ele><time>2026-03-27T16:06:19.326Z</time></trkpt><trkpt lat="45.6455091" lon="9.0500821"><ele>229.0</ele><time>2026-03-27T16:06:20.324Z</time></trkpt><trkpt lat="45.6455754" lon="9.0501392"><ele>229.50000000000003</ele><time>2026-03-27T16:06:21.325Z</time></trkpt><trkpt lat="45.6456404" lon="9.0501925"><ele>230.0</ele><time>2026-03-27T16:06:22.325Z</time></trkpt><trkpt lat="45.6457034" lon="9.0502479"><ele>229.99999999999997</ele><time>2026-03-27T16:06:23.325Z</time></trkpt><trkpt lat="45.645766" lon="9.0502962"><ele>230.0</ele><time>2026-03-27T16:06:24.324Z</time></trkpt><trkpt lat="45.6458339" lon="9.0503466"><ele>229.99999999999997</ele><time>2026-03-27T16:06:25.326Z</time></trkpt><trkpt lat="45.6458922" lon="9.0504001"><ele>229.99999999999997</ele><time>2026-03-27T16:06:26.326Z</time></trkpt><trkpt lat="45.6459484" lon="9.0504512"><ele>230.0</ele><time>2026-03-27T16:06:27.326Z</time></trkpt><trkpt lat="45.6460027" lon="9.0505063"><ele>229.99999999999997</ele><time>2026-03-27T16:06:28.325Z</time></trkpt><trkpt lat="45.6460643" lon="9.0505615"><ele>229.99999999999997</ele><time>2026-03-27T16:06:29.325Z</time></trkpt><trkpt lat="45.6461266" lon="9.0506214"><ele>229.99999999999997</ele><time>2026-03-27T16:06:30.326Z</time></trkpt><trkpt lat="45.6461936" lon="9.0506759"><ele>230.0</ele><time>2026-03-27T16:06:31.325Z</time></trkpt><trkpt lat="45.6462571" lon="9.0507259"><ele>229.99999999999997</ele><time>2026-03-27T16:06:32.326Z</time></trkpt><trkpt lat="45.646317" lon="9.0507722"><ele>229.99999999999997</ele><time>2026-03-27T16:06:33.326Z</time></trkpt><trkpt lat="45.6463795" lon="9.0508264"><ele>230.0</ele><time>2026-03-27T16:06:34.325Z</time></trkpt><trkpt lat="45.646443" lon="9.0508781"><ele>229.99999999999997</ele><time>2026-03-27T16:06:35.325Z</time></trkpt><trkpt lat="45.6464969" lon="9.0509278"><ele>229.99999999999997</ele><time>2026-03-27T16:06:36.325Z</time></trkpt><trkpt lat="45.6465538" lon="9.0509749"><ele>230.00000000000003</ele><time>2026-03-27T16:06:37.325Z</time></trkpt><trkpt lat="45.6466527" lon="9.0510601"><ele>230.0</ele><time>2026-03-27T16:06:39.326Z</time></trkpt><trkpt lat="45.6467435" lon="9.0511516"><ele>230.0</ele><time>2026-03-27T16:06:41.325Z</time></trkpt><trkpt lat="45.6467864" lon="9.0512249"><ele>230.0</ele><time>2026-03-27T16:06:42.324Z</time></trkpt><trkpt lat="45.6468164" lon="9.0513118"><ele>230.00000000000003</ele><time>2026-03-27T16:06:43.325Z</time></trkpt><trkpt lat="45.6468436" lon="9.0514105"><ele>230.0</ele><time>2026-03-27T16:06:44.325Z</time></trkpt><trkpt lat="45.6468705" lon="9.0515007"><ele>229.99999999999997</ele><time>2026-03-27T16:06:45.325Z</time></trkpt><trkpt lat="45.6469175" lon="9.0515765"><ele>230.0</ele><time>2026-03-27T16:06:46.326Z</time></trkpt><trkpt lat="45.6469781" lon="9.0516228"><ele>229.99999999999997</ele><time>2026-03-27T16:06:47.324Z</time></trkpt><trkpt lat="45.6470443" lon="9.0516341"><ele>229.99999999999997</ele><time>2026-03-27T16:06:48.325Z</time></trkpt><trkpt lat="45.6471142" lon="9.0516262"><ele>230.0</ele><time>2026-03-27T16:06:49.326Z</time></trkpt><trkpt lat="45.6471882" lon="9.0515972"><ele>229.99999999999997</ele><time>2026-03-27T16:06:50.324Z</time></trkpt><trkpt lat="45.6472585" lon="9.0515751"><ele>229.99999999999997</ele><time>2026-03-27T16:06:51.325Z</time></trkpt><trkpt lat="45.6473338" lon="9.0515901"><ele>229.83333333333334</ele><time>2026-03-27T16:06:52.325Z</time></trkpt><trkpt lat="45.6474043" lon="9.0516261"><ele>229.66666666666669</ele><time>2026-03-27T16:06:53.325Z</time></trkpt><trkpt lat="45.6474688" lon="9.0516742"><ele>229.5</ele><time>2026-03-27T16:06:54.325Z</time></trkpt><trkpt lat="45.6475214" lon="9.0517495"><ele>229.33333333333331</ele><time>2026-03-27T16:06:55.326Z</time></trkpt><trkpt lat="45.647564" lon="9.0518463"><ele>229.16666666666666</ele><time>2026-03-27T16:06:56.326Z</time></trkpt><trkpt lat="45.6476021" lon="9.0519592"><ele>229.0</ele><time>2026-03-27T16:06:57.326Z</time></trkpt><trkpt lat="45.6476757" lon="9.0520589"><ele>229.0</ele><time>2026-03-27T16:06:58.325Z</time></trkpt><trkpt lat="45.6477878" lon="9.0521082"><ele>229.0</ele><time>2026-03-27T16:06:59.326Z</time></trkpt><trkpt lat="45.6479185" lon="9.0521165"><ele>229.0</ele><time>2026-03-27T16:07:00.324Z</time></trkpt><trkpt lat="45.6480395" lon="9.0521283"><ele>229.0</ele><time>2026-03-27T16:07:01.325Z</time></trkpt><trkpt lat="45.6481739" lon="9.0521751"><ele>229.0</ele><time>2026-03-27T16:07:02.325Z</time></trkpt><trkpt lat="45.6483143" lon="9.0522432"><ele>229.0</ele><time>2026-03-27T16:07:03.325Z</time></trkpt><trkpt lat="45.6484506" lon="9.0522942"><ele>229.0</ele><time>2026-03-27T16:07:04.325Z</time></trkpt><trkpt lat="45.648583" lon="9.0523228"><ele>229.0</ele><time>2026-03-27T16:07:05.325Z</time></trkpt><trkpt lat="45.6487082" lon="9.0523398"><ele>229.0</ele><time>2026-03-27T16:07:06.325Z</time></trkpt><trkpt lat="45.6488368" lon="9.05236"><ele>229.0</ele><time>2026-03-27T16:07:07.325Z</time></trkpt><trkpt lat="45.648967" lon="9.0523756"><ele>229.0</ele><time>2026-03-27T16:07:08.325Z</time></trkpt><trkpt lat="45.6491025" lon="9.0523822"><ele>229.0</ele><time>2026-03-27T16:07:09.324Z</time></trkpt><trkpt lat="45.6492403" lon="9.0523891"><ele>229.0</ele><time>2026-03-27T16:07:10.324Z</time></trkpt><trkpt lat="45.6493819" lon="9.0523963"><ele>229.0</ele><time>2026-03-27T16:07:11.324Z</time></trkpt><trkpt lat="45.6495218" lon="9.0524054"><ele>229.0</ele><time>2026-03-27T16:07:12.324Z</time></trkpt><trkpt lat="45.6496589" lon="9.0524098"><ele>229.0</ele><time>2026-03-27T16:07:13.325Z</time></trkpt><trkpt lat="45.6498018" lon="9.0524154"><ele>228.75</ele><time>2026-03-27T16:07:14.326Z</time></trkpt><trkpt lat="45.6499448" lon="9.0524249"><ele>228.5</ele><time>2026-03-27T16:07:15.325Z</time></trkpt><trkpt lat="45.6500851" lon="9.0524299"><ele>228.25</ele><time>2026-03-27T16:07:16.324Z</time></trkpt><trkpt lat="45.6502274" lon="9.0524391"><ele>228.0</ele><time>2026-03-27T16:07:17.325Z</time></trkpt><trkpt lat="45.6503652" lon="9.0524471"><ele>228.5</ele><time>2026-03-27T16:07:18.324Z</time></trkpt><trkpt lat="45.6505054" lon="9.0524521"><ele>229.0</ele><time>2026-03-27T16:07:19.326Z</time></trkpt><trkpt lat="45.6506445" lon="9.0524617"><ele>229.5</ele><time>2026-03-27T16:07:20.326Z</time></trkpt><trkpt lat="45.6507835" lon="9.0524659"><ele>230.0</ele><time>2026-03-27T16:07:21.325Z</time></trkpt><trkpt lat="45.6509174" lon="9.052472"><ele>230.0</ele><time>2026-03-27T16:07:22.325Z</time></trkpt><trkpt lat="45.6510404" lon="9.0524747"><ele>230.0</ele><time>2026-03-27T16:07:23.324Z</time></trkpt><trkpt lat="45.6511556" lon="9.0524776"><ele>230.0</ele><time>2026-03-27T16:07:24.325Z</time></trkpt><trkpt lat="45.6512571" lon="9.0524862"><ele>230.0</ele><time>2026-03-27T16:07:25.325Z</time></trkpt><trkpt lat="45.6513566" lon="9.0524976"><ele>230.0</ele><time>2026-03-27T16:07:26.324Z</time></trkpt><trkpt lat="45.6514541" lon="9.0525325"><ele>230.8</ele><time>2026-03-27T16:07:27.325Z</time></trkpt><trkpt lat="45.6515443" lon="9.0526011"><ele>231.6</ele><time>2026-03-27T16:07:28.325Z</time></trkpt><trkpt lat="45.6516232" lon="9.0527011"><ele>232.39999999999998</ele><time>2026-03-27T16:07:29.324Z</time></trkpt><trkpt lat="45.6517004" lon="9.0527768"><ele>233.2</ele><time>2026-03-27T16:07:30.324Z</time></trkpt><trkpt lat="45.6518048" lon="9.0527914"><ele>234.0</ele><time>2026-03-27T16:07:31.324Z</time></trkpt><trkpt lat="45.6519201" lon="9.0527447"><ele>233.75</ele><time>2026-03-27T16:07:32.324Z</time></trkpt><trkpt lat="45.6520497" lon="9.0526728"><ele>233.5</ele><time>2026-03-27T16:07:33.324Z</time></trkpt><trkpt lat="45.6521784" lon="9.0526203"><ele>233.25</ele><time>2026-03-27T16:07:34.325Z</time></trkpt><trkpt lat="45.6523072" lon="9.0525672"><ele>233.0</ele><time>2026-03-27T16:07:35.325Z</time></trkpt><trkpt lat="45.6524316" lon="9.0525205"><ele>233.0</ele><time>2026-03-27T16:07:36.324Z</time></trkpt><trkpt lat="45.652563" lon="9.0524709"><ele>233.0</ele><time>2026-03-27T16:07:37.324Z</time></trkpt><trkpt lat="45.6526974" lon="9.0524284"><ele>233.0</ele><time>2026-03-27T16:07:38.324Z</time></trkpt><trkpt lat="45.652832" lon="9.0523879"><ele>233.0</ele><time>2026-03-27T16:07:39.323Z</time></trkpt><trkpt lat="45.6529702" lon="9.0523529"><ele>233.25</ele><time>2026-03-27T16:07:40.324Z</time></trkpt><trkpt lat="45.6531128" lon="9.0523247"><ele>233.5</ele><time>2026-03-27T16:07:41.324Z</time></trkpt><trkpt lat="45.6532595" lon="9.0523005"><ele>233.75</ele><time>2026-03-27T16:07:42.323Z</time></trkpt><trkpt lat="45.6534106" lon="9.0522835"><ele>234.0</ele><time>2026-03-27T16:07:43.323Z</time></trkpt><trkpt lat="45.6535697" lon="9.0522707"><ele>234.66666666666669</ele><time>2026-03-27T16:07:44.324Z</time></trkpt><trkpt lat="45.6537302" lon="9.0522648"><ele>235.33333333333334</ele><time>2026-03-27T16:07:45.324Z</time></trkpt><trkpt lat="45.6538858" lon="9.052266"><ele>236.0</ele><time>2026-03-27T16:07:46.325Z</time></trkpt><trkpt lat="45.6540429" lon="9.0522748"><ele>236.0</ele><time>2026-03-27T16:07:47.324Z</time></trkpt><trkpt lat="45.6541989" lon="9.052282"><ele>236.0</ele><time>2026-03-27T16:07:48.324Z</time></trkpt><trkpt lat="45.6543606" lon="9.0522931"><ele>236.0</ele><time>2026-03-27T16:07:49.325Z</time></trkpt><trkpt lat="45.654525" lon="9.0523106"><ele>236.33333333333334</ele><time>2026-03-27T16:07:50.323Z</time></trkpt><trkpt lat="45.6546906" lon="9.0523261"><ele>236.66666666666669</ele><time>2026-03-27T16:07:51.324Z</time></trkpt><trkpt lat="45.6548627" lon="9.052341"><ele>237.0</ele><time>2026-03-27T16:07:52.325Z</time></trkpt><trkpt lat="45.655035" lon="9.0523548"><ele>237.0</ele><time>2026-03-27T16:07:53.324Z</time></trkpt><trkpt lat="45.6552106" lon="9.0523731"><ele>237.0</ele><time>2026-03-27T16:07:54.324Z</time></trkpt><trkpt lat="45.6553872" lon="9.0523868"><ele>237.0</ele><time>2026-03-27T16:07:55.324Z</time></trkpt><trkpt lat="45.6555631" lon="9.0524027"><ele>236.33333333333331</ele><time>2026-03-27T16:07:56.325Z</time></trkpt><trkpt lat="45.6557372" lon="9.0524201"><ele>235.66666666666666</ele><time>2026-03-27T16:07:57.324Z</time></trkpt><trkpt lat="45.6559133" lon="9.0524377"><ele>235.0</ele><time>2026-03-27T16:07:58.324Z</time></trkpt><trkpt lat="45.6560879" lon="9.0524521"><ele>235.0</ele><time>2026-03-27T16:07:59.324Z</time></trkpt><trkpt lat="45.656259" lon="9.0524676"><ele>235.0</ele><time>2026-03-27T16:08:00.323Z</time></trkpt><trkpt lat="45.6564192" lon="9.0524794"><ele>235.0</ele><time>2026-03-27T16:08:01.323Z</time></trkpt><trkpt lat="45.6565696" lon="9.0524901"><ele>235.0</ele><time>2026-03-27T16:08:02.325Z</time></trkpt><trkpt lat="45.6567023" lon="9.0525014"><ele>235.0</ele><time>2026-03-27T16:08:03.324Z</time></trkpt><trkpt lat="45.6568255" lon="9.0525069"><ele>235.0</ele><time>2026-03-27T16:08:04.324Z</time></trkpt><trkpt lat="45.6569453" lon="9.052517"><ele>235.0</ele><time>2026-03-27T16:08:05.324Z</time></trkpt><trkpt lat="45.6570571" lon="9.0525697"><ele>235.75</ele><time>2026-03-27T16:08:06.324Z</time></trkpt><trkpt lat="45.6571572" lon="9.0526844"><ele>236.5</ele><time>2026-03-27T16:08:07.324Z</time></trkpt><trkpt lat="45.657252" lon="9.0528247"><ele>237.25</ele><time>2026-03-27T16:08:08.325Z</time></trkpt><trkpt lat="45.6573387" lon="9.0529856"><ele>238.0</ele><time>2026-03-27T16:08:09.324Z</time></trkpt><trkpt lat="45.6574026" lon="9.053183"><ele>238.66666666666666</ele><time>2026-03-27T16:08:10.323Z</time></trkpt><trkpt lat="45.6574349" lon="9.0534078"><ele>239.33333333333331</ele><time>2026-03-27T16:08:11.324Z</time></trkpt><trkpt lat="45.6574469" lon="9.0536666"><ele>240.0</ele><time>2026-03-27T16:08:12.324Z</time></trkpt><trkpt lat="45.6574507" lon="9.0539234"><ele>239.66666666666669</ele><time>2026-03-27T16:08:13.325Z</time></trkpt><trkpt lat="45.6574512" lon="9.0541646"><ele>239.33333333333334</ele><time>2026-03-27T16:08:14.323Z</time></trkpt><trkpt lat="45.6574612" lon="9.054388"><ele>239.0</ele><time>2026-03-27T16:08:15.323Z</time></trkpt><trkpt lat="45.6574781" lon="9.0546073"><ele>239.0</ele><time>2026-03-27T16:08:16.323Z</time></trkpt><trkpt lat="45.6575121" lon="9.0547932"><ele>239.0</ele><time>2026-03-27T16:08:17.324Z</time></trkpt><trkpt lat="45.6575451" lon="9.0549778"><ele>239.0</ele><time>2026-03-27T16:08:18.324Z</time></trkpt><trkpt lat="45.6575862" lon="9.0551559"><ele>239.0</ele><time>2026-03-27T16:08:19.324Z</time></trkpt><trkpt lat="45.6576265" lon="9.0553386"><ele>238.5</ele><time>2026-03-27T16:08:20.324Z</time></trkpt><trkpt lat="45.6576575" lon="9.0555272"><ele>238.0</ele><time>2026-03-27T16:08:21.324Z</time></trkpt><trkpt lat="45.6576867" lon="9.0557192"><ele>237.5</ele><time>2026-03-27T16:08:22.325Z</time></trkpt><trkpt lat="45.6577107" lon="9.0559193"><ele>237.0</ele><time>2026-03-27T16:08:23.324Z</time></trkpt><trkpt lat="45.6577268" lon="9.0561283"><ele>237.0</ele><time>2026-03-27T16:08:24.325Z</time></trkpt><trkpt lat="45.6577318" lon="9.0563446"><ele>237.0</ele><time>2026-03-27T16:08:25.324Z</time></trkpt><trkpt lat="45.6577289" lon="9.0565596"><ele>237.0</ele><time>2026-03-27T16:08:26.325Z</time></trkpt><trkpt lat="45.6577137" lon="9.0567792"><ele>237.0</ele><time>2026-03-27T16:08:27.324Z</time></trkpt><trkpt lat="45.6576845" lon="9.0570015"><ele>237.0</ele><time>2026-03-27T16:08:28.324Z</time></trkpt><trkpt lat="45.6576518" lon="9.0572254"><ele>237.0</ele><time>2026-03-27T16:08:29.324Z</time></trkpt><trkpt lat="45.6576181" lon="9.0574534"><ele>237.0</ele><time>2026-03-27T16:08:30.323Z</time></trkpt><trkpt lat="45.6575831" lon="9.0576804"><ele>237.0</ele><time>2026-03-27T16:08:31.324Z</time></trkpt><trkpt lat="45.657549" lon="9.0579114"><ele>237.0</ele><time>2026-03-27T16:08:32.325Z</time></trkpt><trkpt lat="45.6575242" lon="9.0581373"><ele>237.33333333333331</ele><time>2026-03-27T16:08:33.325Z</time></trkpt><trkpt lat="45.6575125" lon="9.0583693"><ele>237.66666666666666</ele><time>2026-03-27T16:08:34.323Z</time></trkpt><trkpt lat="45.657513" lon="9.0586054"><ele>238.0</ele><time>2026-03-27T16:08:35.324Z</time></trkpt><trkpt lat="45.6575216" lon="9.0588391"><ele>238.0</ele><time>2026-03-27T16:08:36.324Z</time></trkpt><trkpt lat="45.6575322" lon="9.0590734"><ele>238.0</ele><time>2026-03-27T16:08:37.324Z</time></trkpt><trkpt lat="45.6575433" lon="9.0593008"><ele>238.0</ele><time>2026-03-27T16:08:38.323Z</time></trkpt><trkpt lat="45.6575572" lon="9.0595185"><ele>237.75</ele><time>2026-03-27T16:08:39.325Z</time></trkpt><trkpt lat="45.6575668" lon="9.0597247"><ele>237.5</ele><time>2026-03-27T16:08:40.325Z</time></trkpt><trkpt lat="45.6575775" lon="9.059938"><ele>237.25</ele><time>2026-03-27T16:08:41.324Z</time></trkpt><trkpt lat="45.6575857" lon="9.0601518"><ele>237.0</ele><time>2026-03-27T16:08:42.325Z</time></trkpt><trkpt lat="45.6575915" lon="9.0603499"><ele>237.0</ele><time>2026-03-27T16:08:43.324Z</time></trkpt><trkpt lat="45.6575983" lon="9.0605245"><ele>237.0</ele><time>2026-03-27T16:08:44.324Z</time></trkpt><trkpt lat="45.6576" lon="9.060683"><ele>237.0</ele><time>2026-03-27T16:08:45.324Z</time></trkpt><trkpt lat="45.657601" lon="9.0608195"><ele>237.0</ele><time>2026-03-27T16:08:46.324Z</time></trkpt><trkpt lat="45.6575941" lon="9.0609328"><ele>237.0</ele><time>2026-03-27T16:08:47.324Z</time></trkpt><trkpt lat="45.6575767" lon="9.0610443"><ele>237.0</ele><time>2026-03-27T16:08:48.324Z</time></trkpt><trkpt lat="45.6575387" lon="9.0611561"><ele>237.0</ele><time>2026-03-27T16:08:49.323Z</time></trkpt><trkpt lat="45.6574954" lon="9.0612807"><ele>237.0</ele><time>2026-03-27T16:08:50.324Z</time></trkpt><trkpt lat="45.6574555" lon="9.0614067"><ele>237.0</ele><time>2026-03-27T16:08:51.325Z</time></trkpt><trkpt lat="45.6574779" lon="9.0615425"><ele>237.0</ele><time>2026-03-27T16:08:52.325Z</time></trkpt><trkpt lat="45.6574855" lon="9.0616995"><ele>237.0</ele><time>2026-03-27T16:08:53.323Z</time></trkpt><trkpt lat="45.6576518" lon="9.0617556"><ele>237.0</ele><time>2026-03-27T16:08:54.324Z</time></trkpt><trkpt lat="45.6577509" lon="9.0617706"><ele>237.0</ele><time>2026-03-27T16:08:55.324Z</time></trkpt><trkpt lat="45.6578907" lon="9.0617305"><ele>237.0</ele><time>2026-03-27T16:08:56.324Z</time></trkpt><trkpt lat="45.6580568" lon="9.0617201"><ele>237.0</ele><time>2026-03-27T16:08:57.325Z</time></trkpt><trkpt lat="45.65823" lon="9.0617602"><ele>237.0</ele><time>2026-03-27T16:08:58.325Z</time></trkpt><trkpt lat="45.6584206" lon="9.0618296"><ele>237.0</ele><time>2026-03-27T16:08:59.325Z</time></trkpt><trkpt lat="45.6586022" lon="9.0618808"><ele>237.33333333333331</ele><time>2026-03-27T16:09:00.323Z</time></trkpt><trkpt lat="45.6588087" lon="9.0619614"><ele>237.66666666666666</ele><time>2026-03-27T16:09:01.324Z</time></trkpt><trkpt lat="45.6590074" lon="9.0620168"><ele>238.0</ele><time>2026-03-27T16:09:02.324Z</time></trkpt><trkpt lat="45.6591919" lon="9.0620762"><ele>238.0</ele><time>2026-03-27T16:09:03.325Z</time></trkpt><trkpt lat="45.6593834" lon="9.0621338"><ele>238.0</ele><time>2026-03-27T16:09:04.325Z</time></trkpt><trkpt lat="45.6595712" lon="9.0621888"><ele>238.0</ele><time>2026-03-27T16:09:05.324Z</time></trkpt><trkpt lat="45.6597617" lon="9.0622432"><ele>238.0</ele><time>2026-03-27T16:09:06.323Z</time></trkpt><trkpt lat="45.6599544" lon="9.0622969"><ele>238.0</ele><time>2026-03-27T16:09:07.324Z</time></trkpt><trkpt lat="45.660145" lon="9.0623498"><ele>238.0</ele><time>2026-03-27T16:09:08.324Z</time></trkpt><trkpt lat="45.6603372" lon="9.0624017"><ele>238.33333333333331</ele><time>2026-03-27T16:09:09.325Z</time></trkpt><trkpt lat="45.6605389" lon="9.0624548"><ele>238.66666666666669</ele><time>2026-03-27T16:09:10.323Z</time></trkpt><trkpt lat="45.6607428" lon="9.0624987"><ele>239.0</ele><time>2026-03-27T16:09:11.324Z</time></trkpt><trkpt lat="45.6609476" lon="9.062538"><ele>239.0</ele><time>2026-03-27T16:09:12.324Z</time></trkpt><trkpt lat="45.6611371" lon="9.062575"><ele>239.0</ele><time>2026-03-27T16:09:13.324Z</time></trkpt><trkpt lat="45.6613318" lon="9.0625958"><ele>239.0</ele><time>2026-03-27T16:09:14.324Z</time></trkpt><trkpt lat="45.6615154" lon="9.0626148"><ele>239.0</ele><time>2026-03-27T16:09:15.325Z</time></trkpt><trkpt lat="45.6617057" lon="9.0626263"><ele>239.0</ele><time>2026-03-27T16:09:16.325Z</time></trkpt><trkpt lat="45.661901" lon="9.0626298"><ele>239.0</ele><time>2026-03-27T16:09:17.325Z</time></trkpt><trkpt lat="45.6620932" lon="9.0626256"><ele>240.33333333333334</ele><time>2026-03-27T16:09:18.324Z</time></trkpt><trkpt lat="45.6622883" lon="9.0626167"><ele>241.66666666666669</ele><time>2026-03-27T16:09:19.323Z</time></trkpt><trkpt lat="45.662482" lon="9.062606"><ele>243.0</ele><time>2026-03-27T16:09:20.324Z</time></trkpt><trkpt lat="45.6626699" lon="9.0625897"><ele>242.66666666666669</ele><time>2026-03-27T16:09:21.324Z</time></trkpt><trkpt lat="45.6628565" lon="9.0625662"><ele>242.33333333333334</ele><time>2026-03-27T16:09:22.324Z</time></trkpt><trkpt lat="45.6630407" lon="9.0625359"><ele>242.0</ele><time>2026-03-27T16:09:23.324Z</time></trkpt><trkpt lat="45.6632244" lon="9.0625074"><ele>242.0</ele><time>2026-03-27T16:09:24.324Z</time></trkpt><trkpt lat="45.6634071" lon="9.0624809"><ele>242.0</ele><time>2026-03-27T16:09:25.325Z</time></trkpt><trkpt lat="45.6635884" lon="9.0624528"><ele>242.0</ele><time>2026-03-27T16:09:26.325Z</time></trkpt><trkpt lat="45.6637778" lon="9.0624251"><ele>242.0</ele><time>2026-03-27T16:09:27.325Z</time></trkpt><trkpt lat="45.6639524" lon="9.0623915"><ele>242.0</ele><time>2026-03-27T16:09:28.325Z</time></trkpt><trkpt lat="45.6641283" lon="9.062367"><ele>242.0</ele><time>2026-03-27T16:09:29.325Z</time></trkpt><trkpt lat="45.6643045" lon="9.0623405"><ele>242.0</ele><time>2026-03-27T16:09:30.324Z</time></trkpt><trkpt lat="45.6644801" lon="9.0623179"><ele>242.0</ele><time>2026-03-27T16:09:31.324Z</time></trkpt><trkpt lat="45.664654" lon="9.0622902"><ele>242.0</ele><time>2026-03-27T16:09:32.323Z</time></trkpt><trkpt lat="45.6648318" lon="9.0622598"><ele>242.0</ele><time>2026-03-27T16:09:33.324Z</time></trkpt><trkpt lat="45.6650087" lon="9.0622303"><ele>242.0</ele><time>2026-03-27T16:09:34.325Z</time></trkpt><trkpt lat="45.6651864" lon="9.062206"><ele>242.0</ele><time>2026-03-27T16:09:35.324Z</time></trkpt><trkpt lat="45.6653667" lon="9.0621815"><ele>242.0</ele><time>2026-03-27T16:09:36.325Z</time></trkpt><trkpt lat="45.6655475" lon="9.0621539"><ele>242.0</ele><time>2026-03-27T16:09:37.325Z</time></trkpt><trkpt lat="45.6657324" lon="9.0621256"><ele>242.0</ele><time>2026-03-27T16:09:38.324Z</time></trkpt><trkpt lat="45.6659186" lon="9.062097"><ele>242.0</ele><time>2026-03-27T16:09:39.324Z</time></trkpt><trkpt lat="45.6661068" lon="9.06207"><ele>242.0</ele><time>2026-03-27T16:09:40.324Z</time></trkpt><trkpt lat="45.6662943" lon="9.0620467"><ele>242.0</ele><time>2026-03-27T16:09:41.323Z</time></trkpt><trkpt lat="45.6664844" lon="9.0620214"><ele>243.66666666666669</ele><time>2026-03-27T16:09:42.324Z</time></trkpt><trkpt lat="45.6666733" lon="9.0619985"><ele>245.33333333333331</ele><time>2026-03-27T16:09:43.324Z</time></trkpt><trkpt lat="45.6668633" lon="9.0619726"><ele>247.0</ele><time>2026-03-27T16:09:44.324Z</time></trkpt><trkpt lat="45.6670558" lon="9.0619535"><ele>247.33333333333331</ele><time>2026-03-27T16:09:45.323Z</time></trkpt><trkpt lat="45.6672499" lon="9.0619465"><ele>247.66666666666669</ele><time>2026-03-27T16:09:46.324Z</time></trkpt><trkpt lat="45.6674437" lon="9.0619443"><ele>248.0</ele><time>2026-03-27T16:09:47.324Z</time></trkpt><trkpt lat="45.6676356" lon="9.0619496"><ele>248.66666666666669</ele><time>2026-03-27T16:09:48.324Z</time></trkpt><trkpt lat="45.667828" lon="9.0619556"><ele>249.33333333333331</ele><time>2026-03-27T16:09:49.323Z</time></trkpt><trkpt lat="45.6680205" lon="9.0619708"><ele>250.0</ele><time>2026-03-27T16:09:50.323Z</time></trkpt><trkpt lat="45.6682112" lon="9.0619923"><ele>250.0</ele><time>2026-03-27T16:09:51.324Z</time></trkpt><trkpt lat="45.6684022" lon="9.0620216"><ele>250.0</ele><time>2026-03-27T16:09:52.324Z</time></trkpt><trkpt lat="45.6685915" lon="9.0620519"><ele>250.0</ele><time>2026-03-27T16:09:53.324Z</time></trkpt><trkpt lat="45.668781" lon="9.0620913"><ele>250.33333333333331</ele><time>2026-03-27T16:09:54.324Z</time></trkpt><trkpt lat="45.6689719" lon="9.0621379"><ele>250.66666666666669</ele><time>2026-03-27T16:09:55.325Z</time></trkpt><trkpt lat="45.6691604" lon="9.0621867"><ele>251.0</ele><time>2026-03-27T16:09:56.324Z</time></trkpt><trkpt lat="45.6693452" lon="9.0622377"><ele>251.33333333333334</ele><time>2026-03-27T16:09:57.324Z</time></trkpt><trkpt lat="45.6695284" lon="9.0622957"><ele>251.66666666666669</ele><time>2026-03-27T16:09:58.323Z</time></trkpt><trkpt lat="45.6697132" lon="9.0623596"><ele>252.0</ele><time>2026-03-27T16:09:59.324Z</time></trkpt><trkpt lat="45.6699007" lon="9.062425"><ele>252.0</ele><time>2026-03-27T16:10:00.324Z</time></trkpt><trkpt lat="45.6700841" lon="9.0624869"><ele>252.0</ele><time>2026-03-27T16:10:01.324Z</time></trkpt><trkpt lat="45.6702712" lon="9.0625451"><ele>252.0</ele><time>2026-03-27T16:10:02.323Z</time></trkpt><trkpt lat="45.6704577" lon="9.0626077"><ele>252.33333333333331</ele><time>2026-03-27T16:10:03.324Z</time></trkpt><trkpt lat="45.6706445" lon="9.0626721"><ele>252.66666666666666</ele><time>2026-03-27T16:10:04.325Z</time></trkpt><trkpt lat="45.6708313" lon="9.0627401"><ele>253.0</ele><time>2026-03-27T16:10:05.323Z</time></trkpt><trkpt lat="45.6710175" lon="9.0628073"><ele>253.0</ele><time>2026-03-27T16:10:06.324Z</time></trkpt><trkpt lat="45.6712015" lon="9.0628717"><ele>253.0</ele><time>2026-03-27T16:10:07.323Z</time></trkpt><trkpt lat="45.6713831" lon="9.0629324"><ele>253.0</ele><time>2026-03-27T16:10:08.325Z</time></trkpt><trkpt lat="45.6715599" lon="9.0629926"><ele>253.0</ele><time>2026-03-27T16:10:09.324Z</time></trkpt><trkpt lat="45.6717246" lon="9.0630421"><ele>253.0</ele><time>2026-03-27T16:10:10.323Z</time></trkpt><trkpt lat="45.6718835" lon="9.0630968"><ele>253.0</ele><time>2026-03-27T16:10:11.325Z</time></trkpt><trkpt lat="45.6720284" lon="9.0631479"><ele>253.0</ele><time>2026-03-27T16:10:12.324Z</time></trkpt><trkpt lat="45.672163" lon="9.0631981"><ele>253.0</ele><time>2026-03-27T16:10:13.323Z</time></trkpt><trkpt lat="45.6722827" lon="9.063237"><ele>253.0</ele><time>2026-03-27T16:10:14.323Z</time></trkpt><trkpt lat="45.672393" lon="9.0632703"><ele>253.0</ele><time>2026-03-27T16:10:15.324Z</time></trkpt><trkpt lat="45.6725011" lon="9.063303"><ele>253.0</ele><time>2026-03-27T16:10:16.324Z</time></trkpt><trkpt lat="45.6725954" lon="9.0633607"><ele>253.0</ele><time>2026-03-27T16:10:17.324Z</time></trkpt><trkpt lat="45.6726744" lon="9.0634561"><ele>253.0</ele><time>2026-03-27T16:10:18.324Z</time></trkpt><trkpt lat="45.6727426" lon="9.0635807"><ele>253.0</ele><time>2026-03-27T16:10:19.323Z</time></trkpt><trkpt lat="45.6728119" lon="9.0637215"><ele>253.0</ele><time>2026-03-27T16:10:20.323Z</time></trkpt><trkpt lat="45.672871" lon="9.063875"><ele>253.0</ele><time>2026-03-27T16:10:21.324Z</time></trkpt><trkpt lat="45.6729045" lon="9.0640408"><ele>253.0</ele><time>2026-03-27T16:10:22.325Z</time></trkpt><trkpt lat="45.6729126" lon="9.0642326"><ele>253.0</ele><time>2026-03-27T16:10:23.324Z</time></trkpt><trkpt lat="45.6729067" lon="9.0644444"><ele>253.0</ele><time>2026-03-27T16:10:24.324Z</time></trkpt><trkpt lat="45.6729016" lon="9.0646501"><ele>253.0</ele><time>2026-03-27T16:10:25.324Z</time></trkpt><trkpt lat="45.6728962" lon="9.0648653"><ele>253.0</ele><time>2026-03-27T16:10:26.324Z</time></trkpt><trkpt lat="45.6728891" lon="9.0650938"><ele>253.0</ele><time>2026-03-27T16:10:27.324Z</time></trkpt><trkpt lat="45.6728803" lon="9.0653333"><ele>253.33333333333331</ele><time>2026-03-27T16:10:28.322Z</time></trkpt><trkpt lat="45.6728693" lon="9.0655675"><ele>253.66666666666669</ele><time>2026-03-27T16:10:29.323Z</time></trkpt><trkpt lat="45.6728551" lon="9.0657883"><ele>254.0</ele><time>2026-03-27T16:10:30.323Z</time></trkpt><trkpt lat="45.6728424" lon="9.0659946"><ele>253.75</ele><time>2026-03-27T16:10:31.324Z</time></trkpt><trkpt lat="45.6728328" lon="9.0661985"><ele>253.5</ele><time>2026-03-27T16:10:32.324Z</time></trkpt><trkpt lat="45.6728255" lon="9.0664054"><ele>253.25</ele><time>2026-03-27T16:10:33.324Z</time></trkpt><trkpt lat="45.6728201" lon="9.0666152"><ele>253.0</ele><time>2026-03-27T16:10:34.322Z</time></trkpt><trkpt lat="45.6728106" lon="9.0668162"><ele>253.0</ele><time>2026-03-27T16:10:35.323Z</time></trkpt><trkpt lat="45.6728047" lon="9.0670343"><ele>253.0</ele><time>2026-03-27T16:10:36.323Z</time></trkpt><trkpt lat="45.6727993" lon="9.0672547"><ele>253.0</ele><time>2026-03-27T16:10:37.322Z</time></trkpt><trkpt lat="45.6727939" lon="9.0674861"><ele>253.25</ele><time>2026-03-27T16:10:38.323Z</time></trkpt><trkpt lat="45.6727866" lon="9.0677039"><ele>253.5</ele><time>2026-03-27T16:10:39.323Z</time></trkpt><trkpt lat="45.6727829" lon="9.0679098"><ele>253.75</ele><time>2026-03-27T16:10:40.323Z</time></trkpt><trkpt lat="45.6727778" lon="9.0681062"><ele>254.0</ele><time>2026-03-27T16:10:41.323Z</time></trkpt><trkpt lat="45.6727705" lon="9.0682929"><ele>253.5</ele><time>2026-03-27T16:10:42.323Z</time></trkpt><trkpt lat="45.6727629" lon="9.0684677"><ele>253.0</ele><time>2026-03-27T16:10:43.322Z</time></trkpt><trkpt lat="45.6727575" lon="9.0686293"><ele>252.5</ele><time>2026-03-27T16:10:44.323Z</time></trkpt><trkpt lat="45.6727523" lon="9.0687865"><ele>252.0</ele><time>2026-03-27T16:10:45.322Z</time></trkpt><trkpt lat="45.6727462" lon="9.0689484"><ele>252.0</ele><time>2026-03-27T16:10:46.322Z</time></trkpt><trkpt lat="45.6727383" lon="9.069106"><ele>252.0</ele><time>2026-03-27T16:10:47.322Z</time></trkpt><trkpt lat="45.672733" lon="9.0692541"><ele>252.0</ele><time>2026-03-27T16:10:48.323Z</time></trkpt><trkpt lat="45.6727274" lon="9.0693844"><ele>252.0</ele><time>2026-03-27T16:10:49.323Z</time></trkpt><trkpt lat="45.6727234" lon="9.069508"><ele>252.0</ele><time>2026-03-27T16:10:50.323Z</time></trkpt><trkpt lat="45.6727148" lon="9.069616"><ele>252.16666666666666</ele><time>2026-03-27T16:10:51.323Z</time></trkpt><trkpt lat="45.6726951" lon="9.0697199"><ele>252.33333333333331</ele><time>2026-03-27T16:10:52.322Z</time></trkpt><trkpt lat="45.6726452" lon="9.0698185"><ele>252.5</ele><time>2026-03-27T16:10:53.322Z</time></trkpt><trkpt lat="45.6725804" lon="9.0699076"><ele>252.66666666666666</ele><time>2026-03-27T16:10:54.322Z</time></trkpt><trkpt lat="45.6725425" lon="9.0700041"><ele>252.83333333333331</ele><time>2026-03-27T16:10:55.323Z</time></trkpt><trkpt lat="45.6725433" lon="9.0701217"><ele>253.0</ele><time>2026-03-27T16:10:56.323Z</time></trkpt><trkpt lat="45.6725832" lon="9.0702333"><ele>253.0</ele><time>2026-03-27T16:10:57.323Z</time></trkpt><trkpt lat="45.6726563" lon="9.0703059"><ele>253.0</ele><time>2026-03-27T16:10:58.322Z</time></trkpt><trkpt lat="45.6727476" lon="9.0703118"><ele>253.0</ele><time>2026-03-27T16:10:59.323Z</time></trkpt><trkpt lat="45.672843" lon="9.0702565"><ele>253.0</ele><time>2026-03-27T16:11:00.323Z</time></trkpt><trkpt lat="45.6729529" lon="9.0701832"><ele>253.0</ele><time>2026-03-27T16:11:01.324Z</time></trkpt><trkpt lat="45.6730959" lon="9.0701638"><ele>253.0</ele><time>2026-03-27T16:11:02.322Z</time></trkpt><trkpt lat="45.6732718" lon="9.0701774"><ele>253.0</ele><time>2026-03-27T16:11:03.322Z</time></trkpt><trkpt lat="45.6734668" lon="9.0701825"><ele>253.0</ele><time>2026-03-27T16:11:04.323Z</time></trkpt><trkpt lat="45.6736548" lon="9.070201"><ele>253.66666666666666</ele><time>2026-03-27T16:11:05.322Z</time></trkpt><trkpt lat="45.6738509" lon="9.0702229"><ele>254.33333333333331</ele><time>2026-03-27T16:11:06.324Z</time></trkpt><trkpt lat="45.6740443" lon="9.0702385"><ele>255.0</ele><time>2026-03-27T16:11:07.323Z</time></trkpt><trkpt lat="45.6742431" lon="9.0702414"><ele>255.0</ele><time>2026-03-27T16:11:08.322Z</time></trkpt><trkpt lat="45.6744556" lon="9.0702461"><ele>255.0</ele><time>2026-03-27T16:11:09.323Z</time></trkpt><trkpt lat="45.6746766" lon="9.0702596"><ele>255.0</ele><time>2026-03-27T16:11:10.323Z</time></trkpt><trkpt lat="45.6748773" lon="9.0702842"><ele>255.0</ele><time>2026-03-27T16:11:11.323Z</time></trkpt><trkpt lat="45.6750646" lon="9.0703002"><ele>255.0</ele><time>2026-03-27T16:11:12.323Z</time></trkpt><trkpt lat="45.6752521" lon="9.0703187"><ele>255.0</ele><time>2026-03-27T16:11:13.323Z</time></trkpt><trkpt lat="45.6754335" lon="9.070333"><ele>255.0</ele><time>2026-03-27T16:11:14.324Z</time></trkpt><trkpt lat="45.6756191" lon="9.0703395"><ele>255.0</ele><time>2026-03-27T16:11:15.323Z</time></trkpt><trkpt lat="45.6758087" lon="9.0703507"><ele>255.0</ele><time>2026-03-27T16:11:16.324Z</time></trkpt><trkpt lat="45.6760009" lon="9.0703662"><ele>255.33333333333331</ele><time>2026-03-27T16:11:17.323Z</time></trkpt><trkpt lat="45.6761877" lon="9.0703804"><ele>255.66666666666666</ele><time>2026-03-27T16:11:18.324Z</time></trkpt><trkpt lat="45.6763705" lon="9.0703921"><ele>256.0</ele><time>2026-03-27T16:11:19.322Z</time></trkpt><trkpt lat="45.6765542" lon="9.070405"><ele>256.0</ele><time>2026-03-27T16:11:20.323Z</time></trkpt><trkpt lat="45.6767411" lon="9.0704138"><ele>256.0</ele><time>2026-03-27T16:11:21.323Z</time></trkpt><trkpt lat="45.6769271" lon="9.070424"><ele>256.0</ele><time>2026-03-27T16:11:22.322Z</time></trkpt><trkpt lat="45.6771106" lon="9.07044"><ele>256.0</ele><time>2026-03-27T16:11:23.323Z</time></trkpt><trkpt lat="45.6772974" lon="9.0704646"><ele>256.0</ele><time>2026-03-27T16:11:24.323Z</time></trkpt><trkpt lat="45.6774814" lon="9.0705059"><ele>256.0</ele><time>2026-03-27T16:11:25.323Z</time></trkpt><trkpt lat="45.6776655" lon="9.0705527"><ele>256.3333333333333</ele><time>2026-03-27T16:11:26.323Z</time></trkpt><trkpt lat="45.6778484" lon="9.0706143"><ele>256.6666666666667</ele><time>2026-03-27T16:11:27.322Z</time></trkpt><trkpt lat="45.6780323" lon="9.0706917"><ele>257.0</ele><time>2026-03-27T16:11:28.323Z</time></trkpt><trkpt lat="45.6782144" lon="9.0707834"><ele>257.33333333333337</ele><time>2026-03-27T16:11:29.322Z</time></trkpt><trkpt lat="45.6783857" lon="9.0708894"><ele>257.6666666666667</ele><time>2026-03-27T16:11:30.323Z</time></trkpt><trkpt lat="45.6785573" lon="9.0710177"><ele>258.0</ele><time>2026-03-27T16:11:31.323Z</time></trkpt><trkpt lat="45.6787222" lon="9.0711586"><ele>257.3333333333333</ele><time>2026-03-27T16:11:32.323Z</time></trkpt><trkpt lat="45.6788798" lon="9.0713197"><ele>256.66666666666663</ele><time>2026-03-27T16:11:33.323Z</time></trkpt><trkpt lat="45.6790347" lon="9.0714919"><ele>256.0</ele><time>2026-03-27T16:11:34.323Z</time></trkpt><trkpt lat="45.6791922" lon="9.0716823"><ele>256.0</ele><time>2026-03-27T16:11:35.323Z</time></trkpt><trkpt lat="45.6793447" lon="9.071887"><ele>256.0</ele><time>2026-03-27T16:11:36.322Z</time></trkpt><trkpt lat="45.6794982" lon="9.0721081"><ele>256.0</ele><time>2026-03-27T16:11:37.323Z</time></trkpt><trkpt lat="45.6796586" lon="9.0723469"><ele>258.5</ele><time>2026-03-27T16:11:38.324Z</time></trkpt><trkpt lat="45.6798253" lon="9.0725975"><ele>261.0</ele><time>2026-03-27T16:11:39.323Z</time></trkpt><trkpt lat="45.679993" lon="9.072859"><ele>261.0</ele><time>2026-03-27T16:11:40.323Z</time></trkpt><trkpt lat="45.6801469" lon="9.0730988"><ele>261.0</ele><time>2026-03-27T16:11:41.322Z</time></trkpt><trkpt lat="45.6802739" lon="9.0733019"><ele>261.0</ele><time>2026-03-27T16:11:42.323Z</time></trkpt><trkpt lat="45.6803756" lon="9.0734679"><ele>261.0</ele><time>2026-03-27T16:11:43.322Z</time></trkpt><trkpt lat="45.6804559" lon="9.0736001"><ele>261.0</ele><time>2026-03-27T16:11:44.322Z</time></trkpt><trkpt lat="45.6805275" lon="9.0737117"><ele>261.0</ele><time>2026-03-27T16:11:45.324Z</time></trkpt><trkpt lat="45.6805814" lon="9.0737986"><ele>261.0</ele><time>2026-03-27T16:11:46.323Z</time></trkpt><trkpt lat="45.6806248" lon="9.0738769"><ele>261.0</ele><time>2026-03-27T16:11:47.323Z</time></trkpt><trkpt lat="45.6806662" lon="9.0739466"><ele>261.0</ele><time>2026-03-27T16:11:48.323Z</time></trkpt><trkpt lat="45.6806983" lon="9.0740303"><ele>260.8333333333333</ele><time>2026-03-27T16:11:49.323Z</time></trkpt><trkpt lat="45.6807112" lon="9.074139"><ele>260.6666666666667</ele><time>2026-03-27T16:11:50.323Z</time></trkpt><trkpt lat="45.680716" lon="9.0742627"><ele>260.5</ele><time>2026-03-27T16:11:51.322Z</time></trkpt><trkpt lat="45.6807409" lon="9.074379"><ele>260.33333333333337</ele><time>2026-03-27T16:11:52.323Z</time></trkpt><trkpt lat="45.6808083" lon="9.074459"><ele>260.1666666666667</ele><time>2026-03-27T16:11:53.323Z</time></trkpt><trkpt lat="45.6808895" lon="9.074482"><ele>260.0</ele><time>2026-03-27T16:11:54.324Z</time></trkpt><trkpt lat="45.6809777" lon="9.0744445"><ele>260.0</ele><time>2026-03-27T16:11:55.324Z</time></trkpt><trkpt lat="45.6810516" lon="9.0743494"><ele>260.0</ele><time>2026-03-27T16:11:56.322Z</time></trkpt><trkpt lat="45.6810811" lon="9.0742003"><ele>260.0</ele><time>2026-03-27T16:11:57.324Z</time></trkpt><trkpt lat="45.6811169" lon="9.0740103"><ele>260.0</ele><time>2026-03-27T16:11:58.323Z</time></trkpt><trkpt lat="45.6812003" lon="9.0738168"><ele>261.0</ele><time>2026-03-27T16:11:59.322Z</time></trkpt><trkpt lat="45.6812921" lon="9.0736484"><ele>262.0</ele><time>2026-03-27T16:12:00.322Z</time></trkpt><trkpt lat="45.6813896" lon="9.0734784"><ele>263.0</ele><time>2026-03-27T16:12:01.323Z</time></trkpt><trkpt lat="45.6814984" lon="9.0732975"><ele>263.6666666666667</ele><time>2026-03-27T16:12:02.322Z</time></trkpt><trkpt lat="45.6816227" lon="9.0731197"><ele>264.3333333333333</ele><time>2026-03-27T16:12:03.323Z</time></trkpt><trkpt lat="45.6817446" lon="9.0729427"><ele>265.0</ele><time>2026-03-27T16:12:04.323Z</time></trkpt><trkpt lat="45.6818696" lon="9.0728186"><ele>266.3333333333333</ele><time>2026-03-27T16:12:05.322Z</time></trkpt><trkpt lat="45.6819929" lon="9.0726677"><ele>267.6666666666667</ele><time>2026-03-27T16:12:06.322Z</time></trkpt><trkpt lat="45.6821027" lon="9.072546"><ele>269.0</ele><time>2026-03-27T16:12:07.322Z</time></trkpt><trkpt lat="45.6822198" lon="9.0724117"><ele>269.33333333333337</ele><time>2026-03-27T16:12:08.322Z</time></trkpt><trkpt lat="45.6823383" lon="9.0722812"><ele>269.6666666666667</ele><time>2026-03-27T16:12:09.323Z</time></trkpt><trkpt lat="45.6824599" lon="9.0721408"><ele>270.0</ele><time>2026-03-27T16:12:10.323Z</time></trkpt><trkpt lat="45.6825827" lon="9.0719897"><ele>270.0</ele><time>2026-03-27T16:12:11.322Z</time></trkpt><trkpt lat="45.6826941" lon="9.0718188"><ele>270.0</ele><time>2026-03-27T16:12:12.323Z</time></trkpt><trkpt lat="45.682783" lon="9.0716212"><ele>270.0</ele><time>2026-03-27T16:12:13.322Z</time></trkpt><trkpt lat="45.6828495" lon="9.0714267"><ele>271.0</ele><time>2026-03-27T16:12:14.323Z</time></trkpt><trkpt lat="45.6829001" lon="9.0712184"><ele>272.0</ele><time>2026-03-27T16:12:15.323Z</time></trkpt><trkpt lat="45.6829288" lon="9.0709668"><ele>273.0</ele><time>2026-03-27T16:12:16.323Z</time></trkpt><trkpt lat="45.682947" lon="9.0707337"><ele>273.0</ele><time>2026-03-27T16:12:17.323Z</time></trkpt><trkpt lat="45.6829701" lon="9.0705104"><ele>273.0</ele><time>2026-03-27T16:12:18.323Z</time></trkpt><trkpt lat="45.6830005" lon="9.0702929"><ele>273.0</ele><time>2026-03-27T16:12:19.323Z</time></trkpt><trkpt lat="45.6830496" lon="9.0700802"><ele>273.3333333333333</ele><time>2026-03-27T16:12:20.324Z</time></trkpt><trkpt lat="45.6831193" lon="9.0698595"><ele>273.66666666666663</ele><time>2026-03-27T16:12:21.324Z</time></trkpt><trkpt lat="45.6832055" lon="9.0696466"><ele>274.0</ele><time>2026-03-27T16:12:22.322Z</time></trkpt><trkpt lat="45.6832998" lon="9.0694377"><ele>274.0</ele><time>2026-03-27T16:12:23.323Z</time></trkpt><trkpt lat="45.6833929" lon="9.0692236"><ele>274.0</ele><time>2026-03-27T16:12:24.323Z</time></trkpt><trkpt lat="45.6834859" lon="9.0690206"><ele>274.0</ele><time>2026-03-27T16:12:25.323Z</time></trkpt><trkpt lat="45.6835659" lon="9.0688363"><ele>273.8</ele><time>2026-03-27T16:12:26.323Z</time></trkpt><trkpt lat="45.6836435" lon="9.0686644"><ele>273.59999999999997</ele><time>2026-03-27T16:12:27.323Z</time></trkpt><trkpt lat="45.683695" lon="9.0685521"><ele>273.4</ele><time>2026-03-27T16:12:28.323Z</time></trkpt><trkpt lat="45.6837355" lon="9.0684602"><ele>273.2</ele><time>2026-03-27T16:12:29.324Z</time></trkpt><trkpt lat="45.6838012" lon="9.0683217"><ele>273.0</ele><time>2026-03-27T16:12:31.322Z</time></trkpt><trkpt lat="45.6838561" lon="9.068219"><ele>273.5</ele><time>2026-03-27T16:12:32.323Z</time></trkpt><trkpt lat="45.6839128" lon="9.068088"><ele>274.0</ele><time>2026-03-27T16:12:33.324Z</time></trkpt><trkpt lat="45.683977" lon="9.0679418"><ele>274.5</ele><time>2026-03-27T16:12:34.323Z</time></trkpt><trkpt lat="45.6840454" lon="9.0677809"><ele>275.0</ele><time>2026-03-27T16:12:35.322Z</time></trkpt><trkpt lat="45.6841312" lon="9.0676324"><ele>275.0</ele><time>2026-03-27T16:12:36.323Z</time></trkpt><trkpt lat="45.6842071" lon="9.0674713"><ele>275.0</ele><time>2026-03-27T16:12:37.323Z</time></trkpt><trkpt lat="45.6842808" lon="9.0673006"><ele>275.0</ele><time>2026-03-27T16:12:38.324Z</time></trkpt><trkpt lat="45.6843618" lon="9.0671344"><ele>275.0</ele><time>2026-03-27T16:12:39.323Z</time></trkpt><trkpt lat="45.6844457" lon="9.0669647"><ele>272.6666666666667</ele><time>2026-03-27T16:12:40.324Z</time></trkpt><trkpt lat="45.6845333" lon="9.0667867"><ele>270.3333333333333</ele><time>2026-03-27T16:12:41.322Z</time></trkpt><trkpt lat="45.6846232" lon="9.0665987"><ele>268.0</ele><time>2026-03-27T16:12:42.323Z</time></trkpt><trkpt lat="45.684714" lon="9.0664031"><ele>268.0</ele><time>2026-03-27T16:12:43.324Z</time></trkpt><trkpt lat="45.6848096" lon="9.0662044"><ele>268.0</ele><time>2026-03-27T16:12:44.323Z</time></trkpt><trkpt lat="45.6848999" lon="9.0660035"><ele>268.0</ele><time>2026-03-27T16:12:45.322Z</time></trkpt><trkpt lat="45.6849803" lon="9.0658084"><ele>267.3333333333333</ele><time>2026-03-27T16:12:46.323Z</time></trkpt><trkpt lat="45.6850513" lon="9.0656071"><ele>266.6666666666667</ele><time>2026-03-27T16:12:47.324Z</time></trkpt><trkpt lat="45.6851096" lon="9.0654004"><ele>266.0</ele><time>2026-03-27T16:12:48.323Z</time></trkpt><trkpt lat="45.6851632" lon="9.0651853"><ele>266.0</ele><time>2026-03-27T16:12:49.323Z</time></trkpt><trkpt lat="45.6852016" lon="9.0649574"><ele>266.0</ele><time>2026-03-27T16:12:50.322Z</time></trkpt><trkpt lat="45.6852232" lon="9.0647082"><ele>266.0</ele><time>2026-03-27T16:12:51.323Z</time></trkpt><trkpt lat="45.6852325" lon="9.0644502"><ele>265.6666666666667</ele><time>2026-03-27T16:12:52.323Z</time></trkpt><trkpt lat="45.6852342" lon="9.0641796"><ele>265.3333333333333</ele><time>2026-03-27T16:12:53.322Z</time></trkpt><trkpt lat="45.6852396" lon="9.0639228"><ele>265.0</ele><time>2026-03-27T16:12:54.322Z</time></trkpt><trkpt lat="45.6852825" lon="9.0636874"><ele>265.66666666666663</ele><time>2026-03-27T16:12:55.323Z</time></trkpt><trkpt lat="45.6853598" lon="9.0634963"><ele>266.3333333333333</ele><time>2026-03-27T16:12:56.323Z</time></trkpt><trkpt lat="45.6854755" lon="9.0633372"><ele>267.0</ele><time>2026-03-27T16:12:57.323Z</time></trkpt><trkpt lat="45.6856174" lon="9.0632275"><ele>267.0</ele><time>2026-03-27T16:12:58.322Z</time></trkpt><trkpt lat="45.6857768" lon="9.0631617"><ele>267.0</ele><time>2026-03-27T16:12:59.322Z</time></trkpt><trkpt lat="45.6859547" lon="9.0631063"><ele>267.0</ele><time>2026-03-27T16:13:00.324Z</time></trkpt><trkpt lat="45.6861274" lon="9.0630551"><ele>267.6666666666667</ele><time>2026-03-27T16:13:01.323Z</time></trkpt><trkpt lat="45.6862885" lon="9.0630156"><ele>268.33333333333337</ele><time>2026-03-27T16:13:02.324Z</time></trkpt><trkpt lat="45.6864489" lon="9.0629816"><ele>269.0</ele><time>2026-03-27T16:13:03.324Z</time></trkpt><trkpt lat="45.6866089" lon="9.0629483"><ele>269.0</ele><time>2026-03-27T16:13:04.323Z</time></trkpt><trkpt lat="45.6867549" lon="9.0629184"><ele>269.0</ele><time>2026-03-27T16:13:05.323Z</time></trkpt><trkpt lat="45.6868912" lon="9.062893"><ele>269.0</ele><time>2026-03-27T16:13:06.324Z</time></trkpt><trkpt lat="45.6870191" lon="9.0628676"><ele>269.0</ele><time>2026-03-27T16:13:07.322Z</time></trkpt><trkpt lat="45.6871491" lon="9.0628393"><ele>269.0</ele><time>2026-03-27T16:13:08.323Z</time></trkpt><trkpt lat="45.6872811" lon="9.0627969"><ele>269.0</ele><time>2026-03-27T16:13:09.323Z</time></trkpt><trkpt lat="45.6873942" lon="9.0626594"><ele>269.0</ele><time>2026-03-27T16:13:10.322Z</time></trkpt><trkpt lat="45.6874949" lon="9.0625238"><ele>269.0</ele><time>2026-03-27T16:13:11.323Z</time></trkpt><trkpt lat="45.6875657" lon="9.0623613"><ele>269.0</ele><time>2026-03-27T16:13:12.322Z</time></trkpt><trkpt lat="45.6876356" lon="9.0622012"><ele>269.0</ele><time>2026-03-27T16:13:13.324Z</time></trkpt><trkpt lat="45.6876958" lon="9.0620412"><ele>269.0</ele><time>2026-03-27T16:13:14.323Z</time></trkpt><trkpt lat="45.6877209" lon="9.0618956"><ele>269.0</ele><time>2026-03-27T16:13:15.323Z</time></trkpt><trkpt lat="45.6877931" lon="9.0617529"><ele>269.75</ele><time>2026-03-27T16:13:16.323Z</time></trkpt><trkpt lat="45.6878816" lon="9.0616459"><ele>270.5</ele><time>2026-03-27T16:13:17.324Z</time></trkpt><trkpt lat="45.6879978" lon="9.0615701"><ele>271.25</ele><time>2026-03-27T16:13:18.323Z</time></trkpt><trkpt lat="45.6881265" lon="9.0615227"><ele>272.0</ele><time>2026-03-27T16:13:19.322Z</time></trkpt><trkpt lat="45.6882584" lon="9.0614999"><ele>272.0</ele><time>2026-03-27T16:13:20.323Z</time></trkpt><trkpt lat="45.6884049" lon="9.0614752"><ele>272.0</ele><time>2026-03-27T16:13:21.323Z</time></trkpt><trkpt lat="45.6885661" lon="9.0614501"><ele>272.0</ele><time>2026-03-27T16:13:22.324Z</time></trkpt><trkpt lat="45.6887455" lon="9.0614093"><ele>272.6666666666667</ele><time>2026-03-27T16:13:23.323Z</time></trkpt><trkpt lat="45.6889392" lon="9.0613828"><ele>273.3333333333333</ele><time>2026-03-27T16:13:24.323Z</time></trkpt><trkpt lat="45.6891178" lon="9.0613591"><ele>274.0</ele><time>2026-03-27T16:13:25.324Z</time></trkpt><trkpt lat="45.6892888" lon="9.0613311"><ele>275.0</ele><time>2026-03-27T16:13:26.323Z</time></trkpt><trkpt lat="45.6894429" lon="9.0613134"><ele>276.0</ele><time>2026-03-27T16:13:27.324Z</time></trkpt><trkpt lat="45.689587" lon="9.0612935"><ele>277.0</ele><time>2026-03-27T16:13:28.324Z</time></trkpt><trkpt lat="45.6897272" lon="9.0612712"><ele>278.0</ele><time>2026-03-27T16:13:29.323Z</time></trkpt><trkpt lat="45.6898687" lon="9.0612523"><ele>278.0</ele><time>2026-03-27T16:13:30.322Z</time></trkpt><trkpt lat="45.6900095" lon="9.061234"><ele>278.0</ele><time>2026-03-27T16:13:31.323Z</time></trkpt><trkpt lat="45.6901373" lon="9.0612127"><ele>278.0</ele><time>2026-03-27T16:13:32.323Z</time></trkpt><trkpt lat="45.6902592" lon="9.0611925"><ele>278.0</ele><time>2026-03-27T16:13:33.322Z</time></trkpt><trkpt lat="45.6903716" lon="9.0611754"><ele>277.83333333333337</ele><time>2026-03-27T16:13:34.322Z</time></trkpt><trkpt lat="45.6904733" lon="9.0611608"><ele>277.6666666666667</ele><time>2026-03-27T16:13:35.323Z</time></trkpt><trkpt lat="45.6905697" lon="9.0611525"><ele>277.5</ele><time>2026-03-27T16:13:36.323Z</time></trkpt><trkpt lat="45.6906587" lon="9.0611465"><ele>277.3333333333333</ele><time>2026-03-27T16:13:37.322Z</time></trkpt><trkpt lat="45.6907381" lon="9.0611357"><ele>277.16666666666663</ele><time>2026-03-27T16:13:38.324Z</time></trkpt><trkpt lat="45.6908046" lon="9.0611274"><ele>277.0</ele><time>2026-03-27T16:13:39.323Z</time></trkpt><trkpt lat="45.6908933" lon="9.0611271"><ele>277.0</ele><time>2026-03-27T16:13:41.322Z</time></trkpt><trkpt lat="45.6909618" lon="9.0611672"><ele>277.0</ele><time>2026-03-27T16:13:44.323Z</time></trkpt><trkpt lat="45.6910129" lon="9.0612314"><ele>277.0</ele><time>2026-03-27T16:13:46.321Z</time></trkpt><trkpt lat="45.6910566" lon="9.0613425"><ele>277.0</ele><time>2026-03-27T16:13:48.323Z</time></trkpt><trkpt lat="45.691102" lon="9.0614754"><ele>277.0</ele><time>2026-03-27T16:13:50.322Z</time></trkpt><trkpt lat="45.6911551" lon="9.0616171"><ele>277.0</ele><time>2026-03-27T16:13:52.323Z</time></trkpt><trkpt lat="45.6912068" lon="9.0617565"><ele>277.2</ele><time>2026-03-27T16:13:54.323Z</time></trkpt><trkpt lat="45.6912702" lon="9.0618996"><ele>277.4</ele><time>2026-03-27T16:13:56.322Z</time></trkpt><trkpt lat="45.6913548" lon="9.062078"><ele>277.6</ele><time>2026-03-27T16:13:58.322Z</time></trkpt><trkpt lat="45.6913938" lon="9.062181"><ele>277.8</ele><time>2026-03-27T16:13:59.322Z</time></trkpt><trkpt lat="45.691433" lon="9.0622859"><ele>278.0</ele><time>2026-03-27T16:14:00.322Z</time></trkpt><trkpt lat="45.6914691" lon="9.0623826"><ele>277.83333333333337</ele><time>2026-03-27T16:14:01.323Z</time></trkpt><trkpt lat="45.6915009" lon="9.0624736"><ele>277.6666666666667</ele><time>2026-03-27T16:14:02.322Z</time></trkpt><trkpt lat="45.6915594" lon="9.0626354"><ele>277.5</ele><time>2026-03-27T16:14:04.322Z</time></trkpt><trkpt lat="45.6915899" lon="9.0627315"><ele>277.3333333333333</ele><time>2026-03-27T16:14:05.322Z</time></trkpt><trkpt lat="45.6916235" lon="9.062827"><ele>277.16666666666663</ele><time>2026-03-27T16:14:06.322Z</time></trkpt><trkpt lat="45.6916566" lon="9.0629268"><ele>277.0</ele><time>2026-03-27T16:14:07.322Z</time></trkpt><trkpt lat="45.6916837" lon="9.0630287"><ele>277.0</ele><time>2026-03-27T16:14:08.321Z</time></trkpt><trkpt lat="45.6917089" lon="9.0631197"><ele>277.0</ele><time>2026-03-27T16:14:09.323Z</time></trkpt><trkpt lat="45.6917329" lon="9.0632054"><ele>277.0</ele><time>2026-03-27T16:14:10.323Z</time></trkpt><trkpt lat="45.69176" lon="9.0632948"><ele>277.0</ele><time>2026-03-27T16:14:11.323Z</time></trkpt><trkpt lat="45.6917933" lon="9.0633879"><ele>277.0</ele><time>2026-03-27T16:14:12.321Z</time></trkpt><trkpt lat="45.6918262" lon="9.0634859"><ele>277.0</ele><time>2026-03-27T16:14:13.322Z</time></trkpt><trkpt lat="45.69186" lon="9.0635788"><ele>277.0</ele><time>2026-03-27T16:14:14.323Z</time></trkpt><trkpt lat="45.6918917" lon="9.0636627"><ele>276.8333333333333</ele><time>2026-03-27T16:14:15.323Z</time></trkpt><trkpt lat="45.6919206" lon="9.0637437"><ele>276.66666666666663</ele><time>2026-03-27T16:14:16.322Z</time></trkpt><trkpt lat="45.6919793" lon="9.0639043"><ele>276.5</ele><time>2026-03-27T16:14:18.322Z</time></trkpt><trkpt lat="45.692012" lon="9.0639939"><ele>276.3333333333333</ele><time>2026-03-27T16:14:19.321Z</time></trkpt><trkpt lat="45.6920452" lon="9.0640783"><ele>276.1666666666667</ele><time>2026-03-27T16:14:20.322Z</time></trkpt><trkpt lat="45.6920769" lon="9.0641653"><ele>276.0</ele><time>2026-03-27T16:14:21.323Z</time></trkpt><trkpt lat="45.6921188" lon="9.0642784"><ele>277.0</ele><time>2026-03-27T16:14:22.323Z</time></trkpt><trkpt lat="45.6921547" lon="9.0643809"><ele>278.0</ele><time>2026-03-27T16:14:23.323Z</time></trkpt><trkpt lat="45.6921916" lon="9.0644795"><ele>279.0</ele><time>2026-03-27T16:14:24.322Z</time></trkpt><trkpt lat="45.6922468" lon="9.0646293"><ele>280.0</ele><time>2026-03-27T16:14:26.322Z</time></trkpt><trkpt lat="45.6922915" lon="9.064767"><ele>281.0</ele><time>2026-03-27T16:14:28.322Z</time></trkpt><trkpt lat="45.6923376" lon="9.0649137"><ele>280.5</ele><time>2026-03-27T16:14:30.322Z</time></trkpt><trkpt lat="45.6923842" lon="9.0650569"><ele>280.0</ele><time>2026-03-27T16:14:32.322Z</time></trkpt><trkpt lat="45.6924259" lon="9.0651873"><ele>279.5</ele><time>2026-03-27T16:14:34.322Z</time></trkpt><trkpt lat="45.6924593" lon="9.0652916"><ele>279.0</ele><time>2026-03-27T16:14:36.323Z</time></trkpt><trkpt lat="45.6924906" lon="9.0653718"><ele>278.5</ele><time>2026-03-27T16:14:39.323Z</time></trkpt><trkpt lat="45.6925212" lon="9.0654592"><ele>278.0</ele><time>2026-03-27T16:14:42.323Z</time></trkpt><trkpt lat="45.6925559" lon="9.0655514"><ele>278.0</ele><time>2026-03-27T16:14:46.321Z</time></trkpt><trkpt lat="45.6925872" lon="9.0656516"><ele>278.0</ele><time>2026-03-27T16:14:52.323Z</time></trkpt><trkpt lat="45.6926208" lon="9.0657512"><ele>278.0</ele><time>2026-03-27T16:14:55.322Z</time></trkpt><trkpt lat="45.6926517" lon="9.0658405"><ele>278.0</ele><time>2026-03-27T16:14:57.323Z</time></trkpt><trkpt lat="45.6926796" lon="9.0659277"><ele>278.0</ele><time>2026-03-27T16:15:01.323Z</time></trkpt><trkpt lat="45.6927048" lon="9.0660355"><ele>278.0</ele><time>2026-03-27T16:15:05.323Z</time></trkpt><trkpt lat="45.6927214" lon="9.0661505"><ele>277.83333333333337</ele><time>2026-03-27T16:15:07.323Z</time></trkpt><trkpt lat="45.6926966" lon="9.0663088"><ele>277.6666666666667</ele><time>2026-03-27T16:15:09.323Z</time></trkpt><trkpt lat="45.6926477" lon="9.0663934"><ele>277.5</ele><time>2026-03-27T16:15:10.322Z</time></trkpt><trkpt lat="45.6925862" lon="9.0664447"><ele>277.3333333333333</ele><time>2026-03-27T16:15:11.321Z</time></trkpt><trkpt lat="45.692509" lon="9.0664813"><ele>277.16666666666663</ele><time>2026-03-27T16:15:12.322Z</time></trkpt><trkpt lat="45.6924128" lon="9.066499"><ele>277.0</ele><time>2026-03-27T16:15:13.321Z</time></trkpt><trkpt lat="45.692305" lon="9.0665088"><ele>277.0</ele><time>2026-03-27T16:15:14.321Z</time></trkpt><trkpt lat="45.6921913" lon="9.0665087"><ele>277.0</ele><time>2026-03-27T16:15:15.322Z</time></trkpt><trkpt lat="45.6920702" lon="9.0665167"><ele>277.0</ele><time>2026-03-27T16:15:16.321Z</time></trkpt><trkpt lat="45.6919424" lon="9.0665206"><ele>277.0</ele><time>2026-03-27T16:15:17.321Z</time></trkpt><trkpt lat="45.6918047" lon="9.0665229"><ele>275.66666666666663</ele><time>2026-03-27T16:15:18.322Z</time></trkpt><trkpt lat="45.6916513" lon="9.0665352"><ele>274.3333333333333</ele><time>2026-03-27T16:15:19.323Z</time></trkpt><trkpt lat="45.6914837" lon="9.0665447"><ele>273.0</ele><time>2026-03-27T16:15:20.323Z</time></trkpt><trkpt lat="45.691315" lon="9.0665532"><ele>273.0</ele><time>2026-03-27T16:15:21.321Z</time></trkpt><trkpt lat="45.6911481" lon="9.0665641"><ele>273.0</ele><time>2026-03-27T16:15:22.321Z</time></trkpt><trkpt lat="45.6909717" lon="9.0665711"><ele>273.0</ele><time>2026-03-27T16:15:23.321Z</time></trkpt><trkpt lat="45.6907829" lon="9.0665783"><ele>272.3333333333333</ele><time>2026-03-27T16:15:24.321Z</time></trkpt><trkpt lat="45.6905838" lon="9.0665916"><ele>271.66666666666663</ele><time>2026-03-27T16:15:25.323Z</time></trkpt><trkpt lat="45.6903785" lon="9.0666026"><ele>271.0</ele><time>2026-03-27T16:15:26.322Z</time></trkpt><trkpt lat="45.6901815" lon="9.0666122"><ele>270.66666666666663</ele><time>2026-03-27T16:15:27.322Z</time></trkpt><trkpt lat="45.6899813" lon="9.0666129"><ele>270.3333333333333</ele><time>2026-03-27T16:15:28.321Z</time></trkpt><trkpt lat="45.6897783" lon="9.0666063"><ele>270.0</ele><time>2026-03-27T16:15:29.321Z</time></trkpt><trkpt lat="45.6895638" lon="9.0665935"><ele>269.6666666666667</ele><time>2026-03-27T16:15:30.322Z</time></trkpt><trkpt lat="45.6893401" lon="9.0665773"><ele>269.33333333333337</ele><time>2026-03-27T16:15:31.322Z</time></trkpt><trkpt lat="45.6891236" lon="9.0665547"><ele>269.0</ele><time>2026-03-27T16:15:32.323Z</time></trkpt><trkpt lat="45.6889148" lon="9.0665237"><ele>269.0</ele><time>2026-03-27T16:15:33.322Z</time></trkpt><trkpt lat="45.6886982" lon="9.0664847"><ele>269.0</ele><time>2026-03-27T16:15:34.323Z</time></trkpt><trkpt lat="45.6884831" lon="9.0664308"><ele>269.0</ele><time>2026-03-27T16:15:35.323Z</time></trkpt><trkpt lat="45.6882616" lon="9.0663731"><ele>269.0</ele><time>2026-03-27T16:15:36.322Z</time></trkpt><trkpt lat="45.6880371" lon="9.0663099"><ele>269.0</ele><time>2026-03-27T16:15:37.321Z</time></trkpt><trkpt lat="45.6878135" lon="9.0662336"><ele>269.0</ele><time>2026-03-27T16:15:38.322Z</time></trkpt><trkpt lat="45.6875852" lon="9.066151"><ele>269.0</ele><time>2026-03-27T16:15:39.323Z</time></trkpt><trkpt lat="45.6873552" lon="9.0660645"><ele>269.0</ele><time>2026-03-27T16:15:40.322Z</time></trkpt><trkpt lat="45.6871263" lon="9.0659807"><ele>269.0</ele><time>2026-03-27T16:15:41.323Z</time></trkpt><trkpt lat="45.6868988" lon="9.0659017"><ele>268.0</ele><time>2026-03-27T16:15:42.322Z</time></trkpt><trkpt lat="45.6866763" lon="9.0658251"><ele>267.0</ele><time>2026-03-27T16:15:43.322Z</time></trkpt><trkpt lat="45.686464" lon="9.065751"><ele>266.0</ele><time>2026-03-27T16:15:44.321Z</time></trkpt><trkpt lat="45.6862528" lon="9.0656796"><ele>267.0</ele><time>2026-03-27T16:15:45.322Z</time></trkpt><trkpt lat="45.6860443" lon="9.0656084"><ele>268.0</ele><time>2026-03-27T16:15:46.321Z</time></trkpt><trkpt lat="45.6858409" lon="9.065531"><ele>269.0</ele><time>2026-03-27T16:15:47.321Z</time></trkpt><trkpt lat="45.6856356" lon="9.0654583"><ele>269.0</ele><time>2026-03-27T16:15:48.322Z</time></trkpt><trkpt lat="45.6854335" lon="9.0653847"><ele>269.0</ele><time>2026-03-27T16:15:49.322Z</time></trkpt><trkpt lat="45.6852301" lon="9.0653112"><ele>269.0</ele><time>2026-03-27T16:15:50.322Z</time></trkpt><trkpt lat="45.6850301" lon="9.0652478"><ele>268.0</ele><time>2026-03-27T16:15:51.322Z</time></trkpt><trkpt lat="45.6848279" lon="9.0651838"><ele>267.0</ele><time>2026-03-27T16:15:52.322Z</time></trkpt><trkpt lat="45.6846271" lon="9.0651199"><ele>266.0</ele><time>2026-03-27T16:15:53.321Z</time></trkpt><trkpt lat="45.6844177" lon="9.0650643"><ele>266.0</ele><time>2026-03-27T16:15:54.322Z</time></trkpt><trkpt lat="45.6842126" lon="9.0650121"><ele>266.0</ele><time>2026-03-27T16:15:55.323Z</time></trkpt><trkpt lat="45.6840061" lon="9.0649667"><ele>266.0</ele><time>2026-03-27T16:15:56.322Z</time></trkpt><trkpt lat="45.6838042" lon="9.0649259"><ele>265.33333333333337</ele><time>2026-03-27T16:15:57.321Z</time></trkpt><trkpt lat="45.6835816" lon="9.064903"><ele>264.6666666666667</ele><time>2026-03-27T16:15:58.323Z</time></trkpt><trkpt lat="45.6833644" lon="9.0648841"><ele>264.0</ele><time>2026-03-27T16:15:59.322Z</time></trkpt><trkpt lat="45.6831441" lon="9.0648717"><ele>264.0</ele><time>2026-03-27T16:16:00.322Z</time></trkpt><trkpt lat="45.6829277" lon="9.0648626"><ele>264.0</ele><time>2026-03-27T16:16:01.321Z</time></trkpt><trkpt lat="45.6827083" lon="9.0648639"><ele>264.0</ele><time>2026-03-27T16:16:02.322Z</time></trkpt><trkpt lat="45.6824808" lon="9.0648729"><ele>264.0</ele><time>2026-03-27T16:16:03.321Z</time></trkpt><trkpt lat="45.6822538" lon="9.0648912"><ele>264.0</ele><time>2026-03-27T16:16:04.322Z</time></trkpt><trkpt lat="45.6820232" lon="9.0649138"><ele>264.5</ele><time>2026-03-27T16:16:05.322Z</time></trkpt><trkpt lat="45.6817987" lon="9.0649438"><ele>265.0</ele><time>2026-03-27T16:16:06.322Z</time></trkpt><trkpt lat="45.6815743" lon="9.0649741"><ele>265.66666666666663</ele><time>2026-03-27T16:16:07.322Z</time></trkpt><trkpt lat="45.6813601" lon="9.0650096"><ele>266.3333333333333</ele><time>2026-03-27T16:16:08.323Z</time></trkpt><trkpt lat="45.6811538" lon="9.0650478"><ele>267.0</ele><time>2026-03-27T16:16:09.322Z</time></trkpt><trkpt lat="45.6809566" lon="9.0650826"><ele>267.3333333333333</ele><time>2026-03-27T16:16:10.322Z</time></trkpt><trkpt lat="45.680771" lon="9.0651152"><ele>267.66666666666663</ele><time>2026-03-27T16:16:11.322Z</time></trkpt><trkpt lat="45.6805839" lon="9.0651489"><ele>268.0</ele><time>2026-03-27T16:16:12.321Z</time></trkpt><trkpt lat="45.6804383" lon="9.0651753"><ele>268.0</ele><time>2026-03-27T16:16:13.321Z</time></trkpt><trkpt lat="45.6803065" lon="9.0651949"><ele>268.0</ele><time>2026-03-27T16:16:14.321Z</time></trkpt><trkpt lat="45.6801907" lon="9.0652144"><ele>268.0</ele><time>2026-03-27T16:16:15.322Z</time></trkpt><trkpt lat="45.680084" lon="9.0652358"><ele>268.0</ele><time>2026-03-27T16:16:16.321Z</time></trkpt><trkpt lat="45.6799802" lon="9.0652555"><ele>267.66666666666663</ele><time>2026-03-27T16:16:17.322Z</time></trkpt><trkpt lat="45.6798955" lon="9.0652534"><ele>267.3333333333333</ele><time>2026-03-27T16:16:18.322Z</time></trkpt><trkpt lat="45.6798114" lon="9.0652364"><ele>267.0</ele><time>2026-03-27T16:16:19.322Z</time></trkpt><trkpt lat="45.679736" lon="9.0651891"><ele>266.6666666666667</ele><time>2026-03-27T16:16:20.322Z</time></trkpt><trkpt lat="45.67967" lon="9.0651018"><ele>266.33333333333337</ele><time>2026-03-27T16:16:21.321Z</time></trkpt><trkpt lat="45.6795985" lon="9.0649969"><ele>266.0</ele><time>2026-03-27T16:16:22.321Z</time></trkpt><trkpt lat="45.6795021" lon="9.0649203"><ele>265.8</ele><time>2026-03-27T16:16:23.323Z</time></trkpt><trkpt lat="45.6793923" lon="9.0648836"><ele>265.6</ele><time>2026-03-27T16:16:24.322Z</time></trkpt><trkpt lat="45.6792847" lon="9.0648856"><ele>265.4</ele><time>2026-03-27T16:16:25.322Z</time></trkpt><trkpt lat="45.6791875" lon="9.0649388"><ele>265.2</ele><time>2026-03-27T16:16:26.322Z</time></trkpt><trkpt lat="45.6791054" lon="9.065029"><ele>265.0</ele><time>2026-03-27T16:16:27.322Z</time></trkpt><trkpt lat="45.679045" lon="9.065135"><ele>265.6</ele><time>2026-03-27T16:16:28.322Z</time></trkpt><trkpt lat="45.6789862" lon="9.0652332"><ele>266.2</ele><time>2026-03-27T16:16:29.322Z</time></trkpt><trkpt lat="45.6789067" lon="9.0653098"><ele>266.8</ele><time>2026-03-27T16:16:30.321Z</time></trkpt><trkpt lat="45.6788208" lon="9.0653573"><ele>267.4</ele><time>2026-03-27T16:16:31.322Z</time></trkpt><trkpt lat="45.6787291" lon="9.0653807"><ele>268.0</ele><time>2026-03-27T16:16:32.323Z</time></trkpt><trkpt lat="45.6786254" lon="9.0653617"><ele>267.25</ele><time>2026-03-27T16:16:33.322Z</time></trkpt><trkpt lat="45.6785195" lon="9.0653552"><ele>266.5</ele><time>2026-03-27T16:16:34.322Z</time></trkpt><trkpt lat="45.6783807" lon="9.0653002"><ele>265.75</ele><time>2026-03-27T16:16:35.322Z</time></trkpt><trkpt lat="45.6782104" lon="9.065254"><ele>265.0</ele><time>2026-03-27T16:16:36.322Z</time></trkpt><trkpt lat="45.6780275" lon="9.0651893"><ele>265.0</ele><time>2026-03-27T16:16:37.322Z</time></trkpt><trkpt lat="45.6778454" lon="9.0651193"><ele>265.0</ele><time>2026-03-27T16:16:38.322Z</time></trkpt><trkpt lat="45.6776441" lon="9.0650446"><ele>265.0</ele><time>2026-03-27T16:16:39.322Z</time></trkpt><trkpt lat="45.6774412" lon="9.0649714"><ele>265.3333333333333</ele><time>2026-03-27T16:16:40.322Z</time></trkpt><trkpt lat="45.6772349" lon="9.0648995"><ele>265.6666666666667</ele><time>2026-03-27T16:16:41.323Z</time></trkpt><trkpt lat="45.6770151" lon="9.0648206"><ele>266.0</ele><time>2026-03-27T16:16:42.322Z</time></trkpt><trkpt lat="45.6767954" lon="9.0647454"><ele>263.6666666666667</ele><time>2026-03-27T16:16:43.321Z</time></trkpt><trkpt lat="45.6765796" lon="9.0646723"><ele>261.3333333333333</ele><time>2026-03-27T16:16:44.323Z</time></trkpt><trkpt lat="45.676364" lon="9.0646016"><ele>259.0</ele><time>2026-03-27T16:16:45.321Z</time></trkpt><trkpt lat="45.6761427" lon="9.0645291"><ele>258.66666666666663</ele><time>2026-03-27T16:16:46.322Z</time></trkpt><trkpt lat="45.6759306" lon="9.0644558"><ele>258.3333333333333</ele><time>2026-03-27T16:16:47.323Z</time></trkpt><trkpt lat="45.6757157" lon="9.0643775"><ele>258.0</ele><time>2026-03-27T16:16:48.323Z</time></trkpt><trkpt lat="45.6755017" lon="9.0643"><ele>258.0</ele><time>2026-03-27T16:16:49.321Z</time></trkpt><trkpt lat="45.6752845" lon="9.064219"><ele>258.0</ele><time>2026-03-27T16:16:50.322Z</time></trkpt><trkpt lat="45.6750779" lon="9.0641527"><ele>258.0</ele><time>2026-03-27T16:16:51.322Z</time></trkpt><trkpt lat="45.6748709" lon="9.0640837"><ele>257.3333333333333</ele><time>2026-03-27T16:16:52.322Z</time></trkpt><trkpt lat="45.6746641" lon="9.0640169"><ele>256.66666666666663</ele><time>2026-03-27T16:16:53.322Z</time></trkpt><trkpt lat="45.6744607" lon="9.0639489"><ele>256.0</ele><time>2026-03-27T16:16:54.322Z</time></trkpt><trkpt lat="45.6742703" lon="9.0638831"><ele>255.66666666666666</ele><time>2026-03-27T16:16:55.322Z</time></trkpt><trkpt lat="45.6740967" lon="9.0638193"><ele>255.33333333333331</ele><time>2026-03-27T16:16:56.321Z</time></trkpt><trkpt lat="45.6739419" lon="9.0637641"><ele>255.0</ele><time>2026-03-27T16:16:57.321Z</time></trkpt><trkpt lat="45.6738033" lon="9.063719"><ele>255.0</ele><time>2026-03-27T16:16:58.323Z</time></trkpt><trkpt lat="45.6736794" lon="9.0636765"><ele>255.0</ele><time>2026-03-27T16:16:59.323Z</time></trkpt><trkpt lat="45.6735709" lon="9.0636364"><ele>255.0</ele><time>2026-03-27T16:17:00.322Z</time></trkpt><trkpt lat="45.673465" lon="9.063595"><ele>255.0</ele><time>2026-03-27T16:17:01.322Z</time></trkpt><trkpt lat="45.6733895" lon="9.0635607"><ele>255.0</ele><time>2026-03-27T16:17:02.322Z</time></trkpt><trkpt lat="45.6733201" lon="9.0635138"><ele>254.4</ele><time>2026-03-27T16:17:03.322Z</time></trkpt><trkpt lat="45.6732655" lon="9.063464"><ele>253.8</ele><time>2026-03-27T16:17:04.322Z</time></trkpt><trkpt lat="45.6732083" lon="9.0633353"><ele>253.2</ele><time>2026-03-27T16:17:05.322Z</time></trkpt><trkpt lat="45.6731525" lon="9.0632276"><ele>252.6</ele><time>2026-03-27T16:17:06.322Z</time></trkpt><trkpt lat="45.6730274" lon="9.0631717"><ele>252.0</ele><time>2026-03-27T16:17:07.322Z</time></trkpt><trkpt lat="45.6729059" lon="9.0631628"><ele>252.0</ele><time>2026-03-27T16:17:08.322Z</time></trkpt><trkpt lat="45.6727835" lon="9.0632136"><ele>252.0</ele><time>2026-03-27T16:17:09.322Z</time></trkpt><trkpt lat="45.6726436" lon="9.0632467"><ele>252.0</ele><time>2026-03-27T16:17:10.323Z</time></trkpt><trkpt lat="45.6724787" lon="9.0632287"><ele>252.0</ele><time>2026-03-27T16:17:11.322Z</time></trkpt><trkpt lat="45.6723063" lon="9.0631857"><ele>251.66666666666669</ele><time>2026-03-27T16:17:12.322Z</time></trkpt><trkpt lat="45.6721499" lon="9.0631309"><ele>251.33333333333334</ele><time>2026-03-27T16:17:13.322Z</time></trkpt><trkpt lat="45.6719964" lon="9.063082"><ele>251.0</ele><time>2026-03-27T16:17:14.322Z</time></trkpt><trkpt lat="45.6718404" lon="9.0630353"><ele>251.66666666666669</ele><time>2026-03-27T16:17:15.321Z</time></trkpt><trkpt lat="45.6716742" lon="9.0629856"><ele>252.33333333333331</ele><time>2026-03-27T16:17:16.322Z</time></trkpt><trkpt lat="45.6714933" lon="9.0629362"><ele>253.0</ele><time>2026-03-27T16:17:17.322Z</time></trkpt><trkpt lat="45.6712848" lon="9.0628693"><ele>253.0</ele><time>2026-03-27T16:17:18.32Z</time></trkpt><trkpt lat="45.6710759" lon="9.0627886"><ele>253.0</ele><time>2026-03-27T16:17:19.321Z</time></trkpt><trkpt lat="45.6708657" lon="9.06271"><ele>253.0</ele><time>2026-03-27T16:17:20.321Z</time></trkpt><trkpt lat="45.6706364" lon="9.0626333"><ele>253.0</ele><time>2026-03-27T16:17:21.321Z</time></trkpt><trkpt lat="45.6703941" lon="9.0625492"><ele>253.0</ele><time>2026-03-27T16:17:22.32Z</time></trkpt><trkpt lat="45.6701301" lon="9.0624683"><ele>252.5</ele><time>2026-03-27T16:17:23.32Z</time></trkpt><trkpt lat="45.6698672" lon="9.0623714"><ele>252.0</ele><time>2026-03-27T16:17:24.32Z</time></trkpt><trkpt lat="45.6696153" lon="9.0622725"><ele>251.5</ele><time>2026-03-27T16:17:25.32Z</time></trkpt><trkpt lat="45.6693757" lon="9.0621864"><ele>251.0</ele><time>2026-03-27T16:17:26.321Z</time></trkpt><trkpt lat="45.669138" lon="9.062114"><ele>251.0</ele><time>2026-03-27T16:17:27.322Z</time></trkpt><trkpt lat="45.6689058" lon="9.0620528"><ele>251.0</ele><time>2026-03-27T16:17:28.322Z</time></trkpt><trkpt lat="45.6686709" lon="9.0620041"><ele>250.5</ele><time>2026-03-27T16:17:29.321Z</time></trkpt><trkpt lat="45.6684371" lon="9.061964"><ele>250.0</ele><time>2026-03-27T16:17:30.32Z</time></trkpt><trkpt lat="45.6681997" lon="9.0619343"><ele>250.0</ele><time>2026-03-27T16:17:31.321Z</time></trkpt><trkpt lat="45.6679712" lon="9.0619077"><ele>250.0</ele><time>2026-03-27T16:17:32.32Z</time></trkpt><trkpt lat="45.6677397" lon="9.0618911"><ele>249.0</ele><time>2026-03-27T16:17:33.321Z</time></trkpt><trkpt lat="45.6675108" lon="9.0618834"><ele>248.0</ele><time>2026-03-27T16:17:34.32Z</time></trkpt><trkpt lat="45.6672809" lon="9.0618872"><ele>248.0</ele><time>2026-03-27T16:17:35.321Z</time></trkpt><trkpt lat="45.66705" lon="9.0619089"><ele>248.0</ele><time>2026-03-27T16:17:36.321Z</time></trkpt><trkpt lat="45.6668182" lon="9.0619285"><ele>247.5</ele><time>2026-03-27T16:17:37.321Z</time></trkpt><trkpt lat="45.6665879" lon="9.0619527"><ele>247.0</ele><time>2026-03-27T16:17:38.321Z</time></trkpt><trkpt lat="45.6663612" lon="9.061983"><ele>247.0</ele><time>2026-03-27T16:17:39.321Z</time></trkpt><trkpt lat="45.6661332" lon="9.0620168"><ele>247.0</ele><time>2026-03-27T16:17:40.321Z</time></trkpt><trkpt lat="45.6659042" lon="9.0620536"><ele>244.5</ele><time>2026-03-27T16:17:41.321Z</time></trkpt><trkpt lat="45.6656725" lon="9.062086"><ele>242.0</ele><time>2026-03-27T16:17:42.321Z</time></trkpt><trkpt lat="45.6654375" lon="9.0621222"><ele>242.0</ele><time>2026-03-27T16:17:43.32Z</time></trkpt><trkpt lat="45.6652025" lon="9.0621554"><ele>242.0</ele><time>2026-03-27T16:17:44.321Z</time></trkpt><trkpt lat="45.6649654" lon="9.0621878"><ele>242.0</ele><time>2026-03-27T16:17:45.321Z</time></trkpt><trkpt lat="45.6647257" lon="9.0622186"><ele>242.0</ele><time>2026-03-27T16:17:46.322Z</time></trkpt><trkpt lat="45.6644874" lon="9.0622513"><ele>242.0</ele><time>2026-03-27T16:17:47.321Z</time></trkpt><trkpt lat="45.6642455" lon="9.062284"><ele>242.0</ele><time>2026-03-27T16:17:48.322Z</time></trkpt><trkpt lat="45.6640035" lon="9.0623243"><ele>242.0</ele><time>2026-03-27T16:17:49.322Z</time></trkpt><trkpt lat="45.6637628" lon="9.0623606"><ele>242.0</ele><time>2026-03-27T16:17:50.321Z</time></trkpt><trkpt lat="45.6635285" lon="9.062395"><ele>242.0</ele><time>2026-03-27T16:17:51.321Z</time></trkpt><trkpt lat="45.663295" lon="9.0624222"><ele>242.0</ele><time>2026-03-27T16:17:52.321Z</time></trkpt><trkpt lat="45.6630635" lon="9.0624509"><ele>242.0</ele><time>2026-03-27T16:17:53.32Z</time></trkpt><trkpt lat="45.6628312" lon="9.0624821"><ele>242.0</ele><time>2026-03-27T16:17:54.32Z</time></trkpt><trkpt lat="45.6625954" lon="9.0625109"><ele>242.5</ele><time>2026-03-27T16:17:55.322Z</time></trkpt><trkpt lat="45.6623574" lon="9.0625384"><ele>243.0</ele><time>2026-03-27T16:17:56.322Z</time></trkpt><trkpt lat="45.6621163" lon="9.0625528"><ele>241.0</ele><time>2026-03-27T16:17:57.321Z</time></trkpt><trkpt lat="45.6618788" lon="9.0625536"><ele>239.0</ele><time>2026-03-27T16:17:58.322Z</time></trkpt><trkpt lat="45.6616397" lon="9.0625456"><ele>239.0</ele><time>2026-03-27T16:17:59.322Z</time></trkpt><trkpt lat="45.6614038" lon="9.062529"><ele>239.0</ele><time>2026-03-27T16:18:00.32Z</time></trkpt><trkpt lat="45.6611725" lon="9.0625031"><ele>239.0</ele><time>2026-03-27T16:18:01.321Z</time></trkpt><trkpt lat="45.6609421" lon="9.0624699"><ele>239.0</ele><time>2026-03-27T16:18:02.321Z</time></trkpt><trkpt lat="45.6607152" lon="9.0624304"><ele>238.66666666666669</ele><time>2026-03-27T16:18:03.32Z</time></trkpt><trkpt lat="45.6604936" lon="9.0623841"><ele>238.33333333333331</ele><time>2026-03-27T16:18:04.32Z</time></trkpt><trkpt lat="45.6602745" lon="9.0623291"><ele>238.0</ele><time>2026-03-27T16:18:05.322Z</time></trkpt><trkpt lat="45.6600582" lon="9.0622707"><ele>238.0</ele><time>2026-03-27T16:18:06.321Z</time></trkpt><trkpt lat="45.6598447" lon="9.0622128"><ele>238.0</ele><time>2026-03-27T16:18:07.321Z</time></trkpt><trkpt lat="45.6596401" lon="9.0621547"><ele>238.0</ele><time>2026-03-27T16:18:08.32Z</time></trkpt><trkpt lat="45.6594401" lon="9.0620962"><ele>238.0</ele><time>2026-03-27T16:18:09.322Z</time></trkpt><trkpt lat="45.6592518" lon="9.0620385"><ele>238.0</ele><time>2026-03-27T16:18:10.32Z</time></trkpt><trkpt lat="45.6590686" lon="9.0619855"><ele>238.0</ele><time>2026-03-27T16:18:11.32Z</time></trkpt><trkpt lat="45.6588953" lon="9.0619334"><ele>238.0</ele><time>2026-03-27T16:18:12.322Z</time></trkpt><trkpt lat="45.658735" lon="9.0618904"><ele>238.0</ele><time>2026-03-27T16:18:13.322Z</time></trkpt><trkpt lat="45.6585899" lon="9.0618461"><ele>238.0</ele><time>2026-03-27T16:18:14.321Z</time></trkpt><trkpt lat="45.6584591" lon="9.0618033"><ele>238.0</ele><time>2026-03-27T16:18:15.321Z</time></trkpt><trkpt lat="45.6583404" lon="9.0617574"><ele>237.8</ele><time>2026-03-27T16:18:16.322Z</time></trkpt><trkpt lat="45.6582342" lon="9.0617029"><ele>237.60000000000002</ele><time>2026-03-27T16:18:17.322Z</time></trkpt><trkpt lat="45.6581437" lon="9.0616276"><ele>237.39999999999998</ele><time>2026-03-27T16:18:18.322Z</time></trkpt><trkpt lat="45.6580686" lon="9.0615465"><ele>237.2</ele><time>2026-03-27T16:18:19.321Z</time></trkpt><trkpt lat="45.6580131" lon="9.0614489"><ele>237.0</ele><time>2026-03-27T16:18:20.321Z</time></trkpt><trkpt lat="45.6579685" lon="9.0613251"><ele>237.0</ele><time>2026-03-27T16:18:21.32Z</time></trkpt><trkpt lat="45.6578969" lon="9.0611871"><ele>237.0</ele><time>2026-03-27T16:18:22.32Z</time></trkpt><trkpt lat="45.6577924" lon="9.0610762"><ele>237.0</ele><time>2026-03-27T16:18:23.321Z</time></trkpt><trkpt lat="45.6577163" lon="9.0609259"><ele>237.0</ele><time>2026-03-27T16:18:24.322Z</time></trkpt><trkpt lat="45.6576601" lon="9.0607339"><ele>237.0</ele><time>2026-03-27T16:18:25.321Z</time></trkpt><trkpt lat="45.6576341" lon="9.0604984"><ele>237.0</ele><time>2026-03-27T16:18:26.32Z</time></trkpt><trkpt lat="45.6576228" lon="9.0602632"><ele>237.0</ele><time>2026-03-27T16:18:27.321Z</time></trkpt><trkpt lat="45.6576143" lon="9.0600132"><ele>236.33333333333331</ele><time>2026-03-27T16:18:28.321Z</time></trkpt><trkpt lat="45.6576036" lon="9.0597495"><ele>235.66666666666666</ele><time>2026-03-27T16:18:29.32Z</time></trkpt><trkpt lat="45.6575928" lon="9.0594871"><ele>235.0</ele><time>2026-03-27T16:18:30.32Z</time></trkpt><trkpt lat="45.6575828" lon="9.0592384"><ele>236.0</ele><time>2026-03-27T16:18:31.322Z</time></trkpt><trkpt lat="45.6575727" lon="9.0589919"><ele>237.0</ele><time>2026-03-27T16:18:32.32Z</time></trkpt><trkpt lat="45.6575602" lon="9.0587418"><ele>238.0</ele><time>2026-03-27T16:18:33.322Z</time></trkpt><trkpt lat="45.6575565" lon="9.0584899"><ele>237.66666666666666</ele><time>2026-03-27T16:18:34.321Z</time></trkpt><trkpt lat="45.6575692" lon="9.0582415"><ele>237.33333333333331</ele><time>2026-03-27T16:18:35.321Z</time></trkpt><trkpt lat="45.6575967" lon="9.0580039"><ele>237.0</ele><time>2026-03-27T16:18:36.32Z</time></trkpt><trkpt lat="45.6576202" lon="9.057767"><ele>237.0</ele><time>2026-03-27T16:18:37.321Z</time></trkpt><trkpt lat="45.6576563" lon="9.0575332"><ele>237.0</ele><time>2026-03-27T16:18:38.32Z</time></trkpt><trkpt lat="45.6576949" lon="9.0573014"><ele>237.0</ele><time>2026-03-27T16:18:39.321Z</time></trkpt><trkpt lat="45.6577268" lon="9.057066"><ele>237.0</ele><time>2026-03-27T16:18:40.32Z</time></trkpt><trkpt lat="45.657758" lon="9.0568332"><ele>237.0</ele><time>2026-03-27T16:18:41.32Z</time></trkpt><trkpt lat="45.6577785" lon="9.0565893"><ele>237.0</ele><time>2026-03-27T16:18:42.321Z</time></trkpt><trkpt lat="45.6577864" lon="9.056349"><ele>237.0</ele><time>2026-03-27T16:18:43.321Z</time></trkpt><trkpt lat="45.6577779" lon="9.0561092"><ele>237.0</ele><time>2026-03-27T16:18:44.321Z</time></trkpt><trkpt lat="45.6577513" lon="9.0558653"><ele>237.0</ele><time>2026-03-27T16:18:45.321Z</time></trkpt><trkpt lat="45.6577127" lon="9.0556206"><ele>236.66666666666669</ele><time>2026-03-27T16:18:46.321Z</time></trkpt><trkpt lat="45.6576678" lon="9.0553842"><ele>236.33333333333334</ele><time>2026-03-27T16:18:47.32Z</time></trkpt><trkpt lat="45.657621" lon="9.0551562"><ele>236.0</ele><time>2026-03-27T16:18:48.321Z</time></trkpt><trkpt lat="45.6575771" lon="9.0549363"><ele>237.0</ele><time>2026-03-27T16:18:49.321Z</time></trkpt><trkpt lat="45.6575397" lon="9.0547193"><ele>238.0</ele><time>2026-03-27T16:18:50.321Z</time></trkpt><trkpt lat="45.657516" lon="9.0545024"><ele>239.0</ele><time>2026-03-27T16:18:51.321Z</time></trkpt><trkpt lat="45.6575021" lon="9.0542898"><ele>239.25</ele><time>2026-03-27T16:18:52.321Z</time></trkpt><trkpt lat="45.657496" lon="9.0540886"><ele>239.5</ele><time>2026-03-27T16:18:53.32Z</time></trkpt><trkpt lat="45.6574906" lon="9.0539025"><ele>239.75</ele><time>2026-03-27T16:18:54.321Z</time></trkpt><trkpt lat="45.6574889" lon="9.0537361"><ele>240.0</ele><time>2026-03-27T16:18:55.322Z</time></trkpt><trkpt lat="45.6574854" lon="9.0535826"><ele>240.0</ele><time>2026-03-27T16:18:56.321Z</time></trkpt><trkpt lat="45.6574839" lon="9.0534432"><ele>240.0</ele><time>2026-03-27T16:18:57.322Z</time></trkpt><trkpt lat="45.6574908" lon="9.0533158"><ele>240.0</ele><time>2026-03-27T16:18:58.322Z</time></trkpt><trkpt lat="45.6575111" lon="9.0531882"><ele>240.0</ele><time>2026-03-27T16:18:59.321Z</time></trkpt><trkpt lat="45.6575562" lon="9.0530684"><ele>240.0</ele><time>2026-03-27T16:19:00.321Z</time></trkpt><trkpt lat="45.657618" lon="9.0529586"><ele>239.6</ele><time>2026-03-27T16:19:01.321Z</time></trkpt><trkpt lat="45.6576683" lon="9.052829"><ele>239.2</ele><time>2026-03-27T16:19:02.321Z</time></trkpt><trkpt lat="45.6576848" lon="9.0526892"><ele>238.8</ele><time>2026-03-27T16:19:03.32Z</time></trkpt><trkpt lat="45.6576799" lon="9.0525548"><ele>238.4</ele><time>2026-03-27T16:19:04.321Z</time></trkpt><trkpt lat="45.6576362" lon="9.0524359"><ele>238.0</ele><time>2026-03-27T16:19:05.321Z</time></trkpt><trkpt lat="45.6575624" lon="9.0523509"><ele>238.0</ele><time>2026-03-27T16:19:06.322Z</time></trkpt><trkpt lat="45.6574753" lon="9.0523235"><ele>238.0</ele><time>2026-03-27T16:19:07.321Z</time></trkpt><trkpt lat="45.6573901" lon="9.0523348"><ele>238.0</ele><time>2026-03-27T16:19:08.322Z</time></trkpt><trkpt lat="45.6573101" lon="9.0523819"><ele>238.0</ele><time>2026-03-27T16:19:09.321Z</time></trkpt><trkpt lat="45.6572203" lon="9.0524495"><ele>238.0</ele><time>2026-03-27T16:19:10.321Z</time></trkpt><trkpt lat="45.657126" lon="9.0524766"><ele>238.0</ele><time>2026-03-27T16:19:11.32Z</time></trkpt><trkpt lat="45.657024" lon="9.0524846"><ele>238.0</ele><time>2026-03-27T16:19:12.321Z</time></trkpt><trkpt lat="45.6569001" lon="9.052479"><ele>238.0</ele><time>2026-03-27T16:19:13.322Z</time></trkpt><trkpt lat="45.6567748" lon="9.052469"><ele>238.0</ele><time>2026-03-27T16:19:14.32Z</time></trkpt><trkpt lat="45.6566549" lon="9.0524562"><ele>237.25</ele><time>2026-03-27T16:19:15.32Z</time></trkpt><trkpt lat="45.6565294" lon="9.0524492"><ele>236.5</ele><time>2026-03-27T16:19:16.321Z</time></trkpt><trkpt lat="45.656388" lon="9.052437"><ele>235.75</ele><time>2026-03-27T16:19:17.322Z</time></trkpt><trkpt lat="45.6562334" lon="9.0524238"><ele>235.0</ele><time>2026-03-27T16:19:18.322Z</time></trkpt><trkpt lat="45.6560629" lon="9.0524086"><ele>235.0</ele><time>2026-03-27T16:19:19.321Z</time></trkpt><trkpt lat="45.655898" lon="9.0523865"><ele>235.0</ele><time>2026-03-27T16:19:20.321Z</time></trkpt><trkpt lat="45.6557305" lon="9.0523721"><ele>235.0</ele><time>2026-03-27T16:19:21.321Z</time></trkpt><trkpt lat="45.6555594" lon="9.0523606"><ele>235.0</ele><time>2026-03-27T16:19:22.32Z</time></trkpt><trkpt lat="45.6553921" lon="9.0523457"><ele>235.0</ele><time>2026-03-27T16:19:23.321Z</time></trkpt><trkpt lat="45.6552245" lon="9.05233"><ele>235.0</ele><time>2026-03-27T16:19:24.321Z</time></trkpt><trkpt lat="45.6550588" lon="9.0523104"><ele>235.66666666666666</ele><time>2026-03-27T16:19:25.322Z</time></trkpt><trkpt lat="45.6548897" lon="9.0522926"><ele>236.33333333333331</ele><time>2026-03-27T16:19:26.322Z</time></trkpt><trkpt lat="45.6547235" lon="9.0522771"><ele>237.0</ele><time>2026-03-27T16:19:27.321Z</time></trkpt><trkpt lat="45.654561" lon="9.0522637"><ele>236.66666666666669</ele><time>2026-03-27T16:19:28.321Z</time></trkpt><trkpt lat="45.6543998" lon="9.0522506"><ele>236.33333333333334</ele><time>2026-03-27T16:19:29.321Z</time></trkpt><trkpt lat="45.65424" lon="9.0522386"><ele>236.0</ele><time>2026-03-27T16:19:30.321Z</time></trkpt><trkpt lat="45.6540856" lon="9.0522226"><ele>236.0</ele><time>2026-03-27T16:19:31.32Z</time></trkpt><trkpt lat="45.653939" lon="9.0522092"><ele>236.0</ele><time>2026-03-27T16:19:32.321Z</time></trkpt><trkpt lat="45.6538016" lon="9.0522018"><ele>236.0</ele><time>2026-03-27T16:19:33.32Z</time></trkpt><trkpt lat="45.6536783" lon="9.052198"><ele>236.0</ele><time>2026-03-27T16:19:34.32Z</time></trkpt><trkpt lat="45.6535634" lon="9.0522018"><ele>235.60000000000002</ele><time>2026-03-27T16:19:35.32Z</time></trkpt><trkpt lat="45.6534637" lon="9.0522111"><ele>235.20000000000002</ele><time>2026-03-27T16:19:36.321Z</time></trkpt><trkpt lat="45.6533713" lon="9.0522138"><ele>234.79999999999998</ele><time>2026-03-27T16:19:37.322Z</time></trkpt><trkpt lat="45.6532749" lon="9.0522243"><ele>234.39999999999998</ele><time>2026-03-27T16:19:38.322Z</time></trkpt><trkpt lat="45.653161" lon="9.0522505"><ele>234.0</ele><time>2026-03-27T16:19:39.321Z</time></trkpt><trkpt lat="45.6530379" lon="9.0522804"><ele>234.0</ele><time>2026-03-27T16:19:40.32Z</time></trkpt><trkpt lat="45.6529016" lon="9.0523174"><ele>234.0</ele><time>2026-03-27T16:19:41.321Z</time></trkpt><trkpt lat="45.6527556" lon="9.0523591"><ele>234.0</ele><time>2026-03-27T16:19:42.321Z</time></trkpt><trkpt lat="45.6526155" lon="9.0524041"><ele>234.0</ele><time>2026-03-27T16:19:43.321Z</time></trkpt><trkpt lat="45.6524813" lon="9.0524534"><ele>233.75</ele><time>2026-03-27T16:19:44.321Z</time></trkpt><trkpt lat="45.6523564" lon="9.0524936"><ele>233.5</ele><time>2026-03-27T16:19:45.321Z</time></trkpt><trkpt lat="45.6522346" lon="9.0525296"><ele>233.25</ele><time>2026-03-27T16:19:46.322Z</time></trkpt><trkpt lat="45.652109" lon="9.0525497"><ele>233.0</ele><time>2026-03-27T16:19:47.321Z</time></trkpt><trkpt lat="45.6520308" lon="9.0525356"><ele>233.2</ele><time>2026-03-27T16:19:48.32Z</time></trkpt><trkpt lat="45.6519717" lon="9.0524439"><ele>233.4</ele><time>2026-03-27T16:19:49.321Z</time></trkpt><trkpt lat="45.6518902" lon="9.0523863"><ele>233.59999999999997</ele><time>2026-03-27T16:19:50.321Z</time></trkpt><trkpt lat="45.6517955" lon="9.0523751"><ele>233.79999999999998</ele><time>2026-03-27T16:19:51.321Z</time></trkpt><trkpt lat="45.6516991" lon="9.0523986"><ele>234.0</ele><time>2026-03-27T16:19:52.321Z</time></trkpt><trkpt lat="45.6515911" lon="9.0524285"><ele>234.0</ele><time>2026-03-27T16:19:53.321Z</time></trkpt><trkpt lat="45.6514678" lon="9.0524378"><ele>234.0</ele><time>2026-03-27T16:19:54.321Z</time></trkpt><trkpt lat="45.6513259" lon="9.0524343"><ele>234.0</ele><time>2026-03-27T16:19:55.321Z</time></trkpt><trkpt lat="45.6511848" lon="9.0524299"><ele>234.0</ele><time>2026-03-27T16:19:56.322Z</time></trkpt><trkpt lat="45.6510346" lon="9.0524259"><ele>233.33333333333331</ele><time>2026-03-27T16:19:57.32Z</time></trkpt><trkpt lat="45.6508758" lon="9.0524144"><ele>232.66666666666666</ele><time>2026-03-27T16:19:58.321Z</time></trkpt><trkpt lat="45.6507092" lon="9.0524022"><ele>232.0</ele><time>2026-03-27T16:19:59.321Z</time></trkpt><trkpt lat="45.6505453" lon="9.0523901"><ele>232.0</ele><time>2026-03-27T16:20:00.321Z</time></trkpt><trkpt lat="45.6503882" lon="9.0523826"><ele>232.0</ele><time>2026-03-27T16:20:01.32Z</time></trkpt><trkpt lat="45.6502354" lon="9.052372"><ele>232.0</ele><time>2026-03-27T16:20:02.321Z</time></trkpt><trkpt lat="45.6500804" lon="9.052364"><ele>231.0</ele><time>2026-03-27T16:20:03.321Z</time></trkpt><trkpt lat="45.6499325" lon="9.0523563"><ele>230.0</ele><time>2026-03-27T16:20:04.321Z</time></trkpt><trkpt lat="45.6497846" lon="9.052352"><ele>229.0</ele><time>2026-03-27T16:20:05.321Z</time></trkpt><trkpt lat="45.6496428" lon="9.0523436"><ele>228.0</ele><time>2026-03-27T16:20:06.32Z</time></trkpt><trkpt lat="45.6494987" lon="9.0523298"><ele>228.25</ele><time>2026-03-27T16:20:07.32Z</time></trkpt><trkpt lat="45.6493533" lon="9.0523206"><ele>228.5</ele><time>2026-03-27T16:20:08.322Z</time></trkpt><trkpt lat="45.6492119" lon="9.0523086"><ele>228.75</ele><time>2026-03-27T16:20:09.321Z</time></trkpt><trkpt lat="45.6490714" lon="9.0523063"><ele>229.0</ele><time>2026-03-27T16:20:10.321Z</time></trkpt><trkpt lat="45.6489411" lon="9.0523026"><ele>229.0</ele><time>2026-03-27T16:20:11.321Z</time></trkpt><trkpt lat="45.6488123" lon="9.0522966"><ele>229.0</ele><time>2026-03-27T16:20:12.322Z</time></trkpt><trkpt lat="45.6486917" lon="9.0522806"><ele>229.0</ele><time>2026-03-27T16:20:13.321Z</time></trkpt><trkpt lat="45.6485822" lon="9.0522582"><ele>229.0</ele><time>2026-03-27T16:20:14.322Z</time></trkpt><trkpt lat="45.6484834" lon="9.0522331"><ele>229.16666666666666</ele><time>2026-03-27T16:20:15.321Z</time></trkpt><trkpt lat="45.6483942" lon="9.0522006"><ele>229.33333333333331</ele><time>2026-03-27T16:20:16.321Z</time></trkpt><trkpt lat="45.6483194" lon="9.05217"><ele>229.5</ele><time>2026-03-27T16:20:17.321Z</time></trkpt><trkpt lat="45.6482527" lon="9.0521448"><ele>229.66666666666669</ele><time>2026-03-27T16:20:18.321Z</time></trkpt><trkpt lat="45.6481518" lon="9.0520918"><ele>229.83333333333334</ele><time>2026-03-27T16:20:20.32Z</time></trkpt><trkpt lat="45.6480746" lon="9.0520134"><ele>230.0</ele><time>2026-03-27T16:20:22.32Z</time></trkpt><trkpt lat="45.6479889" lon="9.0518774"><ele>230.0</ele><time>2026-03-27T16:20:24.321Z</time></trkpt><trkpt lat="45.6479435" lon="9.0517855"><ele>230.0</ele><time>2026-03-27T16:20:25.321Z</time></trkpt><trkpt lat="45.6478729" lon="9.0517144"><ele>230.0</ele><time>2026-03-27T16:20:26.321Z</time></trkpt><trkpt lat="45.6477808" lon="9.0516596"><ele>230.0</ele><time>2026-03-27T16:20:27.321Z</time></trkpt><trkpt lat="45.6476886" lon="9.0516163"><ele>230.0</ele><time>2026-03-27T16:20:28.321Z</time></trkpt><trkpt lat="45.6476037" lon="9.051572"><ele>229.83333333333334</ele><time>2026-03-27T16:20:29.321Z</time></trkpt><trkpt lat="45.6475161" lon="9.0515196"><ele>229.66666666666669</ele><time>2026-03-27T16:20:30.321Z</time></trkpt><trkpt lat="45.647437" lon="9.0514663"><ele>229.5</ele><time>2026-03-27T16:20:31.321Z</time></trkpt><trkpt lat="45.6473627" lon="9.0514176"><ele>229.33333333333331</ele><time>2026-03-27T16:20:32.321Z</time></trkpt><trkpt lat="45.647295" lon="9.0513552"><ele>229.16666666666666</ele><time>2026-03-27T16:20:33.321Z</time></trkpt><trkpt lat="45.6472273" lon="9.0512783"><ele>229.0</ele><time>2026-03-27T16:20:34.32Z</time></trkpt><trkpt lat="45.647157" lon="9.0512157"><ele>229.0</ele><time>2026-03-27T16:20:35.32Z</time></trkpt><trkpt lat="45.6470742" lon="9.0511714"><ele>228.99999999999997</ele><time>2026-03-27T16:20:36.321Z</time></trkpt><trkpt lat="45.646985" lon="9.0511462"><ele>228.99999999999997</ele><time>2026-03-27T16:20:37.321Z</time></trkpt><trkpt lat="45.6468903" lon="9.0511175"><ele>229.0</ele><time>2026-03-27T16:20:38.321Z</time></trkpt><trkpt lat="45.6467918" lon="9.0510645"><ele>229.0</ele><time>2026-03-27T16:20:39.321Z</time></trkpt><trkpt lat="45.6466958" lon="9.0510058"><ele>229.25</ele><time>2026-03-27T16:20:40.321Z</time></trkpt><trkpt lat="45.6466034" lon="9.0509413"><ele>229.5</ele><time>2026-03-27T16:20:41.322Z</time></trkpt><trkpt lat="45.6465071" lon="9.0508703"><ele>229.75</ele><time>2026-03-27T16:20:42.321Z</time></trkpt><trkpt lat="45.6464019" lon="9.0507879"><ele>230.0</ele><time>2026-03-27T16:20:43.321Z</time></trkpt><trkpt lat="45.6462834" lon="9.0506837"><ele>230.0</ele><time>2026-03-27T16:20:44.321Z</time></trkpt><trkpt lat="45.6461699" lon="9.0505906"><ele>230.0</ele><time>2026-03-27T16:20:45.321Z</time></trkpt><trkpt lat="45.6460642" lon="9.0504994"><ele>230.0</ele><time>2026-03-27T16:20:46.32Z</time></trkpt><trkpt lat="45.6459577" lon="9.0504126"><ele>230.0</ele><time>2026-03-27T16:20:47.321Z</time></trkpt><trkpt lat="45.645849" lon="9.0503186"><ele>230.0</ele><time>2026-03-27T16:20:48.321Z</time></trkpt><trkpt lat="45.6457395" lon="9.050223"><ele>230.0</ele><time>2026-03-27T16:20:49.321Z</time></trkpt><trkpt lat="45.6456285" lon="9.0501278"><ele>230.0</ele><time>2026-03-27T16:20:50.321Z</time></trkpt><trkpt lat="45.6455152" lon="9.0500362"><ele>230.0</ele><time>2026-03-27T16:20:51.322Z</time></trkpt><trkpt lat="45.6454044" lon="9.0499387"><ele>229.25</ele><time>2026-03-27T16:20:52.321Z</time></trkpt><trkpt lat="45.645289" lon="9.049843"><ele>228.5</ele><time>2026-03-27T16:20:53.321Z</time></trkpt><trkpt lat="45.645171" lon="9.0497407"><ele>227.75</ele><time>2026-03-27T16:20:54.322Z</time></trkpt><trkpt lat="45.6450444" lon="9.0496288"><ele>227.0</ele><time>2026-03-27T16:20:55.32Z</time></trkpt><trkpt lat="45.6449168" lon="9.0495183"><ele>227.0</ele><time>2026-03-27T16:20:56.321Z</time></trkpt><trkpt lat="45.644797" lon="9.0494138"><ele>227.0</ele><time>2026-03-27T16:20:57.32Z</time></trkpt><trkpt lat="45.6446809" lon="9.0493201"><ele>227.0</ele><time>2026-03-27T16:20:58.321Z</time></trkpt><trkpt lat="45.6445691" lon="9.0492206"><ele>227.0</ele><time>2026-03-27T16:20:59.321Z</time></trkpt><trkpt lat="45.6444545" lon="9.0491178"><ele>227.0</ele><time>2026-03-27T16:21:00.321Z</time></trkpt><trkpt lat="45.6443382" lon="9.0490189"><ele>227.0</ele><time>2026-03-27T16:21:01.32Z</time></trkpt><trkpt lat="45.644223" lon="9.0489219"><ele>227.0</ele><time>2026-03-27T16:21:02.321Z</time></trkpt><trkpt lat="45.644106" lon="9.0488213"><ele>227.0</ele><time>2026-03-27T16:21:03.322Z</time></trkpt><trkpt lat="45.6439878" lon="9.0487218"><ele>227.0</ele><time>2026-03-27T16:21:04.321Z</time></trkpt><trkpt lat="45.6438706" lon="9.048619"><ele>227.0</ele><time>2026-03-27T16:21:05.321Z</time></trkpt><trkpt lat="45.6437526" lon="9.0485192"><ele>227.0</ele><time>2026-03-27T16:21:06.321Z</time></trkpt><trkpt lat="45.6436364" lon="9.0484136"><ele>227.0</ele><time>2026-03-27T16:21:07.32Z</time></trkpt><trkpt lat="45.6435227" lon="9.0483145"><ele>228.0</ele><time>2026-03-27T16:21:08.321Z</time></trkpt><trkpt lat="45.6434148" lon="9.0482179"><ele>229.0</ele><time>2026-03-27T16:21:09.321Z</time></trkpt><trkpt lat="45.6433127" lon="9.0481291"><ele>230.0</ele><time>2026-03-27T16:21:10.321Z</time></trkpt><trkpt lat="45.6432148" lon="9.0480473"><ele>231.0</ele><time>2026-03-27T16:21:11.322Z</time></trkpt><trkpt lat="45.6431187" lon="9.0479722"><ele>231.0</ele><time>2026-03-27T16:21:12.321Z</time></trkpt><trkpt lat="45.643028" lon="9.0479044"><ele>231.0</ele><time>2026-03-27T16:21:13.321Z</time></trkpt><trkpt lat="45.6429477" lon="9.0478501"><ele>231.0</ele><time>2026-03-27T16:21:14.321Z</time></trkpt><trkpt lat="45.6428721" lon="9.0478031"><ele>231.0</ele><time>2026-03-27T16:21:15.322Z</time></trkpt><trkpt lat="45.6427953" lon="9.0477579"><ele>231.0</ele><time>2026-03-27T16:21:16.321Z</time></trkpt><trkpt lat="45.6427196" lon="9.0477103"><ele>231.0</ele><time>2026-03-27T16:21:17.321Z</time></trkpt><trkpt lat="45.6426342" lon="9.0476616"><ele>230.20000000000002</ele><time>2026-03-27T16:21:18.321Z</time></trkpt><trkpt lat="45.6425373" lon="9.0476122"><ele>229.40000000000003</ele><time>2026-03-27T16:21:19.321Z</time></trkpt><trkpt lat="45.642439" lon="9.047566"><ele>228.6</ele><time>2026-03-27T16:21:20.321Z</time></trkpt><trkpt lat="45.642335" lon="9.047524"><ele>227.8</ele><time>2026-03-27T16:21:21.32Z</time></trkpt><trkpt lat="45.6422338" lon="9.0474872"><ele>227.0</ele><time>2026-03-27T16:21:22.321Z</time></trkpt><trkpt lat="45.6421284" lon="9.0474492"><ele>227.0</ele><time>2026-03-27T16:21:23.32Z</time></trkpt><trkpt lat="45.6420237" lon="9.0474172"><ele>227.0</ele><time>2026-03-27T16:21:24.32Z</time></trkpt><trkpt lat="45.6419189" lon="9.0473934"><ele>227.0</ele><time>2026-03-27T16:21:25.321Z</time></trkpt><trkpt lat="45.6418123" lon="9.0473736"><ele>227.0</ele><time>2026-03-27T16:21:26.319Z</time></trkpt><trkpt lat="45.6417052" lon="9.0473559"><ele>227.0</ele><time>2026-03-27T16:21:27.319Z</time></trkpt><trkpt lat="45.6415971" lon="9.0473424"><ele>226.8</ele><time>2026-03-27T16:21:28.321Z</time></trkpt><trkpt lat="45.6414876" lon="9.0473242"><ele>226.6</ele><time>2026-03-27T16:21:29.321Z</time></trkpt><trkpt lat="45.6413764" lon="9.0473034"><ele>226.40000000000003</ele><time>2026-03-27T16:21:30.32Z</time></trkpt><trkpt lat="45.6412657" lon="9.0472883"><ele>226.20000000000002</ele><time>2026-03-27T16:21:31.32Z</time></trkpt><trkpt lat="45.6411551" lon="9.0472728"><ele>226.0</ele><time>2026-03-27T16:21:32.321Z</time></trkpt><trkpt lat="45.6410407" lon="9.0472591"><ele>225.75</ele><time>2026-03-27T16:21:33.321Z</time></trkpt><trkpt lat="45.6409239" lon="9.0472429"><ele>225.5</ele><time>2026-03-27T16:21:34.319Z</time></trkpt><trkpt lat="45.6408108" lon="9.0472273"><ele>225.25</ele><time>2026-03-27T16:21:35.32Z</time></trkpt><trkpt lat="45.6406961" lon="9.0472087"><ele>225.0</ele><time>2026-03-27T16:21:36.321Z</time></trkpt><trkpt lat="45.6405807" lon="9.0471873"><ele>225.0</ele><time>2026-03-27T16:21:37.32Z</time></trkpt><trkpt lat="45.640465" lon="9.0471728"><ele>225.0</ele><time>2026-03-27T16:21:38.32Z</time></trkpt><trkpt lat="45.6403456" lon="9.0471556"><ele>225.0</ele><time>2026-03-27T16:21:39.321Z</time></trkpt><trkpt lat="45.6402262" lon="9.0471387"><ele>225.0</ele><time>2026-03-27T16:21:40.32Z</time></trkpt><trkpt lat="45.6401123" lon="9.047126"><ele>224.8</ele><time>2026-03-27T16:21:41.32Z</time></trkpt><trkpt lat="45.640006" lon="9.0471187"><ele>224.6</ele><time>2026-03-27T16:21:42.32Z</time></trkpt><trkpt lat="45.6399066" lon="9.0471071"><ele>224.39999999999998</ele><time>2026-03-27T16:21:43.32Z</time></trkpt><trkpt lat="45.6398117" lon="9.0470974"><ele>224.2</ele><time>2026-03-27T16:21:44.321Z</time></trkpt><trkpt lat="45.6397166" lon="9.0470945"><ele>224.0</ele><time>2026-03-27T16:21:45.319Z</time></trkpt><trkpt lat="45.6396233" lon="9.0470893"><ele>224.00000000000003</ele><time>2026-03-27T16:21:46.32Z</time></trkpt><trkpt lat="45.6395315" lon="9.0470846"><ele>224.0</ele><time>2026-03-27T16:21:47.32Z</time></trkpt><trkpt lat="45.639443" lon="9.0470748"><ele>224.0</ele><time>2026-03-27T16:21:48.319Z</time></trkpt><trkpt lat="45.6393661" lon="9.0470615"><ele>224.0</ele><time>2026-03-27T16:21:49.319Z</time></trkpt><trkpt lat="45.6392987" lon="9.0470495"><ele>224.00000000000003</ele><time>2026-03-27T16:21:50.319Z</time></trkpt><trkpt lat="45.6391907" lon="9.0470325"><ele>224.0</ele><time>2026-03-27T16:21:52.321Z</time></trkpt><trkpt lat="45.6390976" lon="9.0470265"><ele>224.0</ele><time>2026-03-27T16:21:54.32Z</time></trkpt><trkpt lat="45.6390104" lon="9.0470221"><ele>223.99999999999997</ele><time>2026-03-27T16:21:56.319Z</time></trkpt><trkpt lat="45.6389137" lon="9.0470123"><ele>223.99999999999997</ele><time>2026-03-27T16:21:58.32Z</time></trkpt><trkpt lat="45.6388002" lon="9.0470027"><ele>224.0</ele><time>2026-03-27T16:22:00.319Z</time></trkpt><trkpt lat="45.6387336" lon="9.0469936"><ele>224.0</ele><time>2026-03-27T16:22:01.32Z</time></trkpt><trkpt lat="45.6386144" lon="9.0469752"><ele>224.00000000000003</ele><time>2026-03-27T16:22:03.32Z</time></trkpt><trkpt lat="45.6385079" lon="9.0469581"><ele>224.0</ele><time>2026-03-27T16:22:05.319Z</time></trkpt><trkpt lat="45.6384013" lon="9.0469462"><ele>224.0</ele><time>2026-03-27T16:22:07.32Z</time></trkpt><trkpt lat="45.6383087" lon="9.046935"><ele>224.0</ele><time>2026-03-27T16:22:09.32Z</time></trkpt><trkpt lat="45.6382464" lon="9.0469016"><ele>224.00000000000003</ele><time>2026-03-27T16:22:18.319Z</time></trkpt><trkpt lat="45.6382027" lon="9.0468258"><ele>224.0</ele><time>2026-03-27T16:22:20.32Z</time></trkpt><trkpt lat="45.6380748" lon="9.0467868"><ele>224.0</ele><time>2026-03-27T16:22:21.32Z</time></trkpt><trkpt lat="45.6379478" lon="9.0468019"><ele>223.99999999999997</ele><time>2026-03-27T16:22:22.321Z</time></trkpt><trkpt lat="45.6378575" lon="9.0467737"><ele>223.99999999999997</ele><time>2026-03-27T16:22:23.321Z</time></trkpt><trkpt lat="45.6377698" lon="9.0467537"><ele>224.0</ele><time>2026-03-27T16:22:24.32Z</time></trkpt><trkpt lat="45.6376762" lon="9.0467446"><ele>224.0</ele><time>2026-03-27T16:22:25.321Z</time></trkpt><trkpt lat="45.6375886" lon="9.0467401"><ele>224.2</ele><time>2026-03-27T16:22:26.321Z</time></trkpt><trkpt lat="45.6374914" lon="9.0467338"><ele>224.39999999999998</ele><time>2026-03-27T16:22:27.319Z</time></trkpt><trkpt lat="45.6373946" lon="9.0467276"><ele>224.6</ele><time>2026-03-27T16:22:28.32Z</time></trkpt><trkpt lat="45.6372904" lon="9.0467217"><ele>224.8</ele><time>2026-03-27T16:22:29.32Z</time></trkpt><trkpt lat="45.6371834" lon="9.0467103"><ele>225.0</ele><time>2026-03-27T16:22:30.319Z</time></trkpt><trkpt lat="45.6370763" lon="9.0466948"><ele>224.5</ele><time>2026-03-27T16:22:31.32Z</time></trkpt><trkpt lat="45.6369547" lon="9.0466775"><ele>224.0</ele><time>2026-03-27T16:22:32.32Z</time></trkpt><trkpt lat="45.6368422" lon="9.0466588"><ele>223.5</ele><time>2026-03-27T16:22:33.32Z</time></trkpt><trkpt lat="45.6367343" lon="9.0466621"><ele>223.0</ele><time>2026-03-27T16:22:34.319Z</time></trkpt><trkpt lat="45.6366258" lon="9.0466687"><ele>223.0</ele><time>2026-03-27T16:22:35.32Z</time></trkpt><trkpt lat="45.6365168" lon="9.0466648"><ele>223.0</ele><time>2026-03-27T16:22:36.321Z</time></trkpt><trkpt lat="45.6364154" lon="9.0466547"><ele>223.0</ele><time>2026-03-27T16:22:37.32Z</time></trkpt><trkpt lat="45.6363109" lon="9.0466503"><ele>223.0</ele><time>2026-03-27T16:22:38.32Z</time></trkpt><trkpt lat="45.6362085" lon="9.0466422"><ele>223.0</ele><time>2026-03-27T16:22:39.321Z</time></trkpt><trkpt lat="45.6361044" lon="9.0466304"><ele>222.60000000000002</ele><time>2026-03-27T16:22:40.319Z</time></trkpt><trkpt lat="45.6359989" lon="9.0466199"><ele>222.20000000000002</ele><time>2026-03-27T16:22:41.319Z</time></trkpt><trkpt lat="45.6359007" lon="9.0466079"><ele>221.8</ele><time>2026-03-27T16:22:42.32Z</time></trkpt><trkpt lat="45.6358058" lon="9.046605"><ele>221.4</ele><time>2026-03-27T16:22:43.32Z</time></trkpt><trkpt lat="45.6356995" lon="9.0465966"><ele>221.0</ele><time>2026-03-27T16:22:44.32Z</time></trkpt><trkpt lat="45.6355999" lon="9.0465831"><ele>221.0</ele><time>2026-03-27T16:22:45.319Z</time></trkpt><trkpt lat="45.63547" lon="9.0465697"><ele>221.0</ele><time>2026-03-27T16:22:46.32Z</time></trkpt><trkpt lat="45.6353543" lon="9.0465695"><ele>221.0</ele><time>2026-03-27T16:22:47.321Z</time></trkpt><trkpt lat="45.635243" lon="9.0465615"><ele>221.0</ele><time>2026-03-27T16:22:48.321Z</time></trkpt><trkpt lat="45.6351377" lon="9.0465568"><ele>221.00000000000003</ele><time>2026-03-27T16:22:49.319Z</time></trkpt><trkpt lat="45.6350451" lon="9.0465519"><ele>221.0</ele><time>2026-03-27T16:22:50.319Z</time></trkpt><trkpt lat="45.6349648" lon="9.0465529"><ele>221.0</ele><time>2026-03-27T16:22:51.32Z</time></trkpt><trkpt lat="45.634896" lon="9.046553"><ele>221.0</ele><time>2026-03-27T16:22:52.32Z</time></trkpt><trkpt lat="45.6348287" lon="9.0465376"><ele>221.00000000000003</ele><time>2026-03-27T16:22:53.321Z</time></trkpt><trkpt lat="45.63477" lon="9.0464715"><ele>221.0</ele><time>2026-03-27T16:22:54.321Z</time></trkpt><trkpt lat="45.6347384" lon="9.0463721"><ele>221.0</ele><time>2026-03-27T16:22:55.32Z</time></trkpt><trkpt lat="45.6347109" lon="9.0462757"><ele>221.00000000000003</ele><time>2026-03-27T16:22:56.32Z</time></trkpt><trkpt lat="45.6346732" lon="9.0462031"><ele>221.00000000000003</ele><time>2026-03-27T16:22:57.32Z</time></trkpt><trkpt lat="45.6345943" lon="9.0460942"><ele>221.0</ele><time>2026-03-27T16:22:59.319Z</time></trkpt><trkpt lat="45.6345119" lon="9.0459932"><ele>221.0</ele><time>2026-03-27T16:23:01.32Z</time></trkpt><trkpt lat="45.6344143" lon="9.0458865"><ele>221.00000000000003</ele><time>2026-03-27T16:23:03.32Z</time></trkpt><trkpt lat="45.6343612" lon="9.0458297"><ele>221.0</ele><time>2026-03-27T16:23:04.321Z</time></trkpt><trkpt lat="45.6343092" lon="9.0457676"><ele>221.0</ele><time>2026-03-27T16:23:05.32Z</time></trkpt><trkpt lat="45.6342518" lon="9.0457039"><ele>221.0</ele><time>2026-03-27T16:23:06.32Z</time></trkpt><trkpt lat="45.6341927" lon="9.045634"><ele>221.0</ele><time>2026-03-27T16:23:07.319Z</time></trkpt><trkpt lat="45.6341345" lon="9.0455614"><ele>221.00000000000003</ele><time>2026-03-27T16:23:08.32Z</time></trkpt><trkpt lat="45.6340716" lon="9.0454877"><ele>221.0</ele><time>2026-03-27T16:23:09.319Z</time></trkpt><trkpt lat="45.6340101" lon="9.0454114"><ele>221.00000000000003</ele><time>2026-03-27T16:23:10.32Z</time></trkpt><trkpt lat="45.6339493" lon="9.0453399"><ele>221.0</ele><time>2026-03-27T16:23:11.32Z</time></trkpt><trkpt lat="45.6338972" lon="9.0452732"><ele>221.0</ele><time>2026-03-27T16:23:12.32Z</time></trkpt><trkpt lat="45.6338009" lon="9.0451573"><ele>221.0</ele><time>2026-03-27T16:23:14.32Z</time></trkpt><trkpt lat="45.6337649" lon="9.0450791"><ele>221.00000000000003</ele><time>2026-03-27T16:23:15.319Z</time></trkpt><trkpt lat="45.6337559" lon="9.0449821"><ele>221.0</ele><time>2026-03-27T16:23:16.32Z</time></trkpt><trkpt lat="45.6337549" lon="9.0448787"><ele>221.00000000000003</ele><time>2026-03-27T16:23:17.32Z</time></trkpt><trkpt lat="45.6337593" lon="9.0447711"><ele>221.0</ele><time>2026-03-27T16:23:18.32Z</time></trkpt><trkpt lat="45.6337635" lon="9.0446568"><ele>221.0</ele><time>2026-03-27T16:23:19.319Z</time></trkpt><trkpt lat="45.6337697" lon="9.0445428"><ele>221.0</ele><time>2026-03-27T16:23:20.319Z</time></trkpt><trkpt lat="45.633774" lon="9.0444332"><ele>221.00000000000003</ele><time>2026-03-27T16:23:21.32Z</time></trkpt><trkpt lat="45.6337795" lon="9.0443152"><ele>221.0</ele><time>2026-03-27T16:23:22.321Z</time></trkpt><trkpt lat="45.633784" lon="9.0441957"><ele>220.60000000000002</ele><time>2026-03-27T16:23:23.32Z</time></trkpt><trkpt lat="45.6337926" lon="9.0440595"><ele>220.20000000000002</ele><time>2026-03-27T16:23:24.319Z</time></trkpt><trkpt lat="45.6338027" lon="9.0439205"><ele>219.79999999999998</ele><time>2026-03-27T16:23:25.319Z</time></trkpt><trkpt lat="45.6338132" lon="9.0437815"><ele>219.39999999999998</ele><time>2026-03-27T16:23:26.32Z</time></trkpt><trkpt lat="45.6338248" lon="9.0436453"><ele>219.0</ele><time>2026-03-27T16:23:27.319Z</time></trkpt><trkpt lat="45.6338343" lon="9.0435128"><ele>219.0</ele><time>2026-03-27T16:23:28.321Z</time></trkpt><trkpt lat="45.6338478" lon="9.043384"><ele>219.0</ele><time>2026-03-27T16:23:29.32Z</time></trkpt><trkpt lat="45.6338547" lon="9.0432669"><ele>219.0</ele><time>2026-03-27T16:23:30.32Z</time></trkpt><trkpt lat="45.6338604" lon="9.0431501"><ele>219.0</ele><time>2026-03-27T16:23:31.32Z</time></trkpt><trkpt lat="45.6338735" lon="9.0430298"><ele>219.0</ele><time>2026-03-27T16:23:32.319Z</time></trkpt><trkpt lat="45.6338796" lon="9.0429084"><ele>219.0</ele><time>2026-03-27T16:23:33.32Z</time></trkpt><trkpt lat="45.633889" lon="9.0427884"><ele>219.16666666666666</ele><time>2026-03-27T16:23:34.321Z</time></trkpt><trkpt lat="45.6339015" lon="9.0426633"><ele>219.33333333333331</ele><time>2026-03-27T16:23:35.321Z</time></trkpt><trkpt lat="45.6339112" lon="9.0425419"><ele>219.5</ele><time>2026-03-27T16:23:36.321Z</time></trkpt><trkpt lat="45.6339255" lon="9.0424177"><ele>219.66666666666666</ele><time>2026-03-27T16:23:37.32Z</time></trkpt><trkpt lat="45.633942" lon="9.0422898"><ele>219.83333333333331</ele><time>2026-03-27T16:23:38.32Z</time></trkpt><trkpt lat="45.6339488" lon="9.0421597"><ele>220.0</ele><time>2026-03-27T16:23:39.321Z</time></trkpt><trkpt lat="45.6339587" lon="9.0420358"><ele>219.99999999999997</ele><time>2026-03-27T16:23:40.321Z</time></trkpt><trkpt lat="45.633966" lon="9.041914"><ele>220.0</ele><time>2026-03-27T16:23:41.321Z</time></trkpt><trkpt lat="45.6339733" lon="9.0417918"><ele>220.0</ele><time>2026-03-27T16:23:42.32Z</time></trkpt><trkpt lat="45.6339744" lon="9.0416691"><ele>220.0</ele><time>2026-03-27T16:23:43.32Z</time></trkpt><trkpt lat="45.6339795" lon="9.0415502"><ele>219.99999999999997</ele><time>2026-03-27T16:23:44.32Z</time></trkpt><trkpt lat="45.6339815" lon="9.0414274"><ele>220.0</ele><time>2026-03-27T16:23:45.32Z</time></trkpt><trkpt lat="45.6339712" lon="9.0413041"><ele>219.99999999999997</ele><time>2026-03-27T16:23:46.321Z</time></trkpt><trkpt lat="45.6339585" lon="9.0411935"><ele>220.0</ele><time>2026-03-27T16:23:47.32Z</time></trkpt><trkpt lat="45.6339405" lon="9.0410975"><ele>220.0</ele><time>2026-03-27T16:23:48.321Z</time></trkpt><trkpt lat="45.6339134" lon="9.0410125"><ele>220.0</ele><time>2026-03-27T16:23:49.319Z</time></trkpt><trkpt lat="45.6338597" lon="9.0408626"><ele>219.99999999999997</ele><time>2026-03-27T16:23:51.32Z</time></trkpt><trkpt lat="45.6338063" lon="9.0407379"><ele>220.0</ele><time>2026-03-27T16:23:53.319Z</time></trkpt><trkpt lat="45.6337504" lon="9.0406234"><ele>219.99999999999997</ele><time>2026-03-27T16:23:55.319Z</time></trkpt><trkpt lat="45.6337022" lon="9.0404858"><ele>220.0</ele><time>2026-03-27T16:23:57.32Z</time></trkpt><trkpt lat="45.6336553" lon="9.0403445"><ele>220.0</ele><time>2026-03-27T16:23:59.321Z</time></trkpt><trkpt lat="45.6336232" lon="9.0402457"><ele>220.0</ele><time>2026-03-27T16:24:01.319Z</time></trkpt><trkpt lat="45.6336045" lon="9.0401544"><ele>219.99999999999997</ele><time>2026-03-27T16:24:06.32Z</time></trkpt><trkpt lat="45.6335895" lon="9.0400488"><ele>220.0</ele><time>2026-03-27T16:24:08.32Z</time></trkpt><trkpt lat="45.6335605" lon="9.0399558"><ele>219.99999999999997</ele><time>2026-03-27T16:24:10.32Z</time></trkpt><trkpt lat="45.633458" lon="9.039955"><ele>220.0</ele><time>2026-03-27T16:24:13.32Z</time></trkpt><trkpt lat="45.6333921" lon="9.0399745"><ele>220.0</ele><time>2026-03-27T16:24:14.32Z</time></trkpt><trkpt lat="45.6332472" lon="9.0399666"><ele>220.0</ele><time>2026-03-27T16:24:16.32Z</time></trkpt><trkpt lat="45.6331797" lon="9.039975"><ele>219.99999999999997</ele><time>2026-03-27T16:24:17.32Z</time></trkpt><trkpt lat="45.6331137" lon="9.0399749"><ele>220.0</ele><time>2026-03-27T16:24:18.319Z</time></trkpt><trkpt lat="45.6330455" lon="9.039972"><ele>219.99999999999997</ele><time>2026-03-27T16:24:19.32Z</time></trkpt><trkpt lat="45.6329729" lon="9.0399692"><ele>220.0</ele><time>2026-03-27T16:24:20.319Z</time></trkpt><trkpt lat="45.6328967" lon="9.0399647"><ele>220.0</ele><time>2026-03-27T16:24:21.319Z</time></trkpt><trkpt lat="45.6328167" lon="9.0399599"><ele>220.0</ele><time>2026-03-27T16:24:22.319Z</time></trkpt><trkpt lat="45.6327409" lon="9.0399491"><ele>219.99999999999997</ele><time>2026-03-27T16:24:23.32Z</time></trkpt><trkpt lat="45.6326461" lon="9.0399445"><ele>220.0</ele><time>2026-03-27T16:24:24.32Z</time></trkpt><trkpt lat="45.6325625" lon="9.0399415"><ele>219.4</ele><time>2026-03-27T16:24:25.319Z</time></trkpt><trkpt lat="45.6324701" lon="9.0399373"><ele>218.8</ele><time>2026-03-27T16:24:26.32Z</time></trkpt><trkpt lat="45.6323689" lon="9.0399316"><ele>218.2</ele><time>2026-03-27T16:24:27.32Z</time></trkpt><trkpt lat="45.6322694" lon="9.0399216"><ele>217.6</ele><time>2026-03-27T16:24:28.321Z</time></trkpt><trkpt lat="45.6321717" lon="9.0399103"><ele>217.0</ele><time>2026-03-27T16:24:29.32Z</time></trkpt><trkpt lat="45.6320769" lon="9.039904"><ele>217.0</ele><time>2026-03-27T16:24:30.32Z</time></trkpt><trkpt lat="45.6319881" lon="9.0399002"><ele>217.0</ele><time>2026-03-27T16:24:31.32Z</time></trkpt><trkpt lat="45.6319149" lon="9.0398955"><ele>217.0</ele><time>2026-03-27T16:24:32.321Z</time></trkpt><trkpt lat="45.6318429" lon="9.0398875"><ele>217.0</ele><time>2026-03-27T16:24:33.32Z</time></trkpt><trkpt lat="45.6317403" lon="9.0398325"><ele>217.0</ele><time>2026-03-27T16:24:35.32Z</time></trkpt><trkpt lat="45.6316554" lon="9.0396999"><ele>217.16666666666666</ele><time>2026-03-27T16:24:37.32Z</time></trkpt><trkpt lat="45.6316112" lon="9.0396077"><ele>217.33333333333331</ele><time>2026-03-27T16:24:38.321Z</time></trkpt><trkpt lat="45.6315549" lon="9.0394978"><ele>217.5</ele><time>2026-03-27T16:24:39.319Z</time></trkpt><trkpt lat="45.6315026" lon="9.0393807"><ele>217.66666666666669</ele><time>2026-03-27T16:24:40.32Z</time></trkpt><trkpt lat="45.631452" lon="9.0392757"><ele>217.83333333333334</ele><time>2026-03-27T16:24:41.32Z</time></trkpt><trkpt lat="45.6313989" lon="9.0391743"><ele>218.0</ele><time>2026-03-27T16:24:42.32Z</time></trkpt><trkpt lat="45.6313458" lon="9.0390675"><ele>218.0</ele><time>2026-03-27T16:24:43.321Z</time></trkpt><trkpt lat="45.631292" lon="9.0389646"><ele>218.0</ele><time>2026-03-27T16:24:44.32Z</time></trkpt><trkpt lat="45.6312387" lon="9.0388599"><ele>218.0</ele><time>2026-03-27T16:24:45.32Z</time></trkpt><trkpt lat="45.6311843" lon="9.0387529"><ele>218.0</ele><time>2026-03-27T16:24:46.321Z</time></trkpt><trkpt lat="45.6311307" lon="9.0386487"><ele>218.0</ele><time>2026-03-27T16:24:47.32Z</time></trkpt><trkpt lat="45.6310793" lon="9.0385439"><ele>218.00000000000003</ele><time>2026-03-27T16:24:48.32Z</time></trkpt><trkpt lat="45.6310346" lon="9.0384327"><ele>218.0</ele><time>2026-03-27T16:24:49.32Z</time></trkpt><trkpt lat="45.6309847" lon="9.0383218"><ele>218.0</ele><time>2026-03-27T16:24:50.32Z</time></trkpt><trkpt lat="45.6309436" lon="9.0382179"><ele>218.0</ele><time>2026-03-27T16:24:51.32Z</time></trkpt><trkpt lat="45.6308925" lon="9.038117"><ele>218.00000000000003</ele><time>2026-03-27T16:24:52.32Z</time></trkpt><trkpt lat="45.6308447" lon="9.0380265"><ele>218.0</ele><time>2026-03-27T16:24:53.32Z</time></trkpt><trkpt lat="45.6307905" lon="9.0379319"><ele>217.8</ele><time>2026-03-27T16:24:54.32Z</time></trkpt><trkpt lat="45.6307355" lon="9.0378276"><ele>217.60000000000002</ele><time>2026-03-27T16:24:55.32Z</time></trkpt><trkpt lat="45.630693" lon="9.0377089"><ele>217.39999999999998</ele><time>2026-03-27T16:24:56.321Z</time></trkpt><trkpt lat="45.6306604" lon="9.0375835"><ele>217.2</ele><time>2026-03-27T16:24:57.321Z</time></trkpt><trkpt lat="45.6306467" lon="9.0374533"><ele>217.0</ele><time>2026-03-27T16:24:58.32Z</time></trkpt><trkpt lat="45.6306389" lon="9.0373217"><ele>217.0</ele><time>2026-03-27T16:24:59.321Z</time></trkpt><trkpt lat="45.6306312" lon="9.0371868"><ele>217.0</ele><time>2026-03-27T16:25:00.321Z</time></trkpt><trkpt lat="45.6306276" lon="9.0370466"><ele>217.0</ele><time>2026-03-27T16:25:01.319Z</time></trkpt><trkpt lat="45.6306255" lon="9.0369116"><ele>217.0</ele><time>2026-03-27T16:25:02.32Z</time></trkpt><trkpt lat="45.6306249" lon="9.0367685"><ele>217.0</ele><time>2026-03-27T16:25:03.32Z</time></trkpt><trkpt lat="45.6306271" lon="9.0366309"><ele>216.99999999999997</ele><time>2026-03-27T16:25:04.32Z</time></trkpt><trkpt lat="45.6306274" lon="9.0364946"><ele>217.0</ele><time>2026-03-27T16:25:05.32Z</time></trkpt><trkpt lat="45.6306294" lon="9.0363596"><ele>217.0</ele><time>2026-03-27T16:25:06.32Z</time></trkpt><trkpt lat="45.6306273" lon="9.0362557"><ele>217.0</ele><time>2026-03-27T16:25:07.321Z</time></trkpt><trkpt lat="45.6306263" lon="9.0361529"><ele>216.99999999999997</ele><time>2026-03-27T16:25:08.321Z</time></trkpt><trkpt lat="45.6306246" lon="9.0359902"><ele>217.0</ele><time>2026-03-27T16:25:10.32Z</time></trkpt><trkpt lat="45.6306238" lon="9.035852"><ele>216.99999999999997</ele><time>2026-03-27T16:25:12.319Z</time></trkpt><trkpt lat="45.6306232" lon="9.0356898"><ele>217.0</ele><time>2026-03-27T16:25:14.319Z</time></trkpt><trkpt lat="45.6306223" lon="9.035596"><ele>217.0</ele><time>2026-03-27T16:25:15.318Z</time></trkpt><trkpt lat="45.630623" lon="9.0355048"><ele>217.0</ele><time>2026-03-27T16:25:16.319Z</time></trkpt><trkpt lat="45.6306245" lon="9.0353244"><ele>216.99999999999997</ele><time>2026-03-27T16:25:18.318Z</time></trkpt><trkpt lat="45.6306267" lon="9.0352277"><ele>217.0</ele><time>2026-03-27T16:25:19.32Z</time></trkpt><trkpt lat="45.6306181" lon="9.0350502"><ele>217.28571428571428</ele><time>2026-03-27T16:25:21.318Z</time></trkpt><trkpt lat="45.6306171" lon="9.0349427"><ele>217.57142857142856</ele><time>2026-03-27T16:25:22.319Z</time></trkpt><trkpt lat="45.6306158" lon="9.034829"><ele>217.85714285714286</ele><time>2026-03-27T16:25:23.319Z</time></trkpt><trkpt lat="45.6306173" lon="9.03472"><ele>218.14285714285714</ele><time>2026-03-27T16:25:24.318Z</time></trkpt><trkpt lat="45.63062" lon="9.0346121"><ele>218.42857142857142</ele><time>2026-03-27T16:25:25.318Z</time></trkpt><trkpt lat="45.6306225" lon="9.0345064"><ele>218.71428571428572</ele><time>2026-03-27T16:25:26.318Z</time></trkpt><trkpt lat="45.6306227" lon="9.0344109"><ele>219.0</ele><time>2026-03-27T16:25:27.318Z</time></trkpt><trkpt lat="45.6306254" lon="9.0342355"><ele>218.83333333333334</ele><time>2026-03-27T16:25:29.318Z</time></trkpt><trkpt lat="45.6306176" lon="9.0340937"><ele>218.66666666666669</ele><time>2026-03-27T16:25:31.319Z</time></trkpt><trkpt lat="45.6306143" lon="9.0339752"><ele>218.5</ele><time>2026-03-27T16:25:33.318Z</time></trkpt><trkpt lat="45.630572" lon="9.0338945"><ele>218.33333333333334</ele><time>2026-03-27T16:25:35.319Z</time></trkpt><trkpt lat="45.630486" lon="9.0338932"><ele>218.16666666666669</ele><time>2026-03-27T16:25:37.32Z</time></trkpt><trkpt lat="45.6303885" lon="9.0338803"><ele>218.0</ele><time>2026-03-27T16:25:39.32Z</time></trkpt><trkpt lat="45.6303196" lon="9.0338571"><ele>218.2</ele><time>2026-03-27T16:25:41.319Z</time></trkpt><trkpt lat="45.6302574" lon="9.0338267"><ele>218.4</ele><time>2026-03-27T16:25:42.319Z</time></trkpt><trkpt lat="45.6301736" lon="9.033787"><ele>218.59999999999997</ele><time>2026-03-27T16:25:44.319Z</time></trkpt><trkpt lat="45.6300907" lon="9.0337387"><ele>218.79999999999998</ele><time>2026-03-27T16:25:46.318Z</time></trkpt><trkpt lat="45.6299921" lon="9.0336844"><ele>219.0</ele><time>2026-03-27T16:25:47.319Z</time></trkpt><trkpt lat="45.6298926" lon="9.0336382"><ele>219.0</ele><time>2026-03-27T16:25:48.318Z</time></trkpt><trkpt lat="45.629817" lon="9.0336157"><ele>219.0</ele><time>2026-03-27T16:25:49.319Z</time></trkpt><trkpt lat="45.6297372" lon="9.0335937"><ele>219.0</ele><time>2026-03-27T16:25:50.318Z</time></trkpt><trkpt lat="45.6296588" lon="9.0335655"><ele>219.0</ele><time>2026-03-27T16:25:51.319Z</time></trkpt><trkpt lat="45.6295278" lon="9.0335472"><ele>219.0</ele><time>2026-03-27T16:25:53.319Z</time></trkpt><trkpt lat="45.6294556" lon="9.0335194"><ele>219.0</ele><time>2026-03-27T16:25:54.319Z</time></trkpt><trkpt lat="45.6293874" lon="9.0334931"><ele>219.0</ele><time>2026-03-27T16:25:55.319Z</time></trkpt><trkpt lat="45.6292727" lon="9.0334712"><ele>219.0</ele><time>2026-03-27T16:25:57.32Z</time></trkpt><trkpt lat="45.6291995" lon="9.0334478"><ele>219.0</ele><time>2026-03-27T16:25:59.319Z</time></trkpt><trkpt lat="45.6291269" lon="9.0334812"><ele>219.0</ele><time>2026-03-27T16:26:04.319Z</time></trkpt><trkpt lat="45.6290411" lon="9.0334756"><ele>219.0</ele><time>2026-03-27T16:26:07.319Z</time></trkpt><trkpt lat="45.6289858" lon="9.0334288"><ele>219.0</ele><time>2026-03-27T16:26:09.32Z</time></trkpt><trkpt lat="45.6289665" lon="9.0332862"><ele>218.83333333333334</ele><time>2026-03-27T16:26:12.319Z</time></trkpt><trkpt lat="45.6289789" lon="9.0331019"><ele>218.66666666666669</ele><time>2026-03-27T16:26:14.319Z</time></trkpt><trkpt lat="45.6289887" lon="9.0330026"><ele>218.5</ele><time>2026-03-27T16:26:15.319Z</time></trkpt><trkpt lat="45.6289959" lon="9.0328993"><ele>218.33333333333334</ele><time>2026-03-27T16:26:16.319Z</time></trkpt><trkpt lat="45.6290063" lon="9.0327956"><ele>218.16666666666669</ele><time>2026-03-27T16:26:17.319Z</time></trkpt><trkpt lat="45.6290185" lon="9.0326893"><ele>218.0</ele><time>2026-03-27T16:26:18.318Z</time></trkpt><trkpt lat="45.629029" lon="9.0325785"><ele>217.83333333333334</ele><time>2026-03-27T16:26:19.319Z</time></trkpt><trkpt lat="45.6290447" lon="9.0324654"><ele>217.66666666666669</ele><time>2026-03-27T16:26:20.319Z</time></trkpt><trkpt lat="45.629055" lon="9.03235"><ele>217.5</ele><time>2026-03-27T16:26:21.318Z</time></trkpt><trkpt lat="45.6290694" lon="9.0322352"><ele>217.33333333333331</ele><time>2026-03-27T16:26:22.319Z</time></trkpt><trkpt lat="45.6290839" lon="9.0321214"><ele>217.16666666666666</ele><time>2026-03-27T16:26:23.319Z</time></trkpt><trkpt lat="45.6290948" lon="9.0320083"><ele>217.0</ele><time>2026-03-27T16:26:24.319Z</time></trkpt><trkpt lat="45.6291028" lon="9.0318935"><ele>217.0</ele><time>2026-03-27T16:26:25.32Z</time></trkpt><trkpt lat="45.6291073" lon="9.0317846"><ele>217.0</ele><time>2026-03-27T16:26:26.319Z</time></trkpt><trkpt lat="45.6291178" lon="9.0316345"><ele>217.0</ele><time>2026-03-27T16:26:27.318Z</time></trkpt><trkpt lat="45.629128" lon="9.031503"><ele>217.0</ele><time>2026-03-27T16:26:28.319Z</time></trkpt><trkpt lat="45.6291386" lon="9.0313742"><ele>217.0</ele><time>2026-03-27T16:26:29.318Z</time></trkpt><trkpt lat="45.6291479" lon="9.0312527"><ele>217.16666666666666</ele><time>2026-03-27T16:26:30.32Z</time></trkpt><trkpt lat="45.6291595" lon="9.0311369"><ele>217.33333333333331</ele><time>2026-03-27T16:26:31.319Z</time></trkpt><trkpt lat="45.6291703" lon="9.0310204"><ele>217.5</ele><time>2026-03-27T16:26:32.319Z</time></trkpt><trkpt lat="45.6291786" lon="9.0309022"><ele>217.66666666666669</ele><time>2026-03-27T16:26:33.319Z</time></trkpt><trkpt lat="45.6291907" lon="9.030791"><ele>217.83333333333334</ele><time>2026-03-27T16:26:34.319Z</time></trkpt><trkpt lat="45.6291976" lon="9.0306788"><ele>218.0</ele><time>2026-03-27T16:26:35.319Z</time></trkpt><trkpt lat="45.6292042" lon="9.0305777"><ele>218.4</ele><time>2026-03-27T16:26:36.319Z</time></trkpt><trkpt lat="45.6292118" lon="9.0304805"><ele>218.8</ele><time>2026-03-27T16:26:37.319Z</time></trkpt><trkpt lat="45.6292254" lon="9.0303342"><ele>219.2</ele><time>2026-03-27T16:26:39.319Z</time></trkpt><trkpt lat="45.6292503" lon="9.0302207"><ele>219.6</ele><time>2026-03-27T16:26:41.319Z</time></trkpt><trkpt lat="45.6293367" lon="9.0301638"><ele>220.0</ele><time>2026-03-27T16:26:43.319Z</time></trkpt><trkpt lat="45.6294645" lon="9.0301862"><ele>219.99999999999997</ele><time>2026-03-27T16:26:45.318Z</time></trkpt><trkpt lat="45.6295276" lon="9.030192"><ele>220.0</ele><time>2026-03-27T16:26:46.319Z</time></trkpt><trkpt lat="45.6296132" lon="9.0301146"><ele>220.0</ele><time>2026-03-27T16:26:48.32Z</time></trkpt><trkpt lat="45.6295859" lon="9.0300059"><ele>220.0</ele><time>2026-03-27T16:26:50.319Z</time></trkpt><trkpt lat="45.6295285" lon="9.0299302"><ele>219.99999999999997</ele><time>2026-03-27T16:26:52.32Z</time></trkpt><trkpt lat="45.6294306" lon="9.029898"><ele>220.0</ele><time>2026-03-27T16:26:54.319Z</time></trkpt><trkpt lat="45.6293343" lon="9.0299498"><ele>220.0</ele><time>2026-03-27T16:26:56.319Z</time></trkpt><trkpt lat="45.6292578" lon="9.0300007"><ele>220.0</ele><time>2026-03-27T16:26:58.318Z</time></trkpt><trkpt lat="45.6291838" lon="9.0300188"><ele>220.0</ele><time>2026-03-27T16:27:00.319Z</time></trkpt><trkpt lat="45.6290934" lon="9.0299695"><ele>220.0</ele><time>2026-03-27T16:27:07.318Z</time></trkpt><trkpt lat="45.6290212" lon="9.0299318"><ele>220.0</ele><time>2026-03-27T16:27:10.319Z</time></trkpt><trkpt lat="45.6288468" lon="9.0298667"><ele>219.99999999999997</ele><time>2026-03-27T16:27:12.319Z</time></trkpt><trkpt lat="45.6287804" lon="9.0298719"><ele>220.0</ele><time>2026-03-27T16:27:13.319Z</time></trkpt><trkpt lat="45.6287039" lon="9.0298727"><ele>220.0</ele><time>2026-03-27T16:27:14.319Z</time></trkpt><trkpt lat="45.6286313" lon="9.0298383"><ele>220.0</ele><time>2026-03-27T16:27:16.319Z</time></trkpt><trkpt lat="45.6285671" lon="9.0299086"><ele>219.99999999999997</ele><time>2026-03-27T16:27:18.319Z</time></trkpt><trkpt lat="45.6284936" lon="9.0299597"><ele>220.0</ele><time>2026-03-27T16:27:21.319Z</time></trkpt><trkpt lat="45.6284249" lon="9.029994"><ele>219.49999999999997</ele><time>2026-03-27T16:27:24.319Z</time></trkpt><trkpt lat="45.6283858" lon="9.030068"><ele>219.0</ele><time>2026-03-27T16:27:26.319Z</time></trkpt><trkpt lat="45.628359" lon="9.0301873"><ele>218.5</ele><time>2026-03-27T16:27:29.319Z</time></trkpt><trkpt lat="45.6283221" lon="9.0302709"><ele>218.0</ele><time>2026-03-27T16:27:31.319Z</time></trkpt><trkpt lat="45.6282952" lon="9.0303547"><ele>217.49999999999997</ele><time>2026-03-27T16:27:33.319Z</time></trkpt><trkpt lat="45.628289" lon="9.0304952"><ele>217.0</ele><time>2026-03-27T16:27:36.319Z</time></trkpt><trkpt lat="45.6279862" lon="9.0307732"><ele>216.99999999999997</ele><time>2026-03-27T16:27:56.318Z</time></trkpt><trkpt lat="45.62792" lon="9.0308134"><ele>217.0</ele><time>2026-03-27T16:27:59.32Z</time></trkpt><trkpt lat="45.627968" lon="9.0307527"><ele>217.0</ele><time>2026-03-27T16:28:44.319Z</time></trkpt><trkpt lat="45.6279418" lon="9.0308398"><ele>217.0</ele><time>2026-03-27T16:28:56.319Z</time></trkpt><trkpt lat="45.6279195" lon="9.0307529"><ele>216.99999999999997</ele><time>2026-03-27T16:29:20.318Z</time></trkpt><trkpt lat="45.6278568" lon="9.0307443"><ele>217.0</ele><time>2026-03-27T16:30:00.319Z</time></trkpt><trkpt lat="45.6280057" lon="9.0305444"><ele>217.0</ele><time>2026-03-27T16:32:03.319Z</time></trkpt><trkpt lat="45.6281029" lon="9.0305213"><ele>217.0</ele><time>2026-03-27T16:32:30.19Z</time></trkpt><trkpt lat="45.6281208" lon="9.030424"><ele>217.0</ele><time>2026-03-27T16:32:55.488Z</time></trkpt><trkpt lat="45.6279544" lon="9.0306046"><ele>217.0</ele><time>2026-03-27T16:35:25.317Z</time></trkpt><trkpt lat="45.6279989" lon="9.0305268"><ele>217.0</ele><time>2026-03-27T16:35:54.317Z</time></trkpt><trkpt lat="45.6279518" lon="9.030604"><ele>217.0</ele><time>2026-03-27T16:36:15.316Z</time></trkpt><trkpt lat="45.6278875" lon="9.0306043"><ele>217.0</ele><time>2026-03-27T16:36:48.318Z</time></trkpt><trkpt lat="45.6278779" lon="9.0306943"><ele>217.0</ele><time>2026-03-27T16:40:22.315Z</time></trkpt><trkpt lat="45.6278876" lon="9.0307838"><ele>217.0</ele><time>2026-03-27T16:40:29.316Z</time></trkpt><trkpt lat="45.6279244" lon="9.0308612"><ele>217.0</ele><time>2026-03-27T16:40:33.316Z</time></trkpt><trkpt lat="45.6278638" lon="9.0307175"><ele>217.0</ele><time>2026-03-27T16:40:57.315Z</time></trkpt><trkpt lat="45.6278115" lon="9.0306479"><ele>217.0</ele><time>2026-03-27T16:40:59.316Z</time></trkpt><trkpt lat="45.6278627" lon="9.0307031"><ele>217.0</ele><time>2026-03-27T16:41:36.315Z</time></trkpt><trkpt lat="45.6278788" lon="9.0307942"><ele>217.0</ele><time>2026-03-27T16:42:19.315Z</time></trkpt><trkpt lat="45.6278335" lon="9.0308594"><ele>217.0</ele><time>2026-03-27T16:57:55.312Z</time></trkpt><trkpt lat="45.6277712" lon="9.0308733"><ele>217.0</ele><time>2026-03-27T16:58:06.312Z</time></trkpt><trkpt lat="45.6277073" lon="9.0308722"><ele>217.0</ele><time>2026-03-27T16:58:32.312Z</time></trkpt><trkpt lat="45.6276373" lon="9.0308686"><ele>217.0</ele><time>2026-03-27T16:59:57.312Z</time></trkpt><trkpt lat="45.6277423" lon="9.0308688"><ele>217.0</ele><time>2026-03-27T17:00:31.312Z</time></trkpt><trkpt lat="45.6278171" lon="9.0308657"><ele>217.14285714285714</ele><time>2026-03-27T17:00:32.312Z</time></trkpt><trkpt lat="45.627871" lon="9.0308187"><ele>217.28571428571428</ele><time>2026-03-27T17:01:58.311Z</time></trkpt><trkpt lat="45.6278145" lon="9.0308623"><ele>217.42857142857144</ele><time>2026-03-27T17:02:15.313Z</time></trkpt><trkpt lat="45.6277497" lon="9.0308577"><ele>217.57142857142856</ele><time>2026-03-27T17:02:48.312Z</time></trkpt><trkpt lat="45.6278134" lon="9.0308585"><ele>217.71428571428572</ele><time>2026-03-27T17:03:36.31Z</time></trkpt><trkpt lat="45.6277498" lon="9.0308364"><ele>217.85714285714286</ele><time>2026-03-27T17:16:40.262Z</time></trkpt><trkpt lat="45.6276754" lon="9.0308935"><ele>218.0</ele><time>2026-03-27T17:16:42.245Z</time></trkpt><trkpt lat="45.6276112" lon="9.0308994"><ele>217.60000000000002</ele><time>2026-03-27T17:16:45.164Z</time></trkpt><trkpt lat="45.6275484" lon="9.03094"><ele>217.20000000000002</ele><time>2026-03-27T17:16:51.305Z</time></trkpt><trkpt lat="45.6276689" lon="9.0308135"><ele>216.8</ele><time>2026-03-27T17:16:54.308Z</time></trkpt><trkpt lat="45.6277148" lon="9.0307234"><ele>216.4</ele><time>2026-03-27T17:16:55.308Z</time></trkpt><trkpt lat="45.6277637" lon="9.0306073"><ele>216.0</ele><time>2026-03-27T17:16:57.302Z</time></trkpt><trkpt lat="45.6277932" lon="9.030519"><ele>216.16666666666666</ele><time>2026-03-27T17:16:59.225Z</time></trkpt><trkpt lat="45.6278275" lon="9.0304184"><ele>216.33333333333331</ele><time>2026-03-27T17:17:00.264Z</time></trkpt><trkpt lat="45.6278344" lon="9.0303188"><ele>216.5</ele><time>2026-03-27T17:17:04.218Z</time></trkpt><trkpt lat="45.6278514" lon="9.0302317"><ele>216.66666666666666</ele><time>2026-03-27T17:17:09.275Z</time></trkpt><trkpt lat="45.6279301" lon="9.030197"><ele>216.83333333333331</ele><time>2026-03-27T17:17:31.915Z</time></trkpt><trkpt lat="45.628014" lon="9.0302617"><ele>217.0</ele><time>2026-03-27T17:18:14.307Z</time></trkpt><trkpt lat="45.6280843" lon="9.0302555"><ele>217.0</ele><time>2026-03-27T17:18:41.307Z</time></trkpt><trkpt lat="45.628138" lon="9.030203"><ele>217.0</ele><time>2026-03-27T17:18:42.309Z</time></trkpt><trkpt lat="45.6282017" lon="9.0301843"><ele>217.0</ele><time>2026-03-27T17:18:45.308Z</time></trkpt><trkpt lat="45.6281706" lon="9.0302684"><ele>217.0</ele><time>2026-03-27T17:19:05.365Z</time></trkpt><trkpt lat="45.6281369" lon="9.0303537"><ele>217.0</ele><time>2026-03-27T17:19:11.308Z</time></trkpt><trkpt lat="45.6280721" lon="9.0303693"><ele>217.0</ele><time>2026-03-27T17:19:15.309Z</time></trkpt><trkpt lat="45.6280568" lon="9.0302802"><ele>217.0</ele><time>2026-03-27T17:19:54.308Z</time></trkpt><trkpt lat="45.6281243" lon="9.0302354"><ele>217.0</ele><time>2026-03-27T17:20:05.307Z</time></trkpt><trkpt lat="45.6282054" lon="9.0300948"><ele>217.0</ele><time>2026-03-27T17:21:31.307Z</time></trkpt><trkpt lat="45.6282269" lon="9.030251"><ele>217.0</ele><time>2026-03-27T17:21:32.307Z</time></trkpt><trkpt lat="45.6281724" lon="9.0301918"><ele>217.0</ele><time>2026-03-27T17:21:52.307Z</time></trkpt><trkpt lat="45.628106" lon="9.0302134"><ele>217.0</ele><time>2026-03-27T17:22:00.308Z</time></trkpt><trkpt lat="45.6280677" lon="9.0303196"><ele>217.0</ele><time>2026-03-27T17:38:01.302Z</time></trkpt></trkseg></trk></gpx>